<?xml version="1.0" encoding="UTF-8" standalone="no" ?>
<gpx xmlns="http://www.topografix.com/GPX/1/1" xmlns:xsi="http://www.w3.org/2001/XMLSchema-instance" xsi:schemaLocation="http://www.topografix.com/GPX/1/1 http://www.topografix.com/GPX/1/1/gpx.xsd" version="1.1" creator="VisuGPX - https://www.visugpx.com">
  <metadata>
    <name>Pont de la Chaux-Le tour du Mt des Ifs-Chatelneuf...</name>
  </metadata>
  <trk>
    <name><![CDATA[Pont de la Chaux-Le tour du Mt des Ifs-Chatelneuf..._1]]></name>
    <extensions>
      <line xmlns="http://www.topografix.com/GPX/gpx_style/0/2">
        <color>0000FF</color>
        <width>4</width>
      </line>
    </extensions>
    <trkseg>
      <trkpt lat="46.65451" lon="5.94022">
        <ele>721.8</ele>
        <time>2022-03-22T07:48:35Z</time>
      </trkpt>
      <trkpt lat="46.65446" lon="5.94023">
        <ele>716.5</ele>
        <time>2022-03-22T07:49:03Z</time>
      </trkpt>
      <trkpt lat="46.65442" lon="5.94027">
        <ele>716.6</ele>
        <time>2022-03-22T07:49:07Z</time>
      </trkpt>
      <trkpt lat="46.65438" lon="5.94033">
        <ele>717.5</ele>
        <time>2022-03-22T07:49:13Z</time>
      </trkpt>
      <trkpt lat="46.65433" lon="5.94034">
        <ele>719.2</ele>
        <time>2022-03-22T07:49:21Z</time>
      </trkpt>
      <trkpt lat="46.6543" lon="5.94029">
        <ele>719.7</ele>
        <time>2022-03-22T07:49:26Z</time>
      </trkpt>
      <trkpt lat="46.65426" lon="5.94025">
        <ele>720.2</ele>
        <time>2022-03-22T07:49:32Z</time>
      </trkpt>
      <trkpt lat="46.65422" lon="5.9402">
        <ele>720.8</ele>
        <time>2022-03-22T07:49:38Z</time>
      </trkpt>
      <trkpt lat="46.65419" lon="5.94016">
        <ele>721</ele>
        <time>2022-03-22T07:49:44Z</time>
      </trkpt>
      <trkpt lat="46.65414" lon="5.94013">
        <ele>720.8</ele>
        <time>2022-03-22T07:49:49Z</time>
      </trkpt>
      <trkpt lat="46.65411" lon="5.94007">
        <ele>720.8</ele>
        <time>2022-03-22T07:49:55Z</time>
      </trkpt>
      <trkpt lat="46.6541" lon="5.94">
        <ele>720.9</ele>
        <time>2022-03-22T07:50:00Z</time>
      </trkpt>
      <trkpt lat="46.65405" lon="5.93996">
        <ele>720.3</ele>
        <time>2022-03-22T07:50:07Z</time>
      </trkpt>
      <trkpt lat="46.65402" lon="5.93991">
        <ele>720.5</ele>
        <time>2022-03-22T07:50:14Z</time>
      </trkpt>
      <trkpt lat="46.65399" lon="5.93985">
        <ele>721.1</ele>
        <time>2022-03-22T07:50:20Z</time>
      </trkpt>
      <trkpt lat="46.65396" lon="5.93979">
        <ele>721.9</ele>
        <time>2022-03-22T07:50:28Z</time>
      </trkpt>
      <trkpt lat="46.65392" lon="5.93973">
        <ele>722.1</ele>
        <time>2022-03-22T07:50:34Z</time>
      </trkpt>
      <trkpt lat="46.65388" lon="5.93969">
        <ele>722.2</ele>
        <time>2022-03-22T07:50:40Z</time>
      </trkpt>
      <trkpt lat="46.65385" lon="5.93964">
        <ele>722.2</ele>
        <time>2022-03-22T07:50:44Z</time>
      </trkpt>
      <trkpt lat="46.65381" lon="5.93959">
        <ele>722.1</ele>
        <time>2022-03-22T07:50:49Z</time>
      </trkpt>
      <trkpt lat="46.65376" lon="5.93956">
        <ele>722</ele>
        <time>2022-03-22T07:50:54Z</time>
      </trkpt>
      <trkpt lat="46.65373" lon="5.9395">
        <ele>721.9</ele>
        <time>2022-03-22T07:50:59Z</time>
      </trkpt>
      <trkpt lat="46.65371" lon="5.93943">
        <ele>721.4</ele>
        <time>2022-03-22T07:51:05Z</time>
      </trkpt>
      <trkpt lat="46.65369" lon="5.93936">
        <ele>721.3</ele>
        <time>2022-03-22T07:51:10Z</time>
      </trkpt>
      <trkpt lat="46.65365" lon="5.93932">
        <ele>721.4</ele>
        <time>2022-03-22T07:51:16Z</time>
      </trkpt>
      <trkpt lat="46.65361" lon="5.93928">
        <ele>721.1</ele>
        <time>2022-03-22T07:51:20Z</time>
      </trkpt>
      <trkpt lat="46.65357" lon="5.93925">
        <ele>720.8</ele>
        <time>2022-03-22T07:51:24Z</time>
      </trkpt>
      <trkpt lat="46.65353" lon="5.9392">
        <ele>720.6</ele>
        <time>2022-03-22T07:51:28Z</time>
      </trkpt>
      <trkpt lat="46.6535" lon="5.93915">
        <ele>720.3</ele>
        <time>2022-03-22T07:51:33Z</time>
      </trkpt>
      <trkpt lat="46.65346" lon="5.93911">
        <ele>715.9</ele>
        <time>2022-03-22T07:52:02Z</time>
      </trkpt>
      <trkpt lat="46.65343" lon="5.93906">
        <ele>715.4</ele>
        <time>2022-03-22T07:52:06Z</time>
      </trkpt>
      <trkpt lat="46.65339" lon="5.93901">
        <ele>715.1</ele>
        <time>2022-03-22T07:52:10Z</time>
      </trkpt>
      <trkpt lat="46.65335" lon="5.93897">
        <ele>715</ele>
        <time>2022-03-22T07:52:13Z</time>
      </trkpt>
      <trkpt lat="46.6533" lon="5.93892">
        <ele>715</ele>
        <time>2022-03-22T07:52:17Z</time>
      </trkpt>
      <trkpt lat="46.65326" lon="5.93887">
        <ele>715.1</ele>
        <time>2022-03-22T07:52:21Z</time>
      </trkpt>
      <trkpt lat="46.65322" lon="5.93882">
        <ele>715</ele>
        <time>2022-03-22T07:52:25Z</time>
      </trkpt>
      <trkpt lat="46.65319" lon="5.93877">
        <ele>714.7</ele>
        <time>2022-03-22T07:52:29Z</time>
      </trkpt>
      <trkpt lat="46.65315" lon="5.93872">
        <ele>714.1</ele>
        <time>2022-03-22T07:52:32Z</time>
      </trkpt>
      <trkpt lat="46.65311" lon="5.93867">
        <ele>713</ele>
        <time>2022-03-22T07:52:36Z</time>
      </trkpt>
      <trkpt lat="46.65307" lon="5.93864">
        <ele>712</ele>
        <time>2022-03-22T07:52:40Z</time>
      </trkpt>
      <trkpt lat="46.65302" lon="5.9386">
        <ele>711</ele>
        <time>2022-03-22T07:52:45Z</time>
      </trkpt>
      <trkpt lat="46.65297" lon="5.93857">
        <ele>710</ele>
        <time>2022-03-22T07:52:50Z</time>
      </trkpt>
      <trkpt lat="46.65293" lon="5.93855">
        <ele>709.4</ele>
        <time>2022-03-22T07:52:54Z</time>
      </trkpt>
      <trkpt lat="46.65288" lon="5.93852">
        <ele>709.2</ele>
        <time>2022-03-22T07:52:58Z</time>
      </trkpt>
      <trkpt lat="46.65284" lon="5.93848">
        <ele>709.1</ele>
        <time>2022-03-22T07:53:02Z</time>
      </trkpt>
      <trkpt lat="46.6528" lon="5.93845">
        <ele>709.1</ele>
        <time>2022-03-22T07:53:06Z</time>
      </trkpt>
      <trkpt lat="46.65275" lon="5.93842">
        <ele>709.1</ele>
        <time>2022-03-22T07:53:10Z</time>
      </trkpt>
      <trkpt lat="46.6527" lon="5.9384">
        <ele>708.9</ele>
        <time>2022-03-22T07:53:14Z</time>
      </trkpt>
      <trkpt lat="46.65265" lon="5.93838">
        <ele>708.6</ele>
        <time>2022-03-22T07:53:20Z</time>
      </trkpt>
      <trkpt lat="46.6526" lon="5.93835">
        <ele>708.2</ele>
        <time>2022-03-22T07:53:26Z</time>
      </trkpt>
      <trkpt lat="46.65256" lon="5.93832">
        <ele>707.7</ele>
        <time>2022-03-22T07:53:32Z</time>
      </trkpt>
      <trkpt lat="46.65252" lon="5.93828">
        <ele>706.8</ele>
        <time>2022-03-22T07:53:39Z</time>
      </trkpt>
      <trkpt lat="46.65248" lon="5.93824">
        <ele>706.1</ele>
        <time>2022-03-22T07:53:43Z</time>
      </trkpt>
      <trkpt lat="46.65244" lon="5.9382">
        <ele>705.4</ele>
        <time>2022-03-22T07:53:47Z</time>
      </trkpt>
      <trkpt lat="46.6524" lon="5.93816">
        <ele>704.6</ele>
        <time>2022-03-22T07:53:51Z</time>
      </trkpt>
      <trkpt lat="46.65235" lon="5.93813">
        <ele>703.8</ele>
        <time>2022-03-22T07:53:54Z</time>
      </trkpt>
      <trkpt lat="46.65231" lon="5.93809">
        <ele>703.5</ele>
        <time>2022-03-22T07:53:57Z</time>
      </trkpt>
      <trkpt lat="46.65227" lon="5.93805">
        <ele>703.5</ele>
        <time>2022-03-22T07:54:00Z</time>
      </trkpt>
      <trkpt lat="46.65223" lon="5.93801">
        <ele>703.6</ele>
        <time>2022-03-22T07:54:04Z</time>
      </trkpt>
      <trkpt lat="46.65219" lon="5.93797">
        <ele>704.2</ele>
        <time>2022-03-22T07:54:08Z</time>
      </trkpt>
      <trkpt lat="46.65216" lon="5.93791">
        <ele>704.9</ele>
        <time>2022-03-22T07:54:13Z</time>
      </trkpt>
      <trkpt lat="46.65211" lon="5.93787">
        <ele>705.3</ele>
        <time>2022-03-22T07:54:19Z</time>
      </trkpt>
      <trkpt lat="46.65206" lon="5.93782">
        <ele>705.3</ele>
        <time>2022-03-22T07:54:24Z</time>
      </trkpt>
      <trkpt lat="46.65201" lon="5.9378">
        <ele>705.8</ele>
        <time>2022-03-22T07:54:29Z</time>
      </trkpt>
      <trkpt lat="46.65196" lon="5.93779">
        <ele>706.2</ele>
        <time>2022-03-22T07:54:33Z</time>
      </trkpt>
      <trkpt lat="46.65191" lon="5.93777">
        <ele>706.4</ele>
        <time>2022-03-22T07:54:37Z</time>
      </trkpt>
      <trkpt lat="46.65187" lon="5.93774">
        <ele>706.3</ele>
        <time>2022-03-22T07:54:43Z</time>
      </trkpt>
      <trkpt lat="46.65184" lon="5.93769">
        <ele>705.5</ele>
        <time>2022-03-22T07:54:50Z</time>
      </trkpt>
      <trkpt lat="46.65181" lon="5.93763">
        <ele>704.7</ele>
        <time>2022-03-22T07:54:57Z</time>
      </trkpt>
      <trkpt lat="46.65177" lon="5.93758">
        <ele>703.9</ele>
        <time>2022-03-22T07:55:03Z</time>
      </trkpt>
      <trkpt lat="46.65174" lon="5.93752">
        <ele>703.9</ele>
        <time>2022-03-22T07:55:06Z</time>
      </trkpt>
      <trkpt lat="46.65172" lon="5.93746">
        <ele>704.1</ele>
        <time>2022-03-22T07:55:09Z</time>
      </trkpt>
      <trkpt lat="46.65169" lon="5.9374">
        <ele>704.3</ele>
        <time>2022-03-22T07:55:12Z</time>
      </trkpt>
      <trkpt lat="46.65167" lon="5.93734">
        <ele>704.6</ele>
        <time>2022-03-22T07:55:17Z</time>
      </trkpt>
      <trkpt lat="46.65163" lon="5.93727">
        <ele>704.8</ele>
        <time>2022-03-22T07:55:21Z</time>
      </trkpt>
      <trkpt lat="46.65161" lon="5.93721">
        <ele>705.4</ele>
        <time>2022-03-22T07:55:24Z</time>
      </trkpt>
      <trkpt lat="46.65157" lon="5.93715">
        <ele>706.8</ele>
        <time>2022-03-22T07:55:28Z</time>
      </trkpt>
      <trkpt lat="46.65153" lon="5.9371">
        <ele>709</ele>
        <time>2022-03-22T07:55:33Z</time>
      </trkpt>
      <trkpt lat="46.65149" lon="5.93704">
        <ele>711</ele>
        <time>2022-03-22T07:55:38Z</time>
      </trkpt>
      <trkpt lat="46.65146" lon="5.93698">
        <ele>712.2</ele>
        <time>2022-03-22T07:55:42Z</time>
      </trkpt>
      <trkpt lat="46.65142" lon="5.93693">
        <ele>713.3</ele>
        <time>2022-03-22T07:55:46Z</time>
      </trkpt>
      <trkpt lat="46.65139" lon="5.93688">
        <ele>714.3</ele>
        <time>2022-03-22T07:55:50Z</time>
      </trkpt>
      <trkpt lat="46.65136" lon="5.93683">
        <ele>715.3</ele>
        <time>2022-03-22T07:55:55Z</time>
      </trkpt>
      <trkpt lat="46.65132" lon="5.93677">
        <ele>716</ele>
        <time>2022-03-22T07:56:00Z</time>
      </trkpt>
      <trkpt lat="46.65129" lon="5.93672">
        <ele>716.3</ele>
        <time>2022-03-22T07:56:04Z</time>
      </trkpt>
      <trkpt lat="46.65126" lon="5.93666">
        <ele>716.3</ele>
        <time>2022-03-22T07:56:08Z</time>
      </trkpt>
      <trkpt lat="46.65123" lon="5.93661">
        <ele>716.3</ele>
        <time>2022-03-22T07:56:12Z</time>
      </trkpt>
      <trkpt lat="46.6512" lon="5.93656">
        <ele>716.1</ele>
        <time>2022-03-22T07:56:16Z</time>
      </trkpt>
      <trkpt lat="46.65116" lon="5.93652">
        <ele>715.8</ele>
        <time>2022-03-22T07:56:20Z</time>
      </trkpt>
      <trkpt lat="46.65111" lon="5.93648">
        <ele>715.5</ele>
        <time>2022-03-22T07:56:25Z</time>
      </trkpt>
      <trkpt lat="46.65106" lon="5.93648">
        <ele>715.6</ele>
        <time>2022-03-22T07:56:29Z</time>
      </trkpt>
      <trkpt lat="46.65101" lon="5.93647">
        <ele>716.2</ele>
        <time>2022-03-22T07:56:34Z</time>
      </trkpt>
      <trkpt lat="46.65097" lon="5.93648">
        <ele>716.9</ele>
        <time>2022-03-22T07:56:39Z</time>
      </trkpt>
      <trkpt lat="46.65091" lon="5.93649">
        <ele>718.3</ele>
        <time>2022-03-22T07:56:44Z</time>
      </trkpt>
      <trkpt lat="46.65086" lon="5.93652">
        <ele>719.3</ele>
        <time>2022-03-22T07:56:49Z</time>
      </trkpt>
      <trkpt lat="46.65082" lon="5.93655">
        <ele>720</ele>
        <time>2022-03-22T07:56:53Z</time>
      </trkpt>
      <trkpt lat="46.65078" lon="5.93657">
        <ele>720.6</ele>
        <time>2022-03-22T07:56:57Z</time>
      </trkpt>
      <trkpt lat="46.65072" lon="5.93656">
        <ele>721.3</ele>
        <time>2022-03-22T07:57:02Z</time>
      </trkpt>
      <trkpt lat="46.65067" lon="5.93653">
        <ele>721.8</ele>
        <time>2022-03-22T07:57:06Z</time>
      </trkpt>
      <trkpt lat="46.65062" lon="5.93652">
        <ele>722.3</ele>
        <time>2022-03-22T07:57:09Z</time>
      </trkpt>
      <trkpt lat="46.65057" lon="5.93651">
        <ele>723.2</ele>
        <time>2022-03-22T07:57:13Z</time>
      </trkpt>
      <trkpt lat="46.65051" lon="5.93649">
        <ele>724.1</ele>
        <time>2022-03-22T07:57:17Z</time>
      </trkpt>
      <trkpt lat="46.65046" lon="5.93646">
        <ele>725.3</ele>
        <time>2022-03-22T07:57:22Z</time>
      </trkpt>
      <trkpt lat="46.65043" lon="5.93641">
        <ele>726.8</ele>
        <time>2022-03-22T07:57:27Z</time>
      </trkpt>
      <trkpt lat="46.65038" lon="5.93637">
        <ele>728.3</ele>
        <time>2022-03-22T07:57:32Z</time>
      </trkpt>
      <trkpt lat="46.65034" lon="5.93634">
        <ele>729.3</ele>
        <time>2022-03-22T07:57:37Z</time>
      </trkpt>
      <trkpt lat="46.65029" lon="5.93631">
        <ele>730.4</ele>
        <time>2022-03-22T07:57:42Z</time>
      </trkpt>
      <trkpt lat="46.65024" lon="5.93629">
        <ele>731.2</ele>
        <time>2022-03-22T07:57:47Z</time>
      </trkpt>
      <trkpt lat="46.65019" lon="5.9363">
        <ele>732.1</ele>
        <time>2022-03-22T07:57:51Z</time>
      </trkpt>
      <trkpt lat="46.65014" lon="5.93631">
        <ele>732.5</ele>
        <time>2022-03-22T07:57:55Z</time>
      </trkpt>
      <trkpt lat="46.65009" lon="5.93632">
        <ele>733.3</ele>
        <time>2022-03-22T07:58:01Z</time>
      </trkpt>
      <trkpt lat="46.65004" lon="5.93635">
        <ele>734.1</ele>
        <time>2022-03-22T07:58:06Z</time>
      </trkpt>
      <trkpt lat="46.64999" lon="5.93637">
        <ele>734.2</ele>
        <time>2022-03-22T07:58:10Z</time>
      </trkpt>
      <trkpt lat="46.64994" lon="5.93638">
        <ele>733.4</ele>
        <time>2022-03-22T07:58:15Z</time>
      </trkpt>
      <trkpt lat="46.64989" lon="5.93641">
        <ele>732.8</ele>
        <time>2022-03-22T07:58:20Z</time>
      </trkpt>
      <trkpt lat="46.64984" lon="5.9364">
        <ele>732.7</ele>
        <time>2022-03-22T07:58:24Z</time>
      </trkpt>
      <trkpt lat="46.64979" lon="5.9364">
        <ele>732.7</ele>
        <time>2022-03-22T07:58:28Z</time>
      </trkpt>
      <trkpt lat="46.64975" lon="5.93642">
        <ele>732.6</ele>
        <time>2022-03-22T07:58:33Z</time>
      </trkpt>
      <trkpt lat="46.6497" lon="5.93643">
        <ele>731.9</ele>
        <time>2022-03-22T07:58:38Z</time>
      </trkpt>
      <trkpt lat="46.64965" lon="5.93644">
        <ele>731</ele>
        <time>2022-03-22T07:58:43Z</time>
      </trkpt>
      <trkpt lat="46.64959" lon="5.93647">
        <ele>729.2</ele>
        <time>2022-03-22T07:59:09Z</time>
      </trkpt>
      <trkpt lat="46.64955" lon="5.93646">
        <ele>729.1</ele>
        <time>2022-03-22T07:59:13Z</time>
      </trkpt>
      <trkpt lat="46.6495" lon="5.93644">
        <ele>728.8</ele>
        <time>2022-03-22T07:59:18Z</time>
      </trkpt>
      <trkpt lat="46.64944" lon="5.93643">
        <ele>729</ele>
        <time>2022-03-22T07:59:23Z</time>
      </trkpt>
      <trkpt lat="46.6494" lon="5.93639">
        <ele>729.4</ele>
        <time>2022-03-22T07:59:28Z</time>
      </trkpt>
      <trkpt lat="46.64935" lon="5.93637">
        <ele>729.7</ele>
        <time>2022-03-22T07:59:32Z</time>
      </trkpt>
      <trkpt lat="46.6493" lon="5.93636">
        <ele>729.6</ele>
        <time>2022-03-22T07:59:37Z</time>
      </trkpt>
      <trkpt lat="46.64924" lon="5.93637">
        <ele>729.6</ele>
        <time>2022-03-22T07:59:42Z</time>
      </trkpt>
      <trkpt lat="46.64919" lon="5.93635">
        <ele>729.6</ele>
        <time>2022-03-22T07:59:47Z</time>
      </trkpt>
      <trkpt lat="46.64914" lon="5.93633">
        <ele>729.3</ele>
        <time>2022-03-22T07:59:51Z</time>
      </trkpt>
      <trkpt lat="46.6491" lon="5.93634">
        <ele>728.3</ele>
        <time>2022-03-22T07:59:55Z</time>
      </trkpt>
      <trkpt lat="46.64905" lon="5.9363">
        <ele>727.8</ele>
        <time>2022-03-22T08:00:00Z</time>
      </trkpt>
      <trkpt lat="46.649" lon="5.93625">
        <ele>727.9</ele>
        <time>2022-03-22T08:00:04Z</time>
      </trkpt>
      <trkpt lat="46.64896" lon="5.9362">
        <ele>727.9</ele>
        <time>2022-03-22T08:00:08Z</time>
      </trkpt>
      <trkpt lat="46.64892" lon="5.93614">
        <ele>728.1</ele>
        <time>2022-03-22T08:00:12Z</time>
      </trkpt>
      <trkpt lat="46.64888" lon="5.9361">
        <ele>728.7</ele>
        <time>2022-03-22T08:00:16Z</time>
      </trkpt>
      <trkpt lat="46.64884" lon="5.93605">
        <ele>728.3</ele>
        <time>2022-03-22T08:00:22Z</time>
      </trkpt>
      <trkpt lat="46.64881" lon="5.936">
        <ele>727.8</ele>
        <time>2022-03-22T08:00:26Z</time>
      </trkpt>
      <trkpt lat="46.64877" lon="5.93596">
        <ele>727.3</ele>
        <time>2022-03-22T08:00:31Z</time>
      </trkpt>
      <trkpt lat="46.64872" lon="5.93593">
        <ele>727</ele>
        <time>2022-03-22T08:00:36Z</time>
      </trkpt>
      <trkpt lat="46.64869" lon="5.93588">
        <ele>727.1</ele>
        <time>2022-03-22T08:00:40Z</time>
      </trkpt>
      <trkpt lat="46.64865" lon="5.93583">
        <ele>727.7</ele>
        <time>2022-03-22T08:00:44Z</time>
      </trkpt>
      <trkpt lat="46.64862" lon="5.93579">
        <ele>728</ele>
        <time>2022-03-22T08:00:48Z</time>
      </trkpt>
      <trkpt lat="46.64858" lon="5.93575">
        <ele>728.2</ele>
        <time>2022-03-22T08:00:52Z</time>
      </trkpt>
      <trkpt lat="46.64854" lon="5.9357">
        <ele>728.2</ele>
        <time>2022-03-22T08:00:57Z</time>
      </trkpt>
      <trkpt lat="46.6485" lon="5.93565">
        <ele>727.6</ele>
        <time>2022-03-22T08:01:02Z</time>
      </trkpt>
      <trkpt lat="46.64845" lon="5.93562">
        <ele>726.4</ele>
        <time>2022-03-22T08:01:07Z</time>
      </trkpt>
      <trkpt lat="46.6484" lon="5.9356">
        <ele>724.7</ele>
        <time>2022-03-22T08:01:12Z</time>
      </trkpt>
      <trkpt lat="46.64835" lon="5.93557">
        <ele>723</ele>
        <time>2022-03-22T08:01:17Z</time>
      </trkpt>
      <trkpt lat="46.64832" lon="5.93552">
        <ele>722</ele>
        <time>2022-03-22T08:01:21Z</time>
      </trkpt>
      <trkpt lat="46.64827" lon="5.9355">
        <ele>721.1</ele>
        <time>2022-03-22T08:01:25Z</time>
      </trkpt>
      <trkpt lat="46.64822" lon="5.93549">
        <ele>719.9</ele>
        <time>2022-03-22T08:01:30Z</time>
      </trkpt>
      <trkpt lat="46.64818" lon="5.93547">
        <ele>719.2</ele>
        <time>2022-03-22T08:01:35Z</time>
      </trkpt>
      <trkpt lat="46.64813" lon="5.93547">
        <ele>719.5</ele>
        <time>2022-03-22T08:01:40Z</time>
      </trkpt>
      <trkpt lat="46.64807" lon="5.93546">
        <ele>719.9</ele>
        <time>2022-03-22T08:01:45Z</time>
      </trkpt>
      <trkpt lat="46.64803" lon="5.93544">
        <ele>720.3</ele>
        <time>2022-03-22T08:01:49Z</time>
      </trkpt>
      <trkpt lat="46.64798" lon="5.93542">
        <ele>720.6</ele>
        <time>2022-03-22T08:01:53Z</time>
      </trkpt>
      <trkpt lat="46.64793" lon="5.9354">
        <ele>720.9</ele>
        <time>2022-03-22T08:01:57Z</time>
      </trkpt>
      <trkpt lat="46.64788" lon="5.93541">
        <ele>720.6</ele>
        <time>2022-03-22T08:02:03Z</time>
      </trkpt>
      <trkpt lat="46.64782" lon="5.93538">
        <ele>720.7</ele>
        <time>2022-03-22T08:02:07Z</time>
      </trkpt>
      <trkpt lat="46.64778" lon="5.93534">
        <ele>720.9</ele>
        <time>2022-03-22T08:02:11Z</time>
      </trkpt>
      <trkpt lat="46.64773" lon="5.93533">
        <ele>720.7</ele>
        <time>2022-03-22T08:02:17Z</time>
      </trkpt>
      <trkpt lat="46.64767" lon="5.93531">
        <ele>720.8</ele>
        <time>2022-03-22T08:02:22Z</time>
      </trkpt>
      <trkpt lat="46.64762" lon="5.93528">
        <ele>721</ele>
        <time>2022-03-22T08:02:26Z</time>
      </trkpt>
      <trkpt lat="46.64758" lon="5.93526">
        <ele>721.4</ele>
        <time>2022-03-22T08:02:30Z</time>
      </trkpt>
      <trkpt lat="46.64752" lon="5.93524">
        <ele>721.5</ele>
        <time>2022-03-22T08:02:35Z</time>
      </trkpt>
      <trkpt lat="46.64747" lon="5.93522">
        <ele>721.7</ele>
        <time>2022-03-22T08:02:40Z</time>
      </trkpt>
      <trkpt lat="46.64742" lon="5.93519">
        <ele>722.3</ele>
        <time>2022-03-22T08:02:45Z</time>
      </trkpt>
      <trkpt lat="46.64737" lon="5.93517">
        <ele>722.8</ele>
        <time>2022-03-22T08:02:49Z</time>
      </trkpt>
      <trkpt lat="46.64732" lon="5.93512">
        <ele>723.7</ele>
        <time>2022-03-22T08:02:53Z</time>
      </trkpt>
      <trkpt lat="46.64726" lon="5.9351">
        <ele>724.6</ele>
        <time>2022-03-22T08:02:57Z</time>
      </trkpt>
      <trkpt lat="46.64722" lon="5.9351">
        <ele>725.3</ele>
        <time>2022-03-22T08:03:01Z</time>
      </trkpt>
      <trkpt lat="46.64717" lon="5.93511">
        <ele>726</ele>
        <time>2022-03-22T08:03:05Z</time>
      </trkpt>
      <trkpt lat="46.64712" lon="5.9351">
        <ele>727</ele>
        <time>2022-03-22T08:03:10Z</time>
      </trkpt>
      <trkpt lat="46.64707" lon="5.93509">
        <ele>727.6</ele>
        <time>2022-03-22T08:03:15Z</time>
      </trkpt>
      <trkpt lat="46.64702" lon="5.93506">
        <ele>728.2</ele>
        <time>2022-03-22T08:03:20Z</time>
      </trkpt>
      <trkpt lat="46.64698" lon="5.93503">
        <ele>728.4</ele>
        <time>2022-03-22T08:03:24Z</time>
      </trkpt>
      <trkpt lat="46.64693" lon="5.935">
        <ele>728.5</ele>
        <time>2022-03-22T08:03:28Z</time>
      </trkpt>
      <trkpt lat="46.64688" lon="5.93498">
        <ele>728.8</ele>
        <time>2022-03-22T08:03:32Z</time>
      </trkpt>
      <trkpt lat="46.64682" lon="5.93499">
        <ele>728.9</ele>
        <time>2022-03-22T08:03:37Z</time>
      </trkpt>
      <trkpt lat="46.64677" lon="5.93498">
        <ele>729.2</ele>
        <time>2022-03-22T08:03:42Z</time>
      </trkpt>
      <trkpt lat="46.64672" lon="5.93494">
        <ele>729.2</ele>
        <time>2022-03-22T08:03:47Z</time>
      </trkpt>
      <trkpt lat="46.64668" lon="5.9349">
        <ele>729.6</ele>
        <time>2022-03-22T08:03:51Z</time>
      </trkpt>
      <trkpt lat="46.64664" lon="5.93485">
        <ele>730</ele>
        <time>2022-03-22T08:03:55Z</time>
      </trkpt>
      <trkpt lat="46.6466" lon="5.93483">
        <ele>729.7</ele>
        <time>2022-03-22T08:04:01Z</time>
      </trkpt>
      <trkpt lat="46.64655" lon="5.93478">
        <ele>729.5</ele>
        <time>2022-03-22T08:04:06Z</time>
      </trkpt>
      <trkpt lat="46.64651" lon="5.93474">
        <ele>729.4</ele>
        <time>2022-03-22T08:04:10Z</time>
      </trkpt>
      <trkpt lat="46.64647" lon="5.9347">
        <ele>729.2</ele>
        <time>2022-03-22T08:04:15Z</time>
      </trkpt>
      <trkpt lat="46.64642" lon="5.93468">
        <ele>728.4</ele>
        <time>2022-03-22T08:04:20Z</time>
      </trkpt>
      <trkpt lat="46.64638" lon="5.9347">
        <ele>726.6</ele>
        <time>2022-03-22T08:04:27Z</time>
      </trkpt>
      <trkpt lat="46.64633" lon="5.93467">
        <ele>725.6</ele>
        <time>2022-03-22T08:04:32Z</time>
      </trkpt>
      <trkpt lat="46.64628" lon="5.93465">
        <ele>725</ele>
        <time>2022-03-22T08:04:36Z</time>
      </trkpt>
      <trkpt lat="46.64624" lon="5.93462">
        <ele>724.2</ele>
        <time>2022-03-22T08:04:40Z</time>
      </trkpt>
      <trkpt lat="46.64619" lon="5.93459">
        <ele>723.7</ele>
        <time>2022-03-22T08:04:44Z</time>
      </trkpt>
      <trkpt lat="46.64614" lon="5.93457">
        <ele>723.9</ele>
        <time>2022-03-22T08:04:47Z</time>
      </trkpt>
      <trkpt lat="46.64609" lon="5.93456">
        <ele>724.2</ele>
        <time>2022-03-22T08:04:51Z</time>
      </trkpt>
      <trkpt lat="46.64604" lon="5.93454">
        <ele>725.4</ele>
        <time>2022-03-22T08:04:56Z</time>
      </trkpt>
      <trkpt lat="46.646" lon="5.93453">
        <ele>726.5</ele>
        <time>2022-03-22T08:05:00Z</time>
      </trkpt>
      <trkpt lat="46.64595" lon="5.93454">
        <ele>727</ele>
        <time>2022-03-22T08:05:04Z</time>
      </trkpt>
      <trkpt lat="46.64589" lon="5.93452">
        <ele>727.6</ele>
        <time>2022-03-22T08:05:08Z</time>
      </trkpt>
      <trkpt lat="46.64585" lon="5.9345">
        <ele>728.3</ele>
        <time>2022-03-22T08:05:11Z</time>
      </trkpt>
      <trkpt lat="46.6458" lon="5.93447">
        <ele>729.5</ele>
        <time>2022-03-22T08:05:15Z</time>
      </trkpt>
      <trkpt lat="46.64575" lon="5.93446">
        <ele>731.2</ele>
        <time>2022-03-22T08:05:20Z</time>
      </trkpt>
      <trkpt lat="46.64569" lon="5.93446">
        <ele>733</ele>
        <time>2022-03-22T08:05:26Z</time>
      </trkpt>
      <trkpt lat="46.64564" lon="5.93447">
        <ele>733.6</ele>
        <time>2022-03-22T08:05:30Z</time>
      </trkpt>
      <trkpt lat="46.64559" lon="5.93449">
        <ele>733.4</ele>
        <time>2022-03-22T08:05:35Z</time>
      </trkpt>
      <trkpt lat="46.64555" lon="5.93451">
        <ele>732.5</ele>
        <time>2022-03-22T08:05:41Z</time>
      </trkpt>
      <trkpt lat="46.6455" lon="5.93451">
        <ele>732</ele>
        <time>2022-03-22T08:05:46Z</time>
      </trkpt>
      <trkpt lat="46.64545" lon="5.93453">
        <ele>731.3</ele>
        <time>2022-03-22T08:05:52Z</time>
      </trkpt>
      <trkpt lat="46.64539" lon="5.93452">
        <ele>730.6</ele>
        <time>2022-03-22T08:05:57Z</time>
      </trkpt>
      <trkpt lat="46.64534" lon="5.93448">
        <ele>730.4</ele>
        <time>2022-03-22T08:06:01Z</time>
      </trkpt>
      <trkpt lat="46.64529" lon="5.9345">
        <ele>729.8</ele>
        <time>2022-03-22T08:06:06Z</time>
      </trkpt>
      <trkpt lat="46.64525" lon="5.93452">
        <ele>728.6</ele>
        <time>2022-03-22T08:06:11Z</time>
      </trkpt>
      <trkpt lat="46.64519" lon="5.93452">
        <ele>728.1</ele>
        <time>2022-03-22T08:06:15Z</time>
      </trkpt>
      <trkpt lat="46.64514" lon="5.93454">
        <ele>728</ele>
        <time>2022-03-22T08:06:19Z</time>
      </trkpt>
      <trkpt lat="46.64509" lon="5.93454">
        <ele>727.6</ele>
        <time>2022-03-22T08:06:24Z</time>
      </trkpt>
      <trkpt lat="46.64502" lon="5.93453">
        <ele>727.6</ele>
        <time>2022-03-22T08:06:28Z</time>
      </trkpt>
      <trkpt lat="46.64498" lon="5.93452">
        <ele>727.8</ele>
        <time>2022-03-22T08:06:31Z</time>
      </trkpt>
      <trkpt lat="46.64492" lon="5.93452">
        <ele>728.4</ele>
        <time>2022-03-22T08:06:35Z</time>
      </trkpt>
      <trkpt lat="46.64486" lon="5.93452">
        <ele>729.3</ele>
        <time>2022-03-22T08:06:39Z</time>
      </trkpt>
      <trkpt lat="46.64482" lon="5.93451">
        <ele>730.3</ele>
        <time>2022-03-22T08:06:43Z</time>
      </trkpt>
      <trkpt lat="46.64476" lon="5.93452">
        <ele>731.3</ele>
        <time>2022-03-22T08:06:48Z</time>
      </trkpt>
      <trkpt lat="46.64471" lon="5.93452">
        <ele>731.6</ele>
        <time>2022-03-22T08:06:54Z</time>
      </trkpt>
      <trkpt lat="46.64466" lon="5.93452">
        <ele>731.5</ele>
        <time>2022-03-22T08:06:59Z</time>
      </trkpt>
      <trkpt lat="46.6446" lon="5.93452">
        <ele>731.1</ele>
        <time>2022-03-22T08:07:04Z</time>
      </trkpt>
      <trkpt lat="46.64456" lon="5.93452">
        <ele>730.9</ele>
        <time>2022-03-22T08:07:07Z</time>
      </trkpt>
      <trkpt lat="46.64451" lon="5.9345">
        <ele>730.6</ele>
        <time>2022-03-22T08:07:11Z</time>
      </trkpt>
      <trkpt lat="46.64446" lon="5.93448">
        <ele>730.7</ele>
        <time>2022-03-22T08:07:16Z</time>
      </trkpt>
      <trkpt lat="46.64442" lon="5.93445">
        <ele>730.8</ele>
        <time>2022-03-22T08:07:20Z</time>
      </trkpt>
      <trkpt lat="46.64437" lon="5.93442">
        <ele>730.4</ele>
        <time>2022-03-22T08:07:26Z</time>
      </trkpt>
      <trkpt lat="46.64432" lon="5.93441">
        <ele>730.1</ele>
        <time>2022-03-22T08:07:30Z</time>
      </trkpt>
      <trkpt lat="46.64426" lon="5.93439">
        <ele>729.8</ele>
        <time>2022-03-22T08:07:34Z</time>
      </trkpt>
      <trkpt lat="46.64421" lon="5.93437">
        <ele>729.9</ele>
        <time>2022-03-22T08:07:38Z</time>
      </trkpt>
      <trkpt lat="46.64417" lon="5.93438">
        <ele>730</ele>
        <time>2022-03-22T08:07:43Z</time>
      </trkpt>
      <trkpt lat="46.64413" lon="5.93442">
        <ele>729.3</ele>
        <time>2022-03-22T08:07:49Z</time>
      </trkpt>
      <trkpt lat="46.64408" lon="5.93446">
        <ele>727.9</ele>
        <time>2022-03-22T08:07:55Z</time>
      </trkpt>
      <trkpt lat="46.64403" lon="5.93444">
        <ele>727.2</ele>
        <time>2022-03-22T08:07:59Z</time>
      </trkpt>
      <trkpt lat="46.64398" lon="5.93441">
        <ele>726.7</ele>
        <time>2022-03-22T08:08:02Z</time>
      </trkpt>
      <trkpt lat="46.64393" lon="5.93439">
        <ele>726.5</ele>
        <time>2022-03-22T08:08:05Z</time>
      </trkpt>
      <trkpt lat="46.64388" lon="5.93437">
        <ele>726.6</ele>
        <time>2022-03-22T08:08:08Z</time>
      </trkpt>
      <trkpt lat="46.64383" lon="5.93436">
        <ele>727.1</ele>
        <time>2022-03-22T08:08:12Z</time>
      </trkpt>
      <trkpt lat="46.64377" lon="5.93438">
        <ele>727.9</ele>
        <time>2022-03-22T08:08:17Z</time>
      </trkpt>
      <trkpt lat="46.64371" lon="5.93437">
        <ele>728.6</ele>
        <time>2022-03-22T08:08:22Z</time>
      </trkpt>
      <trkpt lat="46.64367" lon="5.93436">
        <ele>728.9</ele>
        <time>2022-03-22T08:08:26Z</time>
      </trkpt>
      <trkpt lat="46.64362" lon="5.93435">
        <ele>729.4</ele>
        <time>2022-03-22T08:08:30Z</time>
      </trkpt>
      <trkpt lat="46.64357" lon="5.93434">
        <ele>729.6</ele>
        <time>2022-03-22T08:08:34Z</time>
      </trkpt>
      <trkpt lat="46.64353" lon="5.93434">
        <ele>729.9</ele>
        <time>2022-03-22T08:08:38Z</time>
      </trkpt>
      <trkpt lat="46.64348" lon="5.93431">
        <ele>730.4</ele>
        <time>2022-03-22T08:08:42Z</time>
      </trkpt>
      <trkpt lat="46.64344" lon="5.93429">
        <ele>730.8</ele>
        <time>2022-03-22T08:08:46Z</time>
      </trkpt>
      <trkpt lat="46.64338" lon="5.93428">
        <ele>731.8</ele>
        <time>2022-03-22T08:08:51Z</time>
      </trkpt>
      <trkpt lat="46.64333" lon="5.93429">
        <ele>732.4</ele>
        <time>2022-03-22T08:08:55Z</time>
      </trkpt>
      <trkpt lat="46.64328" lon="5.9343">
        <ele>733.3</ele>
        <time>2022-03-22T08:09:00Z</time>
      </trkpt>
      <trkpt lat="46.64323" lon="5.93432">
        <ele>733.8</ele>
        <time>2022-03-22T08:09:06Z</time>
      </trkpt>
      <trkpt lat="46.64321" lon="5.93438">
        <ele>734.3</ele>
        <time>2022-03-22T08:09:10Z</time>
      </trkpt>
      <trkpt lat="46.64319" lon="5.93444">
        <ele>734.5</ele>
        <time>2022-03-22T08:09:14Z</time>
      </trkpt>
      <trkpt lat="46.64316" lon="5.9345">
        <ele>734.5</ele>
        <time>2022-03-22T08:09:18Z</time>
      </trkpt>
      <trkpt lat="46.64316" lon="5.93458">
        <ele>733.8</ele>
        <time>2022-03-22T08:09:24Z</time>
      </trkpt>
      <trkpt lat="46.64315" lon="5.93467">
        <ele>733</ele>
        <time>2022-03-22T08:09:28Z</time>
      </trkpt>
      <trkpt lat="46.64311" lon="5.93473">
        <ele>732</ele>
        <time>2022-03-22T08:09:32Z</time>
      </trkpt>
      <trkpt lat="46.64309" lon="5.93478">
        <ele>730</ele>
        <time>2022-03-22T08:09:40Z</time>
      </trkpt>
      <trkpt lat="46.64306" lon="5.93485">
        <ele>727.8</ele>
        <time>2022-03-22T08:09:48Z</time>
      </trkpt>
      <trkpt lat="46.64303" lon="5.9349">
        <ele>726.8</ele>
        <time>2022-03-22T08:09:54Z</time>
      </trkpt>
      <trkpt lat="46.64299" lon="5.93496">
        <ele>727.3</ele>
        <time>2022-03-22T08:09:59Z</time>
      </trkpt>
      <trkpt lat="46.64295" lon="5.935">
        <ele>728.7</ele>
        <time>2022-03-22T08:10:04Z</time>
      </trkpt>
      <trkpt lat="46.6429" lon="5.93502">
        <ele>730</ele>
        <time>2022-03-22T08:10:08Z</time>
      </trkpt>
      <trkpt lat="46.64285" lon="5.93505">
        <ele>731.5</ele>
        <time>2022-03-22T08:10:13Z</time>
      </trkpt>
      <trkpt lat="46.6428" lon="5.93505">
        <ele>733</ele>
        <time>2022-03-22T08:10:19Z</time>
      </trkpt>
      <trkpt lat="46.64276" lon="5.93503">
        <ele>734.8</ele>
        <time>2022-03-22T08:10:27Z</time>
      </trkpt>
      <trkpt lat="46.64271" lon="5.93501">
        <ele>735.7</ele>
        <time>2022-03-22T08:10:39Z</time>
      </trkpt>
      <trkpt lat="46.64266" lon="5.935">
        <ele>735.9</ele>
        <time>2022-03-22T08:10:46Z</time>
      </trkpt>
      <trkpt lat="46.64262" lon="5.93498">
        <ele>736.3</ele>
        <time>2022-03-22T08:10:54Z</time>
      </trkpt>
      <trkpt lat="46.64257" lon="5.93496">
        <ele>736.5</ele>
        <time>2022-03-22T08:10:59Z</time>
      </trkpt>
      <trkpt lat="46.64253" lon="5.93491">
        <ele>736.7</ele>
        <time>2022-03-22T08:11:02Z</time>
      </trkpt>
      <trkpt lat="46.64248" lon="5.93485">
        <ele>737.4</ele>
        <time>2022-03-22T08:11:05Z</time>
      </trkpt>
      <trkpt lat="46.64243" lon="5.93481">
        <ele>738.2</ele>
        <time>2022-03-22T08:11:09Z</time>
      </trkpt>
      <trkpt lat="46.64238" lon="5.93479">
        <ele>739.5</ele>
        <time>2022-03-22T08:11:15Z</time>
      </trkpt>
      <trkpt lat="46.64233" lon="5.93476">
        <ele>740.7</ele>
        <time>2022-03-22T08:11:22Z</time>
      </trkpt>
      <trkpt lat="46.64228" lon="5.93473">
        <ele>741.3</ele>
        <time>2022-03-22T08:11:28Z</time>
      </trkpt>
      <trkpt lat="46.64224" lon="5.93468">
        <ele>741.9</ele>
        <time>2022-03-22T08:11:33Z</time>
      </trkpt>
      <trkpt lat="46.64221" lon="5.93462">
        <ele>742.3</ele>
        <time>2022-03-22T08:11:37Z</time>
      </trkpt>
      <trkpt lat="46.64217" lon="5.93458">
        <ele>742.4</ele>
        <time>2022-03-22T08:11:42Z</time>
      </trkpt>
      <trkpt lat="46.64213" lon="5.93455">
        <ele>742.5</ele>
        <time>2022-03-22T08:11:47Z</time>
      </trkpt>
      <trkpt lat="46.64208" lon="5.93451">
        <ele>742.3</ele>
        <time>2022-03-22T08:11:52Z</time>
      </trkpt>
      <trkpt lat="46.64205" lon="5.93446">
        <ele>742.1</ele>
        <time>2022-03-22T08:11:57Z</time>
      </trkpt>
      <trkpt lat="46.64201" lon="5.93441">
        <ele>741.7</ele>
        <time>2022-03-22T08:12:02Z</time>
      </trkpt>
      <trkpt lat="46.64198" lon="5.93436">
        <ele>741.3</ele>
        <time>2022-03-22T08:12:07Z</time>
      </trkpt>
      <trkpt lat="46.64195" lon="5.93429">
        <ele>741</ele>
        <time>2022-03-22T08:12:13Z</time>
      </trkpt>
      <trkpt lat="46.64192" lon="5.93423">
        <ele>740.9</ele>
        <time>2022-03-22T08:12:18Z</time>
      </trkpt>
      <trkpt lat="46.6419" lon="5.93418">
        <ele>741.1</ele>
        <time>2022-03-22T08:12:22Z</time>
      </trkpt>
      <trkpt lat="46.64187" lon="5.9341">
        <ele>741.5</ele>
        <time>2022-03-22T08:12:27Z</time>
      </trkpt>
      <trkpt lat="46.64185" lon="5.93405">
        <ele>741.8</ele>
        <time>2022-03-22T08:12:31Z</time>
      </trkpt>
      <trkpt lat="46.64181" lon="5.93399">
        <ele>741.9</ele>
        <time>2022-03-22T08:12:37Z</time>
      </trkpt>
      <trkpt lat="46.64177" lon="5.93394">
        <ele>742</ele>
        <time>2022-03-22T08:12:44Z</time>
      </trkpt>
      <trkpt lat="46.64174" lon="5.93389">
        <ele>742.1</ele>
        <time>2022-03-22T08:12:49Z</time>
      </trkpt>
      <trkpt lat="46.6417" lon="5.93386">
        <ele>742.6</ele>
        <time>2022-03-22T08:12:54Z</time>
      </trkpt>
      <trkpt lat="46.64165" lon="5.93381">
        <ele>743.1</ele>
        <time>2022-03-22T08:12:58Z</time>
      </trkpt>
      <trkpt lat="46.64161" lon="5.93376">
        <ele>743.7</ele>
        <time>2022-03-22T08:13:02Z</time>
      </trkpt>
      <trkpt lat="46.64157" lon="5.93371">
        <ele>744.2</ele>
        <time>2022-03-22T08:13:07Z</time>
      </trkpt>
      <trkpt lat="46.64153" lon="5.93366">
        <ele>744.7</ele>
        <time>2022-03-22T08:13:13Z</time>
      </trkpt>
      <trkpt lat="46.64148" lon="5.93367">
        <ele>745</ele>
        <time>2022-03-22T08:13:23Z</time>
      </trkpt>
      <trkpt lat="46.64144" lon="5.93364">
        <ele>744</ele>
        <time>2022-03-22T08:13:32Z</time>
      </trkpt>
      <trkpt lat="46.64139" lon="5.9336">
        <ele>743.3</ele>
        <time>2022-03-22T08:13:38Z</time>
      </trkpt>
      <trkpt lat="46.64134" lon="5.93358">
        <ele>742.4</ele>
        <time>2022-03-22T08:13:43Z</time>
      </trkpt>
      <trkpt lat="46.6413" lon="5.93356">
        <ele>741.7</ele>
        <time>2022-03-22T08:13:48Z</time>
      </trkpt>
      <trkpt lat="46.64125" lon="5.93355">
        <ele>741.4</ele>
        <time>2022-03-22T08:13:52Z</time>
      </trkpt>
      <trkpt lat="46.64119" lon="5.93353">
        <ele>741</ele>
        <time>2022-03-22T08:13:55Z</time>
      </trkpt>
      <trkpt lat="46.64111" lon="5.93352">
        <ele>740.6</ele>
        <time>2022-03-22T08:13:58Z</time>
      </trkpt>
      <trkpt lat="46.64106" lon="5.93352">
        <ele>740.3</ele>
        <time>2022-03-22T08:14:01Z</time>
      </trkpt>
      <trkpt lat="46.64102" lon="5.93349">
        <ele>740.2</ele>
        <time>2022-03-22T08:14:04Z</time>
      </trkpt>
      <trkpt lat="46.64098" lon="5.93344">
        <ele>740.4</ele>
        <time>2022-03-22T08:14:10Z</time>
      </trkpt>
      <trkpt lat="46.64094" lon="5.93348">
        <ele>741.2</ele>
        <time>2022-03-22T08:14:16Z</time>
      </trkpt>
      <trkpt lat="46.64089" lon="5.93349">
        <ele>743.3</ele>
        <time>2022-03-22T08:15:01Z</time>
      </trkpt>
      <trkpt lat="46.64085" lon="5.9335">
        <ele>745.3</ele>
        <time>2022-03-22T08:15:06Z</time>
      </trkpt>
      <trkpt lat="46.64087" lon="5.93356">
        <ele>746.5</ele>
        <time>2022-03-22T08:15:10Z</time>
      </trkpt>
      <trkpt lat="46.64088" lon="5.93364">
        <ele>747.1</ele>
        <time>2022-03-22T08:15:14Z</time>
      </trkpt>
      <trkpt lat="46.64086" lon="5.93371">
        <ele>747.1</ele>
        <time>2022-03-22T08:15:21Z</time>
      </trkpt>
      <trkpt lat="46.64083" lon="5.93376">
        <ele>746.8</ele>
        <time>2022-03-22T08:15:25Z</time>
      </trkpt>
      <trkpt lat="46.64079" lon="5.93381">
        <ele>746.6</ele>
        <time>2022-03-22T08:15:28Z</time>
      </trkpt>
      <trkpt lat="46.64076" lon="5.93387">
        <ele>746.4</ele>
        <time>2022-03-22T08:15:32Z</time>
      </trkpt>
      <trkpt lat="46.64072" lon="5.93392">
        <ele>746.1</ele>
        <time>2022-03-22T08:15:36Z</time>
      </trkpt>
      <trkpt lat="46.64069" lon="5.93397">
        <ele>745.6</ele>
        <time>2022-03-22T08:15:41Z</time>
      </trkpt>
      <trkpt lat="46.64066" lon="5.93404">
        <ele>745</ele>
        <time>2022-03-22T08:15:46Z</time>
      </trkpt>
      <trkpt lat="46.64062" lon="5.93409">
        <ele>744.3</ele>
        <time>2022-03-22T08:15:50Z</time>
      </trkpt>
      <trkpt lat="46.64058" lon="5.93414">
        <ele>743.5</ele>
        <time>2022-03-22T08:15:54Z</time>
      </trkpt>
      <trkpt lat="46.64054" lon="5.93418">
        <ele>742.9</ele>
        <time>2022-03-22T08:15:57Z</time>
      </trkpt>
      <trkpt lat="46.6405" lon="5.93423">
        <ele>742.2</ele>
        <time>2022-03-22T08:16:00Z</time>
      </trkpt>
      <trkpt lat="46.64046" lon="5.93428">
        <ele>741.4</ele>
        <time>2022-03-22T08:16:04Z</time>
      </trkpt>
      <trkpt lat="46.64043" lon="5.93433">
        <ele>740.5</ele>
        <time>2022-03-22T08:16:08Z</time>
      </trkpt>
      <trkpt lat="46.64039" lon="5.93439">
        <ele>739.6</ele>
        <time>2022-03-22T08:16:13Z</time>
      </trkpt>
      <trkpt lat="46.64035" lon="5.93444">
        <ele>739</ele>
        <time>2022-03-22T08:16:17Z</time>
      </trkpt>
      <trkpt lat="46.64031" lon="5.9345">
        <ele>738.4</ele>
        <time>2022-03-22T08:16:21Z</time>
      </trkpt>
      <trkpt lat="46.64027" lon="5.93453">
        <ele>738</ele>
        <time>2022-03-22T08:16:24Z</time>
      </trkpt>
      <trkpt lat="46.64023" lon="5.93457">
        <ele>737.3</ele>
        <time>2022-03-22T08:16:29Z</time>
      </trkpt>
      <trkpt lat="46.64018" lon="5.93458">
        <ele>736.4</ele>
        <time>2022-03-22T08:16:37Z</time>
      </trkpt>
      <trkpt lat="46.64014" lon="5.93455">
        <ele>736.8</ele>
        <time>2022-03-22T08:16:51Z</time>
      </trkpt>
      <trkpt lat="46.64015" lon="5.93448">
        <ele>737</ele>
        <time>2022-03-22T08:16:56Z</time>
      </trkpt>
      <trkpt lat="46.64016" lon="5.93441">
        <ele>737.5</ele>
        <time>2022-03-22T08:17:00Z</time>
      </trkpt>
      <trkpt lat="46.64019" lon="5.93434">
        <ele>738.2</ele>
        <time>2022-03-22T08:17:05Z</time>
      </trkpt>
      <trkpt lat="46.64022" lon="5.93427">
        <ele>738.9</ele>
        <time>2022-03-22T08:17:10Z</time>
      </trkpt>
      <trkpt lat="46.64026" lon="5.93422">
        <ele>739.4</ele>
        <time>2022-03-22T08:17:14Z</time>
      </trkpt>
      <trkpt lat="46.64029" lon="5.93417">
        <ele>740.2</ele>
        <time>2022-03-22T08:17:19Z</time>
      </trkpt>
      <trkpt lat="46.64032" lon="5.93412">
        <ele>741</ele>
        <time>2022-03-22T08:17:23Z</time>
      </trkpt>
      <trkpt lat="46.64035" lon="5.93406">
        <ele>742.6</ele>
        <time>2022-03-22T08:17:29Z</time>
      </trkpt>
      <trkpt lat="46.64038" lon="5.934">
        <ele>743.8</ele>
        <time>2022-03-22T08:17:33Z</time>
      </trkpt>
      <trkpt lat="46.64043" lon="5.93396">
        <ele>744.9</ele>
        <time>2022-03-22T08:17:37Z</time>
      </trkpt>
      <trkpt lat="46.64047" lon="5.93392">
        <ele>746</ele>
        <time>2022-03-22T08:17:42Z</time>
      </trkpt>
      <trkpt lat="46.6405" lon="5.93387">
        <ele>746.6</ele>
        <time>2022-03-22T08:17:49Z</time>
      </trkpt>
      <trkpt lat="46.64054" lon="5.93382">
        <ele>747.2</ele>
        <time>2022-03-22T08:17:55Z</time>
      </trkpt>
      <trkpt lat="46.64058" lon="5.93377">
        <ele>747.5</ele>
        <time>2022-03-22T08:18:01Z</time>
      </trkpt>
      <trkpt lat="46.64063" lon="5.93373">
        <ele>747.6</ele>
        <time>2022-03-22T08:18:06Z</time>
      </trkpt>
      <trkpt lat="46.64067" lon="5.93371">
        <ele>747.5</ele>
        <time>2022-03-22T08:18:09Z</time>
      </trkpt>
      <trkpt lat="46.64072" lon="5.93369">
        <ele>747.3</ele>
        <time>2022-03-22T08:18:13Z</time>
      </trkpt>
      <trkpt lat="46.64075" lon="5.93364">
        <ele>747.2</ele>
        <time>2022-03-22T08:18:20Z</time>
      </trkpt>
      <trkpt lat="46.64079" lon="5.93358">
        <ele>747.8</ele>
        <time>2022-03-22T08:18:27Z</time>
      </trkpt>
      <trkpt lat="46.64082" lon="5.93353">
        <ele>748.6</ele>
        <time>2022-03-22T08:18:32Z</time>
      </trkpt>
      <trkpt lat="46.64084" lon="5.93346">
        <ele>749.2</ele>
        <time>2022-03-22T08:18:36Z</time>
      </trkpt>
      <trkpt lat="46.64085" lon="5.93339">
        <ele>749.8</ele>
        <time>2022-03-22T08:18:41Z</time>
      </trkpt>
      <trkpt lat="46.64087" lon="5.93331">
        <ele>750.2</ele>
        <time>2022-03-22T08:18:45Z</time>
      </trkpt>
      <trkpt lat="46.64087" lon="5.93325">
        <ele>750.4</ele>
        <time>2022-03-22T08:18:49Z</time>
      </trkpt>
      <trkpt lat="46.64087" lon="5.93317">
        <ele>750.2</ele>
        <time>2022-03-22T08:18:54Z</time>
      </trkpt>
      <trkpt lat="46.64089" lon="5.9331">
        <ele>750.1</ele>
        <time>2022-03-22T08:18:59Z</time>
      </trkpt>
      <trkpt lat="46.6409" lon="5.93304">
        <ele>749.8</ele>
        <time>2022-03-22T08:19:05Z</time>
      </trkpt>
      <trkpt lat="46.64091" lon="5.93297">
        <ele>750</ele>
        <time>2022-03-22T08:19:11Z</time>
      </trkpt>
      <trkpt lat="46.64092" lon="5.9329">
        <ele>750.2</ele>
        <time>2022-03-22T08:19:17Z</time>
      </trkpt>
      <trkpt lat="46.64094" lon="5.93284">
        <ele>750.1</ele>
        <time>2022-03-22T08:19:24Z</time>
      </trkpt>
      <trkpt lat="46.64096" lon="5.93278">
        <ele>749</ele>
        <time>2022-03-22T08:19:31Z</time>
      </trkpt>
      <trkpt lat="46.64097" lon="5.9327">
        <ele>748.1</ele>
        <time>2022-03-22T08:19:36Z</time>
      </trkpt>
      <trkpt lat="46.64099" lon="5.93263">
        <ele>747.4</ele>
        <time>2022-03-22T08:19:40Z</time>
      </trkpt>
      <trkpt lat="46.64102" lon="5.93256">
        <ele>746.4</ele>
        <time>2022-03-22T08:19:45Z</time>
      </trkpt>
      <trkpt lat="46.64104" lon="5.93249">
        <ele>745</ele>
        <time>2022-03-22T08:19:51Z</time>
      </trkpt>
      <trkpt lat="46.64103" lon="5.93242">
        <ele>743.5</ele>
        <time>2022-03-22T08:19:57Z</time>
      </trkpt>
      <trkpt lat="46.64102" lon="5.93234">
        <ele>742.9</ele>
        <time>2022-03-22T08:20:03Z</time>
      </trkpt>
      <trkpt lat="46.64103" lon="5.93225">
        <ele>742.7</ele>
        <time>2022-03-22T08:20:07Z</time>
      </trkpt>
      <trkpt lat="46.64102" lon="5.93216">
        <ele>742.4</ele>
        <time>2022-03-22T08:20:12Z</time>
      </trkpt>
      <trkpt lat="46.64101" lon="5.93208">
        <ele>742.5</ele>
        <time>2022-03-22T08:20:16Z</time>
      </trkpt>
      <trkpt lat="46.64098" lon="5.93202">
        <ele>742.6</ele>
        <time>2022-03-22T08:20:21Z</time>
      </trkpt>
      <trkpt lat="46.64095" lon="5.93196">
        <ele>742.4</ele>
        <time>2022-03-22T08:20:26Z</time>
      </trkpt>
      <trkpt lat="46.64092" lon="5.93191">
        <ele>742.1</ele>
        <time>2022-03-22T08:20:30Z</time>
      </trkpt>
      <trkpt lat="46.64088" lon="5.93186">
        <ele>741.4</ele>
        <time>2022-03-22T08:20:36Z</time>
      </trkpt>
      <trkpt lat="46.64086" lon="5.9318">
        <ele>740.6</ele>
        <time>2022-03-22T08:20:42Z</time>
      </trkpt>
      <trkpt lat="46.64083" lon="5.93175">
        <ele>740.2</ele>
        <time>2022-03-22T08:20:47Z</time>
      </trkpt>
      <trkpt lat="46.64081" lon="5.93169">
        <ele>739.9</ele>
        <time>2022-03-22T08:20:52Z</time>
      </trkpt>
      <trkpt lat="46.64078" lon="5.93164">
        <ele>739.7</ele>
        <time>2022-03-22T08:20:57Z</time>
      </trkpt>
      <trkpt lat="46.64075" lon="5.93159">
        <ele>739.4</ele>
        <time>2022-03-22T08:21:02Z</time>
      </trkpt>
      <trkpt lat="46.64071" lon="5.93156">
        <ele>739.1</ele>
        <time>2022-03-22T08:21:07Z</time>
      </trkpt>
      <trkpt lat="46.64067" lon="5.9315">
        <ele>738.7</ele>
        <time>2022-03-22T08:21:12Z</time>
      </trkpt>
      <trkpt lat="46.64064" lon="5.93144">
        <ele>738.2</ele>
        <time>2022-03-22T08:21:16Z</time>
      </trkpt>
      <trkpt lat="46.64062" lon="5.93138">
        <ele>737.8</ele>
        <time>2022-03-22T08:21:21Z</time>
      </trkpt>
      <trkpt lat="46.6406" lon="5.93132">
        <ele>737.2</ele>
        <time>2022-03-22T08:21:27Z</time>
      </trkpt>
      <trkpt lat="46.64057" lon="5.93124">
        <ele>736.7</ele>
        <time>2022-03-22T08:21:32Z</time>
      </trkpt>
      <trkpt lat="46.64055" lon="5.93119">
        <ele>736</ele>
        <time>2022-03-22T08:21:42Z</time>
      </trkpt>
      <trkpt lat="46.64053" lon="5.9311">
        <ele>736</ele>
        <time>2022-03-22T08:21:46Z</time>
      </trkpt>
      <trkpt lat="46.6405" lon="5.93103">
        <ele>736</ele>
        <time>2022-03-22T08:21:50Z</time>
      </trkpt>
      <trkpt lat="46.64046" lon="5.93099">
        <ele>736.3</ele>
        <time>2022-03-22T08:21:55Z</time>
      </trkpt>
      <trkpt lat="46.64044" lon="5.93092">
        <ele>737.1</ele>
        <time>2022-03-22T08:21:58Z</time>
      </trkpt>
      <trkpt lat="46.64042" lon="5.93086">
        <ele>738.2</ele>
        <time>2022-03-22T08:22:02Z</time>
      </trkpt>
      <trkpt lat="46.64039" lon="5.9308">
        <ele>739.2</ele>
        <time>2022-03-22T08:22:06Z</time>
      </trkpt>
      <trkpt lat="46.64035" lon="5.93075">
        <ele>740.2</ele>
        <time>2022-03-22T08:22:11Z</time>
      </trkpt>
      <trkpt lat="46.6403" lon="5.93072">
        <ele>740.8</ele>
        <time>2022-03-22T08:22:17Z</time>
      </trkpt>
      <trkpt lat="46.64026" lon="5.93067">
        <ele>741.1</ele>
        <time>2022-03-22T08:22:22Z</time>
      </trkpt>
      <trkpt lat="46.64022" lon="5.93062">
        <ele>741.2</ele>
        <time>2022-03-22T08:22:28Z</time>
      </trkpt>
      <trkpt lat="46.64017" lon="5.93061">
        <ele>741.8</ele>
        <time>2022-03-22T08:22:35Z</time>
      </trkpt>
      <trkpt lat="46.64014" lon="5.93055">
        <ele>742.4</ele>
        <time>2022-03-22T08:22:40Z</time>
      </trkpt>
      <trkpt lat="46.64011" lon="5.9305">
        <ele>742.8</ele>
        <time>2022-03-22T08:22:43Z</time>
      </trkpt>
      <trkpt lat="46.64007" lon="5.93045">
        <ele>743.7</ele>
        <time>2022-03-22T08:22:48Z</time>
      </trkpt>
      <trkpt lat="46.64003" lon="5.9304">
        <ele>744.5</ele>
        <time>2022-03-22T08:22:52Z</time>
      </trkpt>
      <trkpt lat="46.63999" lon="5.93036">
        <ele>745.2</ele>
        <time>2022-03-22T08:22:56Z</time>
      </trkpt>
      <trkpt lat="46.63995" lon="5.93031">
        <ele>746</ele>
        <time>2022-03-22T08:23:01Z</time>
      </trkpt>
      <trkpt lat="46.63991" lon="5.93027">
        <ele>747.2</ele>
        <time>2022-03-22T08:23:05Z</time>
      </trkpt>
      <trkpt lat="46.63986" lon="5.93023">
        <ele>748.2</ele>
        <time>2022-03-22T08:23:09Z</time>
      </trkpt>
      <trkpt lat="46.63982" lon="5.93019">
        <ele>748.9</ele>
        <time>2022-03-22T08:23:14Z</time>
      </trkpt>
      <trkpt lat="46.63977" lon="5.93019">
        <ele>749.1</ele>
        <time>2022-03-22T08:23:20Z</time>
      </trkpt>
      <trkpt lat="46.63973" lon="5.93019">
        <ele>749</ele>
        <time>2022-03-22T08:23:25Z</time>
      </trkpt>
      <trkpt lat="46.63968" lon="5.93015">
        <ele>748.6</ele>
        <time>2022-03-22T08:23:31Z</time>
      </trkpt>
      <trkpt lat="46.63963" lon="5.93012">
        <ele>748.5</ele>
        <time>2022-03-22T08:23:35Z</time>
      </trkpt>
      <trkpt lat="46.6396" lon="5.93009">
        <ele>748.3</ele>
        <time>2022-03-22T08:23:39Z</time>
      </trkpt>
      <trkpt lat="46.63956" lon="5.93004">
        <ele>748</ele>
        <time>2022-03-22T08:23:43Z</time>
      </trkpt>
      <trkpt lat="46.63952" lon="5.93">
        <ele>747.6</ele>
        <time>2022-03-22T08:23:48Z</time>
      </trkpt>
      <trkpt lat="46.63948" lon="5.92995">
        <ele>747.3</ele>
        <time>2022-03-22T08:23:53Z</time>
      </trkpt>
      <trkpt lat="46.63944" lon="5.9299">
        <ele>747.1</ele>
        <time>2022-03-22T08:23:58Z</time>
      </trkpt>
      <trkpt lat="46.63942" lon="5.92984">
        <ele>746.5</ele>
        <time>2022-03-22T08:24:05Z</time>
      </trkpt>
      <trkpt lat="46.63939" lon="5.92977">
        <ele>746.3</ele>
        <time>2022-03-22T08:24:09Z</time>
      </trkpt>
      <trkpt lat="46.63935" lon="5.92972">
        <ele>746</ele>
        <time>2022-03-22T08:24:13Z</time>
      </trkpt>
      <trkpt lat="46.6393" lon="5.92969">
        <ele>745.8</ele>
        <time>2022-03-22T08:24:17Z</time>
      </trkpt>
      <trkpt lat="46.63926" lon="5.92965">
        <ele>745.6</ele>
        <time>2022-03-22T08:24:22Z</time>
      </trkpt>
      <trkpt lat="46.63921" lon="5.92962">
        <ele>745.4</ele>
        <time>2022-03-22T08:24:27Z</time>
      </trkpt>
      <trkpt lat="46.63919" lon="5.92956">
        <ele>745.2</ele>
        <time>2022-03-22T08:24:33Z</time>
      </trkpt>
      <trkpt lat="46.63915" lon="5.92952">
        <ele>744.6</ele>
        <time>2022-03-22T08:24:40Z</time>
      </trkpt>
      <trkpt lat="46.63911" lon="5.92948">
        <ele>744.4</ele>
        <time>2022-03-22T08:24:46Z</time>
      </trkpt>
      <trkpt lat="46.63906" lon="5.92947">
        <ele>744.3</ele>
        <time>2022-03-22T08:24:50Z</time>
      </trkpt>
      <trkpt lat="46.639" lon="5.92944">
        <ele>744.2</ele>
        <time>2022-03-22T08:24:53Z</time>
      </trkpt>
      <trkpt lat="46.63896" lon="5.9294">
        <ele>744.2</ele>
        <time>2022-03-22T08:24:56Z</time>
      </trkpt>
      <trkpt lat="46.63891" lon="5.92937">
        <ele>744</ele>
        <time>2022-03-22T08:24:59Z</time>
      </trkpt>
      <trkpt lat="46.63888" lon="5.92931">
        <ele>744.1</ele>
        <time>2022-03-22T08:25:03Z</time>
      </trkpt>
      <trkpt lat="46.63886" lon="5.92925">
        <ele>744.4</ele>
        <time>2022-03-22T08:25:08Z</time>
      </trkpt>
      <trkpt lat="46.63881" lon="5.92921">
        <ele>745</ele>
        <time>2022-03-22T08:25:15Z</time>
      </trkpt>
      <trkpt lat="46.63877" lon="5.92917">
        <ele>745.3</ele>
        <time>2022-03-22T08:25:20Z</time>
      </trkpt>
      <trkpt lat="46.63875" lon="5.92911">
        <ele>745.7</ele>
        <time>2022-03-22T08:25:26Z</time>
      </trkpt>
      <trkpt lat="46.63873" lon="5.92904">
        <ele>745.9</ele>
        <time>2022-03-22T08:25:32Z</time>
      </trkpt>
      <trkpt lat="46.63871" lon="5.92898">
        <ele>746.3</ele>
        <time>2022-03-22T08:25:38Z</time>
      </trkpt>
      <trkpt lat="46.63867" lon="5.92893">
        <ele>746.6</ele>
        <time>2022-03-22T08:25:41Z</time>
      </trkpt>
      <trkpt lat="46.63864" lon="5.92887">
        <ele>746.9</ele>
        <time>2022-03-22T08:25:47Z</time>
      </trkpt>
      <trkpt lat="46.6386" lon="5.92882">
        <ele>747.2</ele>
        <time>2022-03-22T08:25:53Z</time>
      </trkpt>
      <trkpt lat="46.63856" lon="5.92876">
        <ele>747.6</ele>
        <time>2022-03-22T08:25:57Z</time>
      </trkpt>
      <trkpt lat="46.63852" lon="5.92871">
        <ele>748.5</ele>
        <time>2022-03-22T08:26:03Z</time>
      </trkpt>
      <trkpt lat="46.6385" lon="5.92865">
        <ele>749.5</ele>
        <time>2022-03-22T08:26:06Z</time>
      </trkpt>
      <trkpt lat="46.63846" lon="5.92859">
        <ele>750.7</ele>
        <time>2022-03-22T08:26:09Z</time>
      </trkpt>
      <trkpt lat="46.63842" lon="5.92854">
        <ele>751.7</ele>
        <time>2022-03-22T08:26:13Z</time>
      </trkpt>
      <trkpt lat="46.63837" lon="5.9285">
        <ele>752.6</ele>
        <time>2022-03-22T08:26:18Z</time>
      </trkpt>
      <trkpt lat="46.63834" lon="5.92844">
        <ele>753.2</ele>
        <time>2022-03-22T08:26:22Z</time>
      </trkpt>
      <trkpt lat="46.63831" lon="5.92838">
        <ele>753.7</ele>
        <time>2022-03-22T08:26:27Z</time>
      </trkpt>
      <trkpt lat="46.63826" lon="5.92835">
        <ele>754</ele>
        <time>2022-03-22T08:26:32Z</time>
      </trkpt>
      <trkpt lat="46.63822" lon="5.92832">
        <ele>753.9</ele>
        <time>2022-03-22T08:26:36Z</time>
      </trkpt>
      <trkpt lat="46.63817" lon="5.9283">
        <ele>753.8</ele>
        <time>2022-03-22T08:26:40Z</time>
      </trkpt>
      <trkpt lat="46.63813" lon="5.92826">
        <ele>753</ele>
        <time>2022-03-22T08:26:45Z</time>
      </trkpt>
      <trkpt lat="46.6381" lon="5.92821">
        <ele>752.2</ele>
        <time>2022-03-22T08:26:54Z</time>
      </trkpt>
      <trkpt lat="46.63808" lon="5.92814">
        <ele>751.8</ele>
        <time>2022-03-22T08:26:58Z</time>
      </trkpt>
      <trkpt lat="46.63807" lon="5.92807">
        <ele>751.7</ele>
        <time>2022-03-22T08:27:01Z</time>
      </trkpt>
      <trkpt lat="46.63806" lon="5.92799">
        <ele>751.8</ele>
        <time>2022-03-22T08:27:04Z</time>
      </trkpt>
      <trkpt lat="46.63804" lon="5.92793">
        <ele>751.6</ele>
        <time>2022-03-22T08:27:07Z</time>
      </trkpt>
      <trkpt lat="46.63801" lon="5.92786">
        <ele>752</ele>
        <time>2022-03-22T08:27:11Z</time>
      </trkpt>
      <trkpt lat="46.638" lon="5.9278">
        <ele>752.8</ele>
        <time>2022-03-22T08:27:15Z</time>
      </trkpt>
      <trkpt lat="46.63798" lon="5.92772">
        <ele>753.3</ele>
        <time>2022-03-22T08:27:21Z</time>
      </trkpt>
      <trkpt lat="46.63796" lon="5.92767">
        <ele>753.8</ele>
        <time>2022-03-22T08:27:27Z</time>
      </trkpt>
      <trkpt lat="46.63796" lon="5.92759">
        <ele>754.4</ele>
        <time>2022-03-22T08:27:32Z</time>
      </trkpt>
      <trkpt lat="46.63795" lon="5.92751">
        <ele>755.4</ele>
        <time>2022-03-22T08:27:36Z</time>
      </trkpt>
      <trkpt lat="46.63793" lon="5.92744">
        <ele>756.7</ele>
        <time>2022-03-22T08:27:39Z</time>
      </trkpt>
      <trkpt lat="46.63789" lon="5.92738">
        <ele>758</ele>
        <time>2022-03-22T08:27:43Z</time>
      </trkpt>
      <trkpt lat="46.63785" lon="5.92734">
        <ele>759.3</ele>
        <time>2022-03-22T08:27:47Z</time>
      </trkpt>
      <trkpt lat="46.63782" lon="5.92729">
        <ele>761</ele>
        <time>2022-03-22T08:27:52Z</time>
      </trkpt>
      <trkpt lat="46.63778" lon="5.92723">
        <ele>762.6</ele>
        <time>2022-03-22T08:27:58Z</time>
      </trkpt>
      <trkpt lat="46.63775" lon="5.92717">
        <ele>763.6</ele>
        <time>2022-03-22T08:28:04Z</time>
      </trkpt>
      <trkpt lat="46.63772" lon="5.9271">
        <ele>764.1</ele>
        <time>2022-03-22T08:28:09Z</time>
      </trkpt>
      <trkpt lat="46.63768" lon="5.92707">
        <ele>764.2</ele>
        <time>2022-03-22T08:28:15Z</time>
      </trkpt>
      <trkpt lat="46.63764" lon="5.92704">
        <ele>763.8</ele>
        <time>2022-03-22T08:28:22Z</time>
      </trkpt>
      <trkpt lat="46.6376" lon="5.92699">
        <ele>762.9</ele>
        <time>2022-03-22T08:28:28Z</time>
      </trkpt>
      <trkpt lat="46.63756" lon="5.92696">
        <ele>762.4</ele>
        <time>2022-03-22T08:28:35Z</time>
      </trkpt>
      <trkpt lat="46.63751" lon="5.92692">
        <ele>762.3</ele>
        <time>2022-03-22T08:28:40Z</time>
      </trkpt>
      <trkpt lat="46.63748" lon="5.92685">
        <ele>762.6</ele>
        <time>2022-03-22T08:28:45Z</time>
      </trkpt>
      <trkpt lat="46.63745" lon="5.9268">
        <ele>762.8</ele>
        <time>2022-03-22T08:28:49Z</time>
      </trkpt>
      <trkpt lat="46.63742" lon="5.92674">
        <ele>763.1</ele>
        <time>2022-03-22T08:28:54Z</time>
      </trkpt>
      <trkpt lat="46.63737" lon="5.92671">
        <ele>763.5</ele>
        <time>2022-03-22T08:28:59Z</time>
      </trkpt>
      <trkpt lat="46.63733" lon="5.92667">
        <ele>763.8</ele>
        <time>2022-03-22T08:29:06Z</time>
      </trkpt>
      <trkpt lat="46.63731" lon="5.9266">
        <ele>764.7</ele>
        <time>2022-03-22T08:29:49Z</time>
      </trkpt>
      <trkpt lat="46.63727" lon="5.92658">
        <ele>763.6</ele>
        <time>2022-03-22T08:30:04Z</time>
      </trkpt>
      <trkpt lat="46.63728" lon="5.92651">
        <ele>763.5</ele>
        <time>2022-03-22T08:30:21Z</time>
      </trkpt>
      <trkpt lat="46.63725" lon="5.92645">
        <ele>765.3</ele>
        <time>2022-03-22T08:30:32Z</time>
      </trkpt>
      <trkpt lat="46.63721" lon="5.92642">
        <ele>765.8</ele>
        <time>2022-03-22T08:30:37Z</time>
      </trkpt>
      <trkpt lat="46.63717" lon="5.92638">
        <ele>766.6</ele>
        <time>2022-03-22T08:30:43Z</time>
      </trkpt>
      <trkpt lat="46.63713" lon="5.92635">
        <ele>767.4</ele>
        <time>2022-03-22T08:30:50Z</time>
      </trkpt>
      <trkpt lat="46.63708" lon="5.92632">
        <ele>767.7</ele>
        <time>2022-03-22T08:30:57Z</time>
      </trkpt>
      <trkpt lat="46.63705" lon="5.92626">
        <ele>768</ele>
        <time>2022-03-22T08:31:02Z</time>
      </trkpt>
      <trkpt lat="46.63703" lon="5.9262">
        <ele>768.4</ele>
        <time>2022-03-22T08:31:09Z</time>
      </trkpt>
      <trkpt lat="46.63699" lon="5.92616">
        <ele>768.9</ele>
        <time>2022-03-22T08:31:18Z</time>
      </trkpt>
      <trkpt lat="46.63695" lon="5.92611">
        <ele>768.7</ele>
        <time>2022-03-22T08:31:30Z</time>
      </trkpt>
      <trkpt lat="46.63691" lon="5.92608">
        <ele>767.8</ele>
        <time>2022-03-22T08:31:35Z</time>
      </trkpt>
      <trkpt lat="46.63688" lon="5.92601">
        <ele>767.2</ele>
        <time>2022-03-22T08:31:42Z</time>
      </trkpt>
      <trkpt lat="46.63687" lon="5.92595">
        <ele>766.9</ele>
        <time>2022-03-22T08:31:45Z</time>
      </trkpt>
      <trkpt lat="46.63684" lon="5.92589">
        <ele>766.7</ele>
        <time>2022-03-22T08:31:48Z</time>
      </trkpt>
      <trkpt lat="46.63681" lon="5.92584">
        <ele>766.3</ele>
        <time>2022-03-22T08:31:53Z</time>
      </trkpt>
      <trkpt lat="46.63677" lon="5.92575">
        <ele>765.4</ele>
        <time>2022-03-22T08:32:07Z</time>
      </trkpt>
      <trkpt lat="46.63674" lon="5.9257">
        <ele>765.2</ele>
        <time>2022-03-22T08:32:10Z</time>
      </trkpt>
      <trkpt lat="46.63671" lon="5.92564">
        <ele>765</ele>
        <time>2022-03-22T08:32:15Z</time>
      </trkpt>
      <trkpt lat="46.63669" lon="5.92558">
        <ele>764.9</ele>
        <time>2022-03-22T08:32:21Z</time>
      </trkpt>
      <trkpt lat="46.63666" lon="5.92552">
        <ele>764.8</ele>
        <time>2022-03-22T08:32:26Z</time>
      </trkpt>
      <trkpt lat="46.63662" lon="5.92545">
        <ele>764.7</ele>
        <time>2022-03-22T08:32:29Z</time>
      </trkpt>
      <trkpt lat="46.63658" lon="5.92537">
        <ele>764.7</ele>
        <time>2022-03-22T08:32:32Z</time>
      </trkpt>
      <trkpt lat="46.63655" lon="5.92532">
        <ele>764.8</ele>
        <time>2022-03-22T08:32:35Z</time>
      </trkpt>
      <trkpt lat="46.63652" lon="5.92525">
        <ele>765.1</ele>
        <time>2022-03-22T08:32:39Z</time>
      </trkpt>
      <trkpt lat="46.63649" lon="5.92519">
        <ele>765.2</ele>
        <time>2022-03-22T08:32:43Z</time>
      </trkpt>
      <trkpt lat="46.63646" lon="5.92513">
        <ele>765.3</ele>
        <time>2022-03-22T08:32:48Z</time>
      </trkpt>
      <trkpt lat="46.63642" lon="5.92509">
        <ele>765</ele>
        <time>2022-03-22T08:32:53Z</time>
      </trkpt>
      <trkpt lat="46.63639" lon="5.92506">
        <ele>764.2</ele>
        <time>2022-03-22T08:32:57Z</time>
      </trkpt>
      <trkpt lat="46.63635" lon="5.92501">
        <ele>763.4</ele>
        <time>2022-03-22T08:33:02Z</time>
      </trkpt>
      <trkpt lat="46.6363" lon="5.92496">
        <ele>762.6</ele>
        <time>2022-03-22T08:33:08Z</time>
      </trkpt>
      <trkpt lat="46.63627" lon="5.92491">
        <ele>762.8</ele>
        <time>2022-03-22T08:33:13Z</time>
      </trkpt>
      <trkpt lat="46.63623" lon="5.92487">
        <ele>763</ele>
        <time>2022-03-22T08:33:21Z</time>
      </trkpt>
      <trkpt lat="46.6362" lon="5.92481">
        <ele>762.9</ele>
        <time>2022-03-22T08:33:29Z</time>
      </trkpt>
      <trkpt lat="46.63617" lon="5.92475">
        <ele>762.9</ele>
        <time>2022-03-22T08:33:33Z</time>
      </trkpt>
      <trkpt lat="46.63614" lon="5.92469">
        <ele>763</ele>
        <time>2022-03-22T08:33:38Z</time>
      </trkpt>
      <trkpt lat="46.63612" lon="5.92462">
        <ele>763.3</ele>
        <time>2022-03-22T08:33:43Z</time>
      </trkpt>
      <trkpt lat="46.6361" lon="5.92455">
        <ele>763.6</ele>
        <time>2022-03-22T08:33:49Z</time>
      </trkpt>
      <trkpt lat="46.6361" lon="5.92449">
        <ele>764.1</ele>
        <time>2022-03-22T08:34:01Z</time>
      </trkpt>
      <trkpt lat="46.63605" lon="5.92447">
        <ele>764.7</ele>
        <time>2022-03-22T08:34:05Z</time>
      </trkpt>
      <trkpt lat="46.63601" lon="5.92444">
        <ele>765.5</ele>
        <time>2022-03-22T08:34:09Z</time>
      </trkpt>
      <trkpt lat="46.63597" lon="5.92439">
        <ele>766.1</ele>
        <time>2022-03-22T08:34:14Z</time>
      </trkpt>
      <trkpt lat="46.63593" lon="5.92433">
        <ele>766.3</ele>
        <time>2022-03-22T08:34:19Z</time>
      </trkpt>
      <trkpt lat="46.6359" lon="5.92428">
        <ele>766.5</ele>
        <time>2022-03-22T08:34:24Z</time>
      </trkpt>
      <trkpt lat="46.63587" lon="5.92422">
        <ele>766.5</ele>
        <time>2022-03-22T08:34:29Z</time>
      </trkpt>
      <trkpt lat="46.63584" lon="5.92417">
        <ele>766.6</ele>
        <time>2022-03-22T08:34:34Z</time>
      </trkpt>
      <trkpt lat="46.63581" lon="5.92411">
        <ele>766.6</ele>
        <time>2022-03-22T08:34:39Z</time>
      </trkpt>
      <trkpt lat="46.63579" lon="5.92405">
        <ele>766.6</ele>
        <time>2022-03-22T08:34:44Z</time>
      </trkpt>
      <trkpt lat="46.63575" lon="5.924">
        <ele>766.7</ele>
        <time>2022-03-22T08:34:49Z</time>
      </trkpt>
      <trkpt lat="46.63572" lon="5.92395">
        <ele>766.8</ele>
        <time>2022-03-22T08:34:53Z</time>
      </trkpt>
      <trkpt lat="46.63568" lon="5.92388">
        <ele>767.1</ele>
        <time>2022-03-22T08:34:56Z</time>
      </trkpt>
      <trkpt lat="46.63565" lon="5.92381">
        <ele>767.8</ele>
        <time>2022-03-22T08:35:00Z</time>
      </trkpt>
      <trkpt lat="46.63562" lon="5.92376">
        <ele>768.2</ele>
        <time>2022-03-22T08:35:06Z</time>
      </trkpt>
      <trkpt lat="46.63559" lon="5.92371">
        <ele>769</ele>
        <time>2022-03-22T08:35:11Z</time>
      </trkpt>
      <trkpt lat="46.63554" lon="5.92366">
        <ele>769.6</ele>
        <time>2022-03-22T08:35:19Z</time>
      </trkpt>
      <trkpt lat="46.6355" lon="5.92362">
        <ele>770.4</ele>
        <time>2022-03-22T08:35:26Z</time>
      </trkpt>
      <trkpt lat="46.63547" lon="5.92356">
        <ele>771</ele>
        <time>2022-03-22T08:35:30Z</time>
      </trkpt>
      <trkpt lat="46.63543" lon="5.92352">
        <ele>771.6</ele>
        <time>2022-03-22T08:35:35Z</time>
      </trkpt>
      <trkpt lat="46.6354" lon="5.92345">
        <ele>771.8</ele>
        <time>2022-03-22T08:35:41Z</time>
      </trkpt>
      <trkpt lat="46.63538" lon="5.9234">
        <ele>771.6</ele>
        <time>2022-03-22T08:35:44Z</time>
      </trkpt>
      <trkpt lat="46.63535" lon="5.92335">
        <ele>771.7</ele>
        <time>2022-03-22T08:35:47Z</time>
      </trkpt>
      <trkpt lat="46.63533" lon="5.92328">
        <ele>771.6</ele>
        <time>2022-03-22T08:35:50Z</time>
      </trkpt>
      <trkpt lat="46.63531" lon="5.9232">
        <ele>771.6</ele>
        <time>2022-03-22T08:35:54Z</time>
      </trkpt>
      <trkpt lat="46.63529" lon="5.92312">
        <ele>771.4</ele>
        <time>2022-03-22T08:35:58Z</time>
      </trkpt>
      <trkpt lat="46.63527" lon="5.92306">
        <ele>771.4</ele>
        <time>2022-03-22T08:36:02Z</time>
      </trkpt>
      <trkpt lat="46.63523" lon="5.92301">
        <ele>772.1</ele>
        <time>2022-03-22T08:36:08Z</time>
      </trkpt>
      <trkpt lat="46.6352" lon="5.92295">
        <ele>772.7</ele>
        <time>2022-03-22T08:36:12Z</time>
      </trkpt>
      <trkpt lat="46.63517" lon="5.92289">
        <ele>773.1</ele>
        <time>2022-03-22T08:36:17Z</time>
      </trkpt>
      <trkpt lat="46.63513" lon="5.92284">
        <ele>773.7</ele>
        <time>2022-03-22T08:36:22Z</time>
      </trkpt>
      <trkpt lat="46.63509" lon="5.92279">
        <ele>774.7</ele>
        <time>2022-03-22T08:36:27Z</time>
      </trkpt>
      <trkpt lat="46.63506" lon="5.92274">
        <ele>775.4</ele>
        <time>2022-03-22T08:36:32Z</time>
      </trkpt>
      <trkpt lat="46.63503" lon="5.92268">
        <ele>775.7</ele>
        <time>2022-03-22T08:36:39Z</time>
      </trkpt>
      <trkpt lat="46.63499" lon="5.92264">
        <ele>775.7</ele>
        <time>2022-03-22T08:36:45Z</time>
      </trkpt>
      <trkpt lat="46.63496" lon="5.92259">
        <ele>775.9</ele>
        <time>2022-03-22T08:36:51Z</time>
      </trkpt>
      <trkpt lat="46.63493" lon="5.92254">
        <ele>776.4</ele>
        <time>2022-03-22T08:36:57Z</time>
      </trkpt>
      <trkpt lat="46.6349" lon="5.92249">
        <ele>777.3</ele>
        <time>2022-03-22T08:37:02Z</time>
      </trkpt>
      <trkpt lat="46.63486" lon="5.92244">
        <ele>778.7</ele>
        <time>2022-03-22T08:37:10Z</time>
      </trkpt>
      <trkpt lat="46.63481" lon="5.92245">
        <ele>779.2</ele>
        <time>2022-03-22T08:37:14Z</time>
      </trkpt>
      <trkpt lat="46.63476" lon="5.92245">
        <ele>779.1</ele>
        <time>2022-03-22T08:37:19Z</time>
      </trkpt>
      <trkpt lat="46.63472" lon="5.92241">
        <ele>779.2</ele>
        <time>2022-03-22T08:37:27Z</time>
      </trkpt>
      <trkpt lat="46.63468" lon="5.92235">
        <ele>778.8</ele>
        <time>2022-03-22T08:37:31Z</time>
      </trkpt>
      <trkpt lat="46.63464" lon="5.92232">
        <ele>778.2</ele>
        <time>2022-03-22T08:37:35Z</time>
      </trkpt>
      <trkpt lat="46.63459" lon="5.92229">
        <ele>777.5</ele>
        <time>2022-03-22T08:37:39Z</time>
      </trkpt>
      <trkpt lat="46.63454" lon="5.92227">
        <ele>777.2</ele>
        <time>2022-03-22T08:37:43Z</time>
      </trkpt>
      <trkpt lat="46.6345" lon="5.92223">
        <ele>777.2</ele>
        <time>2022-03-22T08:37:50Z</time>
      </trkpt>
      <trkpt lat="46.63446" lon="5.9222">
        <ele>776.9</ele>
        <time>2022-03-22T08:37:55Z</time>
      </trkpt>
      <trkpt lat="46.63442" lon="5.92217">
        <ele>776.5</ele>
        <time>2022-03-22T08:38:00Z</time>
      </trkpt>
      <trkpt lat="46.63437" lon="5.92215">
        <ele>776.6</ele>
        <time>2022-03-22T08:38:05Z</time>
      </trkpt>
      <trkpt lat="46.63432" lon="5.92215">
        <ele>776.3</ele>
        <time>2022-03-22T08:38:12Z</time>
      </trkpt>
      <trkpt lat="46.63427" lon="5.92214">
        <ele>776.6</ele>
        <time>2022-03-22T08:38:18Z</time>
      </trkpt>
      <trkpt lat="46.63423" lon="5.92211">
        <ele>777.9</ele>
        <time>2022-03-22T08:38:27Z</time>
      </trkpt>
      <trkpt lat="46.63419" lon="5.92206">
        <ele>778.6</ele>
        <time>2022-03-22T08:38:32Z</time>
      </trkpt>
      <trkpt lat="46.63414" lon="5.92201">
        <ele>779</ele>
        <time>2022-03-22T08:38:36Z</time>
      </trkpt>
      <trkpt lat="46.6341" lon="5.92197">
        <ele>779.6</ele>
        <time>2022-03-22T08:38:41Z</time>
      </trkpt>
      <trkpt lat="46.63406" lon="5.92192">
        <ele>779.7</ele>
        <time>2022-03-22T08:38:47Z</time>
      </trkpt>
      <trkpt lat="46.63403" lon="5.92185">
        <ele>779.6</ele>
        <time>2022-03-22T08:38:52Z</time>
      </trkpt>
      <trkpt lat="46.63399" lon="5.92179">
        <ele>779.5</ele>
        <time>2022-03-22T08:38:57Z</time>
      </trkpt>
      <trkpt lat="46.63395" lon="5.92174">
        <ele>779.7</ele>
        <time>2022-03-22T08:39:00Z</time>
      </trkpt>
      <trkpt lat="46.63392" lon="5.92167">
        <ele>780.2</ele>
        <time>2022-03-22T08:39:04Z</time>
      </trkpt>
      <trkpt lat="46.63389" lon="5.92162">
        <ele>780.5</ele>
        <time>2022-03-22T08:39:09Z</time>
      </trkpt>
      <trkpt lat="46.63388" lon="5.92155">
        <ele>780.4</ele>
        <time>2022-03-22T08:39:15Z</time>
      </trkpt>
      <trkpt lat="46.63387" lon="5.92148">
        <ele>780.2</ele>
        <time>2022-03-22T08:39:21Z</time>
      </trkpt>
      <trkpt lat="46.63387" lon="5.92141">
        <ele>780.5</ele>
        <time>2022-03-22T08:39:26Z</time>
      </trkpt>
      <trkpt lat="46.63387" lon="5.92134">
        <ele>781.3</ele>
        <time>2022-03-22T08:39:33Z</time>
      </trkpt>
      <trkpt lat="46.63385" lon="5.92127">
        <ele>777</ele>
        <time>2022-03-22T08:39:51Z</time>
      </trkpt>
      <trkpt lat="46.63384" lon="5.9212">
        <ele>775.4</ele>
        <time>2022-03-22T08:39:55Z</time>
      </trkpt>
      <trkpt lat="46.63382" lon="5.92114">
        <ele>774.3</ele>
        <time>2022-03-22T08:39:59Z</time>
      </trkpt>
      <trkpt lat="46.63381" lon="5.92106">
        <ele>774</ele>
        <time>2022-03-22T08:40:02Z</time>
      </trkpt>
      <trkpt lat="46.63381" lon="5.92098">
        <ele>773.7</ele>
        <time>2022-03-22T08:40:05Z</time>
      </trkpt>
      <trkpt lat="46.63383" lon="5.92091">
        <ele>773.4</ele>
        <time>2022-03-22T08:40:09Z</time>
      </trkpt>
      <trkpt lat="46.63382" lon="5.92084">
        <ele>773.7</ele>
        <time>2022-03-22T08:40:18Z</time>
      </trkpt>
      <trkpt lat="46.63381" lon="5.92077">
        <ele>774.8</ele>
        <time>2022-03-22T08:40:24Z</time>
      </trkpt>
      <trkpt lat="46.63381" lon="5.9207">
        <ele>775.5</ele>
        <time>2022-03-22T08:40:28Z</time>
      </trkpt>
      <trkpt lat="46.63379" lon="5.92063">
        <ele>776.2</ele>
        <time>2022-03-22T08:40:33Z</time>
      </trkpt>
      <trkpt lat="46.63378" lon="5.92056">
        <ele>777.8</ele>
        <time>2022-03-22T08:40:41Z</time>
      </trkpt>
      <trkpt lat="46.63374" lon="5.92051">
        <ele>778.8</ele>
        <time>2022-03-22T08:40:49Z</time>
      </trkpt>
      <trkpt lat="46.63371" lon="5.92046">
        <ele>778.8</ele>
        <time>2022-03-22T08:40:54Z</time>
      </trkpt>
      <trkpt lat="46.63368" lon="5.92041">
        <ele>778.4</ele>
        <time>2022-03-22T08:40:58Z</time>
      </trkpt>
      <trkpt lat="46.63365" lon="5.92035">
        <ele>778</ele>
        <time>2022-03-22T08:41:05Z</time>
      </trkpt>
      <trkpt lat="46.63362" lon="5.92029">
        <ele>778.4</ele>
        <time>2022-03-22T08:41:12Z</time>
      </trkpt>
      <trkpt lat="46.6336" lon="5.92022">
        <ele>779.3</ele>
        <time>2022-03-22T08:41:18Z</time>
      </trkpt>
      <trkpt lat="46.63358" lon="5.92015">
        <ele>780.8</ele>
        <time>2022-03-22T08:41:26Z</time>
      </trkpt>
      <trkpt lat="46.63357" lon="5.92008">
        <ele>781.8</ele>
        <time>2022-03-22T08:41:32Z</time>
      </trkpt>
      <trkpt lat="46.63355" lon="5.92001">
        <ele>782.5</ele>
        <time>2022-03-22T08:41:37Z</time>
      </trkpt>
      <trkpt lat="46.63354" lon="5.91993">
        <ele>782.6</ele>
        <time>2022-03-22T08:41:42Z</time>
      </trkpt>
      <trkpt lat="46.63355" lon="5.91985">
        <ele>782.8</ele>
        <time>2022-03-22T08:41:47Z</time>
      </trkpt>
      <trkpt lat="46.63356" lon="5.91978">
        <ele>783</ele>
        <time>2022-03-22T08:41:52Z</time>
      </trkpt>
      <trkpt lat="46.63358" lon="5.91971">
        <ele>783.2</ele>
        <time>2022-03-22T08:41:58Z</time>
      </trkpt>
      <trkpt lat="46.63358" lon="5.91964">
        <ele>783.8</ele>
        <time>2022-03-22T08:42:03Z</time>
      </trkpt>
      <trkpt lat="46.6336" lon="5.91958">
        <ele>784.7</ele>
        <time>2022-03-22T08:42:07Z</time>
      </trkpt>
      <trkpt lat="46.6336" lon="5.9195">
        <ele>785.1</ele>
        <time>2022-03-22T08:42:13Z</time>
      </trkpt>
      <trkpt lat="46.63365" lon="5.91946">
        <ele>784.6</ele>
        <time>2022-03-22T08:42:40Z</time>
      </trkpt>
      <trkpt lat="46.63369" lon="5.91941">
        <ele>783.6</ele>
        <time>2022-03-22T08:42:49Z</time>
      </trkpt>
      <trkpt lat="46.63373" lon="5.9194">
        <ele>783.2</ele>
        <time>2022-03-22T08:42:55Z</time>
      </trkpt>
      <trkpt lat="46.63378" lon="5.9194">
        <ele>783</ele>
        <time>2022-03-22T08:42:59Z</time>
      </trkpt>
      <trkpt lat="46.63383" lon="5.9194">
        <ele>782.7</ele>
        <time>2022-03-22T08:43:05Z</time>
      </trkpt>
      <trkpt lat="46.63387" lon="5.9194">
        <ele>782.3</ele>
        <time>2022-03-22T08:43:11Z</time>
      </trkpt>
      <trkpt lat="46.63393" lon="5.9194">
        <ele>781.9</ele>
        <time>2022-03-22T08:43:17Z</time>
      </trkpt>
      <trkpt lat="46.63397" lon="5.9194">
        <ele>781.5</ele>
        <time>2022-03-22T08:43:22Z</time>
      </trkpt>
      <trkpt lat="46.63403" lon="5.91937">
        <ele>781.2</ele>
        <time>2022-03-22T08:43:27Z</time>
      </trkpt>
      <trkpt lat="46.63407" lon="5.91934">
        <ele>781.3</ele>
        <time>2022-03-22T08:43:32Z</time>
      </trkpt>
      <trkpt lat="46.63412" lon="5.91932">
        <ele>782.2</ele>
        <time>2022-03-22T08:43:44Z</time>
      </trkpt>
      <trkpt lat="46.63417" lon="5.91932">
        <ele>784.3</ele>
        <time>2022-03-22T08:43:53Z</time>
      </trkpt>
      <trkpt lat="46.63421" lon="5.91932">
        <ele>785.8</ele>
        <time>2022-03-22T08:43:59Z</time>
      </trkpt>
      <trkpt lat="46.63426" lon="5.91931">
        <ele>786.6</ele>
        <time>2022-03-22T08:44:03Z</time>
      </trkpt>
      <trkpt lat="46.63432" lon="5.91931">
        <ele>787.5</ele>
        <time>2022-03-22T08:44:07Z</time>
      </trkpt>
      <trkpt lat="46.63436" lon="5.91932">
        <ele>788.3</ele>
        <time>2022-03-22T08:44:11Z</time>
      </trkpt>
      <trkpt lat="46.63441" lon="5.91933">
        <ele>789.1</ele>
        <time>2022-03-22T08:44:16Z</time>
      </trkpt>
      <trkpt lat="46.63446" lon="5.91934">
        <ele>789.6</ele>
        <time>2022-03-22T08:44:21Z</time>
      </trkpt>
      <trkpt lat="46.63451" lon="5.91936">
        <ele>788.6</ele>
        <time>2022-03-22T08:44:30Z</time>
      </trkpt>
      <trkpt lat="46.63455" lon="5.9194">
        <ele>788.5</ele>
        <time>2022-03-22T08:45:34Z</time>
      </trkpt>
      <trkpt lat="46.63453" lon="5.91933">
        <ele>793</ele>
        <time>2022-03-22T08:45:56Z</time>
      </trkpt>
      <trkpt lat="46.63458" lon="5.91932">
        <ele>800</ele>
        <time>2022-03-22T08:47:38Z</time>
      </trkpt>
      <trkpt lat="46.63452" lon="5.91932">
        <ele>799.8</ele>
        <time>2022-03-22T08:47:44Z</time>
      </trkpt>
      <trkpt lat="46.63455" lon="5.91937">
        <ele>794.6</ele>
        <time>2022-03-22T08:51:50Z</time>
      </trkpt>
      <trkpt lat="46.6346" lon="5.9194">
        <ele>796</ele>
        <time>2022-03-22T08:52:27Z</time>
      </trkpt>
      <trkpt lat="46.63465" lon="5.91942">
        <ele>795.7</ele>
        <time>2022-03-22T08:52:33Z</time>
      </trkpt>
      <trkpt lat="46.6347" lon="5.91943">
        <ele>795.6</ele>
        <time>2022-03-22T08:52:39Z</time>
      </trkpt>
      <trkpt lat="46.63475" lon="5.91944">
        <ele>797.5</ele>
        <time>2022-03-22T08:52:53Z</time>
      </trkpt>
      <trkpt lat="46.63478" lon="5.9195">
        <ele>799</ele>
        <time>2022-03-22T08:53:01Z</time>
      </trkpt>
      <trkpt lat="46.63482" lon="5.91953">
        <ele>800.2</ele>
        <time>2022-03-22T08:53:08Z</time>
      </trkpt>
      <trkpt lat="46.63487" lon="5.91956">
        <ele>800.5</ele>
        <time>2022-03-22T08:53:13Z</time>
      </trkpt>
      <trkpt lat="46.63491" lon="5.91959">
        <ele>800.4</ele>
        <time>2022-03-22T08:53:18Z</time>
      </trkpt>
      <trkpt lat="46.63495" lon="5.91963">
        <ele>800.5</ele>
        <time>2022-03-22T08:53:28Z</time>
      </trkpt>
      <trkpt lat="46.63499" lon="5.91968">
        <ele>801.7</ele>
        <time>2022-03-22T08:53:36Z</time>
      </trkpt>
      <trkpt lat="46.63504" lon="5.91968">
        <ele>802.2</ele>
        <time>2022-03-22T08:53:42Z</time>
      </trkpt>
      <trkpt lat="46.63508" lon="5.91971">
        <ele>802.6</ele>
        <time>2022-03-22T08:53:49Z</time>
      </trkpt>
      <trkpt lat="46.63516" lon="5.9197">
        <ele>803.1</ele>
        <time>2022-03-22T08:54:11Z</time>
      </trkpt>
      <trkpt lat="46.63521" lon="5.91969">
        <ele>803.2</ele>
        <time>2022-03-22T08:54:14Z</time>
      </trkpt>
      <trkpt lat="46.63526" lon="5.91967">
        <ele>803.2</ele>
        <time>2022-03-22T08:54:20Z</time>
      </trkpt>
      <trkpt lat="46.63532" lon="5.91966">
        <ele>803.2</ele>
        <time>2022-03-22T08:54:26Z</time>
      </trkpt>
      <trkpt lat="46.63537" lon="5.91965">
        <ele>803</ele>
        <time>2022-03-22T08:54:32Z</time>
      </trkpt>
      <trkpt lat="46.63541" lon="5.91964">
        <ele>803</ele>
        <time>2022-03-22T08:54:39Z</time>
      </trkpt>
      <trkpt lat="46.63546" lon="5.91965">
        <ele>802.9</ele>
        <time>2022-03-22T08:54:44Z</time>
      </trkpt>
      <trkpt lat="46.6355" lon="5.91967">
        <ele>802.8</ele>
        <time>2022-03-22T08:54:50Z</time>
      </trkpt>
      <trkpt lat="46.63555" lon="5.91971">
        <ele>802.5</ele>
        <time>2022-03-22T08:54:56Z</time>
      </trkpt>
      <trkpt lat="46.63558" lon="5.91976">
        <ele>802.4</ele>
        <time>2022-03-22T08:55:01Z</time>
      </trkpt>
      <trkpt lat="46.63562" lon="5.91981">
        <ele>802.4</ele>
        <time>2022-03-22T08:55:06Z</time>
      </trkpt>
      <trkpt lat="46.63563" lon="5.91987">
        <ele>802.4</ele>
        <time>2022-03-22T08:55:11Z</time>
      </trkpt>
      <trkpt lat="46.63564" lon="5.91994">
        <ele>802.5</ele>
        <time>2022-03-22T08:55:16Z</time>
      </trkpt>
      <trkpt lat="46.63566" lon="5.92001">
        <ele>802.6</ele>
        <time>2022-03-22T08:55:22Z</time>
      </trkpt>
      <trkpt lat="46.6357" lon="5.92006">
        <ele>802.5</ele>
        <time>2022-03-22T08:55:27Z</time>
      </trkpt>
      <trkpt lat="46.63574" lon="5.92009">
        <ele>803.4</ele>
        <time>2022-03-22T08:55:33Z</time>
      </trkpt>
      <trkpt lat="46.63578" lon="5.92012">
        <ele>805.3</ele>
        <time>2022-03-22T08:55:40Z</time>
      </trkpt>
      <trkpt lat="46.63586" lon="5.92017">
        <ele>808.9</ele>
        <time>2022-03-22T08:56:05Z</time>
      </trkpt>
      <trkpt lat="46.6359" lon="5.92022">
        <ele>809.5</ele>
        <time>2022-03-22T08:56:09Z</time>
      </trkpt>
      <trkpt lat="46.63593" lon="5.92028">
        <ele>810</ele>
        <time>2022-03-22T08:56:15Z</time>
      </trkpt>
      <trkpt lat="46.63595" lon="5.92034">
        <ele>810.5</ele>
        <time>2022-03-22T08:56:22Z</time>
      </trkpt>
      <trkpt lat="46.63598" lon="5.9204">
        <ele>811.2</ele>
        <time>2022-03-22T08:56:29Z</time>
      </trkpt>
      <trkpt lat="46.63601" lon="5.92046">
        <ele>811.7</ele>
        <time>2022-03-22T08:56:35Z</time>
      </trkpt>
      <trkpt lat="46.63604" lon="5.92052">
        <ele>812.5</ele>
        <time>2022-03-22T08:56:41Z</time>
      </trkpt>
      <trkpt lat="46.63605" lon="5.92058">
        <ele>813.6</ele>
        <time>2022-03-22T08:56:47Z</time>
      </trkpt>
      <trkpt lat="46.6361" lon="5.92062">
        <ele>814.6</ele>
        <time>2022-03-22T08:56:53Z</time>
      </trkpt>
      <trkpt lat="46.63614" lon="5.92064">
        <ele>815.3</ele>
        <time>2022-03-22T08:56:57Z</time>
      </trkpt>
      <trkpt lat="46.63619" lon="5.92065">
        <ele>816.4</ele>
        <time>2022-03-22T08:57:03Z</time>
      </trkpt>
      <trkpt lat="46.63624" lon="5.92065">
        <ele>817</ele>
        <time>2022-03-22T08:57:18Z</time>
      </trkpt>
      <trkpt lat="46.63629" lon="5.92065">
        <ele>817.1</ele>
        <time>2022-03-22T08:57:23Z</time>
      </trkpt>
      <trkpt lat="46.63635" lon="5.92066">
        <ele>818.5</ele>
        <time>2022-03-22T08:57:37Z</time>
      </trkpt>
      <trkpt lat="46.63639" lon="5.92068">
        <ele>819.7</ele>
        <time>2022-03-22T08:57:42Z</time>
      </trkpt>
      <trkpt lat="46.63643" lon="5.9207">
        <ele>821.3</ele>
        <time>2022-03-22T08:57:49Z</time>
      </trkpt>
      <trkpt lat="46.63649" lon="5.9207">
        <ele>822.5</ele>
        <time>2022-03-22T08:57:56Z</time>
      </trkpt>
      <trkpt lat="46.63654" lon="5.9207">
        <ele>823.6</ele>
        <time>2022-03-22T08:58:02Z</time>
      </trkpt>
      <trkpt lat="46.63658" lon="5.92069">
        <ele>825.1</ele>
        <time>2022-03-22T08:58:11Z</time>
      </trkpt>
      <trkpt lat="46.63663" lon="5.92068">
        <ele>825.6</ele>
        <time>2022-03-22T08:58:17Z</time>
      </trkpt>
      <trkpt lat="46.63668" lon="5.92066">
        <ele>826.5</ele>
        <time>2022-03-22T08:58:23Z</time>
      </trkpt>
      <trkpt lat="46.63673" lon="5.92066">
        <ele>827.2</ele>
        <time>2022-03-22T08:58:29Z</time>
      </trkpt>
      <trkpt lat="46.63677" lon="5.92065">
        <ele>827.6</ele>
        <time>2022-03-22T08:58:35Z</time>
      </trkpt>
      <trkpt lat="46.63682" lon="5.92067">
        <ele>828</ele>
        <time>2022-03-22T08:58:40Z</time>
      </trkpt>
      <trkpt lat="46.63685" lon="5.92072">
        <ele>828.5</ele>
        <time>2022-03-22T08:58:45Z</time>
      </trkpt>
      <trkpt lat="46.63688" lon="5.92077">
        <ele>829.4</ele>
        <time>2022-03-22T08:58:52Z</time>
      </trkpt>
      <trkpt lat="46.63691" lon="5.92082">
        <ele>830.1</ele>
        <time>2022-03-22T08:58:58Z</time>
      </trkpt>
      <trkpt lat="46.63694" lon="5.92087">
        <ele>830.7</ele>
        <time>2022-03-22T08:59:04Z</time>
      </trkpt>
      <trkpt lat="46.63696" lon="5.92093">
        <ele>830.7</ele>
        <time>2022-03-22T08:59:15Z</time>
      </trkpt>
      <trkpt lat="46.63691" lon="5.92097">
        <ele>831.2</ele>
        <time>2022-03-22T08:59:39Z</time>
      </trkpt>
      <trkpt lat="46.63687" lon="5.921">
        <ele>832</ele>
        <time>2022-03-22T08:59:45Z</time>
      </trkpt>
      <trkpt lat="46.63683" lon="5.921">
        <ele>832.5</ele>
        <time>2022-03-22T09:00:47Z</time>
      </trkpt>
      <trkpt lat="46.63678" lon="5.92101">
        <ele>833.2</ele>
        <time>2022-03-22T09:00:57Z</time>
      </trkpt>
      <trkpt lat="46.63673" lon="5.92102">
        <ele>833.7</ele>
        <time>2022-03-22T09:01:03Z</time>
      </trkpt>
      <trkpt lat="46.63669" lon="5.92106">
        <ele>834.3</ele>
        <time>2022-03-22T09:01:09Z</time>
      </trkpt>
      <trkpt lat="46.63664" lon="5.92108">
        <ele>835.2</ele>
        <time>2022-03-22T09:01:15Z</time>
      </trkpt>
      <trkpt lat="46.63659" lon="5.92111">
        <ele>835.5</ele>
        <time>2022-03-22T09:01:21Z</time>
      </trkpt>
      <trkpt lat="46.63654" lon="5.92114">
        <ele>836</ele>
        <time>2022-03-22T09:01:26Z</time>
      </trkpt>
      <trkpt lat="46.6365" lon="5.92118">
        <ele>836.4</ele>
        <time>2022-03-22T09:01:31Z</time>
      </trkpt>
      <trkpt lat="46.63645" lon="5.92119">
        <ele>836.7</ele>
        <time>2022-03-22T09:01:37Z</time>
      </trkpt>
      <trkpt lat="46.63642" lon="5.92124">
        <ele>836.7</ele>
        <time>2022-03-22T09:01:42Z</time>
      </trkpt>
      <trkpt lat="46.63637" lon="5.92128">
        <ele>837</ele>
        <time>2022-03-22T09:01:46Z</time>
      </trkpt>
      <trkpt lat="46.63634" lon="5.92133">
        <ele>837.1</ele>
        <time>2022-03-22T09:01:51Z</time>
      </trkpt>
      <trkpt lat="46.63632" lon="5.9214">
        <ele>836.8</ele>
        <time>2022-03-22T09:01:56Z</time>
      </trkpt>
      <trkpt lat="46.63632" lon="5.92148">
        <ele>836.4</ele>
        <time>2022-03-22T09:02:01Z</time>
      </trkpt>
      <trkpt lat="46.63631" lon="5.92156">
        <ele>836.2</ele>
        <time>2022-03-22T09:02:05Z</time>
      </trkpt>
      <trkpt lat="46.63633" lon="5.92162">
        <ele>836.2</ele>
        <time>2022-03-22T09:02:10Z</time>
      </trkpt>
      <trkpt lat="46.63636" lon="5.92167">
        <ele>836.3</ele>
        <time>2022-03-22T09:02:15Z</time>
      </trkpt>
      <trkpt lat="46.63641" lon="5.92171">
        <ele>836.3</ele>
        <time>2022-03-22T09:02:20Z</time>
      </trkpt>
      <trkpt lat="46.63646" lon="5.92173">
        <ele>836</ele>
        <time>2022-03-22T09:02:24Z</time>
      </trkpt>
      <trkpt lat="46.63651" lon="5.92176">
        <ele>835.4</ele>
        <time>2022-03-22T09:02:30Z</time>
      </trkpt>
      <trkpt lat="46.63656" lon="5.92178">
        <ele>835.1</ele>
        <time>2022-03-22T09:02:37Z</time>
      </trkpt>
      <trkpt lat="46.63661" lon="5.92178">
        <ele>835.2</ele>
        <time>2022-03-22T09:02:41Z</time>
      </trkpt>
      <trkpt lat="46.63666" lon="5.92178">
        <ele>835.3</ele>
        <time>2022-03-22T09:02:46Z</time>
      </trkpt>
      <trkpt lat="46.6367" lon="5.92182">
        <ele>835.5</ele>
        <time>2022-03-22T09:02:51Z</time>
      </trkpt>
      <trkpt lat="46.63673" lon="5.92187">
        <ele>835.6</ele>
        <time>2022-03-22T09:02:55Z</time>
      </trkpt>
      <trkpt lat="46.63677" lon="5.92192">
        <ele>835.8</ele>
        <time>2022-03-22T09:03:00Z</time>
      </trkpt>
      <trkpt lat="46.63681" lon="5.92195">
        <ele>836.2</ele>
        <time>2022-03-22T09:03:06Z</time>
      </trkpt>
      <trkpt lat="46.63685" lon="5.92199">
        <ele>836.5</ele>
        <time>2022-03-22T09:03:11Z</time>
      </trkpt>
      <trkpt lat="46.63689" lon="5.92204">
        <ele>836.9</ele>
        <time>2022-03-22T09:03:16Z</time>
      </trkpt>
      <trkpt lat="46.63693" lon="5.92207">
        <ele>837.4</ele>
        <time>2022-03-22T09:03:21Z</time>
      </trkpt>
      <trkpt lat="46.63698" lon="5.92211">
        <ele>838.3</ele>
        <time>2022-03-22T09:03:27Z</time>
      </trkpt>
      <trkpt lat="46.63702" lon="5.92215">
        <ele>838.8</ele>
        <time>2022-03-22T09:03:31Z</time>
      </trkpt>
      <trkpt lat="46.63706" lon="5.92216">
        <ele>839.3</ele>
        <time>2022-03-22T09:03:35Z</time>
      </trkpt>
      <trkpt lat="46.63711" lon="5.92219">
        <ele>840</ele>
        <time>2022-03-22T09:03:40Z</time>
      </trkpt>
      <trkpt lat="46.63716" lon="5.9222">
        <ele>840.7</ele>
        <time>2022-03-22T09:03:46Z</time>
      </trkpt>
      <trkpt lat="46.63721" lon="5.92221">
        <ele>841.6</ele>
        <time>2022-03-22T09:03:51Z</time>
      </trkpt>
      <trkpt lat="46.63727" lon="5.9222">
        <ele>842.1</ele>
        <time>2022-03-22T09:03:55Z</time>
      </trkpt>
      <trkpt lat="46.63732" lon="5.92219">
        <ele>842.5</ele>
        <time>2022-03-22T09:03:59Z</time>
      </trkpt>
      <trkpt lat="46.63737" lon="5.92217">
        <ele>842.5</ele>
        <time>2022-03-22T09:04:02Z</time>
      </trkpt>
      <trkpt lat="46.6374" lon="5.92213">
        <ele>842.2</ele>
        <time>2022-03-22T09:04:06Z</time>
      </trkpt>
      <trkpt lat="46.63737" lon="5.92208">
        <ele>839.8</ele>
        <time>2022-03-22T09:04:18Z</time>
      </trkpt>
      <trkpt lat="46.63733" lon="5.92205">
        <ele>838.8</ele>
        <time>2022-03-22T09:04:24Z</time>
      </trkpt>
      <trkpt lat="46.6373" lon="5.922">
        <ele>837.8</ele>
        <time>2022-03-22T09:04:28Z</time>
      </trkpt>
      <trkpt lat="46.63734" lon="5.92206">
        <ele>834.8</ele>
        <time>2022-03-22T09:04:43Z</time>
      </trkpt>
      <trkpt lat="46.63737" lon="5.9221">
        <ele>833.8</ele>
        <time>2022-03-22T09:04:47Z</time>
      </trkpt>
      <trkpt lat="46.63741" lon="5.92215">
        <ele>833</ele>
        <time>2022-03-22T09:04:51Z</time>
      </trkpt>
      <trkpt lat="46.63746" lon="5.92219">
        <ele>832.6</ele>
        <time>2022-03-22T09:04:55Z</time>
      </trkpt>
      <trkpt lat="46.63751" lon="5.92222">
        <ele>832.6</ele>
        <time>2022-03-22T09:04:58Z</time>
      </trkpt>
      <trkpt lat="46.63756" lon="5.92225">
        <ele>832.9</ele>
        <time>2022-03-22T09:05:01Z</time>
      </trkpt>
      <trkpt lat="46.63761" lon="5.92228">
        <ele>834.1</ele>
        <time>2022-03-22T09:05:05Z</time>
      </trkpt>
      <trkpt lat="46.63765" lon="5.92232">
        <ele>835.4</ele>
        <time>2022-03-22T09:05:10Z</time>
      </trkpt>
      <trkpt lat="46.63768" lon="5.92236">
        <ele>836.1</ele>
        <time>2022-03-22T09:05:15Z</time>
      </trkpt>
      <trkpt lat="46.63773" lon="5.9224">
        <ele>836.5</ele>
        <time>2022-03-22T09:05:19Z</time>
      </trkpt>
      <trkpt lat="46.63778" lon="5.92243">
        <ele>837</ele>
        <time>2022-03-22T09:05:23Z</time>
      </trkpt>
      <trkpt lat="46.63783" lon="5.92246">
        <ele>837.1</ele>
        <time>2022-03-22T09:05:27Z</time>
      </trkpt>
      <trkpt lat="46.63788" lon="5.92249">
        <ele>837.3</ele>
        <time>2022-03-22T09:05:31Z</time>
      </trkpt>
      <trkpt lat="46.63793" lon="5.92253">
        <ele>837.9</ele>
        <time>2022-03-22T09:05:35Z</time>
      </trkpt>
      <trkpt lat="46.63798" lon="5.92256">
        <ele>838.5</ele>
        <time>2022-03-22T09:05:40Z</time>
      </trkpt>
      <trkpt lat="46.63802" lon="5.92261">
        <ele>839.2</ele>
        <time>2022-03-22T09:05:44Z</time>
      </trkpt>
      <trkpt lat="46.63807" lon="5.92266">
        <ele>840.2</ele>
        <time>2022-03-22T09:05:48Z</time>
      </trkpt>
      <trkpt lat="46.63811" lon="5.9227">
        <ele>841</ele>
        <time>2022-03-22T09:05:52Z</time>
      </trkpt>
      <trkpt lat="46.63816" lon="5.92273">
        <ele>841.5</ele>
        <time>2022-03-22T09:05:57Z</time>
      </trkpt>
      <trkpt lat="46.63822" lon="5.92276">
        <ele>841.9</ele>
        <time>2022-03-22T09:06:01Z</time>
      </trkpt>
      <trkpt lat="46.63826" lon="5.92277">
        <ele>842.2</ele>
        <time>2022-03-22T09:06:04Z</time>
      </trkpt>
      <trkpt lat="46.63831" lon="5.92278">
        <ele>842.6</ele>
        <time>2022-03-22T09:06:09Z</time>
      </trkpt>
      <trkpt lat="46.63836" lon="5.9228">
        <ele>843.6</ele>
        <time>2022-03-22T09:06:16Z</time>
      </trkpt>
      <trkpt lat="46.63841" lon="5.92281">
        <ele>844.8</ele>
        <time>2022-03-22T09:06:20Z</time>
      </trkpt>
      <trkpt lat="46.63845" lon="5.92283">
        <ele>846</ele>
        <time>2022-03-22T09:06:24Z</time>
      </trkpt>
      <trkpt lat="46.6385" lon="5.92285">
        <ele>847.3</ele>
        <time>2022-03-22T09:06:30Z</time>
      </trkpt>
      <trkpt lat="46.63855" lon="5.92287">
        <ele>848</ele>
        <time>2022-03-22T09:06:36Z</time>
      </trkpt>
      <trkpt lat="46.63861" lon="5.92287">
        <ele>848.3</ele>
        <time>2022-03-22T09:06:41Z</time>
      </trkpt>
      <trkpt lat="46.63865" lon="5.92286">
        <ele>848.6</ele>
        <time>2022-03-22T09:06:45Z</time>
      </trkpt>
      <trkpt lat="46.63871" lon="5.92286">
        <ele>848.9</ele>
        <time>2022-03-22T09:06:48Z</time>
      </trkpt>
      <trkpt lat="46.63876" lon="5.92287">
        <ele>849.3</ele>
        <time>2022-03-22T09:06:51Z</time>
      </trkpt>
      <trkpt lat="46.63882" lon="5.92287">
        <ele>849.5</ele>
        <time>2022-03-22T09:06:55Z</time>
      </trkpt>
      <trkpt lat="46.63886" lon="5.92287">
        <ele>849.7</ele>
        <time>2022-03-22T09:06:59Z</time>
      </trkpt>
      <trkpt lat="46.63891" lon="5.92285">
        <ele>849.8</ele>
        <time>2022-03-22T09:07:03Z</time>
      </trkpt>
      <trkpt lat="46.63896" lon="5.92284">
        <ele>850.1</ele>
        <time>2022-03-22T09:07:07Z</time>
      </trkpt>
      <trkpt lat="46.63901" lon="5.92285">
        <ele>850.1</ele>
        <time>2022-03-22T09:07:11Z</time>
      </trkpt>
      <trkpt lat="46.63906" lon="5.92285">
        <ele>850.2</ele>
        <time>2022-03-22T09:07:15Z</time>
      </trkpt>
      <trkpt lat="46.63911" lon="5.92287">
        <ele>850.4</ele>
        <time>2022-03-22T09:07:20Z</time>
      </trkpt>
      <trkpt lat="46.63916" lon="5.92287">
        <ele>850.9</ele>
        <time>2022-03-22T09:07:25Z</time>
      </trkpt>
      <trkpt lat="46.63922" lon="5.92289">
        <ele>851.6</ele>
        <time>2022-03-22T09:07:29Z</time>
      </trkpt>
      <trkpt lat="46.63926" lon="5.92291">
        <ele>852.1</ele>
        <time>2022-03-22T09:07:33Z</time>
      </trkpt>
      <trkpt lat="46.63931" lon="5.92293">
        <ele>852.6</ele>
        <time>2022-03-22T09:07:38Z</time>
      </trkpt>
      <trkpt lat="46.63935" lon="5.92297">
        <ele>853.3</ele>
        <time>2022-03-22T09:07:45Z</time>
      </trkpt>
      <trkpt lat="46.63939" lon="5.923">
        <ele>854</ele>
        <time>2022-03-22T09:07:50Z</time>
      </trkpt>
      <trkpt lat="46.63944" lon="5.92303">
        <ele>854.6</ele>
        <time>2022-03-22T09:07:54Z</time>
      </trkpt>
      <trkpt lat="46.63949" lon="5.92306">
        <ele>855.5</ele>
        <time>2022-03-22T09:07:58Z</time>
      </trkpt>
      <trkpt lat="46.63954" lon="5.92307">
        <ele>856.6</ele>
        <time>2022-03-22T09:08:02Z</time>
      </trkpt>
      <trkpt lat="46.63958" lon="5.92309">
        <ele>857.8</ele>
        <time>2022-03-22T09:08:07Z</time>
      </trkpt>
      <trkpt lat="46.63963" lon="5.92311">
        <ele>859.2</ele>
        <time>2022-03-22T09:08:13Z</time>
      </trkpt>
      <trkpt lat="46.63968" lon="5.92311">
        <ele>860.3</ele>
        <time>2022-03-22T09:08:19Z</time>
      </trkpt>
      <trkpt lat="46.63973" lon="5.92312">
        <ele>860.9</ele>
        <time>2022-03-22T09:08:23Z</time>
      </trkpt>
      <trkpt lat="46.63978" lon="5.92315">
        <ele>862</ele>
        <time>2022-03-22T09:08:29Z</time>
      </trkpt>
      <trkpt lat="46.63983" lon="5.92317">
        <ele>863.9</ele>
        <time>2022-03-22T09:08:36Z</time>
      </trkpt>
      <trkpt lat="46.63988" lon="5.92317">
        <ele>864.6</ele>
        <time>2022-03-22T09:08:40Z</time>
      </trkpt>
      <trkpt lat="46.63992" lon="5.92316">
        <ele>865</ele>
        <time>2022-03-22T09:08:44Z</time>
      </trkpt>
      <trkpt lat="46.63997" lon="5.92317">
        <ele>865.2</ele>
        <time>2022-03-22T09:08:48Z</time>
      </trkpt>
      <trkpt lat="46.64002" lon="5.92317">
        <ele>865.3</ele>
        <time>2022-03-22T09:08:53Z</time>
      </trkpt>
      <trkpt lat="46.64007" lon="5.92318">
        <ele>865.2</ele>
        <time>2022-03-22T09:08:58Z</time>
      </trkpt>
      <trkpt lat="46.64011" lon="5.92319">
        <ele>864.9</ele>
        <time>2022-03-22T09:09:03Z</time>
      </trkpt>
      <trkpt lat="46.64016" lon="5.92321">
        <ele>864.7</ele>
        <time>2022-03-22T09:09:09Z</time>
      </trkpt>
      <trkpt lat="46.6402" lon="5.92323">
        <ele>864.1</ele>
        <time>2022-03-22T09:09:16Z</time>
      </trkpt>
      <trkpt lat="46.64025" lon="5.92324">
        <ele>863.8</ele>
        <time>2022-03-22T09:09:22Z</time>
      </trkpt>
      <trkpt lat="46.64029" lon="5.92326">
        <ele>863.8</ele>
        <time>2022-03-22T09:09:27Z</time>
      </trkpt>
      <trkpt lat="46.64034" lon="5.92327">
        <ele>864</ele>
        <time>2022-03-22T09:09:31Z</time>
      </trkpt>
      <trkpt lat="46.64039" lon="5.92329">
        <ele>864.2</ele>
        <time>2022-03-22T09:09:35Z</time>
      </trkpt>
      <trkpt lat="46.64044" lon="5.92332">
        <ele>864.7</ele>
        <time>2022-03-22T09:09:40Z</time>
      </trkpt>
      <trkpt lat="46.64048" lon="5.92334">
        <ele>865.4</ele>
        <time>2022-03-22T09:09:46Z</time>
      </trkpt>
      <trkpt lat="46.64052" lon="5.92337">
        <ele>865.9</ele>
        <time>2022-03-22T09:09:51Z</time>
      </trkpt>
      <trkpt lat="46.64057" lon="5.9234">
        <ele>866.3</ele>
        <time>2022-03-22T09:09:55Z</time>
      </trkpt>
      <trkpt lat="46.64062" lon="5.9234">
        <ele>866.4</ele>
        <time>2022-03-22T09:09:59Z</time>
      </trkpt>
      <trkpt lat="46.64068" lon="5.92341">
        <ele>866.8</ele>
        <time>2022-03-22T09:10:05Z</time>
      </trkpt>
      <trkpt lat="46.64073" lon="5.92343">
        <ele>866.8</ele>
        <time>2022-03-22T09:10:10Z</time>
      </trkpt>
      <trkpt lat="46.64078" lon="5.92346">
        <ele>866.6</ele>
        <time>2022-03-22T09:10:16Z</time>
      </trkpt>
      <trkpt lat="46.64082" lon="5.9235">
        <ele>866.3</ele>
        <time>2022-03-22T09:10:21Z</time>
      </trkpt>
      <trkpt lat="46.64086" lon="5.92354">
        <ele>865.8</ele>
        <time>2022-03-22T09:10:26Z</time>
      </trkpt>
      <trkpt lat="46.64091" lon="5.92357">
        <ele>865.5</ele>
        <time>2022-03-22T09:10:31Z</time>
      </trkpt>
      <trkpt lat="46.64095" lon="5.9236">
        <ele>865.3</ele>
        <time>2022-03-22T09:10:36Z</time>
      </trkpt>
      <trkpt lat="46.641" lon="5.92363">
        <ele>865.2</ele>
        <time>2022-03-22T09:10:41Z</time>
      </trkpt>
      <trkpt lat="46.64105" lon="5.92366">
        <ele>865.3</ele>
        <time>2022-03-22T09:10:46Z</time>
      </trkpt>
      <trkpt lat="46.64109" lon="5.9237">
        <ele>865.4</ele>
        <time>2022-03-22T09:10:51Z</time>
      </trkpt>
      <trkpt lat="46.64113" lon="5.92374">
        <ele>865.6</ele>
        <time>2022-03-22T09:10:56Z</time>
      </trkpt>
      <trkpt lat="46.64117" lon="5.92377">
        <ele>865.8</ele>
        <time>2022-03-22T09:11:01Z</time>
      </trkpt>
      <trkpt lat="46.64122" lon="5.9238">
        <ele>866.1</ele>
        <time>2022-03-22T09:11:06Z</time>
      </trkpt>
      <trkpt lat="46.64127" lon="5.92381">
        <ele>866.5</ele>
        <time>2022-03-22T09:11:11Z</time>
      </trkpt>
      <trkpt lat="46.64133" lon="5.92382">
        <ele>866.6</ele>
        <time>2022-03-22T09:11:16Z</time>
      </trkpt>
      <trkpt lat="46.64138" lon="5.92384">
        <ele>866.9</ele>
        <time>2022-03-22T09:11:20Z</time>
      </trkpt>
      <trkpt lat="46.64143" lon="5.92388">
        <ele>867.7</ele>
        <time>2022-03-22T09:11:24Z</time>
      </trkpt>
      <trkpt lat="46.64148" lon="5.92389">
        <ele>868.6</ele>
        <time>2022-03-22T09:11:29Z</time>
      </trkpt>
      <trkpt lat="46.64153" lon="5.92389">
        <ele>869.6</ele>
        <time>2022-03-22T09:11:34Z</time>
      </trkpt>
      <trkpt lat="46.64158" lon="5.92392">
        <ele>869.8</ele>
        <time>2022-03-22T09:11:39Z</time>
      </trkpt>
      <trkpt lat="46.64162" lon="5.92394">
        <ele>869.5</ele>
        <time>2022-03-22T09:11:45Z</time>
      </trkpt>
      <trkpt lat="46.64166" lon="5.92397">
        <ele>868.9</ele>
        <time>2022-03-22T09:11:50Z</time>
      </trkpt>
      <trkpt lat="46.64171" lon="5.924">
        <ele>868.6</ele>
        <time>2022-03-22T09:11:56Z</time>
      </trkpt>
      <trkpt lat="46.64175" lon="5.92401">
        <ele>868.6</ele>
        <time>2022-03-22T09:12:01Z</time>
      </trkpt>
      <trkpt lat="46.6418" lon="5.92403">
        <ele>868.3</ele>
        <time>2022-03-22T09:12:06Z</time>
      </trkpt>
      <trkpt lat="46.64185" lon="5.92405">
        <ele>868</ele>
        <time>2022-03-22T09:12:11Z</time>
      </trkpt>
      <trkpt lat="46.6419" lon="5.92407">
        <ele>867.5</ele>
        <time>2022-03-22T09:12:15Z</time>
      </trkpt>
      <trkpt lat="46.64195" lon="5.92409">
        <ele>866.9</ele>
        <time>2022-03-22T09:12:19Z</time>
      </trkpt>
      <trkpt lat="46.642" lon="5.92412">
        <ele>865.8</ele>
        <time>2022-03-22T09:12:24Z</time>
      </trkpt>
      <trkpt lat="46.64204" lon="5.92415">
        <ele>864.8</ele>
        <time>2022-03-22T09:12:28Z</time>
      </trkpt>
      <trkpt lat="46.64209" lon="5.92417">
        <ele>863.5</ele>
        <time>2022-03-22T09:12:34Z</time>
      </trkpt>
      <trkpt lat="46.64214" lon="5.92419">
        <ele>862.4</ele>
        <time>2022-03-22T09:12:40Z</time>
      </trkpt>
      <trkpt lat="46.64219" lon="5.92421">
        <ele>862.4</ele>
        <time>2022-03-22T09:12:46Z</time>
      </trkpt>
      <trkpt lat="46.64224" lon="5.92423">
        <ele>862.6</ele>
        <time>2022-03-22T09:12:50Z</time>
      </trkpt>
      <trkpt lat="46.64229" lon="5.92425">
        <ele>862.7</ele>
        <time>2022-03-22T09:12:54Z</time>
      </trkpt>
      <trkpt lat="46.64234" lon="5.92426">
        <ele>862.6</ele>
        <time>2022-03-22T09:12:58Z</time>
      </trkpt>
      <trkpt lat="46.64239" lon="5.92428">
        <ele>862.2</ele>
        <time>2022-03-22T09:13:03Z</time>
      </trkpt>
      <trkpt lat="46.64244" lon="5.92427">
        <ele>862</ele>
        <time>2022-03-22T09:13:07Z</time>
      </trkpt>
      <trkpt lat="46.64249" lon="5.92429">
        <ele>861.9</ele>
        <time>2022-03-22T09:13:12Z</time>
      </trkpt>
      <trkpt lat="46.64253" lon="5.9243">
        <ele>862</ele>
        <time>2022-03-22T09:13:17Z</time>
      </trkpt>
      <trkpt lat="46.64258" lon="5.92432">
        <ele>861.9</ele>
        <time>2022-03-22T09:13:23Z</time>
      </trkpt>
      <trkpt lat="46.64263" lon="5.92434">
        <ele>861.3</ele>
        <time>2022-03-22T09:13:29Z</time>
      </trkpt>
      <trkpt lat="46.64268" lon="5.92435">
        <ele>860.8</ele>
        <time>2022-03-22T09:13:33Z</time>
      </trkpt>
      <trkpt lat="46.64273" lon="5.92435">
        <ele>860.3</ele>
        <time>2022-03-22T09:13:37Z</time>
      </trkpt>
      <trkpt lat="46.64278" lon="5.92436">
        <ele>859.7</ele>
        <time>2022-03-22T09:13:42Z</time>
      </trkpt>
      <trkpt lat="46.64282" lon="5.92438">
        <ele>858.9</ele>
        <time>2022-03-22T09:13:47Z</time>
      </trkpt>
      <trkpt lat="46.64284" lon="5.92444">
        <ele>863.5</ele>
        <time>2022-03-22T09:14:17Z</time>
      </trkpt>
      <trkpt lat="46.64288" lon="5.92447">
        <ele>867.4</ele>
        <time>2022-03-22T09:14:27Z</time>
      </trkpt>
      <trkpt lat="46.64288" lon="5.92455">
        <ele>871.5</ele>
        <time>2022-03-22T09:14:40Z</time>
      </trkpt>
      <trkpt lat="46.64287" lon="5.92462">
        <ele>872.4</ele>
        <time>2022-03-22T09:14:46Z</time>
      </trkpt>
      <trkpt lat="46.64284" lon="5.92468">
        <ele>872.4</ele>
        <time>2022-03-22T09:14:54Z</time>
      </trkpt>
      <trkpt lat="46.6428" lon="5.92471">
        <ele>872.4</ele>
        <time>2022-03-22T09:14:59Z</time>
      </trkpt>
      <trkpt lat="46.64276" lon="5.92476">
        <ele>872.6</ele>
        <time>2022-03-22T09:15:06Z</time>
      </trkpt>
      <trkpt lat="46.64274" lon="5.92482">
        <ele>872.5</ele>
        <time>2022-03-22T09:15:13Z</time>
      </trkpt>
      <trkpt lat="46.64271" lon="5.92487">
        <ele>871.7</ele>
        <time>2022-03-22T09:15:21Z</time>
      </trkpt>
      <trkpt lat="46.64271" lon="5.92494">
        <ele>870.6</ele>
        <time>2022-03-22T09:15:30Z</time>
      </trkpt>
      <trkpt lat="46.64268" lon="5.92499">
        <ele>871.2</ele>
        <time>2022-03-22T09:15:42Z</time>
      </trkpt>
      <trkpt lat="46.64266" lon="5.92506">
        <ele>872.7</ele>
        <time>2022-03-22T09:15:50Z</time>
      </trkpt>
      <trkpt lat="46.64266" lon="5.92512">
        <ele>875.7</ele>
        <time>2022-03-22T09:16:04Z</time>
      </trkpt>
      <trkpt lat="46.64266" lon="5.92519">
        <ele>881.5</ele>
        <time>2022-03-22T09:16:28Z</time>
      </trkpt>
      <trkpt lat="46.6426" lon="5.92521">
        <ele>881.3</ele>
        <time>2022-03-22T09:16:33Z</time>
      </trkpt>
      <trkpt lat="46.64256" lon="5.92523">
        <ele>880.5</ele>
        <time>2022-03-22T09:16:37Z</time>
      </trkpt>
      <trkpt lat="46.64251" lon="5.92527">
        <ele>876.5</ele>
        <time>2022-03-22T09:16:51Z</time>
      </trkpt>
      <trkpt lat="46.64247" lon="5.92531">
        <ele>874</ele>
        <time>2022-03-22T09:16:57Z</time>
      </trkpt>
      <trkpt lat="46.64245" lon="5.92537">
        <ele>872.3</ele>
        <time>2022-03-22T09:17:03Z</time>
      </trkpt>
      <trkpt lat="46.64242" lon="5.92543">
        <ele>871.5</ele>
        <time>2022-03-22T09:17:08Z</time>
      </trkpt>
      <trkpt lat="46.64238" lon="5.92547">
        <ele>870.7</ele>
        <time>2022-03-22T09:17:14Z</time>
      </trkpt>
      <trkpt lat="46.64233" lon="5.92549">
        <ele>870.2</ele>
        <time>2022-03-22T09:17:22Z</time>
      </trkpt>
      <trkpt lat="46.64229" lon="5.92551">
        <ele>871</ele>
        <time>2022-03-22T09:17:29Z</time>
      </trkpt>
      <trkpt lat="46.64224" lon="5.92553">
        <ele>873.7</ele>
        <time>2022-03-22T09:18:14Z</time>
      </trkpt>
      <trkpt lat="46.6422" lon="5.92557">
        <ele>874.7</ele>
        <time>2022-03-22T09:18:22Z</time>
      </trkpt>
      <trkpt lat="46.64217" lon="5.92563">
        <ele>875.3</ele>
        <time>2022-03-22T09:18:29Z</time>
      </trkpt>
      <trkpt lat="46.64215" lon="5.92569">
        <ele>876.3</ele>
        <time>2022-03-22T09:18:36Z</time>
      </trkpt>
      <trkpt lat="46.64212" lon="5.92575">
        <ele>877.2</ele>
        <time>2022-03-22T09:18:46Z</time>
      </trkpt>
      <trkpt lat="46.64206" lon="5.92585">
        <ele>878.7</ele>
        <time>2022-03-22T09:20:04Z</time>
      </trkpt>
      <trkpt lat="46.64204" lon="5.9259">
        <ele>880.5</ele>
        <time>2022-03-22T09:20:09Z</time>
      </trkpt>
      <trkpt lat="46.64202" lon="5.92584">
        <ele>885.8</ele>
        <time>2022-03-22T09:20:49Z</time>
      </trkpt>
      <trkpt lat="46.64207" lon="5.92581">
        <ele>885.3</ele>
        <time>2022-03-22T09:21:24Z</time>
      </trkpt>
      <trkpt lat="46.6421" lon="5.92577">
        <ele>882.9</ele>
        <time>2022-03-22T09:22:15Z</time>
      </trkpt>
      <trkpt lat="46.64215" lon="5.92574">
        <ele>883.6</ele>
        <time>2022-03-22T09:22:22Z</time>
      </trkpt>
      <trkpt lat="46.64219" lon="5.92572">
        <ele>883.4</ele>
        <time>2022-03-22T09:22:29Z</time>
      </trkpt>
      <trkpt lat="46.64225" lon="5.92572">
        <ele>883.5</ele>
        <time>2022-03-22T09:22:38Z</time>
      </trkpt>
      <trkpt lat="46.6423" lon="5.92572">
        <ele>884.1</ele>
        <time>2022-03-22T09:22:44Z</time>
      </trkpt>
      <trkpt lat="46.64234" lon="5.92574">
        <ele>884.9</ele>
        <time>2022-03-22T09:22:51Z</time>
      </trkpt>
      <trkpt lat="46.64239" lon="5.92576">
        <ele>886</ele>
        <time>2022-03-22T09:22:58Z</time>
      </trkpt>
      <trkpt lat="46.64244" lon="5.92576">
        <ele>886.9</ele>
        <time>2022-03-22T09:23:05Z</time>
      </trkpt>
      <trkpt lat="46.64249" lon="5.92578">
        <ele>887.4</ele>
        <time>2022-03-22T09:23:11Z</time>
      </trkpt>
      <trkpt lat="46.64253" lon="5.92581">
        <ele>888</ele>
        <time>2022-03-22T09:23:20Z</time>
      </trkpt>
      <trkpt lat="46.64258" lon="5.92585">
        <ele>888.4</ele>
        <time>2022-03-22T09:23:30Z</time>
      </trkpt>
      <trkpt lat="46.64264" lon="5.92586">
        <ele>888.5</ele>
        <time>2022-03-22T09:23:35Z</time>
      </trkpt>
      <trkpt lat="46.64269" lon="5.92587">
        <ele>888.7</ele>
        <time>2022-03-22T09:23:40Z</time>
      </trkpt>
      <trkpt lat="46.64274" lon="5.92587">
        <ele>888.9</ele>
        <time>2022-03-22T09:23:45Z</time>
      </trkpt>
      <trkpt lat="46.64279" lon="5.92589">
        <ele>889.1</ele>
        <time>2022-03-22T09:23:51Z</time>
      </trkpt>
      <trkpt lat="46.64284" lon="5.9259">
        <ele>889.5</ele>
        <time>2022-03-22T09:23:57Z</time>
      </trkpt>
      <trkpt lat="46.64287" lon="5.92595">
        <ele>889.8</ele>
        <time>2022-03-22T09:24:03Z</time>
      </trkpt>
      <trkpt lat="46.6429" lon="5.926">
        <ele>890.1</ele>
        <time>2022-03-22T09:24:08Z</time>
      </trkpt>
      <trkpt lat="46.64295" lon="5.92602">
        <ele>890.4</ele>
        <time>2022-03-22T09:24:13Z</time>
      </trkpt>
      <trkpt lat="46.643" lon="5.92604">
        <ele>890.8</ele>
        <time>2022-03-22T09:24:20Z</time>
      </trkpt>
      <trkpt lat="46.64304" lon="5.92608">
        <ele>891</ele>
        <time>2022-03-22T09:24:34Z</time>
      </trkpt>
      <trkpt lat="46.64308" lon="5.92612">
        <ele>890.8</ele>
        <time>2022-03-22T09:24:51Z</time>
      </trkpt>
      <trkpt lat="46.64316" lon="5.92618">
        <ele>889.2</ele>
        <time>2022-03-22T09:26:41Z</time>
      </trkpt>
      <trkpt lat="46.64321" lon="5.9262">
        <ele>888.4</ele>
        <time>2022-03-22T09:26:44Z</time>
      </trkpt>
      <trkpt lat="46.64316" lon="5.92616">
        <ele>890.4</ele>
        <time>2022-03-22T09:27:45Z</time>
      </trkpt>
      <trkpt lat="46.6431" lon="5.92618">
        <ele>889.1</ele>
        <time>2022-03-22T09:27:52Z</time>
      </trkpt>
      <trkpt lat="46.64306" lon="5.92617">
        <ele>888.9</ele>
        <time>2022-03-22T09:27:59Z</time>
      </trkpt>
      <trkpt lat="46.64299" lon="5.9261">
        <ele>889.8</ele>
        <time>2022-03-22T09:28:43Z</time>
      </trkpt>
      <trkpt lat="46.64295" lon="5.92606">
        <ele>890.2</ele>
        <time>2022-03-22T09:28:46Z</time>
      </trkpt>
      <trkpt lat="46.64291" lon="5.92603">
        <ele>890.7</ele>
        <time>2022-03-22T09:28:51Z</time>
      </trkpt>
      <trkpt lat="46.64296" lon="5.92603">
        <ele>891.2</ele>
        <time>2022-03-22T09:29:49Z</time>
      </trkpt>
      <trkpt lat="46.643" lon="5.92605">
        <ele>891.3</ele>
        <time>2022-03-22T09:29:55Z</time>
      </trkpt>
      <trkpt lat="46.64305" lon="5.92609">
        <ele>891.7</ele>
        <time>2022-03-22T09:30:01Z</time>
      </trkpt>
      <trkpt lat="46.64309" lon="5.92612">
        <ele>892</ele>
        <time>2022-03-22T09:30:07Z</time>
      </trkpt>
      <trkpt lat="46.64313" lon="5.92616">
        <ele>892.4</ele>
        <time>2022-03-22T09:30:14Z</time>
      </trkpt>
      <trkpt lat="46.64318" lon="5.92618">
        <ele>892.8</ele>
        <time>2022-03-22T09:30:20Z</time>
      </trkpt>
      <trkpt lat="46.64322" lon="5.9262">
        <ele>892.9</ele>
        <time>2022-03-22T09:30:25Z</time>
      </trkpt>
      <trkpt lat="46.64327" lon="5.92622">
        <ele>893.2</ele>
        <time>2022-03-22T09:30:31Z</time>
      </trkpt>
      <trkpt lat="46.64332" lon="5.92623">
        <ele>894</ele>
        <time>2022-03-22T09:30:40Z</time>
      </trkpt>
      <trkpt lat="46.64336" lon="5.92618">
        <ele>895.4</ele>
        <time>2022-03-22T09:30:50Z</time>
      </trkpt>
      <trkpt lat="46.64341" lon="5.92617">
        <ele>895.6</ele>
        <time>2022-03-22T09:30:54Z</time>
      </trkpt>
      <trkpt lat="46.64345" lon="5.92615">
        <ele>896.1</ele>
        <time>2022-03-22T09:30:59Z</time>
      </trkpt>
      <trkpt lat="46.6435" lon="5.92612">
        <ele>896.6</ele>
        <time>2022-03-22T09:31:06Z</time>
      </trkpt>
      <trkpt lat="46.64354" lon="5.92608">
        <ele>895.9</ele>
        <time>2022-03-22T09:31:15Z</time>
      </trkpt>
      <trkpt lat="46.64359" lon="5.92608">
        <ele>894.6</ele>
        <time>2022-03-22T09:31:23Z</time>
      </trkpt>
      <trkpt lat="46.64362" lon="5.92613">
        <ele>893.6</ele>
        <time>2022-03-22T09:31:28Z</time>
      </trkpt>
      <trkpt lat="46.64366" lon="5.92617">
        <ele>892.5</ele>
        <time>2022-03-22T09:31:34Z</time>
      </trkpt>
      <trkpt lat="46.64369" lon="5.92623">
        <ele>892.1</ele>
        <time>2022-03-22T09:31:40Z</time>
      </trkpt>
      <trkpt lat="46.64372" lon="5.92629">
        <ele>891.7</ele>
        <time>2022-03-22T09:31:47Z</time>
      </trkpt>
      <trkpt lat="46.64376" lon="5.9263">
        <ele>892.1</ele>
        <time>2022-03-22T09:31:55Z</time>
      </trkpt>
      <trkpt lat="46.64382" lon="5.92632">
        <ele>892.8</ele>
        <time>2022-03-22T09:32:00Z</time>
      </trkpt>
      <trkpt lat="46.64386" lon="5.92635">
        <ele>893.2</ele>
        <time>2022-03-22T09:32:05Z</time>
      </trkpt>
      <trkpt lat="46.64391" lon="5.92636">
        <ele>893.9</ele>
        <time>2022-03-22T09:32:09Z</time>
      </trkpt>
      <trkpt lat="46.64396" lon="5.92636">
        <ele>895</ele>
        <time>2022-03-22T09:32:14Z</time>
      </trkpt>
      <trkpt lat="46.644" lon="5.92633">
        <ele>895.8</ele>
        <time>2022-03-22T09:32:23Z</time>
      </trkpt>
      <trkpt lat="46.64404" lon="5.92627">
        <ele>895.4</ele>
        <time>2022-03-22T09:32:30Z</time>
      </trkpt>
      <trkpt lat="46.64408" lon="5.92623">
        <ele>895.4</ele>
        <time>2022-03-22T09:32:39Z</time>
      </trkpt>
      <trkpt lat="46.64412" lon="5.92621">
        <ele>895.4</ele>
        <time>2022-03-22T09:32:44Z</time>
      </trkpt>
      <trkpt lat="46.64418" lon="5.92618">
        <ele>895.4</ele>
        <time>2022-03-22T09:32:48Z</time>
      </trkpt>
      <trkpt lat="46.64422" lon="5.92616">
        <ele>895.3</ele>
        <time>2022-03-22T09:32:51Z</time>
      </trkpt>
      <trkpt lat="46.64427" lon="5.92617">
        <ele>895</ele>
        <time>2022-03-22T09:32:56Z</time>
      </trkpt>
      <trkpt lat="46.64432" lon="5.92619">
        <ele>895</ele>
        <time>2022-03-22T09:33:02Z</time>
      </trkpt>
      <trkpt lat="46.64436" lon="5.9262">
        <ele>895.3</ele>
        <time>2022-03-22T09:33:06Z</time>
      </trkpt>
      <trkpt lat="46.6444" lon="5.92624">
        <ele>895</ele>
        <time>2022-03-22T09:33:15Z</time>
      </trkpt>
      <trkpt lat="46.64443" lon="5.92629">
        <ele>894.6</ele>
        <time>2022-03-22T09:33:20Z</time>
      </trkpt>
      <trkpt lat="46.64446" lon="5.92634">
        <ele>893.7</ele>
        <time>2022-03-22T09:33:28Z</time>
      </trkpt>
      <trkpt lat="46.64451" lon="5.92635">
        <ele>893</ele>
        <time>2022-03-22T09:33:34Z</time>
      </trkpt>
      <trkpt lat="46.64456" lon="5.92634">
        <ele>892.8</ele>
        <time>2022-03-22T09:33:37Z</time>
      </trkpt>
      <trkpt lat="46.64461" lon="5.92632">
        <ele>892.3</ele>
        <time>2022-03-22T09:33:40Z</time>
      </trkpt>
      <trkpt lat="46.64465" lon="5.92626">
        <ele>891.8</ele>
        <time>2022-03-22T09:33:44Z</time>
      </trkpt>
      <trkpt lat="46.64467" lon="5.92619">
        <ele>891</ele>
        <time>2022-03-22T09:33:50Z</time>
      </trkpt>
      <trkpt lat="46.64467" lon="5.92612">
        <ele>890.7</ele>
        <time>2022-03-22T09:33:55Z</time>
      </trkpt>
      <trkpt lat="46.64472" lon="5.92608">
        <ele>891</ele>
        <time>2022-03-22T09:34:04Z</time>
      </trkpt>
      <trkpt lat="46.6448" lon="5.92608">
        <ele>891.1</ele>
        <time>2022-03-22T09:34:13Z</time>
      </trkpt>
      <trkpt lat="46.64485" lon="5.92609">
        <ele>891.1</ele>
        <time>2022-03-22T09:34:16Z</time>
      </trkpt>
      <trkpt lat="46.64489" lon="5.9261">
        <ele>891.1</ele>
        <time>2022-03-22T09:34:20Z</time>
      </trkpt>
      <trkpt lat="46.64494" lon="5.92612">
        <ele>891.1</ele>
        <time>2022-03-22T09:34:27Z</time>
      </trkpt>
      <trkpt lat="46.64498" lon="5.92616">
        <ele>890.6</ele>
        <time>2022-03-22T09:34:34Z</time>
      </trkpt>
      <trkpt lat="46.64502" lon="5.9262">
        <ele>889.3</ele>
        <time>2022-03-22T09:34:40Z</time>
      </trkpt>
      <trkpt lat="46.64506" lon="5.92623">
        <ele>888.4</ele>
        <time>2022-03-22T09:34:45Z</time>
      </trkpt>
      <trkpt lat="46.64513" lon="5.92626">
        <ele>889.9</ele>
        <time>2022-03-22T09:35:01Z</time>
      </trkpt>
      <trkpt lat="46.64518" lon="5.92627">
        <ele>891.3</ele>
        <time>2022-03-22T09:35:05Z</time>
      </trkpt>
      <trkpt lat="46.64522" lon="5.92629">
        <ele>892.8</ele>
        <time>2022-03-22T09:35:10Z</time>
      </trkpt>
      <trkpt lat="46.64526" lon="5.92635">
        <ele>893.5</ele>
        <time>2022-03-22T09:35:17Z</time>
      </trkpt>
      <trkpt lat="46.64528" lon="5.92641">
        <ele>894.3</ele>
        <time>2022-03-22T09:35:23Z</time>
      </trkpt>
      <trkpt lat="46.64531" lon="5.92647">
        <ele>894.8</ele>
        <time>2022-03-22T09:35:29Z</time>
      </trkpt>
      <trkpt lat="46.64533" lon="5.92654">
        <ele>895.2</ele>
        <time>2022-03-22T09:35:34Z</time>
      </trkpt>
      <trkpt lat="46.64534" lon="5.9266">
        <ele>895.9</ele>
        <time>2022-03-22T09:35:39Z</time>
      </trkpt>
      <trkpt lat="46.64535" lon="5.92668">
        <ele>897.5</ele>
        <time>2022-03-22T09:35:46Z</time>
      </trkpt>
      <trkpt lat="46.64534" lon="5.92675">
        <ele>898.7</ele>
        <time>2022-03-22T09:35:52Z</time>
      </trkpt>
      <trkpt lat="46.64532" lon="5.9268">
        <ele>899.3</ele>
        <time>2022-03-22T09:35:57Z</time>
      </trkpt>
      <trkpt lat="46.64528" lon="5.92685">
        <ele>899.3</ele>
        <time>2022-03-22T09:36:01Z</time>
      </trkpt>
      <trkpt lat="46.64525" lon="5.92691">
        <ele>898.6</ele>
        <time>2022-03-22T09:36:06Z</time>
      </trkpt>
      <trkpt lat="46.64522" lon="5.92696">
        <ele>897.6</ele>
        <time>2022-03-22T09:36:11Z</time>
      </trkpt>
      <trkpt lat="46.64518" lon="5.92699">
        <ele>896.7</ele>
        <time>2022-03-22T09:36:17Z</time>
      </trkpt>
      <trkpt lat="46.64513" lon="5.92702">
        <ele>896.1</ele>
        <time>2022-03-22T09:36:21Z</time>
      </trkpt>
      <trkpt lat="46.64509" lon="5.92704">
        <ele>895.5</ele>
        <time>2022-03-22T09:36:24Z</time>
      </trkpt>
      <trkpt lat="46.64504" lon="5.92705">
        <ele>894.7</ele>
        <time>2022-03-22T09:36:28Z</time>
      </trkpt>
      <trkpt lat="46.645" lon="5.92708">
        <ele>893.7</ele>
        <time>2022-03-22T09:36:34Z</time>
      </trkpt>
      <trkpt lat="46.64495" lon="5.92708">
        <ele>893.4</ele>
        <time>2022-03-22T09:36:40Z</time>
      </trkpt>
      <trkpt lat="46.6449" lon="5.92709">
        <ele>892.9</ele>
        <time>2022-03-22T09:36:46Z</time>
      </trkpt>
      <trkpt lat="46.64486" lon="5.92713">
        <ele>891.9</ele>
        <time>2022-03-22T09:36:51Z</time>
      </trkpt>
      <trkpt lat="46.64482" lon="5.92717">
        <ele>891.1</ele>
        <time>2022-03-22T09:36:56Z</time>
      </trkpt>
      <trkpt lat="46.64478" lon="5.92722">
        <ele>890.3</ele>
        <time>2022-03-22T09:37:02Z</time>
      </trkpt>
      <trkpt lat="46.64474" lon="5.92726">
        <ele>888.7</ele>
        <time>2022-03-22T09:37:12Z</time>
      </trkpt>
      <trkpt lat="46.6447" lon="5.92729">
        <ele>887.2</ele>
        <time>2022-03-22T09:37:18Z</time>
      </trkpt>
      <trkpt lat="46.64465" lon="5.92731">
        <ele>884.8</ele>
        <time>2022-03-22T09:37:27Z</time>
      </trkpt>
      <trkpt lat="46.64461" lon="5.92734">
        <ele>883.6</ele>
        <time>2022-03-22T09:37:33Z</time>
      </trkpt>
      <trkpt lat="46.64458" lon="5.92739">
        <ele>881</ele>
        <time>2022-03-22T09:37:50Z</time>
      </trkpt>
      <trkpt lat="46.64454" lon="5.92736">
        <ele>879.9</ele>
        <time>2022-03-22T09:37:59Z</time>
      </trkpt>
      <trkpt lat="46.64449" lon="5.92735">
        <ele>879.7</ele>
        <time>2022-03-22T09:38:06Z</time>
      </trkpt>
      <trkpt lat="46.64444" lon="5.92738">
        <ele>879.7</ele>
        <time>2022-03-22T09:38:10Z</time>
      </trkpt>
      <trkpt lat="46.6444" lon="5.92741">
        <ele>879.5</ele>
        <time>2022-03-22T09:38:17Z</time>
      </trkpt>
      <trkpt lat="46.64438" lon="5.92747">
        <ele>879</ele>
        <time>2022-03-22T09:38:30Z</time>
      </trkpt>
      <trkpt lat="46.64437" lon="5.92754">
        <ele>879.3</ele>
        <time>2022-03-22T09:38:37Z</time>
      </trkpt>
      <trkpt lat="46.64433" lon="5.92758">
        <ele>878.7</ele>
        <time>2022-03-22T09:38:43Z</time>
      </trkpt>
      <trkpt lat="46.64428" lon="5.92758">
        <ele>874.6</ele>
        <time>2022-03-22T09:39:02Z</time>
      </trkpt>
      <trkpt lat="46.64429" lon="5.92765">
        <ele>871.7</ele>
        <time>2022-03-22T09:39:12Z</time>
      </trkpt>
      <trkpt lat="46.64434" lon="5.92764">
        <ele>871.9</ele>
        <time>2022-03-22T09:39:23Z</time>
      </trkpt>
      <trkpt lat="46.64439" lon="5.92765">
        <ele>871.1</ele>
        <time>2022-03-22T09:39:27Z</time>
      </trkpt>
      <trkpt lat="46.64442" lon="5.9277">
        <ele>869.1</ele>
        <time>2022-03-22T09:39:33Z</time>
      </trkpt>
      <trkpt lat="46.64443" lon="5.92778">
        <ele>867.2</ele>
        <time>2022-03-22T09:39:39Z</time>
      </trkpt>
      <trkpt lat="46.64444" lon="5.92784">
        <ele>865.9</ele>
        <time>2022-03-22T09:39:44Z</time>
      </trkpt>
      <trkpt lat="46.64447" lon="5.9279">
        <ele>863.9</ele>
        <time>2022-03-22T09:39:51Z</time>
      </trkpt>
      <trkpt lat="46.6445" lon="5.92795">
        <ele>861.1</ele>
        <time>2022-03-22T09:40:02Z</time>
      </trkpt>
      <trkpt lat="46.64454" lon="5.928">
        <ele>859.9</ele>
        <time>2022-03-22T09:40:16Z</time>
      </trkpt>
      <trkpt lat="46.64458" lon="5.92807">
        <ele>859.4</ele>
        <time>2022-03-22T09:40:54Z</time>
      </trkpt>
      <trkpt lat="46.64463" lon="5.92808">
        <ele>858.8</ele>
        <time>2022-03-22T09:40:58Z</time>
      </trkpt>
      <trkpt lat="46.64468" lon="5.9281">
        <ele>857</ele>
        <time>2022-03-22T09:41:07Z</time>
      </trkpt>
      <trkpt lat="46.64472" lon="5.92814">
        <ele>853.7</ele>
        <time>2022-03-22T09:41:18Z</time>
      </trkpt>
      <trkpt lat="46.64476" lon="5.92815">
        <ele>850.9</ele>
        <time>2022-03-22T09:41:29Z</time>
      </trkpt>
      <trkpt lat="46.64481" lon="5.9282">
        <ele>850.5</ele>
        <time>2022-03-22T09:41:35Z</time>
      </trkpt>
      <trkpt lat="46.64485" lon="5.92822">
        <ele>850.8</ele>
        <time>2022-03-22T09:41:41Z</time>
      </trkpt>
      <trkpt lat="46.64488" lon="5.92827">
        <ele>851.9</ele>
        <time>2022-03-22T09:41:49Z</time>
      </trkpt>
      <trkpt lat="46.64491" lon="5.92833">
        <ele>852.5</ele>
        <time>2022-03-22T09:41:53Z</time>
      </trkpt>
      <trkpt lat="46.64495" lon="5.92835">
        <ele>852.4</ele>
        <time>2022-03-22T09:41:59Z</time>
      </trkpt>
      <trkpt lat="46.645" lon="5.92834">
        <ele>851.9</ele>
        <time>2022-03-22T09:42:04Z</time>
      </trkpt>
      <trkpt lat="46.64503" lon="5.92839">
        <ele>851.6</ele>
        <time>2022-03-22T09:42:11Z</time>
      </trkpt>
      <trkpt lat="46.64504" lon="5.92846">
        <ele>851</ele>
        <time>2022-03-22T09:42:16Z</time>
      </trkpt>
      <trkpt lat="46.64506" lon="5.92852">
        <ele>851.8</ele>
        <time>2022-03-22T09:42:23Z</time>
      </trkpt>
      <trkpt lat="46.6451" lon="5.92856">
        <ele>852.7</ele>
        <time>2022-03-22T09:42:31Z</time>
      </trkpt>
      <trkpt lat="46.64514" lon="5.92854">
        <ele>852.3</ele>
        <time>2022-03-22T09:42:38Z</time>
      </trkpt>
      <trkpt lat="46.64519" lon="5.92852">
        <ele>851</ele>
        <time>2022-03-22T09:42:43Z</time>
      </trkpt>
      <trkpt lat="46.64523" lon="5.9285">
        <ele>849.8</ele>
        <time>2022-03-22T09:42:48Z</time>
      </trkpt>
      <trkpt lat="46.64528" lon="5.9285">
        <ele>848.3</ele>
        <time>2022-03-22T09:42:59Z</time>
      </trkpt>
      <trkpt lat="46.64533" lon="5.92854">
        <ele>847.9</ele>
        <time>2022-03-22T09:43:36Z</time>
      </trkpt>
      <trkpt lat="46.64535" lon="5.9286">
        <ele>848.1</ele>
        <time>2022-03-22T09:43:40Z</time>
      </trkpt>
      <trkpt lat="46.64539" lon="5.92863">
        <ele>848.2</ele>
        <time>2022-03-22T09:43:46Z</time>
      </trkpt>
      <trkpt lat="46.64539" lon="5.9287">
        <ele>848.2</ele>
        <time>2022-03-22T09:43:53Z</time>
      </trkpt>
      <trkpt lat="46.64537" lon="5.92877">
        <ele>848.4</ele>
        <time>2022-03-22T09:43:58Z</time>
      </trkpt>
      <trkpt lat="46.64533" lon="5.92882">
        <ele>848.1</ele>
        <time>2022-03-22T09:44:03Z</time>
      </trkpt>
      <trkpt lat="46.64534" lon="5.92889">
        <ele>847.7</ele>
        <time>2022-03-22T09:44:11Z</time>
      </trkpt>
      <trkpt lat="46.64535" lon="5.92896">
        <ele>847.2</ele>
        <time>2022-03-22T09:44:17Z</time>
      </trkpt>
      <trkpt lat="46.64537" lon="5.92902">
        <ele>845.9</ele>
        <time>2022-03-22T09:44:24Z</time>
      </trkpt>
      <trkpt lat="46.64539" lon="5.92909">
        <ele>845</ele>
        <time>2022-03-22T09:44:31Z</time>
      </trkpt>
      <trkpt lat="46.64538" lon="5.92916">
        <ele>844.9</ele>
        <time>2022-03-22T09:44:36Z</time>
      </trkpt>
      <trkpt lat="46.64537" lon="5.92922">
        <ele>844.7</ele>
        <time>2022-03-22T09:44:41Z</time>
      </trkpt>
      <trkpt lat="46.64534" lon="5.92928">
        <ele>844.6</ele>
        <time>2022-03-22T09:44:46Z</time>
      </trkpt>
      <trkpt lat="46.64529" lon="5.9293">
        <ele>844.2</ele>
        <time>2022-03-22T09:44:54Z</time>
      </trkpt>
      <trkpt lat="46.64524" lon="5.92932">
        <ele>843.7</ele>
        <time>2022-03-22T09:45:00Z</time>
      </trkpt>
      <trkpt lat="46.64528" lon="5.92935">
        <ele>841.3</ele>
        <time>2022-03-22T09:46:36Z</time>
      </trkpt>
      <trkpt lat="46.64527" lon="5.92928">
        <ele>842.9</ele>
        <time>2022-03-22T09:48:06Z</time>
      </trkpt>
      <trkpt lat="46.64526" lon="5.92921">
        <ele>844.6</ele>
        <time>2022-03-22T09:48:10Z</time>
      </trkpt>
      <trkpt lat="46.64531" lon="5.9292">
        <ele>845.6</ele>
        <time>2022-03-22T09:48:57Z</time>
      </trkpt>
      <trkpt lat="46.64535" lon="5.92923">
        <ele>844.1</ele>
        <time>2022-03-22T09:49:02Z</time>
      </trkpt>
      <trkpt lat="46.6454" lon="5.92923">
        <ele>843.2</ele>
        <time>2022-03-22T09:49:20Z</time>
      </trkpt>
      <trkpt lat="46.64542" lon="5.92917">
        <ele>845.4</ele>
        <time>2022-03-22T09:49:30Z</time>
      </trkpt>
      <trkpt lat="46.6454" lon="5.92911">
        <ele>846.1</ele>
        <time>2022-03-22T09:49:37Z</time>
      </trkpt>
      <trkpt lat="46.64539" lon="5.92904">
        <ele>846.2</ele>
        <time>2022-03-22T09:49:43Z</time>
      </trkpt>
      <trkpt lat="46.6454" lon="5.92896">
        <ele>845.5</ele>
        <time>2022-03-22T09:49:54Z</time>
      </trkpt>
      <trkpt lat="46.64539" lon="5.92889">
        <ele>845.4</ele>
        <time>2022-03-22T09:49:59Z</time>
      </trkpt>
      <trkpt lat="46.64537" lon="5.92883">
        <ele>845.8</ele>
        <time>2022-03-22T09:50:03Z</time>
      </trkpt>
      <trkpt lat="46.64536" lon="5.92876">
        <ele>846.5</ele>
        <time>2022-03-22T09:50:09Z</time>
      </trkpt>
      <trkpt lat="46.64537" lon="5.92868">
        <ele>847.4</ele>
        <time>2022-03-22T09:50:19Z</time>
      </trkpt>
      <trkpt lat="46.64535" lon="5.92862">
        <ele>848.2</ele>
        <time>2022-03-22T09:50:27Z</time>
      </trkpt>
      <trkpt lat="46.64532" lon="5.92856">
        <ele>849.5</ele>
        <time>2022-03-22T09:50:35Z</time>
      </trkpt>
      <trkpt lat="46.64534" lon="5.9285">
        <ele>849.7</ele>
        <time>2022-03-22T09:50:44Z</time>
      </trkpt>
      <trkpt lat="46.64535" lon="5.92842">
        <ele>850</ele>
        <time>2022-03-22T09:50:47Z</time>
      </trkpt>
      <trkpt lat="46.64537" lon="5.92835">
        <ele>850.2</ele>
        <time>2022-03-22T09:50:51Z</time>
      </trkpt>
      <trkpt lat="46.64539" lon="5.92828">
        <ele>850.3</ele>
        <time>2022-03-22T09:50:56Z</time>
      </trkpt>
      <trkpt lat="46.64544" lon="5.92826">
        <ele>849.9</ele>
        <time>2022-03-22T09:51:02Z</time>
      </trkpt>
      <trkpt lat="46.64549" lon="5.92825">
        <ele>848.9</ele>
        <time>2022-03-22T09:51:08Z</time>
      </trkpt>
      <trkpt lat="46.64554" lon="5.92823">
        <ele>848.1</ele>
        <time>2022-03-22T09:51:14Z</time>
      </trkpt>
      <trkpt lat="46.64556" lon="5.92816">
        <ele>847.6</ele>
        <time>2022-03-22T09:51:21Z</time>
      </trkpt>
      <trkpt lat="46.64559" lon="5.9281">
        <ele>847.7</ele>
        <time>2022-03-22T09:51:28Z</time>
      </trkpt>
      <trkpt lat="46.64563" lon="5.92805">
        <ele>847.4</ele>
        <time>2022-03-22T09:51:33Z</time>
      </trkpt>
      <trkpt lat="46.64565" lon="5.92798">
        <ele>846.8</ele>
        <time>2022-03-22T09:51:39Z</time>
      </trkpt>
      <trkpt lat="46.64565" lon="5.92791">
        <ele>846.5</ele>
        <time>2022-03-22T09:51:47Z</time>
      </trkpt>
      <trkpt lat="46.64568" lon="5.92786">
        <ele>847.5</ele>
        <time>2022-03-22T09:51:54Z</time>
      </trkpt>
      <trkpt lat="46.6457" lon="5.9278">
        <ele>848.7</ele>
        <time>2022-03-22T09:52:02Z</time>
      </trkpt>
      <trkpt lat="46.64573" lon="5.92774">
        <ele>849.1</ele>
        <time>2022-03-22T09:52:08Z</time>
      </trkpt>
      <trkpt lat="46.64575" lon="5.92768">
        <ele>849.4</ele>
        <time>2022-03-22T09:52:13Z</time>
      </trkpt>
      <trkpt lat="46.6458" lon="5.92765">
        <ele>849.9</ele>
        <time>2022-03-22T09:52:18Z</time>
      </trkpt>
      <trkpt lat="46.64585" lon="5.92762">
        <ele>850.2</ele>
        <time>2022-03-22T09:52:22Z</time>
      </trkpt>
      <trkpt lat="46.64589" lon="5.92757">
        <ele>850.6</ele>
        <time>2022-03-22T09:52:27Z</time>
      </trkpt>
      <trkpt lat="46.64593" lon="5.92752">
        <ele>850.5</ele>
        <time>2022-03-22T09:52:32Z</time>
      </trkpt>
      <trkpt lat="46.64597" lon="5.9275">
        <ele>850.8</ele>
        <time>2022-03-22T09:52:39Z</time>
      </trkpt>
      <trkpt lat="46.64603" lon="5.92751">
        <ele>851.2</ele>
        <time>2022-03-22T09:52:44Z</time>
      </trkpt>
      <trkpt lat="46.64607" lon="5.92752">
        <ele>851.9</ele>
        <time>2022-03-22T09:52:48Z</time>
      </trkpt>
      <trkpt lat="46.64612" lon="5.92753">
        <ele>853.5</ele>
        <time>2022-03-22T09:52:52Z</time>
      </trkpt>
      <trkpt lat="46.6462" lon="5.92754">
        <ele>858.5</ele>
        <time>2022-03-22T09:53:02Z</time>
      </trkpt>
      <trkpt lat="46.64624" lon="5.92755">
        <ele>860.2</ele>
        <time>2022-03-22T09:53:05Z</time>
      </trkpt>
      <trkpt lat="46.64629" lon="5.92756">
        <ele>862.4</ele>
        <time>2022-03-22T09:53:09Z</time>
      </trkpt>
      <trkpt lat="46.64633" lon="5.92759">
        <ele>865</ele>
        <time>2022-03-22T09:53:15Z</time>
      </trkpt>
      <trkpt lat="46.64636" lon="5.92764">
        <ele>866.9</ele>
        <time>2022-03-22T09:53:22Z</time>
      </trkpt>
      <trkpt lat="46.64639" lon="5.9277">
        <ele>868.3</ele>
        <time>2022-03-22T09:53:29Z</time>
      </trkpt>
      <trkpt lat="46.64643" lon="5.92774">
        <ele>869.9</ele>
        <time>2022-03-22T09:53:35Z</time>
      </trkpt>
      <trkpt lat="46.64648" lon="5.92777">
        <ele>870.7</ele>
        <time>2022-03-22T09:53:42Z</time>
      </trkpt>
      <trkpt lat="46.64652" lon="5.92779">
        <ele>870.9</ele>
        <time>2022-03-22T09:53:48Z</time>
      </trkpt>
      <trkpt lat="46.64657" lon="5.92778">
        <ele>870.8</ele>
        <time>2022-03-22T09:53:53Z</time>
      </trkpt>
      <trkpt lat="46.64662" lon="5.92778">
        <ele>871.1</ele>
        <time>2022-03-22T09:53:57Z</time>
      </trkpt>
      <trkpt lat="46.64667" lon="5.92777">
        <ele>871.2</ele>
        <time>2022-03-22T09:54:01Z</time>
      </trkpt>
      <trkpt lat="46.64672" lon="5.92776">
        <ele>870.8</ele>
        <time>2022-03-22T09:54:10Z</time>
      </trkpt>
      <trkpt lat="46.64677" lon="5.92775">
        <ele>870.7</ele>
        <time>2022-03-22T09:54:16Z</time>
      </trkpt>
      <trkpt lat="46.64681" lon="5.92776">
        <ele>871.2</ele>
        <time>2022-03-22T09:54:21Z</time>
      </trkpt>
      <trkpt lat="46.64686" lon="5.92775">
        <ele>871.6</ele>
        <time>2022-03-22T09:54:28Z</time>
      </trkpt>
      <trkpt lat="46.64691" lon="5.92775">
        <ele>871.8</ele>
        <time>2022-03-22T09:54:34Z</time>
      </trkpt>
      <trkpt lat="46.64695" lon="5.92772">
        <ele>871.2</ele>
        <time>2022-03-22T09:54:40Z</time>
      </trkpt>
      <trkpt lat="46.647" lon="5.92772">
        <ele>870.6</ele>
        <time>2022-03-22T09:54:46Z</time>
      </trkpt>
      <trkpt lat="46.64706" lon="5.92771">
        <ele>870.2</ele>
        <time>2022-03-22T09:54:50Z</time>
      </trkpt>
      <trkpt lat="46.6471" lon="5.92771">
        <ele>869.8</ele>
        <time>2022-03-22T09:54:53Z</time>
      </trkpt>
      <trkpt lat="46.64715" lon="5.9277">
        <ele>869.5</ele>
        <time>2022-03-22T09:54:57Z</time>
      </trkpt>
      <trkpt lat="46.64719" lon="5.92767">
        <ele>869.6</ele>
        <time>2022-03-22T09:55:02Z</time>
      </trkpt>
      <trkpt lat="46.64724" lon="5.92767">
        <ele>870.5</ele>
        <time>2022-03-22T09:55:10Z</time>
      </trkpt>
      <trkpt lat="46.64728" lon="5.92771">
        <ele>870.8</ele>
        <time>2022-03-22T09:55:16Z</time>
      </trkpt>
      <trkpt lat="46.64733" lon="5.92772">
        <ele>870.6</ele>
        <time>2022-03-22T09:55:25Z</time>
      </trkpt>
      <trkpt lat="46.64738" lon="5.92774">
        <ele>870.2</ele>
        <time>2022-03-22T09:55:34Z</time>
      </trkpt>
      <trkpt lat="46.64742" lon="5.92775">
        <ele>869.7</ele>
        <time>2022-03-22T09:55:41Z</time>
      </trkpt>
      <trkpt lat="46.64747" lon="5.92779">
        <ele>869.2</ele>
        <time>2022-03-22T09:55:48Z</time>
      </trkpt>
      <trkpt lat="46.64752" lon="5.9278">
        <ele>868.5</ele>
        <time>2022-03-22T09:55:54Z</time>
      </trkpt>
      <trkpt lat="46.64757" lon="5.9278">
        <ele>867.8</ele>
        <time>2022-03-22T09:56:00Z</time>
      </trkpt>
      <trkpt lat="46.6476" lon="5.92776">
        <ele>865.7</ele>
        <time>2022-03-22T09:56:13Z</time>
      </trkpt>
      <trkpt lat="46.64763" lon="5.92771">
        <ele>865.6</ele>
        <time>2022-03-22T09:56:22Z</time>
      </trkpt>
      <trkpt lat="46.64764" lon="5.92764">
        <ele>865.9</ele>
        <time>2022-03-22T09:56:32Z</time>
      </trkpt>
      <trkpt lat="46.64768" lon="5.9276">
        <ele>865.4</ele>
        <time>2022-03-22T09:57:02Z</time>
      </trkpt>
      <trkpt lat="46.64768" lon="5.92752">
        <ele>865.4</ele>
        <time>2022-03-22T09:57:20Z</time>
      </trkpt>
      <trkpt lat="46.64766" lon="5.92746">
        <ele>866.5</ele>
        <time>2022-03-22T09:57:24Z</time>
      </trkpt>
      <trkpt lat="46.64771" lon="5.92749">
        <ele>866.7</ele>
        <time>2022-03-22T09:58:14Z</time>
      </trkpt>
      <trkpt lat="46.64776" lon="5.92748">
        <ele>867.2</ele>
        <time>2022-03-22T09:58:45Z</time>
      </trkpt>
      <trkpt lat="46.64771" lon="5.92749">
        <ele>868.1</ele>
        <time>2022-03-22T09:58:52Z</time>
      </trkpt>
      <trkpt lat="46.64753" lon="5.92752">
        <ele>836.2</ele>
        <time>2022-03-22T09:59:48Z</time>
      </trkpt>
      <trkpt lat="46.64765" lon="5.92755">
        <ele>839.7</ele>
        <time>2022-03-22T09:59:51Z</time>
      </trkpt>
      <trkpt lat="46.64769" lon="5.9276">
        <ele>841.7</ele>
        <time>2022-03-22T09:59:54Z</time>
      </trkpt>
      <trkpt lat="46.64765" lon="5.92761">
        <ele>855.7</ele>
        <time>2022-03-22T10:00:16Z</time>
      </trkpt>
      <trkpt lat="46.64767" lon="5.92767">
        <ele>859.8</ele>
        <time>2022-03-22T10:00:25Z</time>
      </trkpt>
      <trkpt lat="46.64771" lon="5.92762">
        <ele>856.2</ele>
        <time>2022-03-22T10:00:52Z</time>
      </trkpt>
      <trkpt lat="46.64775" lon="5.92759">
        <ele>855.7</ele>
        <time>2022-03-22T10:01:02Z</time>
      </trkpt>
      <trkpt lat="46.64777" lon="5.92753">
        <ele>859</ele>
        <time>2022-03-22T10:01:31Z</time>
      </trkpt>
      <trkpt lat="46.6478" lon="5.92747">
        <ele>858.7</ele>
        <time>2022-03-22T10:01:48Z</time>
      </trkpt>
      <trkpt lat="46.64785" lon="5.92746">
        <ele>857.3</ele>
        <time>2022-03-22T10:01:58Z</time>
      </trkpt>
      <trkpt lat="46.64786" lon="5.92739">
        <ele>856.6</ele>
        <time>2022-03-22T10:02:06Z</time>
      </trkpt>
      <trkpt lat="46.64783" lon="5.92733">
        <ele>855.5</ele>
        <time>2022-03-22T10:02:12Z</time>
      </trkpt>
      <trkpt lat="46.6478" lon="5.92728">
        <ele>853.8</ele>
        <time>2022-03-22T10:02:19Z</time>
      </trkpt>
      <trkpt lat="46.64777" lon="5.92723">
        <ele>851.9</ele>
        <time>2022-03-22T10:02:30Z</time>
      </trkpt>
      <trkpt lat="46.64776" lon="5.92716">
        <ele>850.4</ele>
        <time>2022-03-22T10:02:38Z</time>
      </trkpt>
      <trkpt lat="46.64773" lon="5.92708">
        <ele>847.8</ele>
        <time>2022-03-22T10:03:27Z</time>
      </trkpt>
      <trkpt lat="46.64769" lon="5.92704">
        <ele>846.3</ele>
        <time>2022-03-22T10:03:31Z</time>
      </trkpt>
      <trkpt lat="46.64767" lon="5.92698">
        <ele>843.2</ele>
        <time>2022-03-22T10:03:45Z</time>
      </trkpt>
      <trkpt lat="46.64767" lon="5.92691">
        <ele>842</ele>
        <time>2022-03-22T10:03:50Z</time>
      </trkpt>
      <trkpt lat="46.64767" lon="5.92683">
        <ele>841.3</ele>
        <time>2022-03-22T10:03:56Z</time>
      </trkpt>
      <trkpt lat="46.64763" lon="5.9268">
        <ele>840.8</ele>
        <time>2022-03-22T10:04:00Z</time>
      </trkpt>
      <trkpt lat="46.64759" lon="5.92675">
        <ele>839.5</ele>
        <time>2022-03-22T10:04:06Z</time>
      </trkpt>
      <trkpt lat="46.64757" lon="5.92669">
        <ele>839.7</ele>
        <time>2022-03-22T10:04:10Z</time>
      </trkpt>
      <trkpt lat="46.64754" lon="5.92663">
        <ele>840.4</ele>
        <time>2022-03-22T10:04:14Z</time>
      </trkpt>
      <trkpt lat="46.64751" lon="5.92658">
        <ele>841.7</ele>
        <time>2022-03-22T10:04:18Z</time>
      </trkpt>
      <trkpt lat="46.64748" lon="5.92652">
        <ele>843.6</ele>
        <time>2022-03-22T10:04:23Z</time>
      </trkpt>
      <trkpt lat="46.64745" lon="5.92647">
        <ele>845</ele>
        <time>2022-03-22T10:04:30Z</time>
      </trkpt>
      <trkpt lat="46.64742" lon="5.92641">
        <ele>845.6</ele>
        <time>2022-03-22T10:04:36Z</time>
      </trkpt>
      <trkpt lat="46.6474" lon="5.92635">
        <ele>845.9</ele>
        <time>2022-03-22T10:04:42Z</time>
      </trkpt>
      <trkpt lat="46.6474" lon="5.92628">
        <ele>845.7</ele>
        <time>2022-03-22T10:04:47Z</time>
      </trkpt>
      <trkpt lat="46.64737" lon="5.92621">
        <ele>846.1</ele>
        <time>2022-03-22T10:04:53Z</time>
      </trkpt>
      <trkpt lat="46.64733" lon="5.92616">
        <ele>846.7</ele>
        <time>2022-03-22T10:04:58Z</time>
      </trkpt>
      <trkpt lat="46.64731" lon="5.9261">
        <ele>846.9</ele>
        <time>2022-03-22T10:05:03Z</time>
      </trkpt>
      <trkpt lat="46.64729" lon="5.92603">
        <ele>846.9</ele>
        <time>2022-03-22T10:05:10Z</time>
      </trkpt>
      <trkpt lat="46.64728" lon="5.92596">
        <ele>846.3</ele>
        <time>2022-03-22T10:05:18Z</time>
      </trkpt>
      <trkpt lat="46.64727" lon="5.92589">
        <ele>846.3</ele>
        <time>2022-03-22T10:05:23Z</time>
      </trkpt>
      <trkpt lat="46.64726" lon="5.92581">
        <ele>846.5</ele>
        <time>2022-03-22T10:05:27Z</time>
      </trkpt>
      <trkpt lat="46.64723" lon="5.92575">
        <ele>845.8</ele>
        <time>2022-03-22T10:05:38Z</time>
      </trkpt>
      <trkpt lat="46.64719" lon="5.9257">
        <ele>845</ele>
        <time>2022-03-22T10:05:44Z</time>
      </trkpt>
      <trkpt lat="46.64716" lon="5.92564">
        <ele>844.5</ele>
        <time>2022-03-22T10:05:48Z</time>
      </trkpt>
      <trkpt lat="46.64714" lon="5.92558">
        <ele>843.9</ele>
        <time>2022-03-22T10:05:52Z</time>
      </trkpt>
      <trkpt lat="46.64711" lon="5.92552">
        <ele>843.4</ele>
        <time>2022-03-22T10:05:56Z</time>
      </trkpt>
      <trkpt lat="46.64707" lon="5.92547">
        <ele>842.9</ele>
        <time>2022-03-22T10:06:01Z</time>
      </trkpt>
      <trkpt lat="46.64702" lon="5.92549">
        <ele>842.9</ele>
        <time>2022-03-22T10:06:06Z</time>
      </trkpt>
      <trkpt lat="46.64698" lon="5.92553">
        <ele>842.8</ele>
        <time>2022-03-22T10:06:12Z</time>
      </trkpt>
      <trkpt lat="46.64693" lon="5.92551">
        <ele>843.2</ele>
        <time>2022-03-22T10:06:18Z</time>
      </trkpt>
      <trkpt lat="46.64688" lon="5.92553">
        <ele>844.5</ele>
        <time>2022-03-22T10:06:25Z</time>
      </trkpt>
      <trkpt lat="46.64684" lon="5.92555">
        <ele>844.9</ele>
        <time>2022-03-22T10:06:30Z</time>
      </trkpt>
      <trkpt lat="46.64679" lon="5.92557">
        <ele>844.7</ele>
        <time>2022-03-22T10:06:35Z</time>
      </trkpt>
      <trkpt lat="46.64674" lon="5.92556">
        <ele>844.2</ele>
        <time>2022-03-22T10:06:39Z</time>
      </trkpt>
      <trkpt lat="46.64669" lon="5.92552">
        <ele>843.6</ele>
        <time>2022-03-22T10:06:43Z</time>
      </trkpt>
      <trkpt lat="46.64664" lon="5.92548">
        <ele>843.1</ele>
        <time>2022-03-22T10:06:49Z</time>
      </trkpt>
      <trkpt lat="46.64661" lon="5.92543">
        <ele>842.9</ele>
        <time>2022-03-22T10:06:54Z</time>
      </trkpt>
      <trkpt lat="46.6466" lon="5.92536">
        <ele>842.9</ele>
        <time>2022-03-22T10:06:59Z</time>
      </trkpt>
      <trkpt lat="46.64662" lon="5.92529">
        <ele>843</ele>
        <time>2022-03-22T10:07:05Z</time>
      </trkpt>
      <trkpt lat="46.64665" lon="5.92524">
        <ele>843.6</ele>
        <time>2022-03-22T10:07:10Z</time>
      </trkpt>
      <trkpt lat="46.64663" lon="5.92518">
        <ele>844</ele>
        <time>2022-03-22T10:07:21Z</time>
      </trkpt>
      <trkpt lat="46.64659" lon="5.92514">
        <ele>842.9</ele>
        <time>2022-03-22T10:07:28Z</time>
      </trkpt>
      <trkpt lat="46.64657" lon="5.92507">
        <ele>842.6</ele>
        <time>2022-03-22T10:07:33Z</time>
      </trkpt>
      <trkpt lat="46.64657" lon="5.92499">
        <ele>841.2</ele>
        <time>2022-03-22T10:08:36Z</time>
      </trkpt>
      <trkpt lat="46.64657" lon="5.92492">
        <ele>842.1</ele>
        <time>2022-03-22T10:08:41Z</time>
      </trkpt>
      <trkpt lat="46.64655" lon="5.92486">
        <ele>842.4</ele>
        <time>2022-03-22T10:08:48Z</time>
      </trkpt>
      <trkpt lat="46.64658" lon="5.9248">
        <ele>841.5</ele>
        <time>2022-03-22T10:09:08Z</time>
      </trkpt>
      <trkpt lat="46.64658" lon="5.92473">
        <ele>841.2</ele>
        <time>2022-03-22T10:09:11Z</time>
      </trkpt>
      <trkpt lat="46.64653" lon="5.9247">
        <ele>837.5</ele>
        <time>2022-03-22T10:09:47Z</time>
      </trkpt>
      <trkpt lat="46.6465" lon="5.92463">
        <ele>837.5</ele>
        <time>2022-03-22T10:09:51Z</time>
      </trkpt>
      <trkpt lat="46.64649" lon="5.92457">
        <ele>837.8</ele>
        <time>2022-03-22T10:09:54Z</time>
      </trkpt>
      <trkpt lat="46.64649" lon="5.9245">
        <ele>838.2</ele>
        <time>2022-03-22T10:09:58Z</time>
      </trkpt>
      <trkpt lat="46.64647" lon="5.92442">
        <ele>838.7</ele>
        <time>2022-03-22T10:10:03Z</time>
      </trkpt>
      <trkpt lat="46.64645" lon="5.92435">
        <ele>838</ele>
        <time>2022-03-22T10:10:08Z</time>
      </trkpt>
      <trkpt lat="46.64641" lon="5.92429">
        <ele>836.5</ele>
        <time>2022-03-22T10:10:12Z</time>
      </trkpt>
      <trkpt lat="46.64637" lon="5.92424">
        <ele>835.7</ele>
        <time>2022-03-22T10:10:15Z</time>
      </trkpt>
      <trkpt lat="46.64632" lon="5.9242">
        <ele>834.7</ele>
        <time>2022-03-22T10:10:18Z</time>
      </trkpt>
      <trkpt lat="46.64629" lon="5.92415">
        <ele>833.3</ele>
        <time>2022-03-22T10:10:22Z</time>
      </trkpt>
      <trkpt lat="46.64626" lon="5.92409">
        <ele>832.1</ele>
        <time>2022-03-22T10:10:26Z</time>
      </trkpt>
      <trkpt lat="46.64623" lon="5.92401">
        <ele>830.2</ele>
        <time>2022-03-22T10:10:31Z</time>
      </trkpt>
      <trkpt lat="46.64622" lon="5.92393">
        <ele>828.6</ele>
        <time>2022-03-22T10:10:36Z</time>
      </trkpt>
      <trkpt lat="46.64621" lon="5.92386">
        <ele>827.3</ele>
        <time>2022-03-22T10:10:41Z</time>
      </trkpt>
      <trkpt lat="46.64621" lon="5.92379">
        <ele>826.6</ele>
        <time>2022-03-22T10:10:45Z</time>
      </trkpt>
      <trkpt lat="46.64619" lon="5.92372">
        <ele>825.9</ele>
        <time>2022-03-22T10:10:50Z</time>
      </trkpt>
      <trkpt lat="46.64615" lon="5.92367">
        <ele>825.3</ele>
        <time>2022-03-22T10:10:54Z</time>
      </trkpt>
      <trkpt lat="46.64611" lon="5.92362">
        <ele>824.9</ele>
        <time>2022-03-22T10:10:59Z</time>
      </trkpt>
      <trkpt lat="46.64607" lon="5.92359">
        <ele>824.2</ele>
        <time>2022-03-22T10:11:04Z</time>
      </trkpt>
      <trkpt lat="46.64603" lon="5.92356">
        <ele>824</ele>
        <time>2022-03-22T10:11:08Z</time>
      </trkpt>
      <trkpt lat="46.64599" lon="5.92351">
        <ele>823.4</ele>
        <time>2022-03-22T10:11:12Z</time>
      </trkpt>
      <trkpt lat="46.64595" lon="5.92346">
        <ele>823.1</ele>
        <time>2022-03-22T10:11:16Z</time>
      </trkpt>
      <trkpt lat="46.6459" lon="5.92342">
        <ele>823.1</ele>
        <time>2022-03-22T10:11:19Z</time>
      </trkpt>
      <trkpt lat="46.64586" lon="5.92338">
        <ele>823.2</ele>
        <time>2022-03-22T10:11:22Z</time>
      </trkpt>
      <trkpt lat="46.64583" lon="5.92334">
        <ele>823.5</ele>
        <time>2022-03-22T10:11:26Z</time>
      </trkpt>
      <trkpt lat="46.64585" lon="5.92327">
        <ele>823.8</ele>
        <time>2022-03-22T10:11:30Z</time>
      </trkpt>
      <trkpt lat="46.64586" lon="5.9232">
        <ele>824</ele>
        <time>2022-03-22T10:11:34Z</time>
      </trkpt>
      <trkpt lat="46.64584" lon="5.92313">
        <ele>823.8</ele>
        <time>2022-03-22T10:11:41Z</time>
      </trkpt>
      <trkpt lat="46.64582" lon="5.92306">
        <ele>824.2</ele>
        <time>2022-03-22T10:11:46Z</time>
      </trkpt>
      <trkpt lat="46.6458" lon="5.92299">
        <ele>825.4</ele>
        <time>2022-03-22T10:11:50Z</time>
      </trkpt>
      <trkpt lat="46.64579" lon="5.92293">
        <ele>826.8</ele>
        <time>2022-03-22T10:11:54Z</time>
      </trkpt>
      <trkpt lat="46.64577" lon="5.92286">
        <ele>828.6</ele>
        <time>2022-03-22T10:12:00Z</time>
      </trkpt>
      <trkpt lat="46.64572" lon="5.92282">
        <ele>829.9</ele>
        <time>2022-03-22T10:12:06Z</time>
      </trkpt>
      <trkpt lat="46.64567" lon="5.9228">
        <ele>830.6</ele>
        <time>2022-03-22T10:12:10Z</time>
      </trkpt>
      <trkpt lat="46.64563" lon="5.92275">
        <ele>831.2</ele>
        <time>2022-03-22T10:12:14Z</time>
      </trkpt>
      <trkpt lat="46.64559" lon="5.92273">
        <ele>832.2</ele>
        <time>2022-03-22T10:12:19Z</time>
      </trkpt>
      <trkpt lat="46.64554" lon="5.92272">
        <ele>833</ele>
        <time>2022-03-22T10:12:24Z</time>
      </trkpt>
      <trkpt lat="46.6455" lon="5.92268">
        <ele>833.9</ele>
        <time>2022-03-22T10:12:31Z</time>
      </trkpt>
      <trkpt lat="46.64545" lon="5.92265">
        <ele>835</ele>
        <time>2022-03-22T10:12:37Z</time>
      </trkpt>
      <trkpt lat="46.64541" lon="5.92262">
        <ele>835.3</ele>
        <time>2022-03-22T10:12:40Z</time>
      </trkpt>
      <trkpt lat="46.64537" lon="5.92258">
        <ele>834.8</ele>
        <time>2022-03-22T10:12:46Z</time>
      </trkpt>
      <trkpt lat="46.64533" lon="5.92255">
        <ele>834.3</ele>
        <time>2022-03-22T10:12:49Z</time>
      </trkpt>
      <trkpt lat="46.64528" lon="5.92255">
        <ele>832.8</ele>
        <time>2022-03-22T10:12:55Z</time>
      </trkpt>
      <trkpt lat="46.64524" lon="5.92254">
        <ele>831.3</ele>
        <time>2022-03-22T10:13:01Z</time>
      </trkpt>
      <trkpt lat="46.6452" lon="5.92248">
        <ele>830.9</ele>
        <time>2022-03-22T10:13:06Z</time>
      </trkpt>
      <trkpt lat="46.64518" lon="5.92242">
        <ele>831</ele>
        <time>2022-03-22T10:13:09Z</time>
      </trkpt>
      <trkpt lat="46.64515" lon="5.92236">
        <ele>831.2</ele>
        <time>2022-03-22T10:13:12Z</time>
      </trkpt>
      <trkpt lat="46.64512" lon="5.92229">
        <ele>831.4</ele>
        <time>2022-03-22T10:13:16Z</time>
      </trkpt>
      <trkpt lat="46.64511" lon="5.92222">
        <ele>831.8</ele>
        <time>2022-03-22T10:13:20Z</time>
      </trkpt>
      <trkpt lat="46.64511" lon="5.92215">
        <ele>832.4</ele>
        <time>2022-03-22T10:13:25Z</time>
      </trkpt>
      <trkpt lat="46.64511" lon="5.92209">
        <ele>833.2</ele>
        <time>2022-03-22T10:13:30Z</time>
      </trkpt>
      <trkpt lat="46.64509" lon="5.92203">
        <ele>833.7</ele>
        <time>2022-03-22T10:13:35Z</time>
      </trkpt>
      <trkpt lat="46.64508" lon="5.92196">
        <ele>834.1</ele>
        <time>2022-03-22T10:13:39Z</time>
      </trkpt>
      <trkpt lat="46.64506" lon="5.92189">
        <ele>833.9</ele>
        <time>2022-03-22T10:13:44Z</time>
      </trkpt>
      <trkpt lat="46.64505" lon="5.92182">
        <ele>834.2</ele>
        <time>2022-03-22T10:13:50Z</time>
      </trkpt>
      <trkpt lat="46.64504" lon="5.92176">
        <ele>835.5</ele>
        <time>2022-03-22T10:13:58Z</time>
      </trkpt>
      <trkpt lat="46.645" lon="5.92172">
        <ele>835.6</ele>
        <time>2022-03-22T10:14:03Z</time>
      </trkpt>
      <trkpt lat="46.64496" lon="5.92169">
        <ele>836</ele>
        <time>2022-03-22T10:14:08Z</time>
      </trkpt>
      <trkpt lat="46.6449" lon="5.92166">
        <ele>836.7</ele>
        <time>2022-03-22T10:14:14Z</time>
      </trkpt>
      <trkpt lat="46.64486" lon="5.92165">
        <ele>836.7</ele>
        <time>2022-03-22T10:14:19Z</time>
      </trkpt>
      <trkpt lat="46.64481" lon="5.92161">
        <ele>836.3</ele>
        <time>2022-03-22T10:14:24Z</time>
      </trkpt>
      <trkpt lat="46.64477" lon="5.92156">
        <ele>835.8</ele>
        <time>2022-03-22T10:14:29Z</time>
      </trkpt>
      <trkpt lat="46.64473" lon="5.92153">
        <ele>834.7</ele>
        <time>2022-03-22T10:14:35Z</time>
      </trkpt>
      <trkpt lat="46.64468" lon="5.92151">
        <ele>833.6</ele>
        <time>2022-03-22T10:14:42Z</time>
      </trkpt>
      <trkpt lat="46.64464" lon="5.92147">
        <ele>833.5</ele>
        <time>2022-03-22T10:14:46Z</time>
      </trkpt>
      <trkpt lat="46.64459" lon="5.92144">
        <ele>833.7</ele>
        <time>2022-03-22T10:14:50Z</time>
      </trkpt>
      <trkpt lat="46.64455" lon="5.92141">
        <ele>834.1</ele>
        <time>2022-03-22T10:14:55Z</time>
      </trkpt>
      <trkpt lat="46.64451" lon="5.92136">
        <ele>834.5</ele>
        <time>2022-03-22T10:15:04Z</time>
      </trkpt>
      <trkpt lat="46.64447" lon="5.92134">
        <ele>833.2</ele>
        <time>2022-03-22T10:15:35Z</time>
      </trkpt>
      <trkpt lat="46.64452" lon="5.92135">
        <ele>832.8</ele>
        <time>2022-03-22T10:16:29Z</time>
      </trkpt>
      <trkpt lat="46.64455" lon="5.92141">
        <ele>835.9</ele>
        <time>2022-03-22T10:17:18Z</time>
      </trkpt>
      <trkpt lat="46.64455" lon="5.92148">
        <ele>835</ele>
        <time>2022-03-22T10:17:25Z</time>
      </trkpt>
      <trkpt lat="46.64461" lon="5.92149">
        <ele>834.9</ele>
        <time>2022-03-22T10:17:30Z</time>
      </trkpt>
      <trkpt lat="46.64465" lon="5.92148">
        <ele>834.7</ele>
        <time>2022-03-22T10:17:34Z</time>
      </trkpt>
      <trkpt lat="46.6447" lon="5.92149">
        <ele>834.2</ele>
        <time>2022-03-22T10:17:39Z</time>
      </trkpt>
      <trkpt lat="46.64475" lon="5.92151">
        <ele>834.4</ele>
        <time>2022-03-22T10:17:47Z</time>
      </trkpt>
      <trkpt lat="46.6448" lon="5.92154">
        <ele>835.4</ele>
        <time>2022-03-22T10:17:53Z</time>
      </trkpt>
      <trkpt lat="46.64484" lon="5.92158">
        <ele>836.8</ele>
        <time>2022-03-22T10:17:59Z</time>
      </trkpt>
      <trkpt lat="46.64488" lon="5.9216">
        <ele>838.4</ele>
        <time>2022-03-22T10:18:06Z</time>
      </trkpt>
      <trkpt lat="46.64486" lon="5.92166">
        <ele>840.4</ele>
        <time>2022-03-22T10:18:16Z</time>
      </trkpt>
      <trkpt lat="46.64483" lon="5.92173">
        <ele>840.9</ele>
        <time>2022-03-22T10:18:22Z</time>
      </trkpt>
      <trkpt lat="46.64479" lon="5.92176">
        <ele>841.1</ele>
        <time>2022-03-22T10:18:26Z</time>
      </trkpt>
      <trkpt lat="46.64475" lon="5.92181">
        <ele>841.8</ele>
        <time>2022-03-22T10:18:32Z</time>
      </trkpt>
      <trkpt lat="46.64473" lon="5.92188">
        <ele>841.5</ele>
        <time>2022-03-22T10:18:37Z</time>
      </trkpt>
      <trkpt lat="46.64471" lon="5.92195">
        <ele>841.3</ele>
        <time>2022-03-22T10:18:42Z</time>
      </trkpt>
      <trkpt lat="46.64469" lon="5.92201">
        <ele>841.5</ele>
        <time>2022-03-22T10:18:46Z</time>
      </trkpt>
      <trkpt lat="46.64467" lon="5.92207">
        <ele>842.3</ele>
        <time>2022-03-22T10:18:50Z</time>
      </trkpt>
      <trkpt lat="46.64464" lon="5.92211">
        <ele>843.6</ele>
        <time>2022-03-22T10:18:55Z</time>
      </trkpt>
      <trkpt lat="46.64459" lon="5.92213">
        <ele>844.9</ele>
        <time>2022-03-22T10:19:02Z</time>
      </trkpt>
      <trkpt lat="46.64454" lon="5.92215">
        <ele>845.4</ele>
        <time>2022-03-22T10:19:08Z</time>
      </trkpt>
      <trkpt lat="46.64449" lon="5.92216">
        <ele>845.6</ele>
        <time>2022-03-22T10:19:14Z</time>
      </trkpt>
      <trkpt lat="46.64444" lon="5.92214">
        <ele>845.5</ele>
        <time>2022-03-22T10:19:20Z</time>
      </trkpt>
      <trkpt lat="46.64441" lon="5.92209">
        <ele>846</ele>
        <time>2022-03-22T10:19:26Z</time>
      </trkpt>
      <trkpt lat="46.64436" lon="5.92206">
        <ele>847.2</ele>
        <time>2022-03-22T10:19:34Z</time>
      </trkpt>
      <trkpt lat="46.64431" lon="5.92208">
        <ele>848</ele>
        <time>2022-03-22T10:19:44Z</time>
      </trkpt>
      <trkpt lat="46.64426" lon="5.92208">
        <ele>848.9</ele>
        <time>2022-03-22T10:19:50Z</time>
      </trkpt>
      <trkpt lat="46.64421" lon="5.92207">
        <ele>850.2</ele>
        <time>2022-03-22T10:19:56Z</time>
      </trkpt>
      <trkpt lat="46.64416" lon="5.92207">
        <ele>851</ele>
        <time>2022-03-22T10:20:00Z</time>
      </trkpt>
      <trkpt lat="46.6441" lon="5.92207">
        <ele>851.8</ele>
        <time>2022-03-22T10:20:04Z</time>
      </trkpt>
      <trkpt lat="46.64405" lon="5.92208">
        <ele>852.5</ele>
        <time>2022-03-22T10:20:08Z</time>
      </trkpt>
      <trkpt lat="46.64401" lon="5.92209">
        <ele>853</ele>
        <time>2022-03-22T10:20:13Z</time>
      </trkpt>
      <trkpt lat="46.64395" lon="5.92208">
        <ele>853</ele>
        <time>2022-03-22T10:20:18Z</time>
      </trkpt>
      <trkpt lat="46.6439" lon="5.92207">
        <ele>851.4</ele>
        <time>2022-03-22T10:20:25Z</time>
      </trkpt>
      <trkpt lat="46.64386" lon="5.92204">
        <ele>850.7</ele>
        <time>2022-03-22T10:20:29Z</time>
      </trkpt>
      <trkpt lat="46.64381" lon="5.92202">
        <ele>849.9</ele>
        <time>2022-03-22T10:20:33Z</time>
      </trkpt>
      <trkpt lat="46.64375" lon="5.92203">
        <ele>849.2</ele>
        <time>2022-03-22T10:20:38Z</time>
      </trkpt>
      <trkpt lat="46.6437" lon="5.92202">
        <ele>849</ele>
        <time>2022-03-22T10:20:43Z</time>
      </trkpt>
      <trkpt lat="46.64366" lon="5.92199">
        <ele>848.9</ele>
        <time>2022-03-22T10:20:48Z</time>
      </trkpt>
      <trkpt lat="46.64362" lon="5.92196">
        <ele>849</ele>
        <time>2022-03-22T10:20:55Z</time>
      </trkpt>
      <trkpt lat="46.64357" lon="5.92195">
        <ele>848.4</ele>
        <time>2022-03-22T10:21:00Z</time>
      </trkpt>
      <trkpt lat="46.64352" lon="5.92192">
        <ele>846.1</ele>
        <time>2022-03-22T10:21:07Z</time>
      </trkpt>
      <trkpt lat="46.64348" lon="5.92189">
        <ele>844.5</ele>
        <time>2022-03-22T10:21:12Z</time>
      </trkpt>
      <trkpt lat="46.64344" lon="5.92184">
        <ele>843.2</ele>
        <time>2022-03-22T10:21:16Z</time>
      </trkpt>
      <trkpt lat="46.64342" lon="5.92179">
        <ele>842.5</ele>
        <time>2022-03-22T10:21:19Z</time>
      </trkpt>
      <trkpt lat="46.64339" lon="5.92173">
        <ele>841.9</ele>
        <time>2022-03-22T10:21:23Z</time>
      </trkpt>
      <trkpt lat="46.64336" lon="5.92167">
        <ele>840.9</ele>
        <time>2022-03-22T10:21:29Z</time>
      </trkpt>
      <trkpt lat="46.64333" lon="5.92162">
        <ele>840.3</ele>
        <time>2022-03-22T10:21:35Z</time>
      </trkpt>
      <trkpt lat="46.64331" lon="5.92154">
        <ele>839.6</ele>
        <time>2022-03-22T10:21:40Z</time>
      </trkpt>
      <trkpt lat="46.64328" lon="5.92149">
        <ele>839.1</ele>
        <time>2022-03-22T10:21:43Z</time>
      </trkpt>
      <trkpt lat="46.64326" lon="5.92142">
        <ele>838.3</ele>
        <time>2022-03-22T10:21:47Z</time>
      </trkpt>
      <trkpt lat="46.64327" lon="5.92135">
        <ele>837.3</ele>
        <time>2022-03-22T10:21:52Z</time>
      </trkpt>
      <trkpt lat="46.64328" lon="5.92129">
        <ele>836.4</ele>
        <time>2022-03-22T10:21:57Z</time>
      </trkpt>
      <trkpt lat="46.64329" lon="5.92122">
        <ele>835.7</ele>
        <time>2022-03-22T10:22:02Z</time>
      </trkpt>
      <trkpt lat="46.64329" lon="5.92116">
        <ele>834.8</ele>
        <time>2022-03-22T10:22:07Z</time>
      </trkpt>
      <trkpt lat="46.6433" lon="5.92109">
        <ele>833.6</ele>
        <time>2022-03-22T10:22:12Z</time>
      </trkpt>
      <trkpt lat="46.64331" lon="5.921">
        <ele>832.2</ele>
        <time>2022-03-22T10:22:16Z</time>
      </trkpt>
      <trkpt lat="46.64333" lon="5.92093">
        <ele>831.4</ele>
        <time>2022-03-22T10:22:20Z</time>
      </trkpt>
      <trkpt lat="46.64335" lon="5.92086">
        <ele>830.8</ele>
        <time>2022-03-22T10:22:24Z</time>
      </trkpt>
      <trkpt lat="46.64334" lon="5.92078">
        <ele>830.5</ele>
        <time>2022-03-22T10:22:29Z</time>
      </trkpt>
      <trkpt lat="46.64333" lon="5.92071">
        <ele>830.2</ele>
        <time>2022-03-22T10:22:35Z</time>
      </trkpt>
      <trkpt lat="46.64329" lon="5.92067">
        <ele>829.5</ele>
        <time>2022-03-22T10:22:41Z</time>
      </trkpt>
      <trkpt lat="46.64326" lon="5.92062">
        <ele>829</ele>
        <time>2022-03-22T10:22:47Z</time>
      </trkpt>
      <trkpt lat="46.64322" lon="5.92058">
        <ele>828.7</ele>
        <time>2022-03-22T10:22:52Z</time>
      </trkpt>
      <trkpt lat="46.64317" lon="5.92054">
        <ele>828.4</ele>
        <time>2022-03-22T10:22:58Z</time>
      </trkpt>
      <trkpt lat="46.64313" lon="5.92051">
        <ele>827.4</ele>
        <time>2022-03-22T10:23:04Z</time>
      </trkpt>
      <trkpt lat="46.64308" lon="5.9205">
        <ele>826.8</ele>
        <time>2022-03-22T10:23:08Z</time>
      </trkpt>
      <trkpt lat="46.64304" lon="5.92045">
        <ele>826.2</ele>
        <time>2022-03-22T10:23:12Z</time>
      </trkpt>
      <trkpt lat="46.643" lon="5.92042">
        <ele>825.5</ele>
        <time>2022-03-22T10:23:16Z</time>
      </trkpt>
      <trkpt lat="46.64296" lon="5.92038">
        <ele>824.7</ele>
        <time>2022-03-22T10:23:21Z</time>
      </trkpt>
      <trkpt lat="46.64292" lon="5.92035">
        <ele>823</ele>
        <time>2022-03-22T10:23:28Z</time>
      </trkpt>
      <trkpt lat="46.64287" lon="5.92031">
        <ele>821.5</ele>
        <time>2022-03-22T10:23:33Z</time>
      </trkpt>
      <trkpt lat="46.64282" lon="5.92027">
        <ele>819.9</ele>
        <time>2022-03-22T10:23:38Z</time>
      </trkpt>
      <trkpt lat="46.64278" lon="5.92026">
        <ele>818.3</ele>
        <time>2022-03-22T10:23:44Z</time>
      </trkpt>
      <trkpt lat="46.64273" lon="5.92026">
        <ele>817.4</ele>
        <time>2022-03-22T10:23:48Z</time>
      </trkpt>
      <trkpt lat="46.64268" lon="5.92026">
        <ele>816.7</ele>
        <time>2022-03-22T10:23:52Z</time>
      </trkpt>
      <trkpt lat="46.64263" lon="5.92027">
        <ele>816.3</ele>
        <time>2022-03-22T10:23:56Z</time>
      </trkpt>
      <trkpt lat="46.64258" lon="5.92029">
        <ele>816.3</ele>
        <time>2022-03-22T10:24:01Z</time>
      </trkpt>
      <trkpt lat="46.64254" lon="5.92032">
        <ele>817.4</ele>
        <time>2022-03-22T10:24:06Z</time>
      </trkpt>
      <trkpt lat="46.6425" lon="5.92038">
        <ele>819</ele>
        <time>2022-03-22T10:24:11Z</time>
      </trkpt>
      <trkpt lat="46.64246" lon="5.92043">
        <ele>820.5</ele>
        <time>2022-03-22T10:24:16Z</time>
      </trkpt>
      <trkpt lat="46.64243" lon="5.92048">
        <ele>821.9</ele>
        <time>2022-03-22T10:24:21Z</time>
      </trkpt>
      <trkpt lat="46.6424" lon="5.92054">
        <ele>822</ele>
        <time>2022-03-22T10:24:27Z</time>
      </trkpt>
      <trkpt lat="46.64238" lon="5.9206">
        <ele>821.7</ele>
        <time>2022-03-22T10:24:34Z</time>
      </trkpt>
      <trkpt lat="46.64234" lon="5.92064">
        <ele>821.5</ele>
        <time>2022-03-22T10:24:37Z</time>
      </trkpt>
      <trkpt lat="46.64229" lon="5.92067">
        <ele>821</ele>
        <time>2022-03-22T10:24:40Z</time>
      </trkpt>
      <trkpt lat="46.64223" lon="5.92068">
        <ele>819.9</ele>
        <time>2022-03-22T10:24:43Z</time>
      </trkpt>
      <trkpt lat="46.64217" lon="5.92067">
        <ele>818.2</ele>
        <time>2022-03-22T10:24:46Z</time>
      </trkpt>
      <trkpt lat="46.64212" lon="5.92066">
        <ele>816.4</ele>
        <time>2022-03-22T10:24:49Z</time>
      </trkpt>
      <trkpt lat="46.64207" lon="5.92067">
        <ele>814.4</ele>
        <time>2022-03-22T10:24:53Z</time>
      </trkpt>
      <trkpt lat="46.64203" lon="5.92068">
        <ele>812.3</ele>
        <time>2022-03-22T10:24:58Z</time>
      </trkpt>
      <trkpt lat="46.64197" lon="5.92069">
        <ele>809.5</ele>
        <time>2022-03-22T10:25:07Z</time>
      </trkpt>
      <trkpt lat="46.64192" lon="5.92066">
        <ele>808.7</ele>
        <time>2022-03-22T10:25:11Z</time>
      </trkpt>
      <trkpt lat="46.64188" lon="5.92065">
        <ele>807.7</ele>
        <time>2022-03-22T10:25:15Z</time>
      </trkpt>
      <trkpt lat="46.64183" lon="5.92063">
        <ele>807.1</ele>
        <time>2022-03-22T10:25:19Z</time>
      </trkpt>
      <trkpt lat="46.64179" lon="5.92061">
        <ele>807</ele>
        <time>2022-03-22T10:25:23Z</time>
      </trkpt>
      <trkpt lat="46.64174" lon="5.92057">
        <ele>807.2</ele>
        <time>2022-03-22T10:25:28Z</time>
      </trkpt>
      <trkpt lat="46.6417" lon="5.92052">
        <ele>807.4</ele>
        <time>2022-03-22T10:25:32Z</time>
      </trkpt>
      <trkpt lat="46.64166" lon="5.92048">
        <ele>807.6</ele>
        <time>2022-03-22T10:25:36Z</time>
      </trkpt>
      <trkpt lat="46.64161" lon="5.92046">
        <ele>807.7</ele>
        <time>2022-03-22T10:25:42Z</time>
      </trkpt>
      <trkpt lat="46.64156" lon="5.92043">
        <ele>807.9</ele>
        <time>2022-03-22T10:25:47Z</time>
      </trkpt>
      <trkpt lat="46.64151" lon="5.92042">
        <ele>807.8</ele>
        <time>2022-03-22T10:25:51Z</time>
      </trkpt>
      <trkpt lat="46.64146" lon="5.92039">
        <ele>807.7</ele>
        <time>2022-03-22T10:25:55Z</time>
      </trkpt>
      <trkpt lat="46.64142" lon="5.92039">
        <ele>807.7</ele>
        <time>2022-03-22T10:25:58Z</time>
      </trkpt>
      <trkpt lat="46.64137" lon="5.92043">
        <ele>806.1</ele>
        <time>2022-03-22T10:26:05Z</time>
      </trkpt>
      <trkpt lat="46.64133" lon="5.9204">
        <ele>804</ele>
        <time>2022-03-22T10:26:10Z</time>
      </trkpt>
      <trkpt lat="46.64129" lon="5.92036">
        <ele>802.3</ele>
        <time>2022-03-22T10:26:14Z</time>
      </trkpt>
      <trkpt lat="46.64124" lon="5.92033">
        <ele>801.2</ele>
        <time>2022-03-22T10:26:18Z</time>
      </trkpt>
      <trkpt lat="46.64119" lon="5.9203">
        <ele>800.1</ele>
        <time>2022-03-22T10:26:23Z</time>
      </trkpt>
      <trkpt lat="46.64114" lon="5.92028">
        <ele>799.2</ele>
        <time>2022-03-22T10:26:28Z</time>
      </trkpt>
      <trkpt lat="46.64111" lon="5.92024">
        <ele>797.6</ele>
        <time>2022-03-22T10:26:34Z</time>
      </trkpt>
      <trkpt lat="46.64108" lon="5.92019">
        <ele>795.8</ele>
        <time>2022-03-22T10:26:40Z</time>
      </trkpt>
      <trkpt lat="46.64104" lon="5.92014">
        <ele>794.6</ele>
        <time>2022-03-22T10:26:44Z</time>
      </trkpt>
      <trkpt lat="46.64099" lon="5.92012">
        <ele>793</ele>
        <time>2022-03-22T10:26:49Z</time>
      </trkpt>
      <trkpt lat="46.64096" lon="5.92006">
        <ele>792.6</ele>
        <time>2022-03-22T10:26:58Z</time>
      </trkpt>
      <trkpt lat="46.64092" lon="5.92001">
        <ele>793.2</ele>
        <time>2022-03-22T10:27:02Z</time>
      </trkpt>
      <trkpt lat="46.64087" lon="5.91997">
        <ele>793.4</ele>
        <time>2022-03-22T10:27:06Z</time>
      </trkpt>
      <trkpt lat="46.64082" lon="5.91995">
        <ele>793.7</ele>
        <time>2022-03-22T10:27:11Z</time>
      </trkpt>
      <trkpt lat="46.64077" lon="5.91992">
        <ele>794.3</ele>
        <time>2022-03-22T10:27:16Z</time>
      </trkpt>
      <trkpt lat="46.64073" lon="5.91988">
        <ele>795.3</ele>
        <time>2022-03-22T10:27:19Z</time>
      </trkpt>
      <trkpt lat="46.64069" lon="5.91983">
        <ele>796</ele>
        <time>2022-03-22T10:27:22Z</time>
      </trkpt>
      <trkpt lat="46.64065" lon="5.91979">
        <ele>796.9</ele>
        <time>2022-03-22T10:27:25Z</time>
      </trkpt>
      <trkpt lat="46.64061" lon="5.91975">
        <ele>797.9</ele>
        <time>2022-03-22T10:27:28Z</time>
      </trkpt>
      <trkpt lat="46.64057" lon="5.91969">
        <ele>799.1</ele>
        <time>2022-03-22T10:27:32Z</time>
      </trkpt>
      <trkpt lat="46.64054" lon="5.91964">
        <ele>799.5</ele>
        <time>2022-03-22T10:27:37Z</time>
      </trkpt>
      <trkpt lat="46.64053" lon="5.91957">
        <ele>800.1</ele>
        <time>2022-03-22T10:27:43Z</time>
      </trkpt>
      <trkpt lat="46.64049" lon="5.91952">
        <ele>800.1</ele>
        <time>2022-03-22T10:27:48Z</time>
      </trkpt>
      <trkpt lat="46.64047" lon="5.91945">
        <ele>799.8</ele>
        <time>2022-03-22T10:27:53Z</time>
      </trkpt>
      <trkpt lat="46.64044" lon="5.91939">
        <ele>799.5</ele>
        <time>2022-03-22T10:27:58Z</time>
      </trkpt>
      <trkpt lat="46.64041" lon="5.91932">
        <ele>800</ele>
        <time>2022-03-22T10:28:03Z</time>
      </trkpt>
      <trkpt lat="46.6404" lon="5.91925">
        <ele>800.7</ele>
        <time>2022-03-22T10:28:07Z</time>
      </trkpt>
      <trkpt lat="46.6404" lon="5.91917">
        <ele>801.7</ele>
        <time>2022-03-22T10:28:11Z</time>
      </trkpt>
      <trkpt lat="46.64039" lon="5.9191">
        <ele>802.9</ele>
        <time>2022-03-22T10:28:15Z</time>
      </trkpt>
      <trkpt lat="46.64038" lon="5.91903">
        <ele>803.9</ele>
        <time>2022-03-22T10:28:20Z</time>
      </trkpt>
      <trkpt lat="46.64038" lon="5.91895">
        <ele>804.1</ele>
        <time>2022-03-22T10:28:25Z</time>
      </trkpt>
      <trkpt lat="46.64038" lon="5.91887">
        <ele>804</ele>
        <time>2022-03-22T10:28:30Z</time>
      </trkpt>
      <trkpt lat="46.64038" lon="5.9188">
        <ele>804.3</ele>
        <time>2022-03-22T10:28:34Z</time>
      </trkpt>
      <trkpt lat="46.64037" lon="5.91874">
        <ele>804.3</ele>
        <time>2022-03-22T10:28:39Z</time>
      </trkpt>
      <trkpt lat="46.64036" lon="5.91867">
        <ele>804.3</ele>
        <time>2022-03-22T10:28:43Z</time>
      </trkpt>
      <trkpt lat="46.64035" lon="5.91859">
        <ele>804.4</ele>
        <time>2022-03-22T10:28:47Z</time>
      </trkpt>
      <trkpt lat="46.64035" lon="5.91853">
        <ele>804.4</ele>
        <time>2022-03-22T10:28:51Z</time>
      </trkpt>
      <trkpt lat="46.64034" lon="5.91845">
        <ele>804.6</ele>
        <time>2022-03-22T10:28:55Z</time>
      </trkpt>
      <trkpt lat="46.64033" lon="5.91838">
        <ele>804.8</ele>
        <time>2022-03-22T10:28:59Z</time>
      </trkpt>
      <trkpt lat="46.64031" lon="5.91831">
        <ele>804.7</ele>
        <time>2022-03-22T10:29:05Z</time>
      </trkpt>
      <trkpt lat="46.64028" lon="5.91825">
        <ele>805</ele>
        <time>2022-03-22T10:29:11Z</time>
      </trkpt>
      <trkpt lat="46.64026" lon="5.91819">
        <ele>804.9</ele>
        <time>2022-03-22T10:29:16Z</time>
      </trkpt>
      <trkpt lat="46.64025" lon="5.91813">
        <ele>804.7</ele>
        <time>2022-03-22T10:29:20Z</time>
      </trkpt>
      <trkpt lat="46.64024" lon="5.91805">
        <ele>804.7</ele>
        <time>2022-03-22T10:29:25Z</time>
      </trkpt>
      <trkpt lat="46.64022" lon="5.91799">
        <ele>804.9</ele>
        <time>2022-03-22T10:29:30Z</time>
      </trkpt>
      <trkpt lat="46.6402" lon="5.91793">
        <ele>805.2</ele>
        <time>2022-03-22T10:29:35Z</time>
      </trkpt>
      <trkpt lat="46.64016" lon="5.91787">
        <ele>805.8</ele>
        <time>2022-03-22T10:29:40Z</time>
      </trkpt>
      <trkpt lat="46.64015" lon="5.91781">
        <ele>806.3</ele>
        <time>2022-03-22T10:29:44Z</time>
      </trkpt>
      <trkpt lat="46.64011" lon="5.91776">
        <ele>806.1</ele>
        <time>2022-03-22T10:29:47Z</time>
      </trkpt>
      <trkpt lat="46.64008" lon="5.9177">
        <ele>805.2</ele>
        <time>2022-03-22T10:29:52Z</time>
      </trkpt>
      <trkpt lat="46.64002" lon="5.91767">
        <ele>803.8</ele>
        <time>2022-03-22T10:29:58Z</time>
      </trkpt>
      <trkpt lat="46.63997" lon="5.91765">
        <ele>802.6</ele>
        <time>2022-03-22T10:30:01Z</time>
      </trkpt>
      <trkpt lat="46.63992" lon="5.91764">
        <ele>801.5</ele>
        <time>2022-03-22T10:30:04Z</time>
      </trkpt>
      <trkpt lat="46.63988" lon="5.91762">
        <ele>800.6</ele>
        <time>2022-03-22T10:30:08Z</time>
      </trkpt>
      <trkpt lat="46.63983" lon="5.91758">
        <ele>798.8</ele>
        <time>2022-03-22T10:30:21Z</time>
      </trkpt>
      <trkpt lat="46.63978" lon="5.91756">
        <ele>798.5</ele>
        <time>2022-03-22T10:30:28Z</time>
      </trkpt>
      <trkpt lat="46.63973" lon="5.91752">
        <ele>799</ele>
        <time>2022-03-22T10:30:33Z</time>
      </trkpt>
      <trkpt lat="46.63969" lon="5.9175">
        <ele>799.5</ele>
        <time>2022-03-22T10:30:36Z</time>
      </trkpt>
      <trkpt lat="46.63963" lon="5.91748">
        <ele>800.3</ele>
        <time>2022-03-22T10:30:40Z</time>
      </trkpt>
      <trkpt lat="46.63958" lon="5.91746">
        <ele>801.1</ele>
        <time>2022-03-22T10:30:44Z</time>
      </trkpt>
      <trkpt lat="46.63952" lon="5.91743">
        <ele>801.6</ele>
        <time>2022-03-22T10:30:48Z</time>
      </trkpt>
      <trkpt lat="46.63949" lon="5.91738">
        <ele>801.4</ele>
        <time>2022-03-22T10:30:52Z</time>
      </trkpt>
      <trkpt lat="46.63945" lon="5.91732">
        <ele>800.6</ele>
        <time>2022-03-22T10:30:58Z</time>
      </trkpt>
      <trkpt lat="46.63941" lon="5.91729">
        <ele>800.2</ele>
        <time>2022-03-22T10:31:02Z</time>
      </trkpt>
      <trkpt lat="46.63937" lon="5.91724">
        <ele>799.9</ele>
        <time>2022-03-22T10:31:06Z</time>
      </trkpt>
      <trkpt lat="46.63934" lon="5.91719">
        <ele>799.6</ele>
        <time>2022-03-22T10:31:10Z</time>
      </trkpt>
      <trkpt lat="46.6393" lon="5.91713">
        <ele>798.4</ele>
        <time>2022-03-22T10:31:15Z</time>
      </trkpt>
      <trkpt lat="46.63925" lon="5.91709">
        <ele>797.3</ele>
        <time>2022-03-22T10:31:20Z</time>
      </trkpt>
      <trkpt lat="46.63921" lon="5.91706">
        <ele>795.9</ele>
        <time>2022-03-22T10:31:25Z</time>
      </trkpt>
      <trkpt lat="46.63916" lon="5.91703">
        <ele>794.7</ele>
        <time>2022-03-22T10:31:29Z</time>
      </trkpt>
      <trkpt lat="46.63911" lon="5.91701">
        <ele>793.5</ele>
        <time>2022-03-22T10:31:34Z</time>
      </trkpt>
      <trkpt lat="46.63906" lon="5.917">
        <ele>792.9</ele>
        <time>2022-03-22T10:31:39Z</time>
      </trkpt>
      <trkpt lat="46.63901" lon="5.91698">
        <ele>792.6</ele>
        <time>2022-03-22T10:31:44Z</time>
      </trkpt>
      <trkpt lat="46.63896" lon="5.91697">
        <ele>792</ele>
        <time>2022-03-22T10:31:48Z</time>
      </trkpt>
      <trkpt lat="46.63891" lon="5.91695">
        <ele>791.5</ele>
        <time>2022-03-22T10:31:52Z</time>
      </trkpt>
      <trkpt lat="46.63886" lon="5.91695">
        <ele>791.1</ele>
        <time>2022-03-22T10:31:56Z</time>
      </trkpt>
      <trkpt lat="46.63881" lon="5.91695">
        <ele>790.4</ele>
        <time>2022-03-22T10:32:01Z</time>
      </trkpt>
      <trkpt lat="46.63877" lon="5.91697">
        <ele>789.9</ele>
        <time>2022-03-22T10:32:05Z</time>
      </trkpt>
      <trkpt lat="46.63872" lon="5.91695">
        <ele>789.1</ele>
        <time>2022-03-22T10:32:10Z</time>
      </trkpt>
      <trkpt lat="46.63868" lon="5.91693">
        <ele>788.3</ele>
        <time>2022-03-22T10:32:15Z</time>
      </trkpt>
      <trkpt lat="46.63863" lon="5.91692">
        <ele>787.9</ele>
        <time>2022-03-22T10:32:19Z</time>
      </trkpt>
      <trkpt lat="46.63858" lon="5.9169">
        <ele>787.6</ele>
        <time>2022-03-22T10:32:23Z</time>
      </trkpt>
      <trkpt lat="46.63853" lon="5.91688">
        <ele>787.5</ele>
        <time>2022-03-22T10:32:28Z</time>
      </trkpt>
      <trkpt lat="46.63849" lon="5.91686">
        <ele>787.2</ele>
        <time>2022-03-22T10:32:35Z</time>
      </trkpt>
      <trkpt lat="46.63844" lon="5.91685">
        <ele>786.6</ele>
        <time>2022-03-22T10:32:41Z</time>
      </trkpt>
      <trkpt lat="46.6384" lon="5.91686">
        <ele>785.6</ele>
        <time>2022-03-22T10:32:50Z</time>
      </trkpt>
      <trkpt lat="46.63834" lon="5.91686">
        <ele>785.8</ele>
        <time>2022-03-22T10:32:54Z</time>
      </trkpt>
      <trkpt lat="46.63828" lon="5.91686">
        <ele>786.3</ele>
        <time>2022-03-22T10:32:57Z</time>
      </trkpt>
      <trkpt lat="46.63823" lon="5.91686">
        <ele>787.1</ele>
        <time>2022-03-22T10:33:00Z</time>
      </trkpt>
      <trkpt lat="46.63818" lon="5.91688">
        <ele>788.1</ele>
        <time>2022-03-22T10:33:04Z</time>
      </trkpt>
      <trkpt lat="46.63813" lon="5.9169">
        <ele>789</ele>
        <time>2022-03-22T10:33:09Z</time>
      </trkpt>
      <trkpt lat="46.63808" lon="5.91691">
        <ele>789.8</ele>
        <time>2022-03-22T10:33:14Z</time>
      </trkpt>
      <trkpt lat="46.63804" lon="5.91688">
        <ele>790.5</ele>
        <time>2022-03-22T10:33:20Z</time>
      </trkpt>
      <trkpt lat="46.63799" lon="5.91684">
        <ele>791.1</ele>
        <time>2022-03-22T10:33:24Z</time>
      </trkpt>
      <trkpt lat="46.63795" lon="5.91681">
        <ele>791.7</ele>
        <time>2022-03-22T10:33:28Z</time>
      </trkpt>
      <trkpt lat="46.63791" lon="5.91676">
        <ele>792.3</ele>
        <time>2022-03-22T10:33:32Z</time>
      </trkpt>
      <trkpt lat="46.63789" lon="5.9167">
        <ele>793.7</ele>
        <time>2022-03-22T10:33:38Z</time>
      </trkpt>
      <trkpt lat="46.63787" lon="5.91664">
        <ele>795</ele>
        <time>2022-03-22T10:33:44Z</time>
      </trkpt>
      <trkpt lat="46.63784" lon="5.91657">
        <ele>795.5</ele>
        <time>2022-03-22T10:33:50Z</time>
      </trkpt>
      <trkpt lat="46.63781" lon="5.91651">
        <ele>795.4</ele>
        <time>2022-03-22T10:33:55Z</time>
      </trkpt>
      <trkpt lat="46.63777" lon="5.91646">
        <ele>794.9</ele>
        <time>2022-03-22T10:33:59Z</time>
      </trkpt>
      <trkpt lat="46.63774" lon="5.91641">
        <ele>794.5</ele>
        <time>2022-03-22T10:34:03Z</time>
      </trkpt>
      <trkpt lat="46.6377" lon="5.91636">
        <ele>794</ele>
        <time>2022-03-22T10:34:07Z</time>
      </trkpt>
      <trkpt lat="46.63766" lon="5.91634">
        <ele>793</ele>
        <time>2022-03-22T10:34:13Z</time>
      </trkpt>
      <trkpt lat="46.63761" lon="5.91633">
        <ele>791.9</ele>
        <time>2022-03-22T10:34:19Z</time>
      </trkpt>
      <trkpt lat="46.63756" lon="5.91632">
        <ele>790.8</ele>
        <time>2022-03-22T10:34:23Z</time>
      </trkpt>
      <trkpt lat="46.63751" lon="5.9163">
        <ele>789.9</ele>
        <time>2022-03-22T10:34:29Z</time>
      </trkpt>
      <trkpt lat="46.63746" lon="5.91629">
        <ele>789.3</ele>
        <time>2022-03-22T10:34:35Z</time>
      </trkpt>
      <trkpt lat="46.63742" lon="5.91634">
        <ele>789.4</ele>
        <time>2022-03-22T10:34:42Z</time>
      </trkpt>
      <trkpt lat="46.63738" lon="5.91639">
        <ele>790.3</ele>
        <time>2022-03-22T10:34:50Z</time>
      </trkpt>
      <trkpt lat="46.63734" lon="5.91641">
        <ele>791.1</ele>
        <time>2022-03-22T10:34:55Z</time>
      </trkpt>
      <trkpt lat="46.63729" lon="5.91643">
        <ele>791.9</ele>
        <time>2022-03-22T10:34:59Z</time>
      </trkpt>
      <trkpt lat="46.63724" lon="5.91643">
        <ele>792.1</ele>
        <time>2022-03-22T10:35:02Z</time>
      </trkpt>
      <trkpt lat="46.63718" lon="5.91643">
        <ele>792</ele>
        <time>2022-03-22T10:35:06Z</time>
      </trkpt>
      <trkpt lat="46.63713" lon="5.91645">
        <ele>791.6</ele>
        <time>2022-03-22T10:35:10Z</time>
      </trkpt>
      <trkpt lat="46.63708" lon="5.91645">
        <ele>791.5</ele>
        <time>2022-03-22T10:35:14Z</time>
      </trkpt>
      <trkpt lat="46.63702" lon="5.91645">
        <ele>791.6</ele>
        <time>2022-03-22T10:35:19Z</time>
      </trkpt>
      <trkpt lat="46.63698" lon="5.91647">
        <ele>790.7</ele>
        <time>2022-03-22T10:35:25Z</time>
      </trkpt>
      <trkpt lat="46.63693" lon="5.91649">
        <ele>790.2</ele>
        <time>2022-03-22T10:35:30Z</time>
      </trkpt>
      <trkpt lat="46.63689" lon="5.91652">
        <ele>790.1</ele>
        <time>2022-03-22T10:35:34Z</time>
      </trkpt>
      <trkpt lat="46.63684" lon="5.91654">
        <ele>789.6</ele>
        <time>2022-03-22T10:35:39Z</time>
      </trkpt>
      <trkpt lat="46.63679" lon="5.91653">
        <ele>788.8</ele>
        <time>2022-03-22T10:35:45Z</time>
      </trkpt>
      <trkpt lat="46.63674" lon="5.91652">
        <ele>788.6</ele>
        <time>2022-03-22T10:35:50Z</time>
      </trkpt>
      <trkpt lat="46.63669" lon="5.91653">
        <ele>788.6</ele>
        <time>2022-03-22T10:35:54Z</time>
      </trkpt>
      <trkpt lat="46.63664" lon="5.91653">
        <ele>788.6</ele>
        <time>2022-03-22T10:35:58Z</time>
      </trkpt>
      <trkpt lat="46.63659" lon="5.91653">
        <ele>788.2</ele>
        <time>2022-03-22T10:36:03Z</time>
      </trkpt>
      <trkpt lat="46.63654" lon="5.91653">
        <ele>788.6</ele>
        <time>2022-03-22T10:36:08Z</time>
      </trkpt>
      <trkpt lat="46.63649" lon="5.91655">
        <ele>789.1</ele>
        <time>2022-03-22T10:36:12Z</time>
      </trkpt>
      <trkpt lat="46.63645" lon="5.91657">
        <ele>789.6</ele>
        <time>2022-03-22T10:36:17Z</time>
      </trkpt>
      <trkpt lat="46.63639" lon="5.91655">
        <ele>792.6</ele>
        <time>2022-03-22T10:36:23Z</time>
      </trkpt>
      <trkpt lat="46.63638" lon="5.91648">
        <ele>793.8</ele>
        <time>2022-03-22T10:36:44Z</time>
      </trkpt>
      <trkpt lat="46.6364" lon="5.91642">
        <ele>791.8</ele>
        <time>2022-03-22T10:36:50Z</time>
      </trkpt>
      <trkpt lat="46.63644" lon="5.91637">
        <ele>790.1</ele>
        <time>2022-03-22T10:36:55Z</time>
      </trkpt>
      <trkpt lat="46.63647" lon="5.91631">
        <ele>788.8</ele>
        <time>2022-03-22T10:37:00Z</time>
      </trkpt>
      <trkpt lat="46.63651" lon="5.91626">
        <ele>788.8</ele>
        <time>2022-03-22T10:37:05Z</time>
      </trkpt>
      <trkpt lat="46.63653" lon="5.9162">
        <ele>788.1</ele>
        <time>2022-03-22T10:37:10Z</time>
      </trkpt>
      <trkpt lat="46.63655" lon="5.91614">
        <ele>787.1</ele>
        <time>2022-03-22T10:37:15Z</time>
      </trkpt>
      <trkpt lat="46.63656" lon="5.91607">
        <ele>785.2</ele>
        <time>2022-03-22T10:37:22Z</time>
      </trkpt>
      <trkpt lat="46.63658" lon="5.916">
        <ele>784.4</ele>
        <time>2022-03-22T10:37:27Z</time>
      </trkpt>
      <trkpt lat="46.63658" lon="5.91593">
        <ele>783.9</ele>
        <time>2022-03-22T10:37:31Z</time>
      </trkpt>
      <trkpt lat="46.63659" lon="5.91585">
        <ele>784</ele>
        <time>2022-03-22T10:37:36Z</time>
      </trkpt>
      <trkpt lat="46.63659" lon="5.91579">
        <ele>783.5</ele>
        <time>2022-03-22T10:37:42Z</time>
      </trkpt>
      <trkpt lat="46.63659" lon="5.91571">
        <ele>782.6</ele>
        <time>2022-03-22T10:37:48Z</time>
      </trkpt>
      <trkpt lat="46.63661" lon="5.91564">
        <ele>782.3</ele>
        <time>2022-03-22T10:37:54Z</time>
      </trkpt>
      <trkpt lat="46.63663" lon="5.91557">
        <ele>781.9</ele>
        <time>2022-03-22T10:37:59Z</time>
      </trkpt>
      <trkpt lat="46.63665" lon="5.91551">
        <ele>780.5</ele>
        <time>2022-03-22T10:38:06Z</time>
      </trkpt>
      <trkpt lat="46.63665" lon="5.91543">
        <ele>779.1</ele>
        <time>2022-03-22T10:38:11Z</time>
      </trkpt>
      <trkpt lat="46.63664" lon="5.91536">
        <ele>778.3</ele>
        <time>2022-03-22T10:38:14Z</time>
      </trkpt>
      <trkpt lat="46.63664" lon="5.91528">
        <ele>777.6</ele>
        <time>2022-03-22T10:38:17Z</time>
      </trkpt>
      <trkpt lat="46.63663" lon="5.91521">
        <ele>776.9</ele>
        <time>2022-03-22T10:38:20Z</time>
      </trkpt>
      <trkpt lat="46.63662" lon="5.91515">
        <ele>776.5</ele>
        <time>2022-03-22T10:38:23Z</time>
      </trkpt>
      <trkpt lat="46.63661" lon="5.91507">
        <ele>776.3</ele>
        <time>2022-03-22T10:38:27Z</time>
      </trkpt>
      <trkpt lat="46.63659" lon="5.91501">
        <ele>776.4</ele>
        <time>2022-03-22T10:38:32Z</time>
      </trkpt>
      <trkpt lat="46.63657" lon="5.91494">
        <ele>777.2</ele>
        <time>2022-03-22T10:38:40Z</time>
      </trkpt>
      <trkpt lat="46.63658" lon="5.91487">
        <ele>778.2</ele>
        <time>2022-03-22T10:38:46Z</time>
      </trkpt>
      <trkpt lat="46.63659" lon="5.91481">
        <ele>778.8</ele>
        <time>2022-03-22T10:38:51Z</time>
      </trkpt>
      <trkpt lat="46.63658" lon="5.91473">
        <ele>779.3</ele>
        <time>2022-03-22T10:38:56Z</time>
      </trkpt>
      <trkpt lat="46.63656" lon="5.91466">
        <ele>780.1</ele>
        <time>2022-03-22T10:39:00Z</time>
      </trkpt>
      <trkpt lat="46.63654" lon="5.9146">
        <ele>781</ele>
        <time>2022-03-22T10:39:04Z</time>
      </trkpt>
      <trkpt lat="46.63651" lon="5.91454">
        <ele>782.4</ele>
        <time>2022-03-22T10:39:10Z</time>
      </trkpt>
      <trkpt lat="46.63647" lon="5.91451">
        <ele>786.1</ele>
        <time>2022-03-22T10:39:58Z</time>
      </trkpt>
      <trkpt lat="46.6365" lon="5.91457">
        <ele>793.1</ele>
        <time>2022-03-22T10:40:14Z</time>
      </trkpt>
      <trkpt lat="46.63651" lon="5.9145">
        <ele>792.4</ele>
        <time>2022-03-22T10:40:53Z</time>
      </trkpt>
      <trkpt lat="46.63655" lon="5.91444">
        <ele>788.9</ele>
        <time>2022-03-22T10:41:16Z</time>
      </trkpt>
      <trkpt lat="46.63659" lon="5.9144">
        <ele>788.6</ele>
        <time>2022-03-22T10:41:20Z</time>
      </trkpt>
      <trkpt lat="46.63664" lon="5.91437">
        <ele>788.4</ele>
        <time>2022-03-22T10:41:25Z</time>
      </trkpt>
      <trkpt lat="46.63668" lon="5.91431">
        <ele>788.5</ele>
        <time>2022-03-22T10:41:30Z</time>
      </trkpt>
      <trkpt lat="46.63671" lon="5.91427">
        <ele>788.7</ele>
        <time>2022-03-22T10:41:33Z</time>
      </trkpt>
      <trkpt lat="46.63675" lon="5.91424">
        <ele>789.2</ele>
        <time>2022-03-22T10:41:38Z</time>
      </trkpt>
      <trkpt lat="46.63679" lon="5.91418">
        <ele>793.2</ele>
        <time>2022-03-22T10:41:55Z</time>
      </trkpt>
      <trkpt lat="46.63683" lon="5.91414">
        <ele>794.2</ele>
        <time>2022-03-22T10:42:00Z</time>
      </trkpt>
      <trkpt lat="46.63687" lon="5.91411">
        <ele>794.9</ele>
        <time>2022-03-22T10:42:05Z</time>
      </trkpt>
      <trkpt lat="46.63693" lon="5.91408">
        <ele>795.3</ele>
        <time>2022-03-22T10:42:09Z</time>
      </trkpt>
      <trkpt lat="46.63697" lon="5.91405">
        <ele>795.5</ele>
        <time>2022-03-22T10:42:13Z</time>
      </trkpt>
      <trkpt lat="46.63702" lon="5.91401">
        <ele>795.5</ele>
        <time>2022-03-22T10:42:17Z</time>
      </trkpt>
      <trkpt lat="46.63707" lon="5.91399">
        <ele>795.1</ele>
        <time>2022-03-22T10:42:21Z</time>
      </trkpt>
      <trkpt lat="46.63712" lon="5.91395">
        <ele>794.2</ele>
        <time>2022-03-22T10:42:25Z</time>
      </trkpt>
      <trkpt lat="46.63716" lon="5.91393">
        <ele>793.7</ele>
        <time>2022-03-22T10:42:29Z</time>
      </trkpt>
      <trkpt lat="46.63719" lon="5.91388">
        <ele>792.8</ele>
        <time>2022-03-22T10:42:35Z</time>
      </trkpt>
      <trkpt lat="46.63721" lon="5.91382">
        <ele>791.8</ele>
        <time>2022-03-22T10:42:41Z</time>
      </trkpt>
      <trkpt lat="46.63722" lon="5.91375">
        <ele>790.8</ele>
        <time>2022-03-22T10:42:47Z</time>
      </trkpt>
      <trkpt lat="46.63724" lon="5.91369">
        <ele>789.8</ele>
        <time>2022-03-22T10:42:54Z</time>
      </trkpt>
      <trkpt lat="46.63726" lon="5.91362">
        <ele>788.9</ele>
        <time>2022-03-22T10:43:00Z</time>
      </trkpt>
      <trkpt lat="46.63727" lon="5.91356">
        <ele>787.3</ele>
        <time>2022-03-22T10:43:05Z</time>
      </trkpt>
      <trkpt lat="46.63727" lon="5.91349">
        <ele>786.5</ele>
        <time>2022-03-22T10:43:10Z</time>
      </trkpt>
      <trkpt lat="46.63729" lon="5.91342">
        <ele>786.1</ele>
        <time>2022-03-22T10:43:17Z</time>
      </trkpt>
      <trkpt lat="46.63732" lon="5.91336">
        <ele>786.1</ele>
        <time>2022-03-22T10:43:22Z</time>
      </trkpt>
      <trkpt lat="46.63736" lon="5.9133">
        <ele>786</ele>
        <time>2022-03-22T10:43:27Z</time>
      </trkpt>
      <trkpt lat="46.63739" lon="5.91325">
        <ele>785.9</ele>
        <time>2022-03-22T10:43:32Z</time>
      </trkpt>
      <trkpt lat="46.63744" lon="5.91322">
        <ele>786.3</ele>
        <time>2022-03-22T10:43:38Z</time>
      </trkpt>
      <trkpt lat="46.63748" lon="5.91318">
        <ele>786</ele>
        <time>2022-03-22T10:43:43Z</time>
      </trkpt>
      <trkpt lat="46.63752" lon="5.91314">
        <ele>785.6</ele>
        <time>2022-03-22T10:43:47Z</time>
      </trkpt>
      <trkpt lat="46.63757" lon="5.9131">
        <ele>784.6</ele>
        <time>2022-03-22T10:43:52Z</time>
      </trkpt>
      <trkpt lat="46.63758" lon="5.91303">
        <ele>783.4</ele>
        <time>2022-03-22T10:43:58Z</time>
      </trkpt>
      <trkpt lat="46.6376" lon="5.91297">
        <ele>782</ele>
        <time>2022-03-22T10:44:05Z</time>
      </trkpt>
      <trkpt lat="46.63763" lon="5.91291">
        <ele>781.4</ele>
        <time>2022-03-22T10:44:09Z</time>
      </trkpt>
      <trkpt lat="46.63768" lon="5.91288">
        <ele>781.4</ele>
        <time>2022-03-22T10:44:13Z</time>
      </trkpt>
      <trkpt lat="46.63773" lon="5.91285">
        <ele>781.5</ele>
        <time>2022-03-22T10:44:18Z</time>
      </trkpt>
      <trkpt lat="46.63778" lon="5.91283">
        <ele>781.7</ele>
        <time>2022-03-22T10:44:23Z</time>
      </trkpt>
      <trkpt lat="46.63782" lon="5.91282">
        <ele>781.8</ele>
        <time>2022-03-22T10:44:28Z</time>
      </trkpt>
      <trkpt lat="46.63787" lon="5.91283">
        <ele>781</ele>
        <time>2022-03-22T10:44:35Z</time>
      </trkpt>
      <trkpt lat="46.63791" lon="5.91285">
        <ele>780.4</ele>
        <time>2022-03-22T10:44:42Z</time>
      </trkpt>
      <trkpt lat="46.63796" lon="5.91287">
        <ele>780.4</ele>
        <time>2022-03-22T10:44:47Z</time>
      </trkpt>
      <trkpt lat="46.63801" lon="5.91289">
        <ele>780.6</ele>
        <time>2022-03-22T10:44:50Z</time>
      </trkpt>
      <trkpt lat="46.63807" lon="5.91292">
        <ele>781</ele>
        <time>2022-03-22T10:44:54Z</time>
      </trkpt>
      <trkpt lat="46.63812" lon="5.91293">
        <ele>781.1</ele>
        <time>2022-03-22T10:44:59Z</time>
      </trkpt>
      <trkpt lat="46.63817" lon="5.91295">
        <ele>780.2</ele>
        <time>2022-03-22T10:45:04Z</time>
      </trkpt>
      <trkpt lat="46.63822" lon="5.91296">
        <ele>778.2</ele>
        <time>2022-03-22T10:45:10Z</time>
      </trkpt>
      <trkpt lat="46.63827" lon="5.91295">
        <ele>776.4</ele>
        <time>2022-03-22T10:45:17Z</time>
      </trkpt>
      <trkpt lat="46.63832" lon="5.91294">
        <ele>775.7</ele>
        <time>2022-03-22T10:45:22Z</time>
      </trkpt>
      <trkpt lat="46.63837" lon="5.91295">
        <ele>774.5</ele>
        <time>2022-03-22T10:45:27Z</time>
      </trkpt>
      <trkpt lat="46.63841" lon="5.91295">
        <ele>773.5</ele>
        <time>2022-03-22T10:45:31Z</time>
      </trkpt>
      <trkpt lat="46.63846" lon="5.91296">
        <ele>772.8</ele>
        <time>2022-03-22T10:45:35Z</time>
      </trkpt>
      <trkpt lat="46.63851" lon="5.91297">
        <ele>771.4</ele>
        <time>2022-03-22T10:45:41Z</time>
      </trkpt>
      <trkpt lat="46.63856" lon="5.91297">
        <ele>771</ele>
        <time>2022-03-22T10:45:45Z</time>
      </trkpt>
      <trkpt lat="46.6386" lon="5.913">
        <ele>770.5</ele>
        <time>2022-03-22T10:45:51Z</time>
      </trkpt>
      <trkpt lat="46.63865" lon="5.91302">
        <ele>770.3</ele>
        <time>2022-03-22T10:45:55Z</time>
      </trkpt>
      <trkpt lat="46.63869" lon="5.91306">
        <ele>769.8</ele>
        <time>2022-03-22T10:45:59Z</time>
      </trkpt>
      <trkpt lat="46.63874" lon="5.9131">
        <ele>768.9</ele>
        <time>2022-03-22T10:46:03Z</time>
      </trkpt>
      <trkpt lat="46.63878" lon="5.91314">
        <ele>768.2</ele>
        <time>2022-03-22T10:46:07Z</time>
      </trkpt>
      <trkpt lat="46.63882" lon="5.91319">
        <ele>767.6</ele>
        <time>2022-03-22T10:46:12Z</time>
      </trkpt>
      <trkpt lat="46.63886" lon="5.91324">
        <ele>767.2</ele>
        <time>2022-03-22T10:46:17Z</time>
      </trkpt>
      <trkpt lat="46.6389" lon="5.91329">
        <ele>766.8</ele>
        <time>2022-03-22T10:46:22Z</time>
      </trkpt>
      <trkpt lat="46.63893" lon="5.91335">
        <ele>767</ele>
        <time>2022-03-22T10:46:27Z</time>
      </trkpt>
      <trkpt lat="46.63894" lon="5.91342">
        <ele>766.4</ele>
        <time>2022-03-22T10:46:33Z</time>
      </trkpt>
      <trkpt lat="46.63898" lon="5.91347">
        <ele>766.3</ele>
        <time>2022-03-22T10:46:39Z</time>
      </trkpt>
      <trkpt lat="46.639" lon="5.91353">
        <ele>766.6</ele>
        <time>2022-03-22T10:46:46Z</time>
      </trkpt>
      <trkpt lat="46.63902" lon="5.91359">
        <ele>766.7</ele>
        <time>2022-03-22T10:46:53Z</time>
      </trkpt>
      <trkpt lat="46.63907" lon="5.91364">
        <ele>765.9</ele>
        <time>2022-03-22T10:46:59Z</time>
      </trkpt>
      <trkpt lat="46.63912" lon="5.91366">
        <ele>764.7</ele>
        <time>2022-03-22T10:47:03Z</time>
      </trkpt>
      <trkpt lat="46.63917" lon="5.91368">
        <ele>763.2</ele>
        <time>2022-03-22T10:47:08Z</time>
      </trkpt>
      <trkpt lat="46.6392" lon="5.91374">
        <ele>761.8</ele>
        <time>2022-03-22T10:47:13Z</time>
      </trkpt>
      <trkpt lat="46.63923" lon="5.9138">
        <ele>760.3</ele>
        <time>2022-03-22T10:47:18Z</time>
      </trkpt>
      <trkpt lat="46.63926" lon="5.91386">
        <ele>758.6</ele>
        <time>2022-03-22T10:47:24Z</time>
      </trkpt>
      <trkpt lat="46.63927" lon="5.91392">
        <ele>756.8</ele>
        <time>2022-03-22T10:47:30Z</time>
      </trkpt>
      <trkpt lat="46.63932" lon="5.91396">
        <ele>755.8</ele>
        <time>2022-03-22T10:47:35Z</time>
      </trkpt>
      <trkpt lat="46.63936" lon="5.914">
        <ele>755.4</ele>
        <time>2022-03-22T10:47:39Z</time>
      </trkpt>
      <trkpt lat="46.6394" lon="5.91405">
        <ele>755.5</ele>
        <time>2022-03-22T10:47:44Z</time>
      </trkpt>
      <trkpt lat="46.63944" lon="5.91411">
        <ele>755.6</ele>
        <time>2022-03-22T10:47:49Z</time>
      </trkpt>
      <trkpt lat="46.63947" lon="5.91417">
        <ele>755.8</ele>
        <time>2022-03-22T10:47:55Z</time>
      </trkpt>
      <trkpt lat="46.63951" lon="5.9142">
        <ele>755.8</ele>
        <time>2022-03-22T10:48:00Z</time>
      </trkpt>
      <trkpt lat="46.63955" lon="5.91426">
        <ele>755.8</ele>
        <time>2022-03-22T10:48:07Z</time>
      </trkpt>
      <trkpt lat="46.63958" lon="5.9143">
        <ele>755.8</ele>
        <time>2022-03-22T10:48:11Z</time>
      </trkpt>
      <trkpt lat="46.63963" lon="5.91433">
        <ele>756.2</ele>
        <time>2022-03-22T10:48:16Z</time>
      </trkpt>
      <trkpt lat="46.63967" lon="5.91437">
        <ele>756.6</ele>
        <time>2022-03-22T10:48:21Z</time>
      </trkpt>
      <trkpt lat="46.63969" lon="5.91443">
        <ele>757.4</ele>
        <time>2022-03-22T10:48:32Z</time>
      </trkpt>
      <trkpt lat="46.63972" lon="5.91449">
        <ele>758.5</ele>
        <time>2022-03-22T10:48:41Z</time>
      </trkpt>
      <trkpt lat="46.63976" lon="5.91452">
        <ele>758.5</ele>
        <time>2022-03-22T10:48:44Z</time>
      </trkpt>
      <trkpt lat="46.6398" lon="5.91456">
        <ele>758.4</ele>
        <time>2022-03-22T10:48:48Z</time>
      </trkpt>
      <trkpt lat="46.63982" lon="5.91463">
        <ele>757.9</ele>
        <time>2022-03-22T10:48:53Z</time>
      </trkpt>
      <trkpt lat="46.63987" lon="5.91468">
        <ele>757.7</ele>
        <time>2022-03-22T10:48:57Z</time>
      </trkpt>
      <trkpt lat="46.63992" lon="5.91472">
        <ele>757.9</ele>
        <time>2022-03-22T10:49:01Z</time>
      </trkpt>
      <trkpt lat="46.63995" lon="5.91477">
        <ele>757.7</ele>
        <time>2022-03-22T10:49:06Z</time>
      </trkpt>
      <trkpt lat="46.63998" lon="5.91483">
        <ele>757.4</ele>
        <time>2022-03-22T10:49:12Z</time>
      </trkpt>
      <trkpt lat="46.64" lon="5.9149">
        <ele>757</ele>
        <time>2022-03-22T10:49:18Z</time>
      </trkpt>
      <trkpt lat="46.64002" lon="5.91496">
        <ele>756.4</ele>
        <time>2022-03-22T10:49:23Z</time>
      </trkpt>
      <trkpt lat="46.64005" lon="5.91504">
        <ele>756.1</ele>
        <time>2022-03-22T10:49:27Z</time>
      </trkpt>
      <trkpt lat="46.64009" lon="5.91508">
        <ele>756.3</ele>
        <time>2022-03-22T10:49:30Z</time>
      </trkpt>
      <trkpt lat="46.64013" lon="5.91511">
        <ele>756.4</ele>
        <time>2022-03-22T10:49:36Z</time>
      </trkpt>
      <trkpt lat="46.64018" lon="5.91512">
        <ele>757.2</ele>
        <time>2022-03-22T10:49:42Z</time>
      </trkpt>
      <trkpt lat="46.64023" lon="5.91513">
        <ele>757.6</ele>
        <time>2022-03-22T10:49:47Z</time>
      </trkpt>
      <trkpt lat="46.64027" lon="5.91516">
        <ele>757.8</ele>
        <time>2022-03-22T10:49:51Z</time>
      </trkpt>
      <trkpt lat="46.64032" lon="5.91518">
        <ele>758.3</ele>
        <time>2022-03-22T10:49:54Z</time>
      </trkpt>
      <trkpt lat="46.64036" lon="5.91522">
        <ele>759</ele>
        <time>2022-03-22T10:49:59Z</time>
      </trkpt>
      <trkpt lat="46.64039" lon="5.91528">
        <ele>759.6</ele>
        <time>2022-03-22T10:50:06Z</time>
      </trkpt>
      <trkpt lat="46.64043" lon="5.91533">
        <ele>759.2</ele>
        <time>2022-03-22T10:50:10Z</time>
      </trkpt>
      <trkpt lat="46.64047" lon="5.91536">
        <ele>758.8</ele>
        <time>2022-03-22T10:50:14Z</time>
      </trkpt>
      <trkpt lat="46.64052" lon="5.91539">
        <ele>758.4</ele>
        <time>2022-03-22T10:50:18Z</time>
      </trkpt>
      <trkpt lat="46.64056" lon="5.91543">
        <ele>758.6</ele>
        <time>2022-03-22T10:50:23Z</time>
      </trkpt>
      <trkpt lat="46.6406" lon="5.91547">
        <ele>759.1</ele>
        <time>2022-03-22T10:50:28Z</time>
      </trkpt>
      <trkpt lat="46.64063" lon="5.91551">
        <ele>759.5</ele>
        <time>2022-03-22T10:50:32Z</time>
      </trkpt>
      <trkpt lat="46.64067" lon="5.91556">
        <ele>759.6</ele>
        <time>2022-03-22T10:50:38Z</time>
      </trkpt>
      <trkpt lat="46.64071" lon="5.91558">
        <ele>758.8</ele>
        <time>2022-03-22T10:50:44Z</time>
      </trkpt>
      <trkpt lat="46.64076" lon="5.9156">
        <ele>757.8</ele>
        <time>2022-03-22T10:50:48Z</time>
      </trkpt>
      <trkpt lat="46.64079" lon="5.91566">
        <ele>755.1</ele>
        <time>2022-03-22T10:50:56Z</time>
      </trkpt>
      <trkpt lat="46.64083" lon="5.91571">
        <ele>753.7</ele>
        <time>2022-03-22T10:51:02Z</time>
      </trkpt>
      <trkpt lat="46.64084" lon="5.91578">
        <ele>752.1</ele>
        <time>2022-03-22T10:51:07Z</time>
      </trkpt>
      <trkpt lat="46.64087" lon="5.91584">
        <ele>750.9</ele>
        <time>2022-03-22T10:51:11Z</time>
      </trkpt>
      <trkpt lat="46.6409" lon="5.91589">
        <ele>749.2</ele>
        <time>2022-03-22T10:51:16Z</time>
      </trkpt>
      <trkpt lat="46.64094" lon="5.91595">
        <ele>747.4</ele>
        <time>2022-03-22T10:51:23Z</time>
      </trkpt>
      <trkpt lat="46.64098" lon="5.91599">
        <ele>747</ele>
        <time>2022-03-22T10:51:28Z</time>
      </trkpt>
      <trkpt lat="46.64101" lon="5.91604">
        <ele>746.6</ele>
        <time>2022-03-22T10:51:32Z</time>
      </trkpt>
      <trkpt lat="46.64104" lon="5.9161">
        <ele>745.3</ele>
        <time>2022-03-22T10:51:37Z</time>
      </trkpt>
      <trkpt lat="46.64108" lon="5.91615">
        <ele>743.2</ele>
        <time>2022-03-22T10:51:43Z</time>
      </trkpt>
      <trkpt lat="46.64112" lon="5.91619">
        <ele>742.3</ele>
        <time>2022-03-22T10:51:47Z</time>
      </trkpt>
      <trkpt lat="46.64115" lon="5.91624">
        <ele>742.2</ele>
        <time>2022-03-22T10:51:51Z</time>
      </trkpt>
      <trkpt lat="46.6412" lon="5.91626">
        <ele>742.6</ele>
        <time>2022-03-22T10:51:55Z</time>
      </trkpt>
      <trkpt lat="46.64125" lon="5.91628">
        <ele>743.4</ele>
        <time>2022-03-22T10:51:59Z</time>
      </trkpt>
      <trkpt lat="46.64129" lon="5.91632">
        <ele>744.4</ele>
        <time>2022-03-22T10:52:04Z</time>
      </trkpt>
      <trkpt lat="46.64133" lon="5.91635">
        <ele>745.7</ele>
        <time>2022-03-22T10:52:10Z</time>
      </trkpt>
      <trkpt lat="46.64138" lon="5.91638">
        <ele>746.5</ele>
        <time>2022-03-22T10:52:14Z</time>
      </trkpt>
      <trkpt lat="46.64142" lon="5.9164">
        <ele>747.2</ele>
        <time>2022-03-22T10:52:18Z</time>
      </trkpt>
      <trkpt lat="46.64148" lon="5.91642">
        <ele>748.1</ele>
        <time>2022-03-22T10:52:22Z</time>
      </trkpt>
      <trkpt lat="46.64152" lon="5.91646">
        <ele>748.5</ele>
        <time>2022-03-22T10:52:26Z</time>
      </trkpt>
      <trkpt lat="46.64156" lon="5.9165">
        <ele>748.1</ele>
        <time>2022-03-22T10:52:36Z</time>
      </trkpt>
      <trkpt lat="46.6416" lon="5.91654">
        <ele>747.6</ele>
        <time>2022-03-22T10:52:42Z</time>
      </trkpt>
      <trkpt lat="46.64162" lon="5.91659">
        <ele>746.9</ele>
        <time>2022-03-22T10:52:46Z</time>
      </trkpt>
      <trkpt lat="46.64165" lon="5.91666">
        <ele>745.6</ele>
        <time>2022-03-22T10:52:51Z</time>
      </trkpt>
      <trkpt lat="46.64166" lon="5.91672">
        <ele>743.6</ele>
        <time>2022-03-22T10:52:56Z</time>
      </trkpt>
      <trkpt lat="46.64169" lon="5.91677">
        <ele>740.8</ele>
        <time>2022-03-22T10:53:04Z</time>
      </trkpt>
      <trkpt lat="46.64174" lon="5.9168">
        <ele>739.4</ele>
        <time>2022-03-22T10:53:08Z</time>
      </trkpt>
      <trkpt lat="46.64179" lon="5.91683">
        <ele>738</ele>
        <time>2022-03-22T10:53:12Z</time>
      </trkpt>
      <trkpt lat="46.64184" lon="5.91684">
        <ele>737</ele>
        <time>2022-03-22T10:53:18Z</time>
      </trkpt>
      <trkpt lat="46.64189" lon="5.91687">
        <ele>736.3</ele>
        <time>2022-03-22T10:53:25Z</time>
      </trkpt>
      <trkpt lat="46.64191" lon="5.91694">
        <ele>735</ele>
        <time>2022-03-22T10:53:31Z</time>
      </trkpt>
      <trkpt lat="46.64197" lon="5.91695">
        <ele>733.6</ele>
        <time>2022-03-22T10:53:38Z</time>
      </trkpt>
      <trkpt lat="46.64196" lon="5.91702">
        <ele>732</ele>
        <time>2022-03-22T10:53:45Z</time>
      </trkpt>
      <trkpt lat="46.64199" lon="5.91707">
        <ele>730.3</ele>
        <time>2022-03-22T10:53:52Z</time>
      </trkpt>
      <trkpt lat="46.64201" lon="5.91714">
        <ele>729.2</ele>
        <time>2022-03-22T10:53:59Z</time>
      </trkpt>
      <trkpt lat="46.64204" lon="5.9172">
        <ele>728.5</ele>
        <time>2022-03-22T10:54:04Z</time>
      </trkpt>
      <trkpt lat="46.64208" lon="5.91724">
        <ele>728.1</ele>
        <time>2022-03-22T10:54:08Z</time>
      </trkpt>
      <trkpt lat="46.64213" lon="5.91727">
        <ele>728.3</ele>
        <time>2022-03-22T10:54:13Z</time>
      </trkpt>
      <trkpt lat="46.64217" lon="5.91733">
        <ele>729.2</ele>
        <time>2022-03-22T10:54:20Z</time>
      </trkpt>
      <trkpt lat="46.6422" lon="5.91738">
        <ele>729.8</ele>
        <time>2022-03-22T10:54:25Z</time>
      </trkpt>
      <trkpt lat="46.64224" lon="5.91741">
        <ele>730.1</ele>
        <time>2022-03-22T10:54:29Z</time>
      </trkpt>
      <trkpt lat="46.64227" lon="5.91746">
        <ele>730.2</ele>
        <time>2022-03-22T10:54:33Z</time>
      </trkpt>
      <trkpt lat="46.6423" lon="5.91751">
        <ele>730.4</ele>
        <time>2022-03-22T10:54:38Z</time>
      </trkpt>
      <trkpt lat="46.64231" lon="5.91758">
        <ele>730.8</ele>
        <time>2022-03-22T10:54:43Z</time>
      </trkpt>
      <trkpt lat="46.64233" lon="5.91765">
        <ele>731.3</ele>
        <time>2022-03-22T10:54:49Z</time>
      </trkpt>
      <trkpt lat="46.64237" lon="5.91769">
        <ele>732.5</ele>
        <time>2022-03-22T10:54:54Z</time>
      </trkpt>
      <trkpt lat="46.64242" lon="5.91772">
        <ele>733.4</ele>
        <time>2022-03-22T10:54:58Z</time>
      </trkpt>
      <trkpt lat="46.64246" lon="5.91776">
        <ele>734</ele>
        <time>2022-03-22T10:55:03Z</time>
      </trkpt>
      <trkpt lat="46.6425" lon="5.91782">
        <ele>734.3</ele>
        <time>2022-03-22T10:55:09Z</time>
      </trkpt>
      <trkpt lat="46.64252" lon="5.91788">
        <ele>734.7</ele>
        <time>2022-03-22T10:55:14Z</time>
      </trkpt>
      <trkpt lat="46.64254" lon="5.91794">
        <ele>734.5</ele>
        <time>2022-03-22T10:55:19Z</time>
      </trkpt>
      <trkpt lat="46.64259" lon="5.91798">
        <ele>734.7</ele>
        <time>2022-03-22T10:55:23Z</time>
      </trkpt>
      <trkpt lat="46.64262" lon="5.91804">
        <ele>734.9</ele>
        <time>2022-03-22T10:55:29Z</time>
      </trkpt>
      <trkpt lat="46.64265" lon="5.91809">
        <ele>735.3</ele>
        <time>2022-03-22T10:55:35Z</time>
      </trkpt>
      <trkpt lat="46.64269" lon="5.91813">
        <ele>736</ele>
        <time>2022-03-22T10:55:39Z</time>
      </trkpt>
      <trkpt lat="46.64273" lon="5.91816">
        <ele>736.5</ele>
        <time>2022-03-22T10:55:42Z</time>
      </trkpt>
      <trkpt lat="46.64279" lon="5.91819">
        <ele>738</ele>
        <time>2022-03-22T10:55:46Z</time>
      </trkpt>
      <trkpt lat="46.64283" lon="5.91823">
        <ele>738.9</ele>
        <time>2022-03-22T10:55:49Z</time>
      </trkpt>
      <trkpt lat="46.64287" lon="5.91827">
        <ele>740.4</ele>
        <time>2022-03-22T10:55:54Z</time>
      </trkpt>
      <trkpt lat="46.64287" lon="5.91834">
        <ele>742.2</ele>
        <time>2022-03-22T10:56:00Z</time>
      </trkpt>
      <trkpt lat="46.6429" lon="5.91839">
        <ele>743.9</ele>
        <time>2022-03-22T10:56:05Z</time>
      </trkpt>
      <trkpt lat="46.64295" lon="5.91841">
        <ele>745.7</ele>
        <time>2022-03-22T10:56:09Z</time>
      </trkpt>
      <trkpt lat="46.64298" lon="5.91846">
        <ele>746.9</ele>
        <time>2022-03-22T10:56:17Z</time>
      </trkpt>
      <trkpt lat="46.64302" lon="5.9185">
        <ele>745.3</ele>
        <time>2022-03-22T10:56:27Z</time>
      </trkpt>
      <trkpt lat="46.64306" lon="5.91854">
        <ele>744.9</ele>
        <time>2022-03-22T10:56:30Z</time>
      </trkpt>
      <trkpt lat="46.64309" lon="5.91859">
        <ele>743.9</ele>
        <time>2022-03-22T10:56:34Z</time>
      </trkpt>
      <trkpt lat="46.64314" lon="5.91863">
        <ele>741</ele>
        <time>2022-03-22T10:56:43Z</time>
      </trkpt>
      <trkpt lat="46.64319" lon="5.91865">
        <ele>739.5</ele>
        <time>2022-03-22T10:56:46Z</time>
      </trkpt>
      <trkpt lat="46.64324" lon="5.91865">
        <ele>738</ele>
        <time>2022-03-22T10:56:50Z</time>
      </trkpt>
      <trkpt lat="46.64329" lon="5.91864">
        <ele>736.4</ele>
        <time>2022-03-22T10:56:54Z</time>
      </trkpt>
      <trkpt lat="46.64334" lon="5.91862">
        <ele>735.6</ele>
        <time>2022-03-22T10:56:58Z</time>
      </trkpt>
      <trkpt lat="46.64339" lon="5.91864">
        <ele>734.6</ele>
        <time>2022-03-22T10:57:07Z</time>
      </trkpt>
      <trkpt lat="46.64343" lon="5.91868">
        <ele>735.2</ele>
        <time>2022-03-22T10:57:11Z</time>
      </trkpt>
      <trkpt lat="46.64347" lon="5.91873">
        <ele>736.2</ele>
        <time>2022-03-22T10:57:14Z</time>
      </trkpt>
      <trkpt lat="46.64351" lon="5.91877">
        <ele>738.2</ele>
        <time>2022-03-22T10:57:19Z</time>
      </trkpt>
      <trkpt lat="46.64356" lon="5.91879">
        <ele>741.8</ele>
        <time>2022-03-22T10:57:30Z</time>
      </trkpt>
      <trkpt lat="46.64357" lon="5.91887">
        <ele>742.7</ele>
        <time>2022-03-22T10:57:35Z</time>
      </trkpt>
      <trkpt lat="46.6436" lon="5.91892">
        <ele>742.8</ele>
        <time>2022-03-22T10:57:41Z</time>
      </trkpt>
      <trkpt lat="46.64365" lon="5.91894">
        <ele>742.4</ele>
        <time>2022-03-22T10:57:48Z</time>
      </trkpt>
      <trkpt lat="46.64369" lon="5.91896">
        <ele>741.6</ele>
        <time>2022-03-22T10:57:55Z</time>
      </trkpt>
      <trkpt lat="46.64374" lon="5.91898">
        <ele>741.5</ele>
        <time>2022-03-22T10:58:01Z</time>
      </trkpt>
      <trkpt lat="46.64379" lon="5.91899">
        <ele>741.7</ele>
        <time>2022-03-22T10:58:05Z</time>
      </trkpt>
      <trkpt lat="46.64384" lon="5.91903">
        <ele>741.8</ele>
        <time>2022-03-22T10:58:10Z</time>
      </trkpt>
      <trkpt lat="46.64389" lon="5.91907">
        <ele>741.8</ele>
        <time>2022-03-22T10:58:14Z</time>
      </trkpt>
      <trkpt lat="46.64393" lon="5.91912">
        <ele>742.1</ele>
        <time>2022-03-22T10:58:19Z</time>
      </trkpt>
      <trkpt lat="46.64398" lon="5.91916">
        <ele>742.7</ele>
        <time>2022-03-22T10:58:25Z</time>
      </trkpt>
      <trkpt lat="46.64402" lon="5.91918">
        <ele>743.4</ele>
        <time>2022-03-22T10:58:31Z</time>
      </trkpt>
      <trkpt lat="46.64407" lon="5.91922">
        <ele>744</ele>
        <time>2022-03-22T10:58:37Z</time>
      </trkpt>
      <trkpt lat="46.64411" lon="5.91926">
        <ele>745</ele>
        <time>2022-03-22T10:58:42Z</time>
      </trkpt>
      <trkpt lat="46.64412" lon="5.91933">
        <ele>745.4</ele>
        <time>2022-03-22T10:58:48Z</time>
      </trkpt>
      <trkpt lat="46.64413" lon="5.91941">
        <ele>744.8</ele>
        <time>2022-03-22T10:58:52Z</time>
      </trkpt>
      <trkpt lat="46.64417" lon="5.91945">
        <ele>743.5</ele>
        <time>2022-03-22T10:58:56Z</time>
      </trkpt>
      <trkpt lat="46.64416" lon="5.91952">
        <ele>740.2</ele>
        <time>2022-03-22T10:59:02Z</time>
      </trkpt>
      <trkpt lat="46.64416" lon="5.9196">
        <ele>736.3</ele>
        <time>2022-03-22T10:59:07Z</time>
      </trkpt>
      <trkpt lat="46.64416" lon="5.91966">
        <ele>729.4</ele>
        <time>2022-03-22T10:59:14Z</time>
      </trkpt>
      <trkpt lat="46.64419" lon="5.91973">
        <ele>725.5</ele>
        <time>2022-03-22T10:59:21Z</time>
      </trkpt>
      <trkpt lat="46.64424" lon="5.91974">
        <ele>724.2</ele>
        <time>2022-03-22T10:59:34Z</time>
      </trkpt>
      <trkpt lat="46.64428" lon="5.91976">
        <ele>724.9</ele>
        <time>2022-03-22T10:59:37Z</time>
      </trkpt>
      <trkpt lat="46.64433" lon="5.91977">
        <ele>726.5</ele>
        <time>2022-03-22T10:59:41Z</time>
      </trkpt>
      <trkpt lat="46.64438" lon="5.91977">
        <ele>728.7</ele>
        <time>2022-03-22T10:59:46Z</time>
      </trkpt>
      <trkpt lat="46.64443" lon="5.91978">
        <ele>730.4</ele>
        <time>2022-03-22T10:59:50Z</time>
      </trkpt>
      <trkpt lat="46.64449" lon="5.91978">
        <ele>731.6</ele>
        <time>2022-03-22T10:59:53Z</time>
      </trkpt>
      <trkpt lat="46.64455" lon="5.91978">
        <ele>732.7</ele>
        <time>2022-03-22T10:59:56Z</time>
      </trkpt>
      <trkpt lat="46.6446" lon="5.91978">
        <ele>733.8</ele>
        <time>2022-03-22T10:59:59Z</time>
      </trkpt>
      <trkpt lat="46.64469" lon="5.91976">
        <ele>734.7</ele>
        <time>2022-03-22T11:00:02Z</time>
      </trkpt>
      <trkpt lat="46.64476" lon="5.91973">
        <ele>735.4</ele>
        <time>2022-03-22T11:00:05Z</time>
      </trkpt>
      <trkpt lat="46.6448" lon="5.91968">
        <ele>735.9</ele>
        <time>2022-03-22T11:00:08Z</time>
      </trkpt>
      <trkpt lat="46.64483" lon="5.91961">
        <ele>737</ele>
        <time>2022-03-22T11:00:12Z</time>
      </trkpt>
      <trkpt lat="46.64486" lon="5.91953">
        <ele>738.3</ele>
        <time>2022-03-22T11:00:15Z</time>
      </trkpt>
      <trkpt lat="46.64488" lon="5.91946">
        <ele>739.3</ele>
        <time>2022-03-22T11:00:18Z</time>
      </trkpt>
      <trkpt lat="46.64491" lon="5.9194">
        <ele>740.5</ele>
        <time>2022-03-22T11:00:22Z</time>
      </trkpt>
      <trkpt lat="46.64494" lon="5.91933">
        <ele>741.4</ele>
        <time>2022-03-22T11:00:27Z</time>
      </trkpt>
      <trkpt lat="46.64495" lon="5.91927">
        <ele>741.3</ele>
        <time>2022-03-22T11:00:32Z</time>
      </trkpt>
      <trkpt lat="46.64497" lon="5.9192">
        <ele>741.6</ele>
        <time>2022-03-22T11:00:37Z</time>
      </trkpt>
      <trkpt lat="46.645" lon="5.91914">
        <ele>742.1</ele>
        <time>2022-03-22T11:00:42Z</time>
      </trkpt>
      <trkpt lat="46.64503" lon="5.91908">
        <ele>743</ele>
        <time>2022-03-22T11:00:46Z</time>
      </trkpt>
      <trkpt lat="46.64506" lon="5.91901">
        <ele>743.7</ele>
        <time>2022-03-22T11:00:51Z</time>
      </trkpt>
      <trkpt lat="46.64508" lon="5.91896">
        <ele>744</ele>
        <time>2022-03-22T11:00:56Z</time>
      </trkpt>
      <trkpt lat="46.64512" lon="5.91891">
        <ele>744</ele>
        <time>2022-03-22T11:01:02Z</time>
      </trkpt>
      <trkpt lat="46.64515" lon="5.91886">
        <ele>744</ele>
        <time>2022-03-22T11:01:09Z</time>
      </trkpt>
      <trkpt lat="46.64518" lon="5.9188">
        <ele>744.3</ele>
        <time>2022-03-22T11:01:14Z</time>
      </trkpt>
      <trkpt lat="46.64519" lon="5.91873">
        <ele>744.2</ele>
        <time>2022-03-22T11:01:20Z</time>
      </trkpt>
      <trkpt lat="46.64522" lon="5.91866">
        <ele>744.3</ele>
        <time>2022-03-22T11:01:26Z</time>
      </trkpt>
      <trkpt lat="46.64522" lon="5.91859">
        <ele>745.2</ele>
        <time>2022-03-22T11:01:33Z</time>
      </trkpt>
      <trkpt lat="46.64522" lon="5.91852">
        <ele>745.9</ele>
        <time>2022-03-22T11:01:38Z</time>
      </trkpt>
      <trkpt lat="46.64522" lon="5.91845">
        <ele>746.9</ele>
        <time>2022-03-22T11:01:43Z</time>
      </trkpt>
      <trkpt lat="46.64523" lon="5.91838">
        <ele>747.7</ele>
        <time>2022-03-22T11:01:49Z</time>
      </trkpt>
      <trkpt lat="46.64524" lon="5.91831">
        <ele>748.6</ele>
        <time>2022-03-22T11:01:57Z</time>
      </trkpt>
      <trkpt lat="46.64527" lon="5.91825">
        <ele>748.8</ele>
        <time>2022-03-22T11:02:05Z</time>
      </trkpt>
      <trkpt lat="46.6453" lon="5.91819">
        <ele>748.8</ele>
        <time>2022-03-22T11:02:11Z</time>
      </trkpt>
      <trkpt lat="46.64534" lon="5.91816">
        <ele>748.3</ele>
        <time>2022-03-22T11:02:17Z</time>
      </trkpt>
      <trkpt lat="46.64539" lon="5.91815">
        <ele>747.7</ele>
        <time>2022-03-22T11:02:25Z</time>
      </trkpt>
      <trkpt lat="46.64544" lon="5.91818">
        <ele>748.1</ele>
        <time>2022-03-22T11:02:29Z</time>
      </trkpt>
      <trkpt lat="46.64548" lon="5.91822">
        <ele>748.8</ele>
        <time>2022-03-22T11:02:34Z</time>
      </trkpt>
      <trkpt lat="46.64549" lon="5.91828">
        <ele>749.4</ele>
        <time>2022-03-22T11:02:41Z</time>
      </trkpt>
      <trkpt lat="46.64545" lon="5.91833">
        <ele>750.3</ele>
        <time>2022-03-22T11:02:48Z</time>
      </trkpt>
      <trkpt lat="46.64551" lon="5.91835">
        <ele>755.1</ele>
        <time>2022-03-22T11:04:31Z</time>
      </trkpt>
      <trkpt lat="46.64546" lon="5.91837">
        <ele>759.7</ele>
        <time>2022-03-22T11:04:57Z</time>
      </trkpt>
      <trkpt lat="46.64542" lon="5.91834">
        <ele>762.1</ele>
        <time>2022-03-22T11:13:05Z</time>
      </trkpt>
      <trkpt lat="46.64546" lon="5.91836">
        <ele>761.5</ele>
        <time>2022-03-22T11:37:44Z</time>
      </trkpt>
      <trkpt lat="46.64543" lon="5.91841">
        <ele>760.4</ele>
        <time>2022-03-22T11:39:51Z</time>
      </trkpt>
      <trkpt lat="46.64543" lon="5.91849">
        <ele>759.9</ele>
        <time>2022-03-22T11:39:56Z</time>
      </trkpt>
      <trkpt lat="46.64544" lon="5.91856">
        <ele>759.6</ele>
        <time>2022-03-22T11:40:01Z</time>
      </trkpt>
      <trkpt lat="46.64547" lon="5.91862">
        <ele>760.3</ele>
        <time>2022-03-22T11:40:16Z</time>
      </trkpt>
      <trkpt lat="46.64541" lon="5.91862">
        <ele>759.4</ele>
        <time>2022-03-22T11:40:53Z</time>
      </trkpt>
      <trkpt lat="46.64539" lon="5.91855">
        <ele>758.8</ele>
        <time>2022-03-22T11:40:58Z</time>
      </trkpt>
      <trkpt lat="46.64538" lon="5.91848">
        <ele>758.4</ele>
        <time>2022-03-22T11:41:02Z</time>
      </trkpt>
      <trkpt lat="46.64539" lon="5.91841">
        <ele>758</ele>
        <time>2022-03-22T11:41:06Z</time>
      </trkpt>
      <trkpt lat="46.64541" lon="5.91835">
        <ele>757.8</ele>
        <time>2022-03-22T11:41:11Z</time>
      </trkpt>
      <trkpt lat="46.64542" lon="5.91829">
        <ele>758</ele>
        <time>2022-03-22T11:41:17Z</time>
      </trkpt>
      <trkpt lat="46.64547" lon="5.91825">
        <ele>757.6</ele>
        <time>2022-03-22T11:41:23Z</time>
      </trkpt>
      <trkpt lat="46.64552" lon="5.91822">
        <ele>756.5</ele>
        <time>2022-03-22T11:41:28Z</time>
      </trkpt>
      <trkpt lat="46.64555" lon="5.91817">
        <ele>755.9</ele>
        <time>2022-03-22T11:41:33Z</time>
      </trkpt>
      <trkpt lat="46.64558" lon="5.91811">
        <ele>755.9</ele>
        <time>2022-03-22T11:41:38Z</time>
      </trkpt>
      <trkpt lat="46.64561" lon="5.91805">
        <ele>757</ele>
        <time>2022-03-22T11:41:43Z</time>
      </trkpt>
      <trkpt lat="46.64564" lon="5.91799">
        <ele>758.3</ele>
        <time>2022-03-22T11:41:48Z</time>
      </trkpt>
      <trkpt lat="46.64567" lon="5.91793">
        <ele>759.6</ele>
        <time>2022-03-22T11:41:53Z</time>
      </trkpt>
      <trkpt lat="46.64568" lon="5.91786">
        <ele>761</ele>
        <time>2022-03-22T11:41:58Z</time>
      </trkpt>
      <trkpt lat="46.6457" lon="5.9178">
        <ele>762.4</ele>
        <time>2022-03-22T11:42:04Z</time>
      </trkpt>
      <trkpt lat="46.6457" lon="5.91773">
        <ele>763.3</ele>
        <time>2022-03-22T11:42:10Z</time>
      </trkpt>
      <trkpt lat="46.64568" lon="5.91766">
        <ele>763.5</ele>
        <time>2022-03-22T11:42:16Z</time>
      </trkpt>
      <trkpt lat="46.64569" lon="5.91759">
        <ele>763.6</ele>
        <time>2022-03-22T11:42:22Z</time>
      </trkpt>
      <trkpt lat="46.64572" lon="5.91754">
        <ele>763.5</ele>
        <time>2022-03-22T11:42:27Z</time>
      </trkpt>
      <trkpt lat="46.64574" lon="5.91748">
        <ele>763.1</ele>
        <time>2022-03-22T11:42:33Z</time>
      </trkpt>
      <trkpt lat="46.64577" lon="5.91742">
        <ele>763.1</ele>
        <time>2022-03-22T11:42:41Z</time>
      </trkpt>
      <trkpt lat="46.64581" lon="5.91738">
        <ele>763.4</ele>
        <time>2022-03-22T11:42:46Z</time>
      </trkpt>
      <trkpt lat="46.64585" lon="5.91733">
        <ele>763.5</ele>
        <time>2022-03-22T11:42:51Z</time>
      </trkpt>
      <trkpt lat="46.64589" lon="5.91728">
        <ele>763</ele>
        <time>2022-03-22T11:42:55Z</time>
      </trkpt>
      <trkpt lat="46.64592" lon="5.91723">
        <ele>762.1</ele>
        <time>2022-03-22T11:42:59Z</time>
      </trkpt>
      <trkpt lat="46.64595" lon="5.91718">
        <ele>760.7</ele>
        <time>2022-03-22T11:43:04Z</time>
      </trkpt>
      <trkpt lat="46.64596" lon="5.91711">
        <ele>759.4</ele>
        <time>2022-03-22T11:43:09Z</time>
      </trkpt>
      <trkpt lat="46.64599" lon="5.91704">
        <ele>757.3</ele>
        <time>2022-03-22T11:43:16Z</time>
      </trkpt>
      <trkpt lat="46.64604" lon="5.91699">
        <ele>756.5</ele>
        <time>2022-03-22T11:43:20Z</time>
      </trkpt>
      <trkpt lat="46.64609" lon="5.91697">
        <ele>755.6</ele>
        <time>2022-03-22T11:43:24Z</time>
      </trkpt>
      <trkpt lat="46.64613" lon="5.91692">
        <ele>754.3</ele>
        <time>2022-03-22T11:43:29Z</time>
      </trkpt>
      <trkpt lat="46.64617" lon="5.91688">
        <ele>753.1</ele>
        <time>2022-03-22T11:43:34Z</time>
      </trkpt>
      <trkpt lat="46.64618" lon="5.91681">
        <ele>752.5</ele>
        <time>2022-03-22T11:43:38Z</time>
      </trkpt>
      <trkpt lat="46.64621" lon="5.91676">
        <ele>751.8</ele>
        <time>2022-03-22T11:43:42Z</time>
      </trkpt>
      <trkpt lat="46.64625" lon="5.91671">
        <ele>751.1</ele>
        <time>2022-03-22T11:43:46Z</time>
      </trkpt>
      <trkpt lat="46.64628" lon="5.91667">
        <ele>750.8</ele>
        <time>2022-03-22T11:43:50Z</time>
      </trkpt>
      <trkpt lat="46.64631" lon="5.91662">
        <ele>751</ele>
        <time>2022-03-22T11:43:55Z</time>
      </trkpt>
      <trkpt lat="46.64634" lon="5.91655">
        <ele>750.3</ele>
        <time>2022-03-22T11:44:01Z</time>
      </trkpt>
      <trkpt lat="46.64637" lon="5.91649">
        <ele>749.6</ele>
        <time>2022-03-22T11:44:06Z</time>
      </trkpt>
      <trkpt lat="46.64639" lon="5.91643">
        <ele>748.6</ele>
        <time>2022-03-22T11:44:12Z</time>
      </trkpt>
      <trkpt lat="46.64642" lon="5.91637">
        <ele>747.5</ele>
        <time>2022-03-22T11:44:17Z</time>
      </trkpt>
      <trkpt lat="46.64643" lon="5.9163">
        <ele>747.1</ele>
        <time>2022-03-22T11:44:21Z</time>
      </trkpt>
      <trkpt lat="46.64645" lon="5.91624">
        <ele>746.8</ele>
        <time>2022-03-22T11:44:25Z</time>
      </trkpt>
      <trkpt lat="46.64647" lon="5.91618">
        <ele>746.7</ele>
        <time>2022-03-22T11:44:29Z</time>
      </trkpt>
      <trkpt lat="46.64647" lon="5.91611">
        <ele>746.8</ele>
        <time>2022-03-22T11:44:34Z</time>
      </trkpt>
      <trkpt lat="46.64647" lon="5.91603">
        <ele>746.4</ele>
        <time>2022-03-22T11:44:39Z</time>
      </trkpt>
      <trkpt lat="46.64646" lon="5.91596">
        <ele>746.2</ele>
        <time>2022-03-22T11:44:44Z</time>
      </trkpt>
      <trkpt lat="46.64646" lon="5.91588">
        <ele>746.9</ele>
        <time>2022-03-22T11:44:49Z</time>
      </trkpt>
      <trkpt lat="46.64646" lon="5.91581">
        <ele>748.2</ele>
        <time>2022-03-22T11:44:54Z</time>
      </trkpt>
      <trkpt lat="46.64646" lon="5.91574">
        <ele>749.6</ele>
        <time>2022-03-22T11:44:59Z</time>
      </trkpt>
      <trkpt lat="46.64648" lon="5.91566">
        <ele>750</ele>
        <time>2022-03-22T11:45:04Z</time>
      </trkpt>
      <trkpt lat="46.64647" lon="5.91559">
        <ele>749.6</ele>
        <time>2022-03-22T11:45:08Z</time>
      </trkpt>
      <trkpt lat="46.64648" lon="5.91552">
        <ele>747.7</ele>
        <time>2022-03-22T11:45:14Z</time>
      </trkpt>
      <trkpt lat="46.64648" lon="5.91545">
        <ele>746.9</ele>
        <time>2022-03-22T11:45:18Z</time>
      </trkpt>
      <trkpt lat="46.64648" lon="5.91538">
        <ele>746.2</ele>
        <time>2022-03-22T11:45:23Z</time>
      </trkpt>
      <trkpt lat="46.64649" lon="5.9153">
        <ele>745.2</ele>
        <time>2022-03-22T11:45:28Z</time>
      </trkpt>
      <trkpt lat="46.6465" lon="5.91522">
        <ele>744.5</ele>
        <time>2022-03-22T11:45:33Z</time>
      </trkpt>
      <trkpt lat="46.64649" lon="5.91515">
        <ele>744.1</ele>
        <time>2022-03-22T11:45:38Z</time>
      </trkpt>
      <trkpt lat="46.6465" lon="5.91508">
        <ele>743.9</ele>
        <time>2022-03-22T11:45:42Z</time>
      </trkpt>
      <trkpt lat="46.64648" lon="5.915">
        <ele>744.2</ele>
        <time>2022-03-22T11:45:47Z</time>
      </trkpt>
      <trkpt lat="46.64647" lon="5.91493">
        <ele>744.2</ele>
        <time>2022-03-22T11:45:52Z</time>
      </trkpt>
      <trkpt lat="46.64645" lon="5.91487">
        <ele>743.9</ele>
        <time>2022-03-22T11:45:56Z</time>
      </trkpt>
      <trkpt lat="46.64643" lon="5.91481">
        <ele>743.2</ele>
        <time>2022-03-22T11:46:01Z</time>
      </trkpt>
      <trkpt lat="46.64641" lon="5.91473">
        <ele>742.7</ele>
        <time>2022-03-22T11:46:06Z</time>
      </trkpt>
      <trkpt lat="46.64638" lon="5.91467">
        <ele>742.3</ele>
        <time>2022-03-22T11:46:11Z</time>
      </trkpt>
      <trkpt lat="46.64634" lon="5.91464">
        <ele>742.8</ele>
        <time>2022-03-22T11:46:14Z</time>
      </trkpt>
      <trkpt lat="46.6463" lon="5.91459">
        <ele>744.4</ele>
        <time>2022-03-22T11:46:18Z</time>
      </trkpt>
      <trkpt lat="46.64626" lon="5.91455">
        <ele>746.4</ele>
        <time>2022-03-22T11:46:22Z</time>
      </trkpt>
      <trkpt lat="46.64621" lon="5.91451">
        <ele>748.3</ele>
        <time>2022-03-22T11:46:26Z</time>
      </trkpt>
      <trkpt lat="46.64617" lon="5.91448">
        <ele>749.6</ele>
        <time>2022-03-22T11:46:30Z</time>
      </trkpt>
      <trkpt lat="46.64613" lon="5.91444">
        <ele>750.5</ele>
        <time>2022-03-22T11:46:35Z</time>
      </trkpt>
      <trkpt lat="46.64609" lon="5.91441">
        <ele>751.4</ele>
        <time>2022-03-22T11:46:39Z</time>
      </trkpt>
      <trkpt lat="46.64604" lon="5.91438">
        <ele>752.9</ele>
        <time>2022-03-22T11:46:44Z</time>
      </trkpt>
      <trkpt lat="46.64599" lon="5.91435">
        <ele>753.6</ele>
        <time>2022-03-22T11:46:48Z</time>
      </trkpt>
      <trkpt lat="46.64594" lon="5.91432">
        <ele>754.5</ele>
        <time>2022-03-22T11:46:52Z</time>
      </trkpt>
      <trkpt lat="46.64589" lon="5.91429">
        <ele>755.4</ele>
        <time>2022-03-22T11:46:56Z</time>
      </trkpt>
      <trkpt lat="46.64584" lon="5.91426">
        <ele>755.4</ele>
        <time>2022-03-22T11:47:01Z</time>
      </trkpt>
      <trkpt lat="46.6458" lon="5.91423">
        <ele>755.2</ele>
        <time>2022-03-22T11:47:06Z</time>
      </trkpt>
      <trkpt lat="46.64576" lon="5.91419">
        <ele>755.1</ele>
        <time>2022-03-22T11:47:12Z</time>
      </trkpt>
      <trkpt lat="46.64572" lon="5.91416">
        <ele>754.3</ele>
        <time>2022-03-22T11:47:16Z</time>
      </trkpt>
      <trkpt lat="46.64568" lon="5.91412">
        <ele>753.6</ele>
        <time>2022-03-22T11:47:20Z</time>
      </trkpt>
      <trkpt lat="46.64563" lon="5.91409">
        <ele>753.3</ele>
        <time>2022-03-22T11:47:25Z</time>
      </trkpt>
      <trkpt lat="46.64559" lon="5.91404">
        <ele>753</ele>
        <time>2022-03-22T11:47:29Z</time>
      </trkpt>
      <trkpt lat="46.64555" lon="5.914">
        <ele>752.5</ele>
        <time>2022-03-22T11:47:34Z</time>
      </trkpt>
      <trkpt lat="46.64551" lon="5.91396">
        <ele>752.1</ele>
        <time>2022-03-22T11:47:39Z</time>
      </trkpt>
      <trkpt lat="46.64546" lon="5.91391">
        <ele>751.9</ele>
        <time>2022-03-22T11:47:44Z</time>
      </trkpt>
      <trkpt lat="46.64542" lon="5.91387">
        <ele>751.7</ele>
        <time>2022-03-22T11:47:48Z</time>
      </trkpt>
      <trkpt lat="46.64538" lon="5.91382">
        <ele>751.5</ele>
        <time>2022-03-22T11:47:53Z</time>
      </trkpt>
      <trkpt lat="46.64534" lon="5.91376">
        <ele>750.5</ele>
        <time>2022-03-22T11:47:59Z</time>
      </trkpt>
      <trkpt lat="46.64531" lon="5.91372">
        <ele>749.9</ele>
        <time>2022-03-22T11:48:03Z</time>
      </trkpt>
      <trkpt lat="46.64527" lon="5.91367">
        <ele>749.6</ele>
        <time>2022-03-22T11:48:07Z</time>
      </trkpt>
      <trkpt lat="46.64523" lon="5.91363">
        <ele>749.1</ele>
        <time>2022-03-22T11:48:12Z</time>
      </trkpt>
      <trkpt lat="46.64519" lon="5.9136">
        <ele>748.3</ele>
        <time>2022-03-22T11:48:16Z</time>
      </trkpt>
      <trkpt lat="46.64516" lon="5.91355">
        <ele>747.5</ele>
        <time>2022-03-22T11:48:20Z</time>
      </trkpt>
      <trkpt lat="46.64512" lon="5.9135">
        <ele>747.2</ele>
        <time>2022-03-22T11:48:24Z</time>
      </trkpt>
      <trkpt lat="46.64508" lon="5.91345">
        <ele>747.1</ele>
        <time>2022-03-22T11:48:29Z</time>
      </trkpt>
      <trkpt lat="46.64505" lon="5.91339">
        <ele>747.4</ele>
        <time>2022-03-22T11:48:34Z</time>
      </trkpt>
      <trkpt lat="46.64503" lon="5.91332">
        <ele>747.8</ele>
        <time>2022-03-22T11:48:40Z</time>
      </trkpt>
      <trkpt lat="46.64501" lon="5.91325">
        <ele>747.4</ele>
        <time>2022-03-22T11:48:45Z</time>
      </trkpt>
      <trkpt lat="46.645" lon="5.91318">
        <ele>747.3</ele>
        <time>2022-03-22T11:48:50Z</time>
      </trkpt>
      <trkpt lat="46.645" lon="5.91311">
        <ele>747.1</ele>
        <time>2022-03-22T11:48:54Z</time>
      </trkpt>
      <trkpt lat="46.645" lon="5.91304">
        <ele>747.5</ele>
        <time>2022-03-22T11:48:58Z</time>
      </trkpt>
      <trkpt lat="46.64501" lon="5.91296">
        <ele>749</ele>
        <time>2022-03-22T11:49:04Z</time>
      </trkpt>
      <trkpt lat="46.64502" lon="5.91289">
        <ele>749.4</ele>
        <time>2022-03-22T11:49:08Z</time>
      </trkpt>
      <trkpt lat="46.64503" lon="5.91282">
        <ele>749</ele>
        <time>2022-03-22T11:49:13Z</time>
      </trkpt>
      <trkpt lat="46.64503" lon="5.91275">
        <ele>748.9</ele>
        <time>2022-03-22T11:49:17Z</time>
      </trkpt>
      <trkpt lat="46.64504" lon="5.91267">
        <ele>748.5</ele>
        <time>2022-03-22T11:49:22Z</time>
      </trkpt>
      <trkpt lat="46.64505" lon="5.9126">
        <ele>748.6</ele>
        <time>2022-03-22T11:49:27Z</time>
      </trkpt>
      <trkpt lat="46.64505" lon="5.91252">
        <ele>749.1</ele>
        <time>2022-03-22T11:49:32Z</time>
      </trkpt>
      <trkpt lat="46.64507" lon="5.91246">
        <ele>749.1</ele>
        <time>2022-03-22T11:49:36Z</time>
      </trkpt>
      <trkpt lat="46.64508" lon="5.91238">
        <ele>749.5</ele>
        <time>2022-03-22T11:49:41Z</time>
      </trkpt>
      <trkpt lat="46.64508" lon="5.9123">
        <ele>749.4</ele>
        <time>2022-03-22T11:49:46Z</time>
      </trkpt>
      <trkpt lat="46.64509" lon="5.91223">
        <ele>749.2</ele>
        <time>2022-03-22T11:49:50Z</time>
      </trkpt>
      <trkpt lat="46.64509" lon="5.91216">
        <ele>749.1</ele>
        <time>2022-03-22T11:49:55Z</time>
      </trkpt>
      <trkpt lat="46.64509" lon="5.91208">
        <ele>749.3</ele>
        <time>2022-03-22T11:50:00Z</time>
      </trkpt>
      <trkpt lat="46.6451" lon="5.912">
        <ele>748.9</ele>
        <time>2022-03-22T11:50:04Z</time>
      </trkpt>
      <trkpt lat="46.64509" lon="5.91193">
        <ele>748.7</ele>
        <time>2022-03-22T11:50:08Z</time>
      </trkpt>
      <trkpt lat="46.64509" lon="5.91186">
        <ele>749.2</ele>
        <time>2022-03-22T11:50:12Z</time>
      </trkpt>
      <trkpt lat="46.6451" lon="5.91179">
        <ele>749.3</ele>
        <time>2022-03-22T11:50:17Z</time>
      </trkpt>
      <trkpt lat="46.64508" lon="5.91171">
        <ele>749</ele>
        <time>2022-03-22T11:50:22Z</time>
      </trkpt>
      <trkpt lat="46.64507" lon="5.91164">
        <ele>749.3</ele>
        <time>2022-03-22T11:50:26Z</time>
      </trkpt>
      <trkpt lat="46.64507" lon="5.91157">
        <ele>749.6</ele>
        <time>2022-03-22T11:50:30Z</time>
      </trkpt>
      <trkpt lat="46.64508" lon="5.91149">
        <ele>748.8</ele>
        <time>2022-03-22T11:50:34Z</time>
      </trkpt>
      <trkpt lat="46.64505" lon="5.91143">
        <ele>748.4</ele>
        <time>2022-03-22T11:50:38Z</time>
      </trkpt>
      <trkpt lat="46.64502" lon="5.91137">
        <ele>748.2</ele>
        <time>2022-03-22T11:50:42Z</time>
      </trkpt>
      <trkpt lat="46.645" lon="5.91131">
        <ele>748</ele>
        <time>2022-03-22T11:50:46Z</time>
      </trkpt>
      <trkpt lat="46.64499" lon="5.91124">
        <ele>747.7</ele>
        <time>2022-03-22T11:50:51Z</time>
      </trkpt>
      <trkpt lat="46.64497" lon="5.91117">
        <ele>747.1</ele>
        <time>2022-03-22T11:50:57Z</time>
      </trkpt>
      <trkpt lat="46.64497" lon="5.91109">
        <ele>746.1</ele>
        <time>2022-03-22T11:51:02Z</time>
      </trkpt>
      <trkpt lat="46.64497" lon="5.91102">
        <ele>744.9</ele>
        <time>2022-03-22T11:51:07Z</time>
      </trkpt>
      <trkpt lat="46.64494" lon="5.91095">
        <ele>744</ele>
        <time>2022-03-22T11:51:12Z</time>
      </trkpt>
      <trkpt lat="46.64492" lon="5.91088">
        <ele>743.2</ele>
        <time>2022-03-22T11:51:16Z</time>
      </trkpt>
      <trkpt lat="46.6449" lon="5.91081">
        <ele>742.9</ele>
        <time>2022-03-22T11:51:20Z</time>
      </trkpt>
      <trkpt lat="46.64489" lon="5.91075">
        <ele>743</ele>
        <time>2022-03-22T11:51:24Z</time>
      </trkpt>
      <trkpt lat="46.64488" lon="5.91068">
        <ele>743</ele>
        <time>2022-03-22T11:51:28Z</time>
      </trkpt>
      <trkpt lat="46.64485" lon="5.91061">
        <ele>743.4</ele>
        <time>2022-03-22T11:51:33Z</time>
      </trkpt>
      <trkpt lat="46.64482" lon="5.91056">
        <ele>744.1</ele>
        <time>2022-03-22T11:51:37Z</time>
      </trkpt>
      <trkpt lat="46.64479" lon="5.91049">
        <ele>745.1</ele>
        <time>2022-03-22T11:51:41Z</time>
      </trkpt>
      <trkpt lat="46.6448" lon="5.91041">
        <ele>745.8</ele>
        <time>2022-03-22T11:51:46Z</time>
      </trkpt>
      <trkpt lat="46.64479" lon="5.91033">
        <ele>745.3</ele>
        <time>2022-03-22T11:51:51Z</time>
      </trkpt>
      <trkpt lat="46.64477" lon="5.91026">
        <ele>744.6</ele>
        <time>2022-03-22T11:51:56Z</time>
      </trkpt>
      <trkpt lat="46.64474" lon="5.9102">
        <ele>744.7</ele>
        <time>2022-03-22T11:52:00Z</time>
      </trkpt>
      <trkpt lat="46.64472" lon="5.91013">
        <ele>744.9</ele>
        <time>2022-03-22T11:52:05Z</time>
      </trkpt>
      <trkpt lat="46.6447" lon="5.91007">
        <ele>745.2</ele>
        <time>2022-03-22T11:52:09Z</time>
      </trkpt>
      <trkpt lat="46.64469" lon="5.91">
        <ele>745.6</ele>
        <time>2022-03-22T11:52:14Z</time>
      </trkpt>
      <trkpt lat="46.64466" lon="5.90994">
        <ele>745.6</ele>
        <time>2022-03-22T11:52:18Z</time>
      </trkpt>
      <trkpt lat="46.64464" lon="5.90987">
        <ele>745.6</ele>
        <time>2022-03-22T11:52:22Z</time>
      </trkpt>
      <trkpt lat="46.64463" lon="5.9098">
        <ele>745.5</ele>
        <time>2022-03-22T11:52:26Z</time>
      </trkpt>
      <trkpt lat="46.64463" lon="5.90972">
        <ele>744.2</ele>
        <time>2022-03-22T11:52:31Z</time>
      </trkpt>
      <trkpt lat="46.64463" lon="5.90965">
        <ele>742.4</ele>
        <time>2022-03-22T11:52:36Z</time>
      </trkpt>
      <trkpt lat="46.6446" lon="5.90959">
        <ele>740.9</ele>
        <time>2022-03-22T11:52:43Z</time>
      </trkpt>
      <trkpt lat="46.64457" lon="5.90953">
        <ele>740.4</ele>
        <time>2022-03-22T11:52:47Z</time>
      </trkpt>
      <trkpt lat="46.64455" lon="5.90947">
        <ele>740.3</ele>
        <time>2022-03-22T11:52:51Z</time>
      </trkpt>
      <trkpt lat="46.64453" lon="5.90939">
        <ele>740.6</ele>
        <time>2022-03-22T11:52:55Z</time>
      </trkpt>
      <trkpt lat="46.64451" lon="5.90933">
        <ele>741.2</ele>
        <time>2022-03-22T11:52:59Z</time>
      </trkpt>
      <trkpt lat="46.64449" lon="5.90926">
        <ele>742.1</ele>
        <time>2022-03-22T11:53:04Z</time>
      </trkpt>
      <trkpt lat="46.64447" lon="5.9092">
        <ele>743.2</ele>
        <time>2022-03-22T11:53:09Z</time>
      </trkpt>
      <trkpt lat="46.64445" lon="5.90914">
        <ele>744.7</ele>
        <time>2022-03-22T11:53:15Z</time>
      </trkpt>
      <trkpt lat="46.64443" lon="5.90907">
        <ele>745.1</ele>
        <time>2022-03-22T11:53:20Z</time>
      </trkpt>
      <trkpt lat="46.64441" lon="5.909">
        <ele>745.2</ele>
        <time>2022-03-22T11:53:25Z</time>
      </trkpt>
      <trkpt lat="46.64439" lon="5.90893">
        <ele>745.5</ele>
        <time>2022-03-22T11:53:29Z</time>
      </trkpt>
      <trkpt lat="46.64439" lon="5.90885">
        <ele>745.9</ele>
        <time>2022-03-22T11:53:33Z</time>
      </trkpt>
      <trkpt lat="46.64437" lon="5.90879">
        <ele>746.3</ele>
        <time>2022-03-22T11:53:37Z</time>
      </trkpt>
      <trkpt lat="46.64435" lon="5.90871">
        <ele>746.7</ele>
        <time>2022-03-22T11:53:41Z</time>
      </trkpt>
      <trkpt lat="46.64433" lon="5.90864">
        <ele>747</ele>
        <time>2022-03-22T11:53:45Z</time>
      </trkpt>
      <trkpt lat="46.64432" lon="5.90857">
        <ele>746.8</ele>
        <time>2022-03-22T11:53:49Z</time>
      </trkpt>
      <trkpt lat="46.64432" lon="5.90849">
        <ele>746.8</ele>
        <time>2022-03-22T11:53:54Z</time>
      </trkpt>
      <trkpt lat="46.64431" lon="5.90842">
        <ele>746.8</ele>
        <time>2022-03-22T11:53:59Z</time>
      </trkpt>
      <trkpt lat="46.6443" lon="5.90835">
        <ele>746.3</ele>
        <time>2022-03-22T11:54:04Z</time>
      </trkpt>
      <trkpt lat="46.64429" lon="5.90827">
        <ele>746</ele>
        <time>2022-03-22T11:54:08Z</time>
      </trkpt>
      <trkpt lat="46.64428" lon="5.9082">
        <ele>745.6</ele>
        <time>2022-03-22T11:54:13Z</time>
      </trkpt>
      <trkpt lat="46.64427" lon="5.90813">
        <ele>744.9</ele>
        <time>2022-03-22T11:54:18Z</time>
      </trkpt>
      <trkpt lat="46.64426" lon="5.90807">
        <ele>744.5</ele>
        <time>2022-03-22T11:54:29Z</time>
      </trkpt>
      <trkpt lat="46.64427" lon="5.908">
        <ele>746.5</ele>
        <time>2022-03-22T11:56:16Z</time>
      </trkpt>
      <trkpt lat="46.64425" lon="5.90794">
        <ele>746.8</ele>
        <time>2022-03-22T11:56:21Z</time>
      </trkpt>
      <trkpt lat="46.64425" lon="5.90787">
        <ele>747.1</ele>
        <time>2022-03-22T11:56:26Z</time>
      </trkpt>
      <trkpt lat="46.64425" lon="5.9078">
        <ele>747.1</ele>
        <time>2022-03-22T11:56:31Z</time>
      </trkpt>
      <trkpt lat="46.64425" lon="5.90772">
        <ele>747.4</ele>
        <time>2022-03-22T11:56:36Z</time>
      </trkpt>
      <trkpt lat="46.64424" lon="5.90766">
        <ele>747.6</ele>
        <time>2022-03-22T11:56:40Z</time>
      </trkpt>
      <trkpt lat="46.64424" lon="5.90759">
        <ele>747.7</ele>
        <time>2022-03-22T11:56:45Z</time>
      </trkpt>
      <trkpt lat="46.64424" lon="5.90752">
        <ele>747.8</ele>
        <time>2022-03-22T11:56:50Z</time>
      </trkpt>
      <trkpt lat="46.64423" lon="5.90744">
        <ele>747.9</ele>
        <time>2022-03-22T11:56:55Z</time>
      </trkpt>
      <trkpt lat="46.64424" lon="5.90736">
        <ele>747.8</ele>
        <time>2022-03-22T11:57:00Z</time>
      </trkpt>
      <trkpt lat="46.64422" lon="5.90729">
        <ele>747.5</ele>
        <time>2022-03-22T11:57:05Z</time>
      </trkpt>
      <trkpt lat="46.64422" lon="5.90722">
        <ele>747.1</ele>
        <time>2022-03-22T11:57:10Z</time>
      </trkpt>
      <trkpt lat="46.64422" lon="5.90714">
        <ele>747</ele>
        <time>2022-03-22T11:57:15Z</time>
      </trkpt>
      <trkpt lat="46.64421" lon="5.90707">
        <ele>746.8</ele>
        <time>2022-03-22T11:57:20Z</time>
      </trkpt>
      <trkpt lat="46.64421" lon="5.90699">
        <ele>745.8</ele>
        <time>2022-03-22T11:57:25Z</time>
      </trkpt>
      <trkpt lat="46.64419" lon="5.90691">
        <ele>744.6</ele>
        <time>2022-03-22T11:57:30Z</time>
      </trkpt>
      <trkpt lat="46.64418" lon="5.90683">
        <ele>744.2</ele>
        <time>2022-03-22T11:57:35Z</time>
      </trkpt>
      <trkpt lat="46.64417" lon="5.90676">
        <ele>744.3</ele>
        <time>2022-03-22T11:57:40Z</time>
      </trkpt>
      <trkpt lat="46.64414" lon="5.90669">
        <ele>744.9</ele>
        <time>2022-03-22T11:57:45Z</time>
      </trkpt>
      <trkpt lat="46.64412" lon="5.90662">
        <ele>745.3</ele>
        <time>2022-03-22T11:57:51Z</time>
      </trkpt>
      <trkpt lat="46.64409" lon="5.90655">
        <ele>745.4</ele>
        <time>2022-03-22T11:57:56Z</time>
      </trkpt>
      <trkpt lat="46.64407" lon="5.90648">
        <ele>745.5</ele>
        <time>2022-03-22T11:58:01Z</time>
      </trkpt>
      <trkpt lat="46.64406" lon="5.90641">
        <ele>745.9</ele>
        <time>2022-03-22T11:58:06Z</time>
      </trkpt>
      <trkpt lat="46.64404" lon="5.90634">
        <ele>746.1</ele>
        <time>2022-03-22T11:58:11Z</time>
      </trkpt>
      <trkpt lat="46.64403" lon="5.90627">
        <ele>746.6</ele>
        <time>2022-03-22T11:58:15Z</time>
      </trkpt>
      <trkpt lat="46.64401" lon="5.90621">
        <ele>747</ele>
        <time>2022-03-22T11:58:19Z</time>
      </trkpt>
      <trkpt lat="46.64398" lon="5.90614">
        <ele>747.5</ele>
        <time>2022-03-22T11:58:24Z</time>
      </trkpt>
      <trkpt lat="46.64397" lon="5.90607">
        <ele>748.1</ele>
        <time>2022-03-22T11:58:29Z</time>
      </trkpt>
      <trkpt lat="46.64396" lon="5.906">
        <ele>748</ele>
        <time>2022-03-22T11:58:34Z</time>
      </trkpt>
      <trkpt lat="46.64396" lon="5.90592">
        <ele>747.3</ele>
        <time>2022-03-22T11:58:39Z</time>
      </trkpt>
      <trkpt lat="46.64396" lon="5.90585">
        <ele>746.7</ele>
        <time>2022-03-22T11:58:43Z</time>
      </trkpt>
      <trkpt lat="46.64397" lon="5.90578">
        <ele>746.1</ele>
        <time>2022-03-22T11:58:48Z</time>
      </trkpt>
      <trkpt lat="46.64398" lon="5.9057">
        <ele>745.1</ele>
        <time>2022-03-22T11:58:53Z</time>
      </trkpt>
      <trkpt lat="46.64398" lon="5.90563">
        <ele>744.6</ele>
        <time>2022-03-22T11:58:59Z</time>
      </trkpt>
      <trkpt lat="46.644" lon="5.90556">
        <ele>744.6</ele>
        <time>2022-03-22T11:59:05Z</time>
      </trkpt>
      <trkpt lat="46.64401" lon="5.90548">
        <ele>744.6</ele>
        <time>2022-03-22T11:59:10Z</time>
      </trkpt>
      <trkpt lat="46.64402" lon="5.90541">
        <ele>744.8</ele>
        <time>2022-03-22T11:59:15Z</time>
      </trkpt>
      <trkpt lat="46.64403" lon="5.90534">
        <ele>744.4</ele>
        <time>2022-03-22T11:59:19Z</time>
      </trkpt>
      <trkpt lat="46.64404" lon="5.90526">
        <ele>744.1</ele>
        <time>2022-03-22T11:59:24Z</time>
      </trkpt>
      <trkpt lat="46.64403" lon="5.90519">
        <ele>743.9</ele>
        <time>2022-03-22T11:59:27Z</time>
      </trkpt>
      <trkpt lat="46.64403" lon="5.90511">
        <ele>743.5</ele>
        <time>2022-03-22T11:59:31Z</time>
      </trkpt>
      <trkpt lat="46.64402" lon="5.90505">
        <ele>743.9</ele>
        <time>2022-03-22T11:59:35Z</time>
      </trkpt>
      <trkpt lat="46.64401" lon="5.90498">
        <ele>744.8</ele>
        <time>2022-03-22T11:59:40Z</time>
      </trkpt>
      <trkpt lat="46.64401" lon="5.90491">
        <ele>745.5</ele>
        <time>2022-03-22T11:59:45Z</time>
      </trkpt>
      <trkpt lat="46.64401" lon="5.90483">
        <ele>745.9</ele>
        <time>2022-03-22T11:59:50Z</time>
      </trkpt>
      <trkpt lat="46.644" lon="5.90477">
        <ele>746.2</ele>
        <time>2022-03-22T11:59:54Z</time>
      </trkpt>
      <trkpt lat="46.64399" lon="5.9047">
        <ele>746</ele>
        <time>2022-03-22T11:59:59Z</time>
      </trkpt>
      <trkpt lat="46.64397" lon="5.90463">
        <ele>745.6</ele>
        <time>2022-03-22T12:00:04Z</time>
      </trkpt>
      <trkpt lat="46.64395" lon="5.90457">
        <ele>745.2</ele>
        <time>2022-03-22T12:00:09Z</time>
      </trkpt>
      <trkpt lat="46.64394" lon="5.90449">
        <ele>745.1</ele>
        <time>2022-03-22T12:00:14Z</time>
      </trkpt>
      <trkpt lat="46.64392" lon="5.90442">
        <ele>745.2</ele>
        <time>2022-03-22T12:00:19Z</time>
      </trkpt>
      <trkpt lat="46.6439" lon="5.90435">
        <ele>746.2</ele>
        <time>2022-03-22T12:00:25Z</time>
      </trkpt>
      <trkpt lat="46.64389" lon="5.90428">
        <ele>747.1</ele>
        <time>2022-03-22T12:00:29Z</time>
      </trkpt>
      <trkpt lat="46.64387" lon="5.90422">
        <ele>747.8</ele>
        <time>2022-03-22T12:00:33Z</time>
      </trkpt>
      <trkpt lat="46.64386" lon="5.90415">
        <ele>748.3</ele>
        <time>2022-03-22T12:00:38Z</time>
      </trkpt>
      <trkpt lat="46.64383" lon="5.90408">
        <ele>748.8</ele>
        <time>2022-03-22T12:00:43Z</time>
      </trkpt>
      <trkpt lat="46.6438" lon="5.90401">
        <ele>749.2</ele>
        <time>2022-03-22T12:00:48Z</time>
      </trkpt>
      <trkpt lat="46.64376" lon="5.90396">
        <ele>749.7</ele>
        <time>2022-03-22T12:00:52Z</time>
      </trkpt>
      <trkpt lat="46.64372" lon="5.90393">
        <ele>749.9</ele>
        <time>2022-03-22T12:00:56Z</time>
      </trkpt>
      <trkpt lat="46.64367" lon="5.90391">
        <ele>750.3</ele>
        <time>2022-03-22T12:01:01Z</time>
      </trkpt>
      <trkpt lat="46.64362" lon="5.90392">
        <ele>750.7</ele>
        <time>2022-03-22T12:01:05Z</time>
      </trkpt>
      <trkpt lat="46.64357" lon="5.90392">
        <ele>750.8</ele>
        <time>2022-03-22T12:01:10Z</time>
      </trkpt>
      <trkpt lat="46.64352" lon="5.90393">
        <ele>750.5</ele>
        <time>2022-03-22T12:01:15Z</time>
      </trkpt>
      <trkpt lat="46.64347" lon="5.90392">
        <ele>749.9</ele>
        <time>2022-03-22T12:01:21Z</time>
      </trkpt>
      <trkpt lat="46.64342" lon="5.9039">
        <ele>749.5</ele>
        <time>2022-03-22T12:01:26Z</time>
      </trkpt>
      <trkpt lat="46.64337" lon="5.90389">
        <ele>749.1</ele>
        <time>2022-03-22T12:01:31Z</time>
      </trkpt>
      <trkpt lat="46.64332" lon="5.90388">
        <ele>748.9</ele>
        <time>2022-03-22T12:01:35Z</time>
      </trkpt>
      <trkpt lat="46.64327" lon="5.90389">
        <ele>749</ele>
        <time>2022-03-22T12:01:39Z</time>
      </trkpt>
      <trkpt lat="46.64322" lon="5.90389">
        <ele>749.3</ele>
        <time>2022-03-22T12:01:44Z</time>
      </trkpt>
      <trkpt lat="46.64317" lon="5.90388">
        <ele>750.1</ele>
        <time>2022-03-22T12:01:50Z</time>
      </trkpt>
      <trkpt lat="46.64312" lon="5.90389">
        <ele>750.7</ele>
        <time>2022-03-22T12:01:55Z</time>
      </trkpt>
      <trkpt lat="46.64307" lon="5.90389">
        <ele>751</ele>
        <time>2022-03-22T12:02:00Z</time>
      </trkpt>
      <trkpt lat="46.64303" lon="5.90391">
        <ele>751.3</ele>
        <time>2022-03-22T12:02:05Z</time>
      </trkpt>
      <trkpt lat="46.64298" lon="5.90394">
        <ele>751.1</ele>
        <time>2022-03-22T12:02:10Z</time>
      </trkpt>
      <trkpt lat="46.64293" lon="5.90397">
        <ele>751</ele>
        <time>2022-03-22T12:02:14Z</time>
      </trkpt>
      <trkpt lat="46.64288" lon="5.90401">
        <ele>751.3</ele>
        <time>2022-03-22T12:02:19Z</time>
      </trkpt>
      <trkpt lat="46.64283" lon="5.90403">
        <ele>751.3</ele>
        <time>2022-03-22T12:02:23Z</time>
      </trkpt>
      <trkpt lat="46.64279" lon="5.90409">
        <ele>750.6</ele>
        <time>2022-03-22T12:02:29Z</time>
      </trkpt>
      <trkpt lat="46.64276" lon="5.90413">
        <ele>749.5</ele>
        <time>2022-03-22T12:02:35Z</time>
      </trkpt>
      <trkpt lat="46.64271" lon="5.90418">
        <ele>748.3</ele>
        <time>2022-03-22T12:02:40Z</time>
      </trkpt>
      <trkpt lat="46.64268" lon="5.90423">
        <ele>747.3</ele>
        <time>2022-03-22T12:02:45Z</time>
      </trkpt>
      <trkpt lat="46.64263" lon="5.90427">
        <ele>746.8</ele>
        <time>2022-03-22T12:02:50Z</time>
      </trkpt>
      <trkpt lat="46.64259" lon="5.90431">
        <ele>747.5</ele>
        <time>2022-03-22T12:02:56Z</time>
      </trkpt>
      <trkpt lat="46.64253" lon="5.90433">
        <ele>748.7</ele>
        <time>2022-03-22T12:03:00Z</time>
      </trkpt>
      <trkpt lat="46.64248" lon="5.90433">
        <ele>750</ele>
        <time>2022-03-22T12:03:04Z</time>
      </trkpt>
      <trkpt lat="46.64245" lon="5.90428">
        <ele>752.9</ele>
        <time>2022-03-22T12:03:13Z</time>
      </trkpt>
      <trkpt lat="46.64242" lon="5.90422">
        <ele>754.1</ele>
        <time>2022-03-22T12:03:18Z</time>
      </trkpt>
      <trkpt lat="46.6424" lon="5.90415">
        <ele>755.3</ele>
        <time>2022-03-22T12:03:23Z</time>
      </trkpt>
      <trkpt lat="46.64238" lon="5.90409">
        <ele>756.6</ele>
        <time>2022-03-22T12:03:28Z</time>
      </trkpt>
      <trkpt lat="46.64236" lon="5.90402">
        <ele>757.6</ele>
        <time>2022-03-22T12:03:32Z</time>
      </trkpt>
      <trkpt lat="46.64236" lon="5.90395">
        <ele>758.7</ele>
        <time>2022-03-22T12:03:37Z</time>
      </trkpt>
      <trkpt lat="46.64236" lon="5.90388">
        <ele>759.9</ele>
        <time>2022-03-22T12:03:44Z</time>
      </trkpt>
      <trkpt lat="46.64236" lon="5.90381">
        <ele>760.1</ele>
        <time>2022-03-22T12:03:50Z</time>
      </trkpt>
      <trkpt lat="46.64236" lon="5.90375">
        <ele>760.1</ele>
        <time>2022-03-22T12:03:55Z</time>
      </trkpt>
      <trkpt lat="46.64235" lon="5.90368">
        <ele>760.7</ele>
        <time>2022-03-22T12:03:59Z</time>
      </trkpt>
      <trkpt lat="46.64232" lon="5.90362">
        <ele>761.5</ele>
        <time>2022-03-22T12:04:04Z</time>
      </trkpt>
      <trkpt lat="46.64229" lon="5.90356">
        <ele>761.9</ele>
        <time>2022-03-22T12:04:08Z</time>
      </trkpt>
      <trkpt lat="46.64227" lon="5.9035">
        <ele>762.7</ele>
        <time>2022-03-22T12:04:13Z</time>
      </trkpt>
      <trkpt lat="46.64228" lon="5.90343">
        <ele>764.4</ele>
        <time>2022-03-22T12:04:21Z</time>
      </trkpt>
      <trkpt lat="46.64228" lon="5.90336">
        <ele>765.7</ele>
        <time>2022-03-22T12:04:25Z</time>
      </trkpt>
      <trkpt lat="46.6423" lon="5.90329">
        <ele>767.4</ele>
        <time>2022-03-22T12:04:29Z</time>
      </trkpt>
      <trkpt lat="46.64228" lon="5.90322">
        <ele>768.3</ele>
        <time>2022-03-22T12:04:35Z</time>
      </trkpt>
      <trkpt lat="46.64226" lon="5.90316">
        <ele>768.4</ele>
        <time>2022-03-22T12:04:40Z</time>
      </trkpt>
      <trkpt lat="46.64224" lon="5.90309">
        <ele>768</ele>
        <time>2022-03-22T12:04:45Z</time>
      </trkpt>
      <trkpt lat="46.64222" lon="5.90302">
        <ele>767.5</ele>
        <time>2022-03-22T12:04:50Z</time>
      </trkpt>
      <trkpt lat="46.64221" lon="5.90295">
        <ele>767.4</ele>
        <time>2022-03-22T12:04:54Z</time>
      </trkpt>
      <trkpt lat="46.64219" lon="5.90289">
        <ele>768.1</ele>
        <time>2022-03-22T12:05:00Z</time>
      </trkpt>
      <trkpt lat="46.64218" lon="5.90282">
        <ele>768.7</ele>
        <time>2022-03-22T12:05:06Z</time>
      </trkpt>
      <trkpt lat="46.64216" lon="5.90276">
        <ele>769</ele>
        <time>2022-03-22T12:05:11Z</time>
      </trkpt>
      <trkpt lat="46.64213" lon="5.9027">
        <ele>769</ele>
        <time>2022-03-22T12:05:20Z</time>
      </trkpt>
      <trkpt lat="46.64213" lon="5.90263">
        <ele>768.7</ele>
        <time>2022-03-22T12:05:25Z</time>
      </trkpt>
      <trkpt lat="46.64212" lon="5.90256">
        <ele>768</ele>
        <time>2022-03-22T12:05:30Z</time>
      </trkpt>
      <trkpt lat="46.64209" lon="5.9025">
        <ele>767.4</ele>
        <time>2022-03-22T12:05:36Z</time>
      </trkpt>
      <trkpt lat="46.64207" lon="5.90244">
        <ele>767.4</ele>
        <time>2022-03-22T12:05:40Z</time>
      </trkpt>
      <trkpt lat="46.64205" lon="5.90237">
        <ele>767.6</ele>
        <time>2022-03-22T12:05:45Z</time>
      </trkpt>
      <trkpt lat="46.64203" lon="5.90229">
        <ele>767.5</ele>
        <time>2022-03-22T12:05:50Z</time>
      </trkpt>
      <trkpt lat="46.64202" lon="5.90223">
        <ele>767.3</ele>
        <time>2022-03-22T12:05:54Z</time>
      </trkpt>
      <trkpt lat="46.64201" lon="5.90217">
        <ele>767</ele>
        <time>2022-03-22T12:05:59Z</time>
      </trkpt>
      <trkpt lat="46.64198" lon="5.90211">
        <ele>767.4</ele>
        <time>2022-03-22T12:06:03Z</time>
      </trkpt>
      <trkpt lat="46.64196" lon="5.90204">
        <ele>767.7</ele>
        <time>2022-03-22T12:06:08Z</time>
      </trkpt>
      <trkpt lat="46.64194" lon="5.90198">
        <ele>768.5</ele>
        <time>2022-03-22T12:06:13Z</time>
      </trkpt>
      <trkpt lat="46.64192" lon="5.90191">
        <ele>769.2</ele>
        <time>2022-03-22T12:06:18Z</time>
      </trkpt>
      <trkpt lat="46.6419" lon="5.90184">
        <ele>770.2</ele>
        <time>2022-03-22T12:06:23Z</time>
      </trkpt>
      <trkpt lat="46.64188" lon="5.90178">
        <ele>770.5</ele>
        <time>2022-03-22T12:06:28Z</time>
      </trkpt>
      <trkpt lat="46.64186" lon="5.90172">
        <ele>770.9</ele>
        <time>2022-03-22T12:06:33Z</time>
      </trkpt>
      <trkpt lat="46.64183" lon="5.90165">
        <ele>771.3</ele>
        <time>2022-03-22T12:06:38Z</time>
      </trkpt>
      <trkpt lat="46.64182" lon="5.90158">
        <ele>771.7</ele>
        <time>2022-03-22T12:06:42Z</time>
      </trkpt>
      <trkpt lat="46.64181" lon="5.90151">
        <ele>772.3</ele>
        <time>2022-03-22T12:06:46Z</time>
      </trkpt>
      <trkpt lat="46.64179" lon="5.90144">
        <ele>773.5</ele>
        <time>2022-03-22T12:06:52Z</time>
      </trkpt>
      <trkpt lat="46.64178" lon="5.90137">
        <ele>773.9</ele>
        <time>2022-03-22T12:06:58Z</time>
      </trkpt>
      <trkpt lat="46.64178" lon="5.90129">
        <ele>773.6</ele>
        <time>2022-03-22T12:07:03Z</time>
      </trkpt>
      <trkpt lat="46.64177" lon="5.90122">
        <ele>772.8</ele>
        <time>2022-03-22T12:07:07Z</time>
      </trkpt>
      <trkpt lat="46.64176" lon="5.90115">
        <ele>772.3</ele>
        <time>2022-03-22T12:07:12Z</time>
      </trkpt>
      <trkpt lat="46.64175" lon="5.90108">
        <ele>772.5</ele>
        <time>2022-03-22T12:07:17Z</time>
      </trkpt>
      <trkpt lat="46.64174" lon="5.90101">
        <ele>773</ele>
        <time>2022-03-22T12:07:22Z</time>
      </trkpt>
      <trkpt lat="46.64174" lon="5.90094">
        <ele>773.7</ele>
        <time>2022-03-22T12:07:27Z</time>
      </trkpt>
      <trkpt lat="46.64172" lon="5.90087">
        <ele>774.2</ele>
        <time>2022-03-22T12:07:32Z</time>
      </trkpt>
      <trkpt lat="46.64171" lon="5.90079">
        <ele>775.3</ele>
        <time>2022-03-22T12:07:37Z</time>
      </trkpt>
      <trkpt lat="46.6417" lon="5.90072">
        <ele>776.2</ele>
        <time>2022-03-22T12:07:42Z</time>
      </trkpt>
      <trkpt lat="46.64169" lon="5.90064">
        <ele>777</ele>
        <time>2022-03-22T12:07:47Z</time>
      </trkpt>
      <trkpt lat="46.64167" lon="5.90057">
        <ele>778</ele>
        <time>2022-03-22T12:07:52Z</time>
      </trkpt>
      <trkpt lat="46.64166" lon="5.90048">
        <ele>779</ele>
        <time>2022-03-22T12:07:57Z</time>
      </trkpt>
      <trkpt lat="46.64164" lon="5.90042">
        <ele>779.9</ele>
        <time>2022-03-22T12:08:01Z</time>
      </trkpt>
      <trkpt lat="46.64162" lon="5.90035">
        <ele>780.3</ele>
        <time>2022-03-22T12:08:06Z</time>
      </trkpt>
      <trkpt lat="46.64159" lon="5.9003">
        <ele>780.4</ele>
        <time>2022-03-22T12:08:11Z</time>
      </trkpt>
      <trkpt lat="46.64156" lon="5.90024">
        <ele>780.4</ele>
        <time>2022-03-22T12:08:16Z</time>
      </trkpt>
      <trkpt lat="46.64152" lon="5.9002">
        <ele>780.3</ele>
        <time>2022-03-22T12:08:20Z</time>
      </trkpt>
      <trkpt lat="46.64149" lon="5.90016">
        <ele>780.4</ele>
        <time>2022-03-22T12:08:24Z</time>
      </trkpt>
      <trkpt lat="46.64145" lon="5.90011">
        <ele>780.7</ele>
        <time>2022-03-22T12:08:28Z</time>
      </trkpt>
      <trkpt lat="46.64141" lon="5.90007">
        <ele>781</ele>
        <time>2022-03-22T12:08:33Z</time>
      </trkpt>
      <trkpt lat="46.64138" lon="5.90001">
        <ele>781.4</ele>
        <time>2022-03-22T12:08:38Z</time>
      </trkpt>
      <trkpt lat="46.64134" lon="5.89995">
        <ele>781.8</ele>
        <time>2022-03-22T12:08:42Z</time>
      </trkpt>
      <trkpt lat="46.64131" lon="5.8999">
        <ele>782.4</ele>
        <time>2022-03-22T12:08:46Z</time>
      </trkpt>
      <trkpt lat="46.64128" lon="5.89985">
        <ele>783.1</ele>
        <time>2022-03-22T12:08:51Z</time>
      </trkpt>
      <trkpt lat="46.64124" lon="5.89979">
        <ele>783.6</ele>
        <time>2022-03-22T12:08:56Z</time>
      </trkpt>
      <trkpt lat="46.64121" lon="5.89975">
        <ele>784.1</ele>
        <time>2022-03-22T12:09:01Z</time>
      </trkpt>
      <trkpt lat="46.64117" lon="5.89969">
        <ele>784.5</ele>
        <time>2022-03-22T12:09:06Z</time>
      </trkpt>
      <trkpt lat="46.64115" lon="5.89963">
        <ele>785.1</ele>
        <time>2022-03-22T12:09:11Z</time>
      </trkpt>
      <trkpt lat="46.64119" lon="5.89961">
        <ele>785.7</ele>
        <time>2022-03-22T12:09:20Z</time>
      </trkpt>
      <trkpt lat="46.64124" lon="5.89966">
        <ele>785.7</ele>
        <time>2022-03-22T12:09:29Z</time>
      </trkpt>
      <trkpt lat="46.64129" lon="5.89969">
        <ele>785.8</ele>
        <time>2022-03-22T12:09:34Z</time>
      </trkpt>
      <trkpt lat="46.64134" lon="5.8997">
        <ele>785.1</ele>
        <time>2022-03-22T12:09:38Z</time>
      </trkpt>
      <trkpt lat="46.64137" lon="5.89974">
        <ele>783.3</ele>
        <time>2022-03-22T12:09:43Z</time>
      </trkpt>
      <trkpt lat="46.64142" lon="5.89978">
        <ele>780.8</ele>
        <time>2022-03-22T12:09:49Z</time>
      </trkpt>
      <trkpt lat="46.64146" lon="5.89982">
        <ele>779.3</ele>
        <time>2022-03-22T12:09:54Z</time>
      </trkpt>
      <trkpt lat="46.6415" lon="5.89986">
        <ele>778.5</ele>
        <time>2022-03-22T12:09:58Z</time>
      </trkpt>
      <trkpt lat="46.64155" lon="5.89989">
        <ele>777.8</ele>
        <time>2022-03-22T12:10:04Z</time>
      </trkpt>
      <trkpt lat="46.6416" lon="5.89991">
        <ele>778.1</ele>
        <time>2022-03-22T12:10:09Z</time>
      </trkpt>
      <trkpt lat="46.64163" lon="5.89995">
        <ele>778.5</ele>
        <time>2022-03-22T12:10:14Z</time>
      </trkpt>
      <trkpt lat="46.64168" lon="5.9">
        <ele>778.8</ele>
        <time>2022-03-22T12:10:19Z</time>
      </trkpt>
      <trkpt lat="46.64173" lon="5.90003">
        <ele>778.7</ele>
        <time>2022-03-22T12:10:23Z</time>
      </trkpt>
      <trkpt lat="46.64178" lon="5.90006">
        <ele>778.2</ele>
        <time>2022-03-22T12:10:28Z</time>
      </trkpt>
      <trkpt lat="46.64182" lon="5.90011">
        <ele>777.9</ele>
        <time>2022-03-22T12:10:33Z</time>
      </trkpt>
      <trkpt lat="46.64185" lon="5.90017">
        <ele>778.1</ele>
        <time>2022-03-22T12:10:38Z</time>
      </trkpt>
      <trkpt lat="46.64187" lon="5.90023">
        <ele>778.5</ele>
        <time>2022-03-22T12:10:44Z</time>
      </trkpt>
      <trkpt lat="46.6419" lon="5.90029">
        <ele>778.5</ele>
        <time>2022-03-22T12:10:50Z</time>
      </trkpt>
      <trkpt lat="46.64193" lon="5.90034">
        <ele>778.2</ele>
        <time>2022-03-22T12:10:55Z</time>
      </trkpt>
      <trkpt lat="46.64197" lon="5.90039">
        <ele>777.8</ele>
        <time>2022-03-22T12:11:00Z</time>
      </trkpt>
      <trkpt lat="46.64201" lon="5.90044">
        <ele>778.3</ele>
        <time>2022-03-22T12:11:04Z</time>
      </trkpt>
      <trkpt lat="46.64204" lon="5.9005">
        <ele>779.7</ele>
        <time>2022-03-22T12:11:09Z</time>
      </trkpt>
      <trkpt lat="46.64208" lon="5.90057">
        <ele>781.6</ele>
        <time>2022-03-22T12:11:13Z</time>
      </trkpt>
      <trkpt lat="46.64212" lon="5.90062">
        <ele>783.1</ele>
        <time>2022-03-22T12:11:17Z</time>
      </trkpt>
      <trkpt lat="46.64215" lon="5.90068">
        <ele>783.2</ele>
        <time>2022-03-22T12:11:22Z</time>
      </trkpt>
      <trkpt lat="46.6422" lon="5.90072">
        <ele>783</ele>
        <time>2022-03-22T12:11:27Z</time>
      </trkpt>
      <trkpt lat="46.64224" lon="5.90076">
        <ele>782.5</ele>
        <time>2022-03-22T12:11:32Z</time>
      </trkpt>
      <trkpt lat="46.64229" lon="5.90078">
        <ele>781.9</ele>
        <time>2022-03-22T12:11:37Z</time>
      </trkpt>
      <trkpt lat="46.64233" lon="5.90082">
        <ele>783.2</ele>
        <time>2022-03-22T12:11:42Z</time>
      </trkpt>
      <trkpt lat="46.64237" lon="5.90086">
        <ele>785.5</ele>
        <time>2022-03-22T12:11:47Z</time>
      </trkpt>
      <trkpt lat="46.6424" lon="5.90092">
        <ele>787.5</ele>
        <time>2022-03-22T12:11:52Z</time>
      </trkpt>
      <trkpt lat="46.64244" lon="5.90097">
        <ele>788.9</ele>
        <time>2022-03-22T12:11:57Z</time>
      </trkpt>
      <trkpt lat="46.64249" lon="5.90101">
        <ele>789.2</ele>
        <time>2022-03-22T12:12:02Z</time>
      </trkpt>
      <trkpt lat="46.64253" lon="5.90104">
        <ele>789</ele>
        <time>2022-03-22T12:12:06Z</time>
      </trkpt>
      <trkpt lat="46.64257" lon="5.90108">
        <ele>789.2</ele>
        <time>2022-03-22T12:12:10Z</time>
      </trkpt>
      <trkpt lat="46.64263" lon="5.90111">
        <ele>789.3</ele>
        <time>2022-03-22T12:12:14Z</time>
      </trkpt>
      <trkpt lat="46.64267" lon="5.90114">
        <ele>789.4</ele>
        <time>2022-03-22T12:12:18Z</time>
      </trkpt>
      <trkpt lat="46.64271" lon="5.90118">
        <ele>789.8</ele>
        <time>2022-03-22T12:12:27Z</time>
      </trkpt>
      <trkpt lat="46.64276" lon="5.90119">
        <ele>790.8</ele>
        <time>2022-03-22T12:12:31Z</time>
      </trkpt>
      <trkpt lat="46.64281" lon="5.90116">
        <ele>792.6</ele>
        <time>2022-03-22T12:12:37Z</time>
      </trkpt>
      <trkpt lat="46.64286" lon="5.90116">
        <ele>793.2</ele>
        <time>2022-03-22T12:12:42Z</time>
      </trkpt>
      <trkpt lat="46.64292" lon="5.90117">
        <ele>792.8</ele>
        <time>2022-03-22T12:12:47Z</time>
      </trkpt>
      <trkpt lat="46.64296" lon="5.90117">
        <ele>792.5</ele>
        <time>2022-03-22T12:12:51Z</time>
      </trkpt>
      <trkpt lat="46.64302" lon="5.90119">
        <ele>792.7</ele>
        <time>2022-03-22T12:12:56Z</time>
      </trkpt>
      <trkpt lat="46.64307" lon="5.90121">
        <ele>792.7</ele>
        <time>2022-03-22T12:13:01Z</time>
      </trkpt>
      <trkpt lat="46.64311" lon="5.90125">
        <ele>791.6</ele>
        <time>2022-03-22T12:13:06Z</time>
      </trkpt>
      <trkpt lat="46.64315" lon="5.90129">
        <ele>790.3</ele>
        <time>2022-03-22T12:13:11Z</time>
      </trkpt>
      <trkpt lat="46.64319" lon="5.90134">
        <ele>789.5</ele>
        <time>2022-03-22T12:13:15Z</time>
      </trkpt>
      <trkpt lat="46.64323" lon="5.90138">
        <ele>788.7</ele>
        <time>2022-03-22T12:13:19Z</time>
      </trkpt>
      <trkpt lat="46.64328" lon="5.90141">
        <ele>788.2</ele>
        <time>2022-03-22T12:13:23Z</time>
      </trkpt>
      <trkpt lat="46.64331" lon="5.90147">
        <ele>787.8</ele>
        <time>2022-03-22T12:13:29Z</time>
      </trkpt>
      <trkpt lat="46.64335" lon="5.9015">
        <ele>787.2</ele>
        <time>2022-03-22T12:13:33Z</time>
      </trkpt>
      <trkpt lat="46.64339" lon="5.90154">
        <ele>786.2</ele>
        <time>2022-03-22T12:13:37Z</time>
      </trkpt>
      <trkpt lat="46.64343" lon="5.90157">
        <ele>785</ele>
        <time>2022-03-22T12:13:41Z</time>
      </trkpt>
      <trkpt lat="46.64347" lon="5.90162">
        <ele>784.8</ele>
        <time>2022-03-22T12:13:46Z</time>
      </trkpt>
      <trkpt lat="46.64351" lon="5.90166">
        <ele>785.4</ele>
        <time>2022-03-22T12:13:51Z</time>
      </trkpt>
      <trkpt lat="46.64355" lon="5.90169">
        <ele>786</ele>
        <time>2022-03-22T12:13:55Z</time>
      </trkpt>
      <trkpt lat="46.64358" lon="5.90175">
        <ele>786.7</ele>
        <time>2022-03-22T12:14:01Z</time>
      </trkpt>
      <trkpt lat="46.64357" lon="5.90182">
        <ele>788</ele>
        <time>2022-03-22T12:14:10Z</time>
      </trkpt>
      <trkpt lat="46.6436" lon="5.90176">
        <ele>788.9</ele>
        <time>2022-03-22T12:14:35Z</time>
      </trkpt>
      <trkpt lat="46.64367" lon="5.90173">
        <ele>788.5</ele>
        <time>2022-03-22T12:14:52Z</time>
      </trkpt>
      <trkpt lat="46.64371" lon="5.90175">
        <ele>788.4</ele>
        <time>2022-03-22T12:14:56Z</time>
      </trkpt>
      <trkpt lat="46.64376" lon="5.90175">
        <ele>788.6</ele>
        <time>2022-03-22T12:15:02Z</time>
      </trkpt>
      <trkpt lat="46.64381" lon="5.90175">
        <ele>789</ele>
        <time>2022-03-22T12:15:10Z</time>
      </trkpt>
      <trkpt lat="46.64385" lon="5.90173">
        <ele>786.2</ele>
        <time>2022-03-22T12:15:28Z</time>
      </trkpt>
      <trkpt lat="46.64389" lon="5.90169">
        <ele>783.5</ele>
        <time>2022-03-22T12:16:07Z</time>
      </trkpt>
      <trkpt lat="46.64393" lon="5.90165">
        <ele>782.4</ele>
        <time>2022-03-22T12:16:15Z</time>
      </trkpt>
      <trkpt lat="46.64397" lon="5.90161">
        <ele>781.7</ele>
        <time>2022-03-22T12:16:22Z</time>
      </trkpt>
      <trkpt lat="46.64394" lon="5.90155">
        <ele>781.9</ele>
        <time>2022-03-22T12:16:29Z</time>
      </trkpt>
      <trkpt lat="46.64398" lon="5.90151">
        <ele>781.7</ele>
        <time>2022-03-22T12:16:39Z</time>
      </trkpt>
      <trkpt lat="46.64402" lon="5.90148">
        <ele>781.7</ele>
        <time>2022-03-22T12:16:43Z</time>
      </trkpt>
      <trkpt lat="46.64407" lon="5.90146">
        <ele>781.8</ele>
        <time>2022-03-22T12:16:48Z</time>
      </trkpt>
      <trkpt lat="46.64411" lon="5.90141">
        <ele>782.1</ele>
        <time>2022-03-22T12:16:54Z</time>
      </trkpt>
      <trkpt lat="46.64414" lon="5.90136">
        <ele>782.1</ele>
        <time>2022-03-22T12:16:59Z</time>
      </trkpt>
      <trkpt lat="46.64417" lon="5.90131">
        <ele>782.1</ele>
        <time>2022-03-22T12:17:04Z</time>
      </trkpt>
      <trkpt lat="46.64421" lon="5.90126">
        <ele>782.5</ele>
        <time>2022-03-22T12:17:09Z</time>
      </trkpt>
      <trkpt lat="46.64425" lon="5.90123">
        <ele>783.1</ele>
        <time>2022-03-22T12:17:14Z</time>
      </trkpt>
      <trkpt lat="46.64431" lon="5.90121">
        <ele>784.5</ele>
        <time>2022-03-22T12:17:21Z</time>
      </trkpt>
      <trkpt lat="46.64435" lon="5.90119">
        <ele>785.4</ele>
        <time>2022-03-22T12:17:26Z</time>
      </trkpt>
      <trkpt lat="46.6444" lon="5.90118">
        <ele>786.2</ele>
        <time>2022-03-22T12:17:30Z</time>
      </trkpt>
      <trkpt lat="46.64445" lon="5.90116">
        <ele>787.1</ele>
        <time>2022-03-22T12:17:35Z</time>
      </trkpt>
      <trkpt lat="46.64449" lon="5.90115">
        <ele>787.8</ele>
        <time>2022-03-22T12:17:41Z</time>
      </trkpt>
      <trkpt lat="46.64455" lon="5.90116">
        <ele>787.8</ele>
        <time>2022-03-22T12:17:46Z</time>
      </trkpt>
      <trkpt lat="46.6446" lon="5.90116">
        <ele>786.8</ele>
        <time>2022-03-22T12:17:51Z</time>
      </trkpt>
      <trkpt lat="46.64464" lon="5.90119">
        <ele>786.1</ele>
        <time>2022-03-22T12:17:54Z</time>
      </trkpt>
      <trkpt lat="46.64469" lon="5.90122">
        <ele>785.6</ele>
        <time>2022-03-22T12:17:57Z</time>
      </trkpt>
      <trkpt lat="46.64474" lon="5.90126">
        <ele>785</ele>
        <time>2022-03-22T12:18:01Z</time>
      </trkpt>
      <trkpt lat="46.64478" lon="5.90129">
        <ele>784.7</ele>
        <time>2022-03-22T12:18:05Z</time>
      </trkpt>
      <trkpt lat="46.64482" lon="5.90133">
        <ele>784.1</ele>
        <time>2022-03-22T12:18:11Z</time>
      </trkpt>
      <trkpt lat="46.64487" lon="5.90137">
        <ele>784.1</ele>
        <time>2022-03-22T12:18:17Z</time>
      </trkpt>
      <trkpt lat="46.64491" lon="5.90141">
        <ele>784.9</ele>
        <time>2022-03-22T12:18:21Z</time>
      </trkpt>
      <trkpt lat="46.64495" lon="5.90145">
        <ele>786.8</ele>
        <time>2022-03-22T12:18:26Z</time>
      </trkpt>
      <trkpt lat="46.645" lon="5.90148">
        <ele>788.4</ele>
        <time>2022-03-22T12:18:30Z</time>
      </trkpt>
      <trkpt lat="46.64504" lon="5.90152">
        <ele>789.5</ele>
        <time>2022-03-22T12:18:37Z</time>
      </trkpt>
      <trkpt lat="46.64508" lon="5.90154">
        <ele>787.8</ele>
        <time>2022-03-22T12:18:43Z</time>
      </trkpt>
      <trkpt lat="46.64514" lon="5.90155">
        <ele>786.2</ele>
        <time>2022-03-22T12:18:48Z</time>
      </trkpt>
      <trkpt lat="46.64518" lon="5.90154">
        <ele>785.6</ele>
        <time>2022-03-22T12:18:51Z</time>
      </trkpt>
      <trkpt lat="46.64524" lon="5.90155">
        <ele>785</ele>
        <time>2022-03-22T12:18:55Z</time>
      </trkpt>
      <trkpt lat="46.6453" lon="5.90156">
        <ele>785.2</ele>
        <time>2022-03-22T12:18:58Z</time>
      </trkpt>
      <trkpt lat="46.64535" lon="5.90157">
        <ele>785.8</ele>
        <time>2022-03-22T12:19:01Z</time>
      </trkpt>
      <trkpt lat="46.6454" lon="5.9016">
        <ele>786.9</ele>
        <time>2022-03-22T12:19:05Z</time>
      </trkpt>
      <trkpt lat="46.64544" lon="5.90163">
        <ele>788.2</ele>
        <time>2022-03-22T12:19:12Z</time>
      </trkpt>
      <trkpt lat="46.64549" lon="5.90163">
        <ele>788</ele>
        <time>2022-03-22T12:19:17Z</time>
      </trkpt>
      <trkpt lat="46.64554" lon="5.90165">
        <ele>787.7</ele>
        <time>2022-03-22T12:19:22Z</time>
      </trkpt>
      <trkpt lat="46.64559" lon="5.90166">
        <ele>787.6</ele>
        <time>2022-03-22T12:19:27Z</time>
      </trkpt>
      <trkpt lat="46.64564" lon="5.90167">
        <ele>787.3</ele>
        <time>2022-03-22T12:19:34Z</time>
      </trkpt>
      <trkpt lat="46.64568" lon="5.90171">
        <ele>787.8</ele>
        <time>2022-03-22T12:19:40Z</time>
      </trkpt>
      <trkpt lat="46.64573" lon="5.90171">
        <ele>788.9</ele>
        <time>2022-03-22T12:19:45Z</time>
      </trkpt>
      <trkpt lat="46.64577" lon="5.90169">
        <ele>790.5</ele>
        <time>2022-03-22T12:19:51Z</time>
      </trkpt>
      <trkpt lat="46.64582" lon="5.90168">
        <ele>791.7</ele>
        <time>2022-03-22T12:19:58Z</time>
      </trkpt>
      <trkpt lat="46.64587" lon="5.9017">
        <ele>792.8</ele>
        <time>2022-03-22T12:20:03Z</time>
      </trkpt>
      <trkpt lat="46.64592" lon="5.90171">
        <ele>793.9</ele>
        <time>2022-03-22T12:20:07Z</time>
      </trkpt>
      <trkpt lat="46.64597" lon="5.90171">
        <ele>794.6</ele>
        <time>2022-03-22T12:20:11Z</time>
      </trkpt>
      <trkpt lat="46.64603" lon="5.90172">
        <ele>795.2</ele>
        <time>2022-03-22T12:20:15Z</time>
      </trkpt>
      <trkpt lat="46.64609" lon="5.90172">
        <ele>795.6</ele>
        <time>2022-03-22T12:20:20Z</time>
      </trkpt>
      <trkpt lat="46.64613" lon="5.90176">
        <ele>796.3</ele>
        <time>2022-03-22T12:20:25Z</time>
      </trkpt>
      <trkpt lat="46.64617" lon="5.90181">
        <ele>796.7</ele>
        <time>2022-03-22T12:20:30Z</time>
      </trkpt>
      <trkpt lat="46.64619" lon="5.90188">
        <ele>797.6</ele>
        <time>2022-03-22T12:20:36Z</time>
      </trkpt>
      <trkpt lat="46.64623" lon="5.90192">
        <ele>797.8</ele>
        <time>2022-03-22T12:20:42Z</time>
      </trkpt>
      <trkpt lat="46.64629" lon="5.90195">
        <ele>798.1</ele>
        <time>2022-03-22T12:20:47Z</time>
      </trkpt>
      <trkpt lat="46.64633" lon="5.902">
        <ele>798.9</ele>
        <time>2022-03-22T12:20:52Z</time>
      </trkpt>
      <trkpt lat="46.64637" lon="5.90204">
        <ele>799.6</ele>
        <time>2022-03-22T12:20:56Z</time>
      </trkpt>
      <trkpt lat="46.64642" lon="5.90209">
        <ele>800</ele>
        <time>2022-03-22T12:21:01Z</time>
      </trkpt>
      <trkpt lat="46.64647" lon="5.90212">
        <ele>799.8</ele>
        <time>2022-03-22T12:21:06Z</time>
      </trkpt>
      <trkpt lat="46.64652" lon="5.90215">
        <ele>800</ele>
        <time>2022-03-22T12:21:12Z</time>
      </trkpt>
      <trkpt lat="46.64656" lon="5.90217">
        <ele>800.2</ele>
        <time>2022-03-22T12:21:18Z</time>
      </trkpt>
      <trkpt lat="46.64661" lon="5.90221">
        <ele>800.3</ele>
        <time>2022-03-22T12:21:24Z</time>
      </trkpt>
      <trkpt lat="46.64666" lon="5.90222">
        <ele>800</ele>
        <time>2022-03-22T12:21:28Z</time>
      </trkpt>
      <trkpt lat="46.64671" lon="5.90224">
        <ele>799.7</ele>
        <time>2022-03-22T12:21:33Z</time>
      </trkpt>
      <trkpt lat="46.64675" lon="5.90223">
        <ele>799.2</ele>
        <time>2022-03-22T12:21:39Z</time>
      </trkpt>
      <trkpt lat="46.64681" lon="5.90222">
        <ele>797.6</ele>
        <time>2022-03-22T12:21:46Z</time>
      </trkpt>
      <trkpt lat="46.64686" lon="5.90224">
        <ele>796.5</ele>
        <time>2022-03-22T12:21:51Z</time>
      </trkpt>
      <trkpt lat="46.64691" lon="5.90225">
        <ele>795.9</ele>
        <time>2022-03-22T12:21:54Z</time>
      </trkpt>
      <trkpt lat="46.64696" lon="5.90228">
        <ele>795.5</ele>
        <time>2022-03-22T12:21:58Z</time>
      </trkpt>
      <trkpt lat="46.64701" lon="5.9023">
        <ele>795.3</ele>
        <time>2022-03-22T12:22:02Z</time>
      </trkpt>
      <trkpt lat="46.64705" lon="5.90233">
        <ele>795.4</ele>
        <time>2022-03-22T12:22:05Z</time>
      </trkpt>
      <trkpt lat="46.6471" lon="5.90237">
        <ele>795.7</ele>
        <time>2022-03-22T12:22:09Z</time>
      </trkpt>
      <trkpt lat="46.64714" lon="5.9024">
        <ele>796.4</ele>
        <time>2022-03-22T12:22:15Z</time>
      </trkpt>
      <trkpt lat="46.64717" lon="5.90246">
        <ele>797.9</ele>
        <time>2022-03-22T12:22:23Z</time>
      </trkpt>
      <trkpt lat="46.64722" lon="5.9025">
        <ele>799.4</ele>
        <time>2022-03-22T12:22:32Z</time>
      </trkpt>
      <trkpt lat="46.64725" lon="5.90255">
        <ele>800</ele>
        <time>2022-03-22T12:22:37Z</time>
      </trkpt>
      <trkpt lat="46.6473" lon="5.90259">
        <ele>800.6</ele>
        <time>2022-03-22T12:22:42Z</time>
      </trkpt>
      <trkpt lat="46.64732" lon="5.90264">
        <ele>800.5</ele>
        <time>2022-03-22T12:22:49Z</time>
      </trkpt>
      <trkpt lat="46.64734" lon="5.90271">
        <ele>799.9</ele>
        <time>2022-03-22T12:22:54Z</time>
      </trkpt>
      <trkpt lat="46.64737" lon="5.90278">
        <ele>799.3</ele>
        <time>2022-03-22T12:22:58Z</time>
      </trkpt>
      <trkpt lat="46.64739" lon="5.90283">
        <ele>799.4</ele>
        <time>2022-03-22T12:23:01Z</time>
      </trkpt>
      <trkpt lat="46.64741" lon="5.9029">
        <ele>800.5</ele>
        <time>2022-03-22T12:23:11Z</time>
      </trkpt>
      <trkpt lat="46.64738" lon="5.90296">
        <ele>801.4</ele>
        <time>2022-03-22T12:23:16Z</time>
      </trkpt>
      <trkpt lat="46.64735" lon="5.90302">
        <ele>802.2</ele>
        <time>2022-03-22T12:23:20Z</time>
      </trkpt>
      <trkpt lat="46.64732" lon="5.90307">
        <ele>803</ele>
        <time>2022-03-22T12:23:24Z</time>
      </trkpt>
      <trkpt lat="46.64728" lon="5.90312">
        <ele>804.1</ele>
        <time>2022-03-22T12:23:29Z</time>
      </trkpt>
      <trkpt lat="46.64727" lon="5.90318">
        <ele>805.5</ele>
        <time>2022-03-22T12:23:34Z</time>
      </trkpt>
      <trkpt lat="46.64728" lon="5.90325">
        <ele>807.6</ele>
        <time>2022-03-22T12:23:40Z</time>
      </trkpt>
      <trkpt lat="46.64731" lon="5.90331">
        <ele>809.2</ele>
        <time>2022-03-22T12:23:45Z</time>
      </trkpt>
      <trkpt lat="46.64733" lon="5.90337">
        <ele>809.5</ele>
        <time>2022-03-22T12:23:50Z</time>
      </trkpt>
      <trkpt lat="46.64737" lon="5.90341">
        <ele>810</ele>
        <time>2022-03-22T12:23:54Z</time>
      </trkpt>
      <trkpt lat="46.64741" lon="5.90346">
        <ele>810.4</ele>
        <time>2022-03-22T12:23:59Z</time>
      </trkpt>
      <trkpt lat="46.64744" lon="5.90353">
        <ele>811.2</ele>
        <time>2022-03-22T12:24:05Z</time>
      </trkpt>
      <trkpt lat="46.64745" lon="5.9036">
        <ele>812.6</ele>
        <time>2022-03-22T12:24:12Z</time>
      </trkpt>
      <trkpt lat="46.64745" lon="5.90367">
        <ele>813.3</ele>
        <time>2022-03-22T12:24:18Z</time>
      </trkpt>
      <trkpt lat="46.64746" lon="5.90374">
        <ele>813.7</ele>
        <time>2022-03-22T12:24:23Z</time>
      </trkpt>
      <trkpt lat="46.64749" lon="5.90379">
        <ele>814.6</ele>
        <time>2022-03-22T12:24:29Z</time>
      </trkpt>
      <trkpt lat="46.64752" lon="5.90385">
        <ele>815.7</ele>
        <time>2022-03-22T12:24:37Z</time>
      </trkpt>
      <trkpt lat="46.64757" lon="5.90386">
        <ele>816.1</ele>
        <time>2022-03-22T12:24:54Z</time>
      </trkpt>
      <trkpt lat="46.64753" lon="5.90393">
        <ele>816.8</ele>
        <time>2022-03-22T12:25:37Z</time>
      </trkpt>
      <trkpt lat="46.64756" lon="5.90388">
        <ele>814.9</ele>
        <time>2022-03-22T12:25:49Z</time>
      </trkpt>
      <trkpt lat="46.64761" lon="5.90386">
        <ele>814.2</ele>
        <time>2022-03-22T12:25:53Z</time>
      </trkpt>
      <trkpt lat="46.64763" lon="5.90393">
        <ele>815.5</ele>
        <time>2022-03-22T12:26:05Z</time>
      </trkpt>
      <trkpt lat="46.64766" lon="5.90399">
        <ele>817.2</ele>
        <time>2022-03-22T12:26:13Z</time>
      </trkpt>
      <trkpt lat="46.64768" lon="5.90405">
        <ele>818.4</ele>
        <time>2022-03-22T12:26:20Z</time>
      </trkpt>
      <trkpt lat="46.64771" lon="5.90412">
        <ele>819.3</ele>
        <time>2022-03-22T12:26:26Z</time>
      </trkpt>
      <trkpt lat="46.64774" lon="5.90418">
        <ele>820</ele>
        <time>2022-03-22T12:26:31Z</time>
      </trkpt>
      <trkpt lat="46.64777" lon="5.90423">
        <ele>820</ele>
        <time>2022-03-22T12:26:35Z</time>
      </trkpt>
      <trkpt lat="46.64781" lon="5.90429">
        <ele>819.5</ele>
        <time>2022-03-22T12:26:39Z</time>
      </trkpt>
      <trkpt lat="46.64783" lon="5.90434">
        <ele>819.4</ele>
        <time>2022-03-22T12:26:43Z</time>
      </trkpt>
      <trkpt lat="46.64785" lon="5.9044">
        <ele>819.6</ele>
        <time>2022-03-22T12:26:51Z</time>
      </trkpt>
      <trkpt lat="46.64787" lon="5.90447">
        <ele>820</ele>
        <time>2022-03-22T12:26:57Z</time>
      </trkpt>
      <trkpt lat="46.64789" lon="5.90453">
        <ele>820</ele>
        <time>2022-03-22T12:27:03Z</time>
      </trkpt>
      <trkpt lat="46.64793" lon="5.90459">
        <ele>820.1</ele>
        <time>2022-03-22T12:27:09Z</time>
      </trkpt>
      <trkpt lat="46.64795" lon="5.90466">
        <ele>819.7</ele>
        <time>2022-03-22T12:27:15Z</time>
      </trkpt>
      <trkpt lat="46.64798" lon="5.90471">
        <ele>819.4</ele>
        <time>2022-03-22T12:27:20Z</time>
      </trkpt>
      <trkpt lat="46.64801" lon="5.90477">
        <ele>819.4</ele>
        <time>2022-03-22T12:27:26Z</time>
      </trkpt>
      <trkpt lat="46.64804" lon="5.90482">
        <ele>819.6</ele>
        <time>2022-03-22T12:27:31Z</time>
      </trkpt>
      <trkpt lat="46.64807" lon="5.90487">
        <ele>819.4</ele>
        <time>2022-03-22T12:27:36Z</time>
      </trkpt>
      <trkpt lat="46.6481" lon="5.90493">
        <ele>820.2</ele>
        <time>2022-03-22T12:27:42Z</time>
      </trkpt>
      <trkpt lat="46.64811" lon="5.90499">
        <ele>821.4</ele>
        <time>2022-03-22T12:27:47Z</time>
      </trkpt>
      <trkpt lat="46.64813" lon="5.90507">
        <ele>822.8</ele>
        <time>2022-03-22T12:27:53Z</time>
      </trkpt>
      <trkpt lat="46.64817" lon="5.90512">
        <ele>825.3</ele>
        <time>2022-03-22T12:28:02Z</time>
      </trkpt>
      <trkpt lat="46.64821" lon="5.90516">
        <ele>827.1</ele>
        <time>2022-03-22T12:28:10Z</time>
      </trkpt>
      <trkpt lat="46.64825" lon="5.90519">
        <ele>827.6</ele>
        <time>2022-03-22T12:28:16Z</time>
      </trkpt>
      <trkpt lat="46.64829" lon="5.90525">
        <ele>827.9</ele>
        <time>2022-03-22T12:28:21Z</time>
      </trkpt>
      <trkpt lat="46.64832" lon="5.90529">
        <ele>828.4</ele>
        <time>2022-03-22T12:28:27Z</time>
      </trkpt>
      <trkpt lat="46.64836" lon="5.90534">
        <ele>828.7</ele>
        <time>2022-03-22T12:28:33Z</time>
      </trkpt>
      <trkpt lat="46.64839" lon="5.9054">
        <ele>828.7</ele>
        <time>2022-03-22T12:28:37Z</time>
      </trkpt>
      <trkpt lat="46.64844" lon="5.90543">
        <ele>828.6</ele>
        <time>2022-03-22T12:28:41Z</time>
      </trkpt>
      <trkpt lat="46.64849" lon="5.90548">
        <ele>828.2</ele>
        <time>2022-03-22T12:28:46Z</time>
      </trkpt>
      <trkpt lat="46.64851" lon="5.90554">
        <ele>828</ele>
        <time>2022-03-22T12:28:50Z</time>
      </trkpt>
      <trkpt lat="46.64852" lon="5.9056">
        <ele>827.8</ele>
        <time>2022-03-22T12:28:56Z</time>
      </trkpt>
      <trkpt lat="46.64852" lon="5.90567">
        <ele>827.4</ele>
        <time>2022-03-22T12:29:02Z</time>
      </trkpt>
      <trkpt lat="46.64851" lon="5.90575">
        <ele>826.7</ele>
        <time>2022-03-22T12:29:07Z</time>
      </trkpt>
      <trkpt lat="46.64848" lon="5.90582">
        <ele>826.6</ele>
        <time>2022-03-22T12:29:11Z</time>
      </trkpt>
      <trkpt lat="46.64847" lon="5.9059">
        <ele>827.2</ele>
        <time>2022-03-22T12:29:15Z</time>
      </trkpt>
      <trkpt lat="46.64845" lon="5.90596">
        <ele>827.9</ele>
        <time>2022-03-22T12:29:19Z</time>
      </trkpt>
      <trkpt lat="46.64843" lon="5.90602">
        <ele>828.1</ele>
        <time>2022-03-22T12:29:24Z</time>
      </trkpt>
      <trkpt lat="46.64844" lon="5.90609">
        <ele>828.1</ele>
        <time>2022-03-22T12:29:28Z</time>
      </trkpt>
      <trkpt lat="46.64846" lon="5.90617">
        <ele>827.8</ele>
        <time>2022-03-22T12:29:33Z</time>
      </trkpt>
      <trkpt lat="46.64848" lon="5.90625">
        <ele>827.5</ele>
        <time>2022-03-22T12:29:37Z</time>
      </trkpt>
      <trkpt lat="46.64851" lon="5.90632">
        <ele>827.5</ele>
        <time>2022-03-22T12:29:41Z</time>
      </trkpt>
      <trkpt lat="46.64854" lon="5.90638">
        <ele>827.9</ele>
        <time>2022-03-22T12:29:45Z</time>
      </trkpt>
      <trkpt lat="46.64858" lon="5.90641">
        <ele>828.3</ele>
        <time>2022-03-22T12:29:50Z</time>
      </trkpt>
      <trkpt lat="46.64862" lon="5.90646">
        <ele>829.3</ele>
        <time>2022-03-22T12:29:56Z</time>
      </trkpt>
      <trkpt lat="46.64864" lon="5.90653">
        <ele>830.4</ele>
        <time>2022-03-22T12:30:02Z</time>
      </trkpt>
      <trkpt lat="46.64867" lon="5.90658">
        <ele>831.3</ele>
        <time>2022-03-22T12:30:07Z</time>
      </trkpt>
      <trkpt lat="46.6487" lon="5.90664">
        <ele>831.8</ele>
        <time>2022-03-22T12:30:12Z</time>
      </trkpt>
      <trkpt lat="46.64872" lon="5.9067">
        <ele>832.6</ele>
        <time>2022-03-22T12:30:17Z</time>
      </trkpt>
      <trkpt lat="46.64875" lon="5.90676">
        <ele>833.3</ele>
        <time>2022-03-22T12:30:23Z</time>
      </trkpt>
      <trkpt lat="46.64877" lon="5.90682">
        <ele>834.8</ele>
        <time>2022-03-22T12:30:30Z</time>
      </trkpt>
      <trkpt lat="46.6488" lon="5.90688">
        <ele>835.1</ele>
        <time>2022-03-22T12:30:35Z</time>
      </trkpt>
      <trkpt lat="46.64884" lon="5.90693">
        <ele>834.8</ele>
        <time>2022-03-22T12:30:40Z</time>
      </trkpt>
      <trkpt lat="46.64887" lon="5.90698">
        <ele>834.9</ele>
        <time>2022-03-22T12:30:45Z</time>
      </trkpt>
      <trkpt lat="46.64889" lon="5.90704">
        <ele>835.5</ele>
        <time>2022-03-22T12:30:51Z</time>
      </trkpt>
      <trkpt lat="46.64893" lon="5.90709">
        <ele>836.1</ele>
        <time>2022-03-22T12:30:57Z</time>
      </trkpt>
      <trkpt lat="46.64897" lon="5.90713">
        <ele>837.1</ele>
        <time>2022-03-22T12:31:02Z</time>
      </trkpt>
      <trkpt lat="46.64901" lon="5.90716">
        <ele>838</ele>
        <time>2022-03-22T12:31:06Z</time>
      </trkpt>
      <trkpt lat="46.64906" lon="5.90719">
        <ele>838</ele>
        <time>2022-03-22T12:31:11Z</time>
      </trkpt>
      <trkpt lat="46.64911" lon="5.90722">
        <ele>837.2</ele>
        <time>2022-03-22T12:31:15Z</time>
      </trkpt>
      <trkpt lat="46.64915" lon="5.90725">
        <ele>836.5</ele>
        <time>2022-03-22T12:31:19Z</time>
      </trkpt>
      <trkpt lat="46.64917" lon="5.90732">
        <ele>836.1</ele>
        <time>2022-03-22T12:31:23Z</time>
      </trkpt>
      <trkpt lat="46.64918" lon="5.9074">
        <ele>836.4</ele>
        <time>2022-03-22T12:31:29Z</time>
      </trkpt>
      <trkpt lat="46.6492" lon="5.90746">
        <ele>837.4</ele>
        <time>2022-03-22T12:31:34Z</time>
      </trkpt>
      <trkpt lat="46.64923" lon="5.90752">
        <ele>838.6</ele>
        <time>2022-03-22T12:31:39Z</time>
      </trkpt>
      <trkpt lat="46.64925" lon="5.90759">
        <ele>839.8</ele>
        <time>2022-03-22T12:31:44Z</time>
      </trkpt>
      <trkpt lat="46.64927" lon="5.90766">
        <ele>840.8</ele>
        <time>2022-03-22T12:31:49Z</time>
      </trkpt>
      <trkpt lat="46.64929" lon="5.90773">
        <ele>841.9</ele>
        <time>2022-03-22T12:31:54Z</time>
      </trkpt>
      <trkpt lat="46.64933" lon="5.90778">
        <ele>843</ele>
        <time>2022-03-22T12:31:59Z</time>
      </trkpt>
      <trkpt lat="46.64936" lon="5.90783">
        <ele>844</ele>
        <time>2022-03-22T12:32:04Z</time>
      </trkpt>
      <trkpt lat="46.64938" lon="5.90789">
        <ele>845</ele>
        <time>2022-03-22T12:32:08Z</time>
      </trkpt>
      <trkpt lat="46.64942" lon="5.90794">
        <ele>846.2</ele>
        <time>2022-03-22T12:32:12Z</time>
      </trkpt>
      <trkpt lat="46.64945" lon="5.908">
        <ele>847.3</ele>
        <time>2022-03-22T12:32:17Z</time>
      </trkpt>
      <trkpt lat="46.64949" lon="5.90806">
        <ele>847.3</ele>
        <time>2022-03-22T12:32:22Z</time>
      </trkpt>
      <trkpt lat="46.64953" lon="5.9081">
        <ele>846</ele>
        <time>2022-03-22T12:32:26Z</time>
      </trkpt>
      <trkpt lat="46.64955" lon="5.90816">
        <ele>844.4</ele>
        <time>2022-03-22T12:32:32Z</time>
      </trkpt>
      <trkpt lat="46.64955" lon="5.90824">
        <ele>842.7</ele>
        <time>2022-03-22T12:32:39Z</time>
      </trkpt>
      <trkpt lat="46.64954" lon="5.90831">
        <ele>840.3</ele>
        <time>2022-03-22T12:32:45Z</time>
      </trkpt>
      <trkpt lat="46.64953" lon="5.90837">
        <ele>837.9</ele>
        <time>2022-03-22T12:32:51Z</time>
      </trkpt>
      <trkpt lat="46.64953" lon="5.90844">
        <ele>836</ele>
        <time>2022-03-22T12:32:57Z</time>
      </trkpt>
      <trkpt lat="46.64953" lon="5.90851">
        <ele>834.6</ele>
        <time>2022-03-22T12:33:02Z</time>
      </trkpt>
      <trkpt lat="46.64953" lon="5.90858">
        <ele>832.3</ele>
        <time>2022-03-22T12:33:09Z</time>
      </trkpt>
      <trkpt lat="46.64952" lon="5.90865">
        <ele>832.1</ele>
        <time>2022-03-22T12:33:13Z</time>
      </trkpt>
      <trkpt lat="46.64952" lon="5.90873">
        <ele>832.6</ele>
        <time>2022-03-22T12:33:17Z</time>
      </trkpt>
      <trkpt lat="46.64955" lon="5.90879">
        <ele>833.4</ele>
        <time>2022-03-22T12:33:20Z</time>
      </trkpt>
      <trkpt lat="46.64958" lon="5.90886">
        <ele>834.8</ele>
        <time>2022-03-22T12:33:24Z</time>
      </trkpt>
      <trkpt lat="46.64962" lon="5.9089">
        <ele>836.7</ele>
        <time>2022-03-22T12:33:29Z</time>
      </trkpt>
      <trkpt lat="46.64966" lon="5.90896">
        <ele>838.9</ele>
        <time>2022-03-22T12:33:35Z</time>
      </trkpt>
      <trkpt lat="46.6497" lon="5.90899">
        <ele>840.4</ele>
        <time>2022-03-22T12:33:40Z</time>
      </trkpt>
      <trkpt lat="46.64975" lon="5.90903">
        <ele>841.3</ele>
        <time>2022-03-22T12:33:44Z</time>
      </trkpt>
      <trkpt lat="46.64979" lon="5.90907">
        <ele>842</ele>
        <time>2022-03-22T12:33:47Z</time>
      </trkpt>
      <trkpt lat="46.64983" lon="5.90911">
        <ele>842.8</ele>
        <time>2022-03-22T12:33:50Z</time>
      </trkpt>
      <trkpt lat="46.64987" lon="5.90914">
        <ele>843.6</ele>
        <time>2022-03-22T12:33:53Z</time>
      </trkpt>
      <trkpt lat="46.64991" lon="5.90917">
        <ele>844.4</ele>
        <time>2022-03-22T12:33:57Z</time>
      </trkpt>
      <trkpt lat="46.64995" lon="5.90921">
        <ele>844.9</ele>
        <time>2022-03-22T12:34:01Z</time>
      </trkpt>
      <trkpt lat="46.64999" lon="5.90925">
        <ele>845.5</ele>
        <time>2022-03-22T12:34:06Z</time>
      </trkpt>
      <trkpt lat="46.65001" lon="5.90932">
        <ele>844.7</ele>
        <time>2022-03-22T12:34:15Z</time>
      </trkpt>
      <trkpt lat="46.65004" lon="5.90939">
        <ele>843.6</ele>
        <time>2022-03-22T12:34:21Z</time>
      </trkpt>
      <trkpt lat="46.65006" lon="5.90944">
        <ele>843</ele>
        <time>2022-03-22T12:34:26Z</time>
      </trkpt>
      <trkpt lat="46.6501" lon="5.90948">
        <ele>842.3</ele>
        <time>2022-03-22T12:34:30Z</time>
      </trkpt>
      <trkpt lat="46.65014" lon="5.90953">
        <ele>841.5</ele>
        <time>2022-03-22T12:34:35Z</time>
      </trkpt>
      <trkpt lat="46.65018" lon="5.90956">
        <ele>841.3</ele>
        <time>2022-03-22T12:34:38Z</time>
      </trkpt>
      <trkpt lat="46.65023" lon="5.9096">
        <ele>841.2</ele>
        <time>2022-03-22T12:34:42Z</time>
      </trkpt>
      <trkpt lat="46.65027" lon="5.90964">
        <ele>841.5</ele>
        <time>2022-03-22T12:34:47Z</time>
      </trkpt>
      <trkpt lat="46.65029" lon="5.9097">
        <ele>842.4</ele>
        <time>2022-03-22T12:34:54Z</time>
      </trkpt>
      <trkpt lat="46.65033" lon="5.90975">
        <ele>842.4</ele>
        <time>2022-03-22T12:35:01Z</time>
      </trkpt>
      <trkpt lat="46.65037" lon="5.9098">
        <ele>842.7</ele>
        <time>2022-03-22T12:35:05Z</time>
      </trkpt>
      <trkpt lat="46.6504" lon="5.90985">
        <ele>843.5</ele>
        <time>2022-03-22T12:35:09Z</time>
      </trkpt>
      <trkpt lat="46.65044" lon="5.9099">
        <ele>844.2</ele>
        <time>2022-03-22T12:35:16Z</time>
      </trkpt>
      <trkpt lat="46.65048" lon="5.90994">
        <ele>844</ele>
        <time>2022-03-22T12:35:20Z</time>
      </trkpt>
      <trkpt lat="46.65052" lon="5.90998">
        <ele>843.2</ele>
        <time>2022-03-22T12:35:24Z</time>
      </trkpt>
      <trkpt lat="46.65056" lon="5.91003">
        <ele>842.1</ele>
        <time>2022-03-22T12:35:28Z</time>
      </trkpt>
      <trkpt lat="46.65059" lon="5.91009">
        <ele>840.6</ele>
        <time>2022-03-22T12:35:33Z</time>
      </trkpt>
      <trkpt lat="46.6506" lon="5.91016">
        <ele>839.4</ele>
        <time>2022-03-22T12:35:38Z</time>
      </trkpt>
      <trkpt lat="46.65061" lon="5.91023">
        <ele>838.5</ele>
        <time>2022-03-22T12:35:44Z</time>
      </trkpt>
      <trkpt lat="46.65063" lon="5.91031">
        <ele>838.3</ele>
        <time>2022-03-22T12:35:49Z</time>
      </trkpt>
      <trkpt lat="46.65066" lon="5.91038">
        <ele>838.2</ele>
        <time>2022-03-22T12:35:54Z</time>
      </trkpt>
      <trkpt lat="46.65068" lon="5.91044">
        <ele>838.4</ele>
        <time>2022-03-22T12:35:59Z</time>
      </trkpt>
      <trkpt lat="46.6507" lon="5.9105">
        <ele>838.8</ele>
        <time>2022-03-22T12:36:03Z</time>
      </trkpt>
      <trkpt lat="46.65072" lon="5.91057">
        <ele>839.2</ele>
        <time>2022-03-22T12:36:07Z</time>
      </trkpt>
      <trkpt lat="46.65073" lon="5.91065">
        <ele>839.6</ele>
        <time>2022-03-22T12:36:12Z</time>
      </trkpt>
      <trkpt lat="46.65076" lon="5.9107">
        <ele>840.4</ele>
        <time>2022-03-22T12:36:17Z</time>
      </trkpt>
      <trkpt lat="46.6508" lon="5.91076">
        <ele>841.1</ele>
        <time>2022-03-22T12:36:23Z</time>
      </trkpt>
      <trkpt lat="46.65084" lon="5.91082">
        <ele>841.6</ele>
        <time>2022-03-22T12:36:27Z</time>
      </trkpt>
      <trkpt lat="46.65088" lon="5.91087">
        <ele>842.5</ele>
        <time>2022-03-22T12:36:31Z</time>
      </trkpt>
      <trkpt lat="46.65093" lon="5.91088">
        <ele>844</ele>
        <time>2022-03-22T12:36:37Z</time>
      </trkpt>
      <trkpt lat="46.65097" lon="5.91093">
        <ele>845.9</ele>
        <time>2022-03-22T12:36:50Z</time>
      </trkpt>
      <trkpt lat="46.65104" lon="5.91095">
        <ele>846.3</ele>
        <time>2022-03-22T12:36:53Z</time>
      </trkpt>
      <trkpt lat="46.65111" lon="5.91096">
        <ele>846.2</ele>
        <time>2022-03-22T12:36:56Z</time>
      </trkpt>
      <trkpt lat="46.65117" lon="5.91097">
        <ele>846.1</ele>
        <time>2022-03-22T12:37:00Z</time>
      </trkpt>
      <trkpt lat="46.65122" lon="5.91099">
        <ele>845.8</ele>
        <time>2022-03-22T12:37:04Z</time>
      </trkpt>
      <trkpt lat="46.65125" lon="5.91103">
        <ele>844.8</ele>
        <time>2022-03-22T12:37:09Z</time>
      </trkpt>
      <trkpt lat="46.65129" lon="5.91109">
        <ele>843.2</ele>
        <time>2022-03-22T12:37:14Z</time>
      </trkpt>
      <trkpt lat="46.65135" lon="5.9111">
        <ele>842.1</ele>
        <time>2022-03-22T12:37:18Z</time>
      </trkpt>
      <trkpt lat="46.65139" lon="5.91111">
        <ele>840.9</ele>
        <time>2022-03-22T12:37:23Z</time>
      </trkpt>
      <trkpt lat="46.65144" lon="5.91114">
        <ele>840.9</ele>
        <time>2022-03-22T12:37:31Z</time>
      </trkpt>
      <trkpt lat="46.65148" lon="5.91119">
        <ele>841.8</ele>
        <time>2022-03-22T12:37:36Z</time>
      </trkpt>
      <trkpt lat="46.65149" lon="5.91125">
        <ele>842.5</ele>
        <time>2022-03-22T12:37:39Z</time>
      </trkpt>
      <trkpt lat="46.65153" lon="5.91129">
        <ele>844</ele>
        <time>2022-03-22T12:37:47Z</time>
      </trkpt>
      <trkpt lat="46.65157" lon="5.91132">
        <ele>844.4</ele>
        <time>2022-03-22T12:37:52Z</time>
      </trkpt>
      <trkpt lat="46.65163" lon="5.91134">
        <ele>843.9</ele>
        <time>2022-03-22T12:37:56Z</time>
      </trkpt>
      <trkpt lat="46.65168" lon="5.91137">
        <ele>843.6</ele>
        <time>2022-03-22T12:38:00Z</time>
      </trkpt>
      <trkpt lat="46.65173" lon="5.91141">
        <ele>844.1</ele>
        <time>2022-03-22T12:38:05Z</time>
      </trkpt>
      <trkpt lat="46.65177" lon="5.91142">
        <ele>844.7</ele>
        <time>2022-03-22T12:38:14Z</time>
      </trkpt>
      <trkpt lat="46.65182" lon="5.91142">
        <ele>843.7</ele>
        <time>2022-03-22T12:38:20Z</time>
      </trkpt>
      <trkpt lat="46.65188" lon="5.91143">
        <ele>842.4</ele>
        <time>2022-03-22T12:38:25Z</time>
      </trkpt>
      <trkpt lat="46.65193" lon="5.91146">
        <ele>841.6</ele>
        <time>2022-03-22T12:38:29Z</time>
      </trkpt>
      <trkpt lat="46.65198" lon="5.91151">
        <ele>841.3</ele>
        <time>2022-03-22T12:38:33Z</time>
      </trkpt>
      <trkpt lat="46.65201" lon="5.91158">
        <ele>842.1</ele>
        <time>2022-03-22T12:38:38Z</time>
      </trkpt>
      <trkpt lat="46.65204" lon="5.91163">
        <ele>844.7</ele>
        <time>2022-03-22T12:38:44Z</time>
      </trkpt>
      <trkpt lat="46.65209" lon="5.91166">
        <ele>846.8</ele>
        <time>2022-03-22T12:38:50Z</time>
      </trkpt>
      <trkpt lat="46.65213" lon="5.91169">
        <ele>847.6</ele>
        <time>2022-03-22T12:38:54Z</time>
      </trkpt>
      <trkpt lat="46.65218" lon="5.91171">
        <ele>848.6</ele>
        <time>2022-03-22T12:38:58Z</time>
      </trkpt>
      <trkpt lat="46.65224" lon="5.91174">
        <ele>849.5</ele>
        <time>2022-03-22T12:39:02Z</time>
      </trkpt>
      <trkpt lat="46.65229" lon="5.91178">
        <ele>850.4</ele>
        <time>2022-03-22T12:39:06Z</time>
      </trkpt>
      <trkpt lat="46.65234" lon="5.91182">
        <ele>851.4</ele>
        <time>2022-03-22T12:39:10Z</time>
      </trkpt>
      <trkpt lat="46.65238" lon="5.91186">
        <ele>852.4</ele>
        <time>2022-03-22T12:39:14Z</time>
      </trkpt>
      <trkpt lat="46.65244" lon="5.91189">
        <ele>853.6</ele>
        <time>2022-03-22T12:39:19Z</time>
      </trkpt>
      <trkpt lat="46.65249" lon="5.9119">
        <ele>853.9</ele>
        <time>2022-03-22T12:39:22Z</time>
      </trkpt>
      <trkpt lat="46.65253" lon="5.91192">
        <ele>854.1</ele>
        <time>2022-03-22T12:39:26Z</time>
      </trkpt>
      <trkpt lat="46.65258" lon="5.91194">
        <ele>854.6</ele>
        <time>2022-03-22T12:39:31Z</time>
      </trkpt>
      <trkpt lat="46.65262" lon="5.91198">
        <ele>855.6</ele>
        <time>2022-03-22T12:39:36Z</time>
      </trkpt>
      <trkpt lat="46.65267" lon="5.91202">
        <ele>857.2</ele>
        <time>2022-03-22T12:39:41Z</time>
      </trkpt>
      <trkpt lat="46.65271" lon="5.91204">
        <ele>858.3</ele>
        <time>2022-03-22T12:39:45Z</time>
      </trkpt>
      <trkpt lat="46.65274" lon="5.91211">
        <ele>858.9</ele>
        <time>2022-03-22T12:39:50Z</time>
      </trkpt>
      <trkpt lat="46.65276" lon="5.91218">
        <ele>859.1</ele>
        <time>2022-03-22T12:39:55Z</time>
      </trkpt>
      <trkpt lat="46.6528" lon="5.91222">
        <ele>859.2</ele>
        <time>2022-03-22T12:40:04Z</time>
      </trkpt>
      <trkpt lat="46.65284" lon="5.91222">
        <ele>859</ele>
        <time>2022-03-22T12:40:10Z</time>
      </trkpt>
      <trkpt lat="46.6529" lon="5.91221">
        <ele>858.6</ele>
        <time>2022-03-22T12:40:14Z</time>
      </trkpt>
      <trkpt lat="46.65294" lon="5.91222">
        <ele>857.4</ele>
        <time>2022-03-22T12:40:18Z</time>
      </trkpt>
      <trkpt lat="46.65299" lon="5.91225">
        <ele>856.4</ele>
        <time>2022-03-22T12:40:23Z</time>
      </trkpt>
      <trkpt lat="46.65304" lon="5.91229">
        <ele>855.8</ele>
        <time>2022-03-22T12:40:27Z</time>
      </trkpt>
      <trkpt lat="46.6531" lon="5.91232">
        <ele>855.8</ele>
        <time>2022-03-22T12:40:31Z</time>
      </trkpt>
      <trkpt lat="46.65313" lon="5.91235">
        <ele>855.9</ele>
        <time>2022-03-22T12:40:35Z</time>
      </trkpt>
      <trkpt lat="46.65318" lon="5.91234">
        <ele>854.8</ele>
        <time>2022-03-22T12:40:40Z</time>
      </trkpt>
      <trkpt lat="46.65323" lon="5.91238">
        <ele>852.7</ele>
        <time>2022-03-22T12:40:46Z</time>
      </trkpt>
      <trkpt lat="46.65327" lon="5.91242">
        <ele>851.3</ele>
        <time>2022-03-22T12:40:51Z</time>
      </trkpt>
      <trkpt lat="46.65332" lon="5.91247">
        <ele>850.1</ele>
        <time>2022-03-22T12:40:55Z</time>
      </trkpt>
      <trkpt lat="46.65335" lon="5.91252">
        <ele>849.5</ele>
        <time>2022-03-22T12:40:58Z</time>
      </trkpt>
      <trkpt lat="46.65339" lon="5.91256">
        <ele>848</ele>
        <time>2022-03-22T12:41:02Z</time>
      </trkpt>
      <trkpt lat="46.65341" lon="5.91262">
        <ele>845.7</ele>
        <time>2022-03-22T12:41:07Z</time>
      </trkpt>
      <trkpt lat="46.65345" lon="5.91268">
        <ele>842.7</ele>
        <time>2022-03-22T12:41:13Z</time>
      </trkpt>
      <trkpt lat="46.65347" lon="5.91273">
        <ele>841.4</ele>
        <time>2022-03-22T12:41:16Z</time>
      </trkpt>
      <trkpt lat="46.6535" lon="5.91281">
        <ele>840.1</ele>
        <time>2022-03-22T12:41:20Z</time>
      </trkpt>
      <trkpt lat="46.65353" lon="5.91287">
        <ele>839.2</ele>
        <time>2022-03-22T12:41:25Z</time>
      </trkpt>
      <trkpt lat="46.65357" lon="5.91292">
        <ele>838.7</ele>
        <time>2022-03-22T12:41:30Z</time>
      </trkpt>
      <trkpt lat="46.6536" lon="5.91297">
        <ele>838.5</ele>
        <time>2022-03-22T12:41:34Z</time>
      </trkpt>
      <trkpt lat="46.65363" lon="5.91303">
        <ele>838.4</ele>
        <time>2022-03-22T12:41:38Z</time>
      </trkpt>
      <trkpt lat="46.65366" lon="5.91309">
        <ele>837.9</ele>
        <time>2022-03-22T12:41:42Z</time>
      </trkpt>
      <trkpt lat="46.6537" lon="5.91311">
        <ele>835.9</ele>
        <time>2022-03-22T12:41:47Z</time>
      </trkpt>
      <trkpt lat="46.65374" lon="5.91316">
        <ele>833.7</ele>
        <time>2022-03-22T12:41:52Z</time>
      </trkpt>
      <trkpt lat="46.65375" lon="5.91322">
        <ele>832.3</ele>
        <time>2022-03-22T12:41:56Z</time>
      </trkpt>
      <trkpt lat="46.65379" lon="5.91327">
        <ele>831.5</ele>
        <time>2022-03-22T12:42:02Z</time>
      </trkpt>
      <trkpt lat="46.65384" lon="5.91332">
        <ele>830.6</ele>
        <time>2022-03-22T12:42:09Z</time>
      </trkpt>
      <trkpt lat="46.65386" lon="5.91338">
        <ele>830.4</ele>
        <time>2022-03-22T12:42:13Z</time>
      </trkpt>
      <trkpt lat="46.65387" lon="5.91345">
        <ele>830.9</ele>
        <time>2022-03-22T12:42:17Z</time>
      </trkpt>
      <trkpt lat="46.6539" lon="5.91352">
        <ele>831.8</ele>
        <time>2022-03-22T12:42:22Z</time>
      </trkpt>
      <trkpt lat="46.65393" lon="5.91359">
        <ele>833.1</ele>
        <time>2022-03-22T12:42:26Z</time>
      </trkpt>
      <trkpt lat="46.65397" lon="5.91366">
        <ele>834.3</ele>
        <time>2022-03-22T12:42:30Z</time>
      </trkpt>
      <trkpt lat="46.65401" lon="5.91371">
        <ele>835</ele>
        <time>2022-03-22T12:42:34Z</time>
      </trkpt>
      <trkpt lat="46.65404" lon="5.91377">
        <ele>835.5</ele>
        <time>2022-03-22T12:42:38Z</time>
      </trkpt>
      <trkpt lat="46.65407" lon="5.91382">
        <ele>835</ele>
        <time>2022-03-22T12:42:43Z</time>
      </trkpt>
      <trkpt lat="46.65408" lon="5.91389">
        <ele>833.9</ele>
        <time>2022-03-22T12:42:49Z</time>
      </trkpt>
      <trkpt lat="46.65411" lon="5.91395">
        <ele>833.2</ele>
        <time>2022-03-22T12:42:54Z</time>
      </trkpt>
      <trkpt lat="46.65415" lon="5.91399">
        <ele>832.4</ele>
        <time>2022-03-22T12:42:59Z</time>
      </trkpt>
      <trkpt lat="46.65418" lon="5.91404">
        <ele>832.1</ele>
        <time>2022-03-22T12:43:04Z</time>
      </trkpt>
      <trkpt lat="46.65417" lon="5.91411">
        <ele>832.6</ele>
        <time>2022-03-22T12:43:08Z</time>
      </trkpt>
      <trkpt lat="46.65414" lon="5.91417">
        <ele>837.1</ele>
        <time>2022-03-22T12:43:19Z</time>
      </trkpt>
      <trkpt lat="46.6541" lon="5.91421">
        <ele>842</ele>
        <time>2022-03-22T12:43:32Z</time>
      </trkpt>
      <trkpt lat="46.65406" lon="5.91425">
        <ele>845.6</ele>
        <time>2022-03-22T12:43:37Z</time>
      </trkpt>
      <trkpt lat="46.65404" lon="5.91419">
        <ele>854.3</ele>
        <time>2022-03-22T12:43:58Z</time>
      </trkpt>
      <trkpt lat="46.65407" lon="5.91413">
        <ele>858.1</ele>
        <time>2022-03-22T12:44:05Z</time>
      </trkpt>
      <trkpt lat="46.65412" lon="5.9141">
        <ele>859.2</ele>
        <time>2022-03-22T12:44:08Z</time>
      </trkpt>
      <trkpt lat="46.65417" lon="5.91408">
        <ele>860</ele>
        <time>2022-03-22T12:44:11Z</time>
      </trkpt>
      <trkpt lat="46.65423" lon="5.91406">
        <ele>860.3</ele>
        <time>2022-03-22T12:44:14Z</time>
      </trkpt>
      <trkpt lat="46.65429" lon="5.91408">
        <ele>860</ele>
        <time>2022-03-22T12:44:17Z</time>
      </trkpt>
      <trkpt lat="46.65435" lon="5.9141">
        <ele>859.3</ele>
        <time>2022-03-22T12:44:20Z</time>
      </trkpt>
      <trkpt lat="46.65439" lon="5.91413">
        <ele>858.2</ele>
        <time>2022-03-22T12:44:23Z</time>
      </trkpt>
      <trkpt lat="46.65443" lon="5.91419">
        <ele>856.8</ele>
        <time>2022-03-22T12:44:27Z</time>
      </trkpt>
      <trkpt lat="46.65447" lon="5.91423">
        <ele>854.4</ele>
        <time>2022-03-22T12:44:32Z</time>
      </trkpt>
      <trkpt lat="46.65452" lon="5.91427">
        <ele>853.3</ele>
        <time>2022-03-22T12:44:36Z</time>
      </trkpt>
      <trkpt lat="46.65457" lon="5.9143">
        <ele>851.9</ele>
        <time>2022-03-22T12:44:40Z</time>
      </trkpt>
      <trkpt lat="46.65462" lon="5.91433">
        <ele>850.5</ele>
        <time>2022-03-22T12:44:43Z</time>
      </trkpt>
      <trkpt lat="46.65466" lon="5.91436">
        <ele>848.7</ele>
        <time>2022-03-22T12:44:46Z</time>
      </trkpt>
      <trkpt lat="46.65471" lon="5.9144">
        <ele>846.2</ele>
        <time>2022-03-22T12:44:50Z</time>
      </trkpt>
      <trkpt lat="46.65476" lon="5.91444">
        <ele>844.1</ele>
        <time>2022-03-22T12:44:54Z</time>
      </trkpt>
      <trkpt lat="46.6548" lon="5.91447">
        <ele>841.5</ele>
        <time>2022-03-22T12:44:58Z</time>
      </trkpt>
      <trkpt lat="46.65486" lon="5.91449">
        <ele>839.6</ele>
        <time>2022-03-22T12:45:03Z</time>
      </trkpt>
      <trkpt lat="46.65491" lon="5.91451">
        <ele>838.6</ele>
        <time>2022-03-22T12:45:07Z</time>
      </trkpt>
      <trkpt lat="46.65496" lon="5.91451">
        <ele>838.5</ele>
        <time>2022-03-22T12:45:10Z</time>
      </trkpt>
      <trkpt lat="46.655" lon="5.91451">
        <ele>838</ele>
        <time>2022-03-22T12:45:13Z</time>
      </trkpt>
      <trkpt lat="46.65506" lon="5.91451">
        <ele>837.2</ele>
        <time>2022-03-22T12:45:17Z</time>
      </trkpt>
      <trkpt lat="46.6551" lon="5.91452">
        <ele>837.2</ele>
        <time>2022-03-22T12:45:21Z</time>
      </trkpt>
      <trkpt lat="46.65515" lon="5.91452">
        <ele>837.7</ele>
        <time>2022-03-22T12:45:24Z</time>
      </trkpt>
      <trkpt lat="46.6552" lon="5.91453">
        <ele>839.3</ele>
        <time>2022-03-22T12:45:28Z</time>
      </trkpt>
      <trkpt lat="46.65524" lon="5.91458">
        <ele>841.5</ele>
        <time>2022-03-22T12:45:32Z</time>
      </trkpt>
      <trkpt lat="46.6553" lon="5.91459">
        <ele>844.1</ele>
        <time>2022-03-22T12:45:38Z</time>
      </trkpt>
      <trkpt lat="46.65534" lon="5.9146">
        <ele>845.5</ele>
        <time>2022-03-22T12:45:42Z</time>
      </trkpt>
      <trkpt lat="46.65539" lon="5.91462">
        <ele>846</ele>
        <time>2022-03-22T12:45:46Z</time>
      </trkpt>
      <trkpt lat="46.65544" lon="5.91464">
        <ele>846.2</ele>
        <time>2022-03-22T12:45:50Z</time>
      </trkpt>
      <trkpt lat="46.6555" lon="5.91467">
        <ele>846.1</ele>
        <time>2022-03-22T12:45:54Z</time>
      </trkpt>
      <trkpt lat="46.65555" lon="5.91471">
        <ele>846.1</ele>
        <time>2022-03-22T12:45:58Z</time>
      </trkpt>
      <trkpt lat="46.6556" lon="5.91475">
        <ele>845.9</ele>
        <time>2022-03-22T12:46:01Z</time>
      </trkpt>
      <trkpt lat="46.65565" lon="5.91479">
        <ele>845.4</ele>
        <time>2022-03-22T12:46:04Z</time>
      </trkpt>
      <trkpt lat="46.65569" lon="5.91483">
        <ele>845.1</ele>
        <time>2022-03-22T12:46:07Z</time>
      </trkpt>
      <trkpt lat="46.65572" lon="5.91488">
        <ele>845.1</ele>
        <time>2022-03-22T12:46:10Z</time>
      </trkpt>
      <trkpt lat="46.65576" lon="5.91492">
        <ele>843.8</ele>
        <time>2022-03-22T12:46:15Z</time>
      </trkpt>
      <trkpt lat="46.6558" lon="5.91495">
        <ele>842.3</ele>
        <time>2022-03-22T12:46:21Z</time>
      </trkpt>
      <trkpt lat="46.65585" lon="5.91498">
        <ele>840.4</ele>
        <time>2022-03-22T12:46:28Z</time>
      </trkpt>
      <trkpt lat="46.6559" lon="5.91502">
        <ele>839.9</ele>
        <time>2022-03-22T12:46:33Z</time>
      </trkpt>
      <trkpt lat="46.65594" lon="5.91504">
        <ele>840.2</ele>
        <time>2022-03-22T12:46:38Z</time>
      </trkpt>
      <trkpt lat="46.65599" lon="5.91509">
        <ele>841</ele>
        <time>2022-03-22T12:46:42Z</time>
      </trkpt>
      <trkpt lat="46.65603" lon="5.91514">
        <ele>842</ele>
        <time>2022-03-22T12:46:46Z</time>
      </trkpt>
      <trkpt lat="46.65607" lon="5.91518">
        <ele>842.8</ele>
        <time>2022-03-22T12:46:50Z</time>
      </trkpt>
      <trkpt lat="46.65607" lon="5.91525">
        <ele>843.4</ele>
        <time>2022-03-22T12:46:54Z</time>
      </trkpt>
      <trkpt lat="46.6561" lon="5.9153">
        <ele>843.5</ele>
        <time>2022-03-22T12:47:01Z</time>
      </trkpt>
      <trkpt lat="46.65615" lon="5.91534">
        <ele>842.6</ele>
        <time>2022-03-22T12:47:05Z</time>
      </trkpt>
      <trkpt lat="46.65619" lon="5.91537">
        <ele>841.3</ele>
        <time>2022-03-22T12:47:08Z</time>
      </trkpt>
      <trkpt lat="46.65623" lon="5.9154">
        <ele>839.4</ele>
        <time>2022-03-22T12:47:12Z</time>
      </trkpt>
      <trkpt lat="46.65627" lon="5.91545">
        <ele>836.9</ele>
        <time>2022-03-22T12:47:18Z</time>
      </trkpt>
      <trkpt lat="46.65631" lon="5.91547">
        <ele>834.4</ele>
        <time>2022-03-22T12:47:23Z</time>
      </trkpt>
      <trkpt lat="46.65635" lon="5.91552">
        <ele>832.2</ele>
        <time>2022-03-22T12:47:29Z</time>
      </trkpt>
      <trkpt lat="46.65638" lon="5.91558">
        <ele>831.9</ele>
        <time>2022-03-22T12:47:32Z</time>
      </trkpt>
      <trkpt lat="46.65641" lon="5.91564">
        <ele>831.5</ele>
        <time>2022-03-22T12:47:36Z</time>
      </trkpt>
      <trkpt lat="46.65646" lon="5.91568">
        <ele>831.2</ele>
        <time>2022-03-22T12:47:40Z</time>
      </trkpt>
      <trkpt lat="46.65651" lon="5.9157">
        <ele>831.2</ele>
        <time>2022-03-22T12:47:43Z</time>
      </trkpt>
      <trkpt lat="46.65656" lon="5.91573">
        <ele>831.3</ele>
        <time>2022-03-22T12:47:47Z</time>
      </trkpt>
      <trkpt lat="46.65661" lon="5.91575">
        <ele>831.3</ele>
        <time>2022-03-22T12:47:51Z</time>
      </trkpt>
      <trkpt lat="46.65666" lon="5.91577">
        <ele>830.3</ele>
        <time>2022-03-22T12:47:57Z</time>
      </trkpt>
      <trkpt lat="46.65671" lon="5.91578">
        <ele>829.2</ele>
        <time>2022-03-22T12:48:01Z</time>
      </trkpt>
      <trkpt lat="46.65673" lon="5.91584">
        <ele>828.1</ele>
        <time>2022-03-22T12:48:08Z</time>
      </trkpt>
      <trkpt lat="46.65676" lon="5.9159">
        <ele>829.3</ele>
        <time>2022-03-22T12:48:15Z</time>
      </trkpt>
      <trkpt lat="46.65676" lon="5.91598">
        <ele>831.3</ele>
        <time>2022-03-22T12:48:20Z</time>
      </trkpt>
      <trkpt lat="46.65678" lon="5.91605">
        <ele>833.2</ele>
        <time>2022-03-22T12:48:25Z</time>
      </trkpt>
      <trkpt lat="46.65677" lon="5.91612">
        <ele>834.2</ele>
        <time>2022-03-22T12:48:30Z</time>
      </trkpt>
      <trkpt lat="46.65679" lon="5.91619">
        <ele>833.9</ele>
        <time>2022-03-22T12:48:37Z</time>
      </trkpt>
      <trkpt lat="46.65681" lon="5.91625">
        <ele>833.6</ele>
        <time>2022-03-22T12:48:41Z</time>
      </trkpt>
      <trkpt lat="46.65685" lon="5.91632">
        <ele>833.5</ele>
        <time>2022-03-22T12:48:45Z</time>
      </trkpt>
      <trkpt lat="46.65687" lon="5.91637">
        <ele>833.4</ele>
        <time>2022-03-22T12:48:49Z</time>
      </trkpt>
      <trkpt lat="46.65688" lon="5.91644">
        <ele>832.9</ele>
        <time>2022-03-22T12:48:53Z</time>
      </trkpt>
      <trkpt lat="46.65691" lon="5.9165">
        <ele>832.4</ele>
        <time>2022-03-22T12:48:58Z</time>
      </trkpt>
      <trkpt lat="46.65693" lon="5.91656">
        <ele>831.5</ele>
        <time>2022-03-22T12:49:03Z</time>
      </trkpt>
      <trkpt lat="46.65697" lon="5.91663">
        <ele>830.5</ele>
        <time>2022-03-22T12:49:08Z</time>
      </trkpt>
      <trkpt lat="46.657" lon="5.91667">
        <ele>829.6</ele>
        <time>2022-03-22T12:49:14Z</time>
      </trkpt>
      <trkpt lat="46.65704" lon="5.9167">
        <ele>829</ele>
        <time>2022-03-22T12:49:20Z</time>
      </trkpt>
      <trkpt lat="46.65709" lon="5.91674">
        <ele>828.6</ele>
        <time>2022-03-22T12:49:25Z</time>
      </trkpt>
      <trkpt lat="46.65714" lon="5.91677">
        <ele>828.2</ele>
        <time>2022-03-22T12:49:30Z</time>
      </trkpt>
      <trkpt lat="46.65718" lon="5.91681">
        <ele>827.6</ele>
        <time>2022-03-22T12:49:35Z</time>
      </trkpt>
      <trkpt lat="46.65724" lon="5.91682">
        <ele>826.9</ele>
        <time>2022-03-22T12:49:41Z</time>
      </trkpt>
      <trkpt lat="46.65728" lon="5.91685">
        <ele>825.9</ele>
        <time>2022-03-22T12:49:46Z</time>
      </trkpt>
      <trkpt lat="46.65732" lon="5.9169">
        <ele>825.2</ele>
        <time>2022-03-22T12:49:50Z</time>
      </trkpt>
      <trkpt lat="46.65735" lon="5.91695">
        <ele>824.7</ele>
        <time>2022-03-22T12:49:54Z</time>
      </trkpt>
      <trkpt lat="46.65739" lon="5.91701">
        <ele>824.1</ele>
        <time>2022-03-22T12:49:59Z</time>
      </trkpt>
      <trkpt lat="46.65743" lon="5.91706">
        <ele>824.2</ele>
        <time>2022-03-22T12:50:04Z</time>
      </trkpt>
      <trkpt lat="46.65746" lon="5.91711">
        <ele>824.2</ele>
        <time>2022-03-22T12:50:07Z</time>
      </trkpt>
      <trkpt lat="46.6575" lon="5.91716">
        <ele>824.5</ele>
        <time>2022-03-22T12:50:10Z</time>
      </trkpt>
      <trkpt lat="46.65754" lon="5.9172">
        <ele>825</ele>
        <time>2022-03-22T12:50:13Z</time>
      </trkpt>
      <trkpt lat="46.65757" lon="5.91724">
        <ele>825.1</ele>
        <time>2022-03-22T12:50:17Z</time>
      </trkpt>
      <trkpt lat="46.65762" lon="5.91727">
        <ele>825</ele>
        <time>2022-03-22T12:50:21Z</time>
      </trkpt>
      <trkpt lat="46.65765" lon="5.91733">
        <ele>825.4</ele>
        <time>2022-03-22T12:50:25Z</time>
      </trkpt>
      <trkpt lat="46.65766" lon="5.91739">
        <ele>826</ele>
        <time>2022-03-22T12:50:28Z</time>
      </trkpt>
      <trkpt lat="46.6577" lon="5.91746">
        <ele>826.6</ele>
        <time>2022-03-22T12:50:32Z</time>
      </trkpt>
      <trkpt lat="46.65772" lon="5.91752">
        <ele>827</ele>
        <time>2022-03-22T12:50:36Z</time>
      </trkpt>
      <trkpt lat="46.65774" lon="5.91759">
        <ele>826.7</ele>
        <time>2022-03-22T12:50:41Z</time>
      </trkpt>
      <trkpt lat="46.65776" lon="5.91765">
        <ele>826.3</ele>
        <time>2022-03-22T12:50:46Z</time>
      </trkpt>
      <trkpt lat="46.65778" lon="5.91772">
        <ele>826.7</ele>
        <time>2022-03-22T12:50:51Z</time>
      </trkpt>
      <trkpt lat="46.65779" lon="5.91782">
        <ele>828.3</ele>
        <time>2022-03-22T12:50:59Z</time>
      </trkpt>
      <trkpt lat="46.6578" lon="5.91789">
        <ele>829</ele>
        <time>2022-03-22T12:51:02Z</time>
      </trkpt>
      <trkpt lat="46.65779" lon="5.91796">
        <ele>829.8</ele>
        <time>2022-03-22T12:51:06Z</time>
      </trkpt>
      <trkpt lat="46.65779" lon="5.91805">
        <ele>830.9</ele>
        <time>2022-03-22T12:51:10Z</time>
      </trkpt>
      <trkpt lat="46.65778" lon="5.91812">
        <ele>832</ele>
        <time>2022-03-22T12:51:13Z</time>
      </trkpt>
      <trkpt lat="46.65777" lon="5.91819">
        <ele>833.4</ele>
        <time>2022-03-22T12:51:16Z</time>
      </trkpt>
      <trkpt lat="46.65777" lon="5.91826">
        <ele>834.6</ele>
        <time>2022-03-22T12:51:19Z</time>
      </trkpt>
      <trkpt lat="46.65781" lon="5.91832">
        <ele>836.4</ele>
        <time>2022-03-22T12:51:23Z</time>
      </trkpt>
      <trkpt lat="46.65786" lon="5.91834">
        <ele>837.7</ele>
        <time>2022-03-22T12:51:27Z</time>
      </trkpt>
      <trkpt lat="46.6579" lon="5.91837">
        <ele>838.8</ele>
        <time>2022-03-22T12:51:34Z</time>
      </trkpt>
      <trkpt lat="46.65795" lon="5.91839">
        <ele>838.1</ele>
        <time>2022-03-22T12:51:40Z</time>
      </trkpt>
      <trkpt lat="46.65801" lon="5.91839">
        <ele>837.9</ele>
        <time>2022-03-22T12:51:44Z</time>
      </trkpt>
      <trkpt lat="46.65805" lon="5.91839">
        <ele>837.7</ele>
        <time>2022-03-22T12:51:48Z</time>
      </trkpt>
      <trkpt lat="46.65811" lon="5.9184">
        <ele>837.7</ele>
        <time>2022-03-22T12:51:53Z</time>
      </trkpt>
      <trkpt lat="46.65816" lon="5.91842">
        <ele>836.9</ele>
        <time>2022-03-22T12:51:57Z</time>
      </trkpt>
      <trkpt lat="46.65821" lon="5.91844">
        <ele>836.3</ele>
        <time>2022-03-22T12:52:00Z</time>
      </trkpt>
      <trkpt lat="46.65826" lon="5.91845">
        <ele>836.1</ele>
        <time>2022-03-22T12:52:03Z</time>
      </trkpt>
      <trkpt lat="46.65831" lon="5.91844">
        <ele>836.9</ele>
        <time>2022-03-22T12:52:08Z</time>
      </trkpt>
      <trkpt lat="46.65833" lon="5.91838">
        <ele>837.1</ele>
        <time>2022-03-22T12:52:16Z</time>
      </trkpt>
      <trkpt lat="46.65829" lon="5.91834">
        <ele>834.8</ele>
        <time>2022-03-22T12:52:26Z</time>
      </trkpt>
      <trkpt lat="46.65825" lon="5.91837">
        <ele>834.2</ele>
        <time>2022-03-22T12:52:32Z</time>
      </trkpt>
      <trkpt lat="46.65822" lon="5.91843">
        <ele>832.7</ele>
        <time>2022-03-22T12:52:39Z</time>
      </trkpt>
      <trkpt lat="46.65827" lon="5.91844">
        <ele>831.6</ele>
        <time>2022-03-22T12:52:44Z</time>
      </trkpt>
      <trkpt lat="46.65832" lon="5.91843">
        <ele>831.8</ele>
        <time>2022-03-22T12:52:48Z</time>
      </trkpt>
      <trkpt lat="46.65837" lon="5.91841">
        <ele>832.4</ele>
        <time>2022-03-22T12:52:53Z</time>
      </trkpt>
      <trkpt lat="46.65842" lon="5.91841">
        <ele>829.8</ele>
        <time>2022-03-22T12:53:04Z</time>
      </trkpt>
      <trkpt lat="46.65847" lon="5.91841">
        <ele>829</ele>
        <time>2022-03-22T12:53:09Z</time>
      </trkpt>
      <trkpt lat="46.65852" lon="5.91842">
        <ele>828.5</ele>
        <time>2022-03-22T12:53:14Z</time>
      </trkpt>
      <trkpt lat="46.65857" lon="5.91841">
        <ele>828</ele>
        <time>2022-03-22T12:53:18Z</time>
      </trkpt>
      <trkpt lat="46.65862" lon="5.91842">
        <ele>827.5</ele>
        <time>2022-03-22T12:53:21Z</time>
      </trkpt>
      <trkpt lat="46.65867" lon="5.91842">
        <ele>827.1</ele>
        <time>2022-03-22T12:53:25Z</time>
      </trkpt>
      <trkpt lat="46.65873" lon="5.91843">
        <ele>826.6</ele>
        <time>2022-03-22T12:53:29Z</time>
      </trkpt>
      <trkpt lat="46.65878" lon="5.91844">
        <ele>826.2</ele>
        <time>2022-03-22T12:53:32Z</time>
      </trkpt>
      <trkpt lat="46.65883" lon="5.91845">
        <ele>825.7</ele>
        <time>2022-03-22T12:53:36Z</time>
      </trkpt>
      <trkpt lat="46.65889" lon="5.91845">
        <ele>824.7</ele>
        <time>2022-03-22T12:53:40Z</time>
      </trkpt>
      <trkpt lat="46.65894" lon="5.91845">
        <ele>823.6</ele>
        <time>2022-03-22T12:53:44Z</time>
      </trkpt>
      <trkpt lat="46.65899" lon="5.91846">
        <ele>822.6</ele>
        <time>2022-03-22T12:53:48Z</time>
      </trkpt>
      <trkpt lat="46.65903" lon="5.91847">
        <ele>822</ele>
        <time>2022-03-22T12:53:52Z</time>
      </trkpt>
      <trkpt lat="46.65908" lon="5.91849">
        <ele>821.6</ele>
        <time>2022-03-22T12:53:57Z</time>
      </trkpt>
      <trkpt lat="46.65913" lon="5.91849">
        <ele>821.3</ele>
        <time>2022-03-22T12:54:02Z</time>
      </trkpt>
      <trkpt lat="46.65918" lon="5.91847">
        <ele>820.5</ele>
        <time>2022-03-22T12:54:09Z</time>
      </trkpt>
      <trkpt lat="46.65923" lon="5.91845">
        <ele>820</ele>
        <time>2022-03-22T12:54:14Z</time>
      </trkpt>
      <trkpt lat="46.65927" lon="5.91841">
        <ele>818.6</ele>
        <time>2022-03-22T12:54:21Z</time>
      </trkpt>
      <trkpt lat="46.65932" lon="5.9184">
        <ele>817.3</ele>
        <time>2022-03-22T12:54:26Z</time>
      </trkpt>
      <trkpt lat="46.65937" lon="5.91838">
        <ele>816.7</ele>
        <time>2022-03-22T12:54:31Z</time>
      </trkpt>
      <trkpt lat="46.65941" lon="5.91839">
        <ele>816.3</ele>
        <time>2022-03-22T12:54:39Z</time>
      </trkpt>
      <trkpt lat="46.65946" lon="5.9184">
        <ele>816.2</ele>
        <time>2022-03-22T12:54:45Z</time>
      </trkpt>
      <trkpt lat="46.65951" lon="5.91843">
        <ele>815.8</ele>
        <time>2022-03-22T12:54:49Z</time>
      </trkpt>
      <trkpt lat="46.65956" lon="5.91845">
        <ele>815.6</ele>
        <time>2022-03-22T12:54:53Z</time>
      </trkpt>
      <trkpt lat="46.65961" lon="5.91848">
        <ele>815.1</ele>
        <time>2022-03-22T12:54:57Z</time>
      </trkpt>
      <trkpt lat="46.65966" lon="5.91852">
        <ele>814.5</ele>
        <time>2022-03-22T12:55:01Z</time>
      </trkpt>
      <trkpt lat="46.65969" lon="5.91857">
        <ele>814.1</ele>
        <time>2022-03-22T12:55:04Z</time>
      </trkpt>
      <trkpt lat="46.65972" lon="5.91863">
        <ele>813.4</ele>
        <time>2022-03-22T12:55:09Z</time>
      </trkpt>
      <trkpt lat="46.65976" lon="5.91866">
        <ele>812.7</ele>
        <time>2022-03-22T12:55:14Z</time>
      </trkpt>
      <trkpt lat="46.65978" lon="5.91873">
        <ele>812.1</ele>
        <time>2022-03-22T12:55:22Z</time>
      </trkpt>
      <trkpt lat="46.65979" lon="5.9188">
        <ele>811</ele>
        <time>2022-03-22T12:55:28Z</time>
      </trkpt>
      <trkpt lat="46.6598" lon="5.91886">
        <ele>809.7</ele>
        <time>2022-03-22T12:55:33Z</time>
      </trkpt>
      <trkpt lat="46.65983" lon="5.91892">
        <ele>809.2</ele>
        <time>2022-03-22T12:55:36Z</time>
      </trkpt>
      <trkpt lat="46.65985" lon="5.91898">
        <ele>808.6</ele>
        <time>2022-03-22T12:55:40Z</time>
      </trkpt>
      <trkpt lat="46.65986" lon="5.91905">
        <ele>808.3</ele>
        <time>2022-03-22T12:55:45Z</time>
      </trkpt>
      <trkpt lat="46.65986" lon="5.91913">
        <ele>808.2</ele>
        <time>2022-03-22T12:55:49Z</time>
      </trkpt>
      <trkpt lat="46.65987" lon="5.91921">
        <ele>808.3</ele>
        <time>2022-03-22T12:55:53Z</time>
      </trkpt>
      <trkpt lat="46.65985" lon="5.91927">
        <ele>808.2</ele>
        <time>2022-03-22T12:55:58Z</time>
      </trkpt>
      <trkpt lat="46.65986" lon="5.91934">
        <ele>807</ele>
        <time>2022-03-22T12:56:04Z</time>
      </trkpt>
      <trkpt lat="46.6599" lon="5.9194">
        <ele>805.7</ele>
        <time>2022-03-22T12:56:09Z</time>
      </trkpt>
      <trkpt lat="46.65994" lon="5.91946">
        <ele>805.2</ele>
        <time>2022-03-22T12:56:14Z</time>
      </trkpt>
      <trkpt lat="46.65998" lon="5.91951">
        <ele>805.6</ele>
        <time>2022-03-22T12:56:19Z</time>
      </trkpt>
      <trkpt lat="46.66001" lon="5.91955">
        <ele>806.2</ele>
        <time>2022-03-22T12:56:25Z</time>
      </trkpt>
      <trkpt lat="46.66005" lon="5.91959">
        <ele>805.9</ele>
        <time>2022-03-22T12:56:31Z</time>
      </trkpt>
      <trkpt lat="46.6601" lon="5.91962">
        <ele>804.8</ele>
        <time>2022-03-22T12:56:36Z</time>
      </trkpt>
      <trkpt lat="46.66016" lon="5.91964">
        <ele>803.3</ele>
        <time>2022-03-22T12:56:41Z</time>
      </trkpt>
      <trkpt lat="46.66019" lon="5.91968">
        <ele>801.8</ele>
        <time>2022-03-22T12:56:46Z</time>
      </trkpt>
      <trkpt lat="46.66023" lon="5.91974">
        <ele>800.2</ele>
        <time>2022-03-22T12:56:52Z</time>
      </trkpt>
      <trkpt lat="46.66026" lon="5.91979">
        <ele>799</ele>
        <time>2022-03-22T12:56:56Z</time>
      </trkpt>
      <trkpt lat="46.66027" lon="5.91986">
        <ele>797.3</ele>
        <time>2022-03-22T12:57:01Z</time>
      </trkpt>
      <trkpt lat="46.66026" lon="5.91993">
        <ele>796.1</ele>
        <time>2022-03-22T12:57:06Z</time>
      </trkpt>
      <trkpt lat="46.66025" lon="5.92001">
        <ele>794.8</ele>
        <time>2022-03-22T12:57:12Z</time>
      </trkpt>
      <trkpt lat="46.66024" lon="5.92007">
        <ele>794.1</ele>
        <time>2022-03-22T12:57:17Z</time>
      </trkpt>
      <trkpt lat="46.66024" lon="5.92014">
        <ele>793.7</ele>
        <time>2022-03-22T12:57:22Z</time>
      </trkpt>
      <trkpt lat="46.66022" lon="5.9202">
        <ele>792.8</ele>
        <time>2022-03-22T12:57:27Z</time>
      </trkpt>
      <trkpt lat="46.66019" lon="5.92026">
        <ele>791.9</ele>
        <time>2022-03-22T12:57:31Z</time>
      </trkpt>
      <trkpt lat="46.66016" lon="5.92033">
        <ele>791.1</ele>
        <time>2022-03-22T12:57:35Z</time>
      </trkpt>
      <trkpt lat="46.66014" lon="5.92039">
        <ele>790.6</ele>
        <time>2022-03-22T12:57:39Z</time>
      </trkpt>
      <trkpt lat="46.6601" lon="5.92044">
        <ele>790.7</ele>
        <time>2022-03-22T12:57:45Z</time>
      </trkpt>
      <trkpt lat="46.66008" lon="5.92051">
        <ele>793.1</ele>
        <time>2022-03-22T12:57:55Z</time>
      </trkpt>
      <trkpt lat="46.66012" lon="5.92055">
        <ele>794</ele>
        <time>2022-03-22T12:58:04Z</time>
      </trkpt>
      <trkpt lat="46.66018" lon="5.92057">
        <ele>795.2</ele>
        <time>2022-03-22T12:58:08Z</time>
      </trkpt>
      <trkpt lat="46.66023" lon="5.9206">
        <ele>796.2</ele>
        <time>2022-03-22T12:58:11Z</time>
      </trkpt>
      <trkpt lat="46.66028" lon="5.92061">
        <ele>797</ele>
        <time>2022-03-22T12:58:14Z</time>
      </trkpt>
      <trkpt lat="46.66033" lon="5.92061">
        <ele>797.5</ele>
        <time>2022-03-22T12:58:18Z</time>
      </trkpt>
      <trkpt lat="46.66038" lon="5.92062">
        <ele>798</ele>
        <time>2022-03-22T12:58:21Z</time>
      </trkpt>
      <trkpt lat="46.66043" lon="5.92063">
        <ele>798.9</ele>
        <time>2022-03-22T12:58:24Z</time>
      </trkpt>
      <trkpt lat="46.6605" lon="5.92064">
        <ele>800.4</ele>
        <time>2022-03-22T12:58:27Z</time>
      </trkpt>
      <trkpt lat="46.66056" lon="5.92064">
        <ele>802.3</ele>
        <time>2022-03-22T12:58:30Z</time>
      </trkpt>
      <trkpt lat="46.66063" lon="5.92062">
        <ele>803.8</ele>
        <time>2022-03-22T12:58:33Z</time>
      </trkpt>
      <trkpt lat="46.66069" lon="5.92061">
        <ele>805.3</ele>
        <time>2022-03-22T12:58:36Z</time>
      </trkpt>
      <trkpt lat="46.66074" lon="5.9206">
        <ele>807.4</ele>
        <time>2022-03-22T12:58:41Z</time>
      </trkpt>
      <trkpt lat="46.66079" lon="5.92059">
        <ele>809.7</ele>
        <time>2022-03-22T12:58:47Z</time>
      </trkpt>
      <trkpt lat="46.66084" lon="5.92059">
        <ele>810.8</ele>
        <time>2022-03-22T12:58:52Z</time>
      </trkpt>
      <trkpt lat="46.66089" lon="5.9206">
        <ele>811.2</ele>
        <time>2022-03-22T12:58:58Z</time>
      </trkpt>
      <trkpt lat="46.66094" lon="5.92062">
        <ele>810.7</ele>
        <time>2022-03-22T12:59:02Z</time>
      </trkpt>
      <trkpt lat="46.66099" lon="5.92064">
        <ele>810</ele>
        <time>2022-03-22T12:59:06Z</time>
      </trkpt>
      <trkpt lat="46.66103" lon="5.92066">
        <ele>808.8</ele>
        <time>2022-03-22T12:59:10Z</time>
      </trkpt>
      <trkpt lat="46.66107" lon="5.9207">
        <ele>807.9</ele>
        <time>2022-03-22T12:59:14Z</time>
      </trkpt>
      <trkpt lat="46.6611" lon="5.92075">
        <ele>806.2</ele>
        <time>2022-03-22T12:59:20Z</time>
      </trkpt>
      <trkpt lat="46.66112" lon="5.92082">
        <ele>804.2</ele>
        <time>2022-03-22T12:59:25Z</time>
      </trkpt>
      <trkpt lat="46.66116" lon="5.92085">
        <ele>801.1</ele>
        <time>2022-03-22T12:59:39Z</time>
      </trkpt>
      <trkpt lat="46.66119" lon="5.92091">
        <ele>799.5</ele>
        <time>2022-03-22T12:59:47Z</time>
      </trkpt>
      <trkpt lat="46.66123" lon="5.92095">
        <ele>799</ele>
        <time>2022-03-22T12:59:56Z</time>
      </trkpt>
      <trkpt lat="46.66129" lon="5.92096">
        <ele>797.8</ele>
        <time>2022-03-22T13:00:00Z</time>
      </trkpt>
      <trkpt lat="46.66134" lon="5.92095">
        <ele>796.5</ele>
        <time>2022-03-22T13:00:04Z</time>
      </trkpt>
      <trkpt lat="46.66139" lon="5.92095">
        <ele>795.9</ele>
        <time>2022-03-22T13:00:08Z</time>
      </trkpt>
      <trkpt lat="46.66144" lon="5.92098">
        <ele>795.3</ele>
        <time>2022-03-22T13:00:11Z</time>
      </trkpt>
      <trkpt lat="46.6615" lon="5.92102">
        <ele>794.8</ele>
        <time>2022-03-22T13:00:14Z</time>
      </trkpt>
      <trkpt lat="46.66155" lon="5.92105">
        <ele>795</ele>
        <time>2022-03-22T13:00:17Z</time>
      </trkpt>
      <trkpt lat="46.66156" lon="5.92112">
        <ele>795.5</ele>
        <time>2022-03-22T13:00:20Z</time>
      </trkpt>
      <trkpt lat="46.66159" lon="5.92117">
        <ele>795.8</ele>
        <time>2022-03-22T13:00:26Z</time>
      </trkpt>
      <trkpt lat="46.66162" lon="5.92123">
        <ele>796</ele>
        <time>2022-03-22T13:00:30Z</time>
      </trkpt>
      <trkpt lat="46.66164" lon="5.92129">
        <ele>796</ele>
        <time>2022-03-22T13:00:34Z</time>
      </trkpt>
      <trkpt lat="46.66166" lon="5.92135">
        <ele>795.7</ele>
        <time>2022-03-22T13:00:38Z</time>
      </trkpt>
      <trkpt lat="46.66167" lon="5.92143">
        <ele>795.4</ele>
        <time>2022-03-22T13:00:41Z</time>
      </trkpt>
      <trkpt lat="46.66169" lon="5.9215">
        <ele>795.1</ele>
        <time>2022-03-22T13:00:44Z</time>
      </trkpt>
      <trkpt lat="46.66171" lon="5.92157">
        <ele>795.3</ele>
        <time>2022-03-22T13:00:47Z</time>
      </trkpt>
      <trkpt lat="46.66173" lon="5.92164">
        <ele>795.8</ele>
        <time>2022-03-22T13:00:51Z</time>
      </trkpt>
      <trkpt lat="46.66175" lon="5.92171">
        <ele>796.7</ele>
        <time>2022-03-22T13:00:55Z</time>
      </trkpt>
      <trkpt lat="46.66178" lon="5.92176">
        <ele>798</ele>
        <time>2022-03-22T13:00:58Z</time>
      </trkpt>
      <trkpt lat="46.66182" lon="5.92181">
        <ele>799.7</ele>
        <time>2022-03-22T13:01:02Z</time>
      </trkpt>
      <trkpt lat="46.66184" lon="5.92188">
        <ele>801.1</ele>
        <time>2022-03-22T13:01:07Z</time>
      </trkpt>
      <trkpt lat="46.66184" lon="5.92195">
        <ele>801.4</ele>
        <time>2022-03-22T13:01:10Z</time>
      </trkpt>
      <trkpt lat="46.66185" lon="5.92202">
        <ele>801.3</ele>
        <time>2022-03-22T13:01:13Z</time>
      </trkpt>
      <trkpt lat="46.66188" lon="5.92206">
        <ele>799.8</ele>
        <time>2022-03-22T13:01:18Z</time>
      </trkpt>
      <trkpt lat="46.66192" lon="5.9221">
        <ele>798.6</ele>
        <time>2022-03-22T13:01:23Z</time>
      </trkpt>
      <trkpt lat="46.66196" lon="5.92215">
        <ele>798.6</ele>
        <time>2022-03-22T13:01:28Z</time>
      </trkpt>
      <trkpt lat="46.662" lon="5.92219">
        <ele>799.2</ele>
        <time>2022-03-22T13:01:32Z</time>
      </trkpt>
      <trkpt lat="46.66203" lon="5.92224">
        <ele>799.5</ele>
        <time>2022-03-22T13:01:37Z</time>
      </trkpt>
      <trkpt lat="46.66201" lon="5.92233">
        <ele>798.8</ele>
        <time>2022-03-22T13:01:40Z</time>
      </trkpt>
      <trkpt lat="46.66201" lon="5.92241">
        <ele>797.3</ele>
        <time>2022-03-22T13:01:44Z</time>
      </trkpt>
      <trkpt lat="46.662" lon="5.92248">
        <ele>796.4</ele>
        <time>2022-03-22T13:01:47Z</time>
      </trkpt>
      <trkpt lat="46.66198" lon="5.92255">
        <ele>795.3</ele>
        <time>2022-03-22T13:01:50Z</time>
      </trkpt>
      <trkpt lat="46.66196" lon="5.92261">
        <ele>793.8</ele>
        <time>2022-03-22T13:01:54Z</time>
      </trkpt>
      <trkpt lat="46.66195" lon="5.92268">
        <ele>792.5</ele>
        <time>2022-03-22T13:01:58Z</time>
      </trkpt>
      <trkpt lat="46.66192" lon="5.92276">
        <ele>791.7</ele>
        <time>2022-03-22T13:02:02Z</time>
      </trkpt>
      <trkpt lat="46.6619" lon="5.92283">
        <ele>791.3</ele>
        <time>2022-03-22T13:02:06Z</time>
      </trkpt>
      <trkpt lat="46.66188" lon="5.92289">
        <ele>789.9</ele>
        <time>2022-03-22T13:02:11Z</time>
      </trkpt>
      <trkpt lat="46.66185" lon="5.92296">
        <ele>788.2</ele>
        <time>2022-03-22T13:02:15Z</time>
      </trkpt>
      <trkpt lat="46.66182" lon="5.92302">
        <ele>785.4</ele>
        <time>2022-03-22T13:02:21Z</time>
      </trkpt>
      <trkpt lat="46.66181" lon="5.92308">
        <ele>783.2</ele>
        <time>2022-03-22T13:02:26Z</time>
      </trkpt>
      <trkpt lat="46.66181" lon="5.92315">
        <ele>780.8</ele>
        <time>2022-03-22T13:02:31Z</time>
      </trkpt>
      <trkpt lat="46.66182" lon="5.92322">
        <ele>778.3</ele>
        <time>2022-03-22T13:02:37Z</time>
      </trkpt>
      <trkpt lat="46.66184" lon="5.92329">
        <ele>776.7</ele>
        <time>2022-03-22T13:02:42Z</time>
      </trkpt>
      <trkpt lat="46.66189" lon="5.92334">
        <ele>776.3</ele>
        <time>2022-03-22T13:02:45Z</time>
      </trkpt>
      <trkpt lat="46.66194" lon="5.92337">
        <ele>776.2</ele>
        <time>2022-03-22T13:02:48Z</time>
      </trkpt>
      <trkpt lat="46.66198" lon="5.92341">
        <ele>776</ele>
        <time>2022-03-22T13:02:53Z</time>
      </trkpt>
      <trkpt lat="46.662" lon="5.92347">
        <ele>776</ele>
        <time>2022-03-22T13:02:59Z</time>
      </trkpt>
      <trkpt lat="46.66195" lon="5.92352">
        <ele>776.5</ele>
        <time>2022-03-22T13:03:05Z</time>
      </trkpt>
      <trkpt lat="46.66193" lon="5.92358">
        <ele>777.2</ele>
        <time>2022-03-22T13:03:09Z</time>
      </trkpt>
      <trkpt lat="46.66195" lon="5.92365">
        <ele>777.5</ele>
        <time>2022-03-22T13:03:16Z</time>
      </trkpt>
      <trkpt lat="46.66198" lon="5.92371">
        <ele>776.5</ele>
        <time>2022-03-22T13:03:21Z</time>
      </trkpt>
      <trkpt lat="46.662" lon="5.92378">
        <ele>774.9</ele>
        <time>2022-03-22T13:03:30Z</time>
      </trkpt>
      <trkpt lat="46.66204" lon="5.92375">
        <ele>774.2</ele>
        <time>2022-03-22T13:03:35Z</time>
      </trkpt>
      <trkpt lat="46.662" lon="5.92369">
        <ele>773.7</ele>
        <time>2022-03-22T13:03:41Z</time>
      </trkpt>
      <trkpt lat="46.66199" lon="5.92361">
        <ele>774.8</ele>
        <time>2022-03-22T13:03:46Z</time>
      </trkpt>
      <trkpt lat="46.66198" lon="5.92354">
        <ele>776</ele>
        <time>2022-03-22T13:03:50Z</time>
      </trkpt>
      <trkpt lat="46.66193" lon="5.92355">
        <ele>777.5</ele>
        <time>2022-03-22T13:03:55Z</time>
      </trkpt>
      <trkpt lat="46.66196" lon="5.9235">
        <ele>779</ele>
        <time>2022-03-22T13:04:04Z</time>
      </trkpt>
      <trkpt lat="46.662" lon="5.92345">
        <ele>778.3</ele>
        <time>2022-03-22T13:04:08Z</time>
      </trkpt>
      <trkpt lat="46.66203" lon="5.92339">
        <ele>776.6</ele>
        <time>2022-03-22T13:04:12Z</time>
      </trkpt>
      <trkpt lat="46.66203" lon="5.92332">
        <ele>774.9</ele>
        <time>2022-03-22T13:04:16Z</time>
      </trkpt>
      <trkpt lat="46.66199" lon="5.92328">
        <ele>773.2</ele>
        <time>2022-03-22T13:04:22Z</time>
      </trkpt>
      <trkpt lat="46.66192" lon="5.92325">
        <ele>772.6</ele>
        <time>2022-03-22T13:04:30Z</time>
      </trkpt>
      <trkpt lat="46.66191" lon="5.9232">
        <ele>772.2</ele>
        <time>2022-03-22T13:04:59Z</time>
      </trkpt>
      <trkpt lat="46.66188" lon="5.92312">
        <ele>772.3</ele>
        <time>2022-03-22T13:05:07Z</time>
      </trkpt>
      <trkpt lat="46.66185" lon="5.92305">
        <ele>772.6</ele>
        <time>2022-03-22T13:05:11Z</time>
      </trkpt>
      <trkpt lat="46.66184" lon="5.92298">
        <ele>772.8</ele>
        <time>2022-03-22T13:05:15Z</time>
      </trkpt>
      <trkpt lat="46.66182" lon="5.92291">
        <ele>773.8</ele>
        <time>2022-03-22T13:05:20Z</time>
      </trkpt>
      <trkpt lat="46.66186" lon="5.92288">
        <ele>775.2</ele>
        <time>2022-03-22T13:05:25Z</time>
      </trkpt>
      <trkpt lat="46.6619" lon="5.92283">
        <ele>777</ele>
        <time>2022-03-22T13:05:28Z</time>
      </trkpt>
      <trkpt lat="46.66193" lon="5.92277">
        <ele>778.7</ele>
        <time>2022-03-22T13:05:32Z</time>
      </trkpt>
      <trkpt lat="46.66196" lon="5.92271">
        <ele>779.9</ele>
        <time>2022-03-22T13:05:37Z</time>
      </trkpt>
      <trkpt lat="46.66197" lon="5.92264">
        <ele>782.4</ele>
        <time>2022-03-22T13:05:45Z</time>
      </trkpt>
      <trkpt lat="46.66198" lon="5.92257">
        <ele>786.6</ele>
        <time>2022-03-22T13:05:53Z</time>
      </trkpt>
      <trkpt lat="46.662" lon="5.92251">
        <ele>791</ele>
        <time>2022-03-22T13:06:03Z</time>
      </trkpt>
      <trkpt lat="46.66201" lon="5.92243">
        <ele>793</ele>
        <time>2022-03-22T13:06:10Z</time>
      </trkpt>
      <trkpt lat="46.66204" lon="5.92236">
        <ele>793.9</ele>
        <time>2022-03-22T13:06:14Z</time>
      </trkpt>
      <trkpt lat="46.66206" lon="5.92229">
        <ele>794.9</ele>
        <time>2022-03-22T13:06:19Z</time>
      </trkpt>
      <trkpt lat="46.6621" lon="5.92225">
        <ele>795.6</ele>
        <time>2022-03-22T13:06:26Z</time>
      </trkpt>
      <trkpt lat="46.66212" lon="5.92219">
        <ele>795.7</ele>
        <time>2022-03-22T13:06:30Z</time>
      </trkpt>
      <trkpt lat="46.66213" lon="5.92212">
        <ele>795.9</ele>
        <time>2022-03-22T13:06:35Z</time>
      </trkpt>
      <trkpt lat="46.66212" lon="5.92205">
        <ele>796.3</ele>
        <time>2022-03-22T13:06:41Z</time>
      </trkpt>
      <trkpt lat="46.66209" lon="5.92199">
        <ele>797</ele>
        <time>2022-03-22T13:06:47Z</time>
      </trkpt>
      <trkpt lat="46.66205" lon="5.92185">
        <ele>798.8</ele>
        <time>2022-03-22T13:07:08Z</time>
      </trkpt>
      <trkpt lat="46.66204" lon="5.92177">
        <ele>797.5</ele>
        <time>2022-03-22T13:07:12Z</time>
      </trkpt>
      <trkpt lat="46.662" lon="5.92171">
        <ele>794.8</ele>
        <time>2022-03-22T13:07:20Z</time>
      </trkpt>
      <trkpt lat="46.66196" lon="5.92166">
        <ele>794.6</ele>
        <time>2022-03-22T13:07:23Z</time>
      </trkpt>
      <trkpt lat="46.66194" lon="5.92159">
        <ele>795</ele>
        <time>2022-03-22T13:07:26Z</time>
      </trkpt>
      <trkpt lat="46.66195" lon="5.92152">
        <ele>795.8</ele>
        <time>2022-03-22T13:07:30Z</time>
      </trkpt>
      <trkpt lat="46.66198" lon="5.92143">
        <ele>796.2</ele>
        <time>2022-03-22T13:07:34Z</time>
      </trkpt>
      <trkpt lat="46.66199" lon="5.92136">
        <ele>796.5</ele>
        <time>2022-03-22T13:07:37Z</time>
      </trkpt>
      <trkpt lat="46.66201" lon="5.92129">
        <ele>796.4</ele>
        <time>2022-03-22T13:07:42Z</time>
      </trkpt>
      <trkpt lat="46.66197" lon="5.92124">
        <ele>794.6</ele>
        <time>2022-03-22T13:07:51Z</time>
      </trkpt>
      <trkpt lat="46.662" lon="5.92119">
        <ele>793.9</ele>
        <time>2022-03-22T13:08:01Z</time>
      </trkpt>
      <trkpt lat="46.66203" lon="5.92114">
        <ele>793.9</ele>
        <time>2022-03-22T13:08:05Z</time>
      </trkpt>
      <trkpt lat="46.66207" lon="5.9211">
        <ele>793.9</ele>
        <time>2022-03-22T13:08:09Z</time>
      </trkpt>
      <trkpt lat="46.66213" lon="5.92105">
        <ele>794</ele>
        <time>2022-03-22T13:08:12Z</time>
      </trkpt>
      <trkpt lat="46.66218" lon="5.921">
        <ele>794.2</ele>
        <time>2022-03-22T13:08:16Z</time>
      </trkpt>
      <trkpt lat="46.66223" lon="5.92096">
        <ele>794.5</ele>
        <time>2022-03-22T13:08:19Z</time>
      </trkpt>
      <trkpt lat="46.66226" lon="5.9209">
        <ele>794.8</ele>
        <time>2022-03-22T13:08:23Z</time>
      </trkpt>
      <trkpt lat="46.66228" lon="5.92084">
        <ele>795.3</ele>
        <time>2022-03-22T13:08:26Z</time>
      </trkpt>
      <trkpt lat="46.66229" lon="5.92078">
        <ele>795.8</ele>
        <time>2022-03-22T13:08:33Z</time>
      </trkpt>
      <trkpt lat="46.66233" lon="5.92075">
        <ele>796.8</ele>
        <time>2022-03-22T13:08:39Z</time>
      </trkpt>
      <trkpt lat="46.66237" lon="5.92069">
        <ele>799.1</ele>
        <time>2022-03-22T13:08:46Z</time>
      </trkpt>
      <trkpt lat="46.6624" lon="5.92065">
        <ele>801.1</ele>
        <time>2022-03-22T13:08:50Z</time>
      </trkpt>
      <trkpt lat="46.66246" lon="5.9206">
        <ele>803.7</ele>
        <time>2022-03-22T13:08:55Z</time>
      </trkpt>
      <trkpt lat="46.66249" lon="5.92056">
        <ele>805.5</ele>
        <time>2022-03-22T13:08:58Z</time>
      </trkpt>
      <trkpt lat="46.66254" lon="5.92054">
        <ele>808.9</ele>
        <time>2022-03-22T13:09:05Z</time>
      </trkpt>
      <trkpt lat="46.66258" lon="5.92049">
        <ele>809</ele>
        <time>2022-03-22T13:09:22Z</time>
      </trkpt>
      <trkpt lat="46.66263" lon="5.92043">
        <ele>808.1</ele>
        <time>2022-03-22T13:09:26Z</time>
      </trkpt>
      <trkpt lat="46.66266" lon="5.92037">
        <ele>806.6</ele>
        <time>2022-03-22T13:09:29Z</time>
      </trkpt>
      <trkpt lat="46.6627" lon="5.92033">
        <ele>805</ele>
        <time>2022-03-22T13:09:32Z</time>
      </trkpt>
      <trkpt lat="46.66274" lon="5.92028">
        <ele>803.4</ele>
        <time>2022-03-22T13:09:35Z</time>
      </trkpt>
      <trkpt lat="46.66278" lon="5.92024">
        <ele>802.5</ele>
        <time>2022-03-22T13:09:38Z</time>
      </trkpt>
      <trkpt lat="46.66283" lon="5.92022">
        <ele>801.8</ele>
        <time>2022-03-22T13:09:41Z</time>
      </trkpt>
      <trkpt lat="46.66286" lon="5.92017">
        <ele>801.3</ele>
        <time>2022-03-22T13:09:50Z</time>
      </trkpt>
      <trkpt lat="46.6629" lon="5.92011">
        <ele>801.1</ele>
        <time>2022-03-22T13:09:54Z</time>
      </trkpt>
      <trkpt lat="46.66294" lon="5.92005">
        <ele>801.2</ele>
        <time>2022-03-22T13:09:57Z</time>
      </trkpt>
      <trkpt lat="46.66297" lon="5.92001">
        <ele>801.7</ele>
        <time>2022-03-22T13:10:00Z</time>
      </trkpt>
      <trkpt lat="46.66301" lon="5.91997">
        <ele>802.3</ele>
        <time>2022-03-22T13:10:03Z</time>
      </trkpt>
      <trkpt lat="46.66307" lon="5.91995">
        <ele>802.8</ele>
        <time>2022-03-22T13:10:07Z</time>
      </trkpt>
      <trkpt lat="46.66311" lon="5.91993">
        <ele>802.6</ele>
        <time>2022-03-22T13:10:11Z</time>
      </trkpt>
      <trkpt lat="46.66316" lon="5.91991">
        <ele>800.4</ele>
        <time>2022-03-22T13:10:26Z</time>
      </trkpt>
      <trkpt lat="46.6632" lon="5.91989">
        <ele>799.2</ele>
        <time>2022-03-22T13:10:30Z</time>
      </trkpt>
      <trkpt lat="46.66326" lon="5.91988">
        <ele>798.8</ele>
        <time>2022-03-22T13:10:34Z</time>
      </trkpt>
      <trkpt lat="46.66331" lon="5.91986">
        <ele>798.6</ele>
        <time>2022-03-22T13:10:37Z</time>
      </trkpt>
      <trkpt lat="46.66336" lon="5.91984">
        <ele>798.5</ele>
        <time>2022-03-22T13:10:43Z</time>
      </trkpt>
      <trkpt lat="46.6634" lon="5.9198">
        <ele>798.7</ele>
        <time>2022-03-22T13:10:47Z</time>
      </trkpt>
      <trkpt lat="46.66343" lon="5.91974">
        <ele>797.9</ele>
        <time>2022-03-22T13:10:51Z</time>
      </trkpt>
      <trkpt lat="46.66347" lon="5.9197">
        <ele>796.6</ele>
        <time>2022-03-22T13:10:55Z</time>
      </trkpt>
      <trkpt lat="46.6635" lon="5.91965">
        <ele>794.8</ele>
        <time>2022-03-22T13:11:01Z</time>
      </trkpt>
      <trkpt lat="46.66355" lon="5.91965">
        <ele>794</ele>
        <time>2022-03-22T13:11:05Z</time>
      </trkpt>
      <trkpt lat="46.6636" lon="5.91967">
        <ele>792.5</ele>
        <time>2022-03-22T13:11:09Z</time>
      </trkpt>
      <trkpt lat="46.66366" lon="5.91967">
        <ele>788.2</ele>
        <time>2022-03-22T13:11:18Z</time>
      </trkpt>
      <trkpt lat="46.66371" lon="5.91964">
        <ele>785.9</ele>
        <time>2022-03-22T13:11:23Z</time>
      </trkpt>
      <trkpt lat="46.66376" lon="5.91961">
        <ele>784.6</ele>
        <time>2022-03-22T13:11:26Z</time>
      </trkpt>
      <trkpt lat="46.6638" lon="5.91957">
        <ele>783.7</ele>
        <time>2022-03-22T13:11:29Z</time>
      </trkpt>
      <trkpt lat="46.66385" lon="5.91955">
        <ele>782.6</ele>
        <time>2022-03-22T13:11:33Z</time>
      </trkpt>
      <trkpt lat="46.66389" lon="5.9196">
        <ele>779.5</ele>
        <time>2022-03-22T13:11:40Z</time>
      </trkpt>
      <trkpt lat="46.66392" lon="5.91955">
        <ele>774.5</ele>
        <time>2022-03-22T13:12:09Z</time>
      </trkpt>
      <trkpt lat="46.66395" lon="5.9195">
        <ele>774</ele>
        <time>2022-03-22T13:12:14Z</time>
      </trkpt>
      <trkpt lat="46.664" lon="5.91948">
        <ele>774.7</ele>
        <time>2022-03-22T13:12:22Z</time>
      </trkpt>
      <trkpt lat="46.66405" lon="5.91946">
        <ele>774.8</ele>
        <time>2022-03-22T13:12:26Z</time>
      </trkpt>
      <trkpt lat="46.6641" lon="5.91942">
        <ele>775</ele>
        <time>2022-03-22T13:12:29Z</time>
      </trkpt>
      <trkpt lat="46.66415" lon="5.91941">
        <ele>774</ele>
        <time>2022-03-22T13:12:39Z</time>
      </trkpt>
      <trkpt lat="46.66419" lon="5.9194">
        <ele>773.5</ele>
        <time>2022-03-22T13:12:44Z</time>
      </trkpt>
      <trkpt lat="46.66424" lon="5.91937">
        <ele>773.2</ele>
        <time>2022-03-22T13:12:49Z</time>
      </trkpt>
      <trkpt lat="46.66428" lon="5.91932">
        <ele>772.7</ele>
        <time>2022-03-22T13:12:54Z</time>
      </trkpt>
      <trkpt lat="46.66432" lon="5.91929">
        <ele>772.4</ele>
        <time>2022-03-22T13:12:59Z</time>
      </trkpt>
      <trkpt lat="46.66437" lon="5.91929">
        <ele>772.4</ele>
        <time>2022-03-22T13:13:04Z</time>
      </trkpt>
      <trkpt lat="46.66442" lon="5.91923">
        <ele>772.1</ele>
        <time>2022-03-22T13:13:16Z</time>
      </trkpt>
      <trkpt lat="46.66448" lon="5.91916">
        <ele>771.5</ele>
        <time>2022-03-22T13:13:19Z</time>
      </trkpt>
      <trkpt lat="46.66452" lon="5.91911">
        <ele>771.1</ele>
        <time>2022-03-22T13:13:22Z</time>
      </trkpt>
      <trkpt lat="46.66452" lon="5.91905">
        <ele>769.6</ele>
        <time>2022-03-22T13:13:34Z</time>
      </trkpt>
      <trkpt lat="46.66455" lon="5.91897">
        <ele>769.4</ele>
        <time>2022-03-22T13:13:39Z</time>
      </trkpt>
      <trkpt lat="46.66458" lon="5.91893">
        <ele>769.1</ele>
        <time>2022-03-22T13:13:45Z</time>
      </trkpt>
      <trkpt lat="46.66463" lon="5.9189">
        <ele>768.6</ele>
        <time>2022-03-22T13:13:51Z</time>
      </trkpt>
      <trkpt lat="46.66468" lon="5.91887">
        <ele>768.1</ele>
        <time>2022-03-22T13:13:56Z</time>
      </trkpt>
      <trkpt lat="46.66471" lon="5.9188">
        <ele>767.9</ele>
        <time>2022-03-22T13:14:02Z</time>
      </trkpt>
      <trkpt lat="46.66473" lon="5.91874">
        <ele>767.8</ele>
        <time>2022-03-22T13:14:05Z</time>
      </trkpt>
      <trkpt lat="46.66477" lon="5.91867">
        <ele>768.2</ele>
        <time>2022-03-22T13:14:09Z</time>
      </trkpt>
      <trkpt lat="46.6648" lon="5.91862">
        <ele>768.8</ele>
        <time>2022-03-22T13:14:12Z</time>
      </trkpt>
      <trkpt lat="46.66484" lon="5.91856">
        <ele>769.8</ele>
        <time>2022-03-22T13:14:17Z</time>
      </trkpt>
      <trkpt lat="46.66488" lon="5.91853">
        <ele>770.3</ele>
        <time>2022-03-22T13:14:25Z</time>
      </trkpt>
      <trkpt lat="46.66492" lon="5.91851">
        <ele>769.6</ele>
        <time>2022-03-22T13:14:38Z</time>
      </trkpt>
      <trkpt lat="46.66497" lon="5.91852">
        <ele>769.4</ele>
        <time>2022-03-22T13:14:41Z</time>
      </trkpt>
      <trkpt lat="46.66503" lon="5.91852">
        <ele>768.4</ele>
        <time>2022-03-22T13:14:45Z</time>
      </trkpt>
      <trkpt lat="46.66507" lon="5.9185">
        <ele>766.3</ele>
        <time>2022-03-22T13:14:52Z</time>
      </trkpt>
      <trkpt lat="46.66513" lon="5.91848">
        <ele>763.7</ele>
        <time>2022-03-22T13:15:01Z</time>
      </trkpt>
      <trkpt lat="46.66517" lon="5.91846">
        <ele>762.7</ele>
        <time>2022-03-22T13:15:06Z</time>
      </trkpt>
      <trkpt lat="46.66522" lon="5.91846">
        <ele>761.8</ele>
        <time>2022-03-22T13:15:11Z</time>
      </trkpt>
      <trkpt lat="46.66528" lon="5.91848">
        <ele>760.8</ele>
        <time>2022-03-22T13:15:16Z</time>
      </trkpt>
      <trkpt lat="46.66533" lon="5.91845">
        <ele>760.7</ele>
        <time>2022-03-22T13:15:21Z</time>
      </trkpt>
      <trkpt lat="46.66537" lon="5.9184">
        <ele>760.8</ele>
        <time>2022-03-22T13:15:26Z</time>
      </trkpt>
      <trkpt lat="46.66541" lon="5.91837">
        <ele>761.6</ele>
        <time>2022-03-22T13:15:32Z</time>
      </trkpt>
      <trkpt lat="46.66543" lon="5.91832">
        <ele>762.4</ele>
        <time>2022-03-22T13:15:37Z</time>
      </trkpt>
      <trkpt lat="46.66548" lon="5.91827">
        <ele>763.6</ele>
        <time>2022-03-22T13:15:42Z</time>
      </trkpt>
      <trkpt lat="46.66552" lon="5.91823">
        <ele>764.1</ele>
        <time>2022-03-22T13:15:46Z</time>
      </trkpt>
      <trkpt lat="46.66557" lon="5.91818">
        <ele>764.5</ele>
        <time>2022-03-22T13:15:50Z</time>
      </trkpt>
      <trkpt lat="46.66561" lon="5.91812">
        <ele>764.7</ele>
        <time>2022-03-22T13:15:53Z</time>
      </trkpt>
      <trkpt lat="46.66564" lon="5.91807">
        <ele>765.6</ele>
        <time>2022-03-22T13:15:58Z</time>
      </trkpt>
      <trkpt lat="46.66568" lon="5.91802">
        <ele>767.2</ele>
        <time>2022-03-22T13:16:06Z</time>
      </trkpt>
      <trkpt lat="46.66573" lon="5.918">
        <ele>767.7</ele>
        <time>2022-03-22T13:16:13Z</time>
      </trkpt>
      <trkpt lat="46.66577" lon="5.91796">
        <ele>766.9</ele>
        <time>2022-03-22T13:16:23Z</time>
      </trkpt>
      <trkpt lat="46.66581" lon="5.91792">
        <ele>766.1</ele>
        <time>2022-03-22T13:16:30Z</time>
      </trkpt>
      <trkpt lat="46.66584" lon="5.91786">
        <ele>765.4</ele>
        <time>2022-03-22T13:16:37Z</time>
      </trkpt>
      <trkpt lat="46.66589" lon="5.91786">
        <ele>765.6</ele>
        <time>2022-03-22T13:16:44Z</time>
      </trkpt>
      <trkpt lat="46.66594" lon="5.91785">
        <ele>765.7</ele>
        <time>2022-03-22T13:16:48Z</time>
      </trkpt>
      <trkpt lat="46.66598" lon="5.91784">
        <ele>765.7</ele>
        <time>2022-03-22T13:16:52Z</time>
      </trkpt>
      <trkpt lat="46.66603" lon="5.91783">
        <ele>765.8</ele>
        <time>2022-03-22T13:16:56Z</time>
      </trkpt>
      <trkpt lat="46.66608" lon="5.9178">
        <ele>766.1</ele>
        <time>2022-03-22T13:17:01Z</time>
      </trkpt>
      <trkpt lat="46.66612" lon="5.91776">
        <ele>766.6</ele>
        <time>2022-03-22T13:17:07Z</time>
      </trkpt>
      <trkpt lat="46.66616" lon="5.91772">
        <ele>767</ele>
        <time>2022-03-22T13:17:12Z</time>
      </trkpt>
      <trkpt lat="46.6662" lon="5.91769">
        <ele>767.4</ele>
        <time>2022-03-22T13:17:17Z</time>
      </trkpt>
      <trkpt lat="46.66624" lon="5.91766">
        <ele>768</ele>
        <time>2022-03-22T13:17:26Z</time>
      </trkpt>
      <trkpt lat="46.66624" lon="5.91758">
        <ele>769.8</ele>
        <time>2022-03-22T13:17:34Z</time>
      </trkpt>
      <trkpt lat="46.66633" lon="5.9175">
        <ele>769.8</ele>
        <time>2022-03-22T13:17:37Z</time>
      </trkpt>
      <trkpt lat="46.66639" lon="5.91745">
        <ele>769.7</ele>
        <time>2022-03-22T13:17:40Z</time>
      </trkpt>
      <trkpt lat="46.66645" lon="5.91743">
        <ele>769.6</ele>
        <time>2022-03-22T13:17:45Z</time>
      </trkpt>
      <trkpt lat="46.66649" lon="5.91741">
        <ele>770</ele>
        <time>2022-03-22T13:17:51Z</time>
      </trkpt>
      <trkpt lat="46.66655" lon="5.91735">
        <ele>770.5</ele>
        <time>2022-03-22T13:18:00Z</time>
      </trkpt>
      <trkpt lat="46.66662" lon="5.9173">
        <ele>770.9</ele>
        <time>2022-03-22T13:18:03Z</time>
      </trkpt>
      <trkpt lat="46.66667" lon="5.91728">
        <ele>771.3</ele>
        <time>2022-03-22T13:18:07Z</time>
      </trkpt>
      <trkpt lat="46.66671" lon="5.91727">
        <ele>771.7</ele>
        <time>2022-03-22T13:18:10Z</time>
      </trkpt>
      <trkpt lat="46.66676" lon="5.91726">
        <ele>772.2</ele>
        <time>2022-03-22T13:18:14Z</time>
      </trkpt>
      <trkpt lat="46.66681" lon="5.91725">
        <ele>773</ele>
        <time>2022-03-22T13:18:19Z</time>
      </trkpt>
      <trkpt lat="46.66685" lon="5.91723">
        <ele>774.4</ele>
        <time>2022-03-22T13:18:25Z</time>
      </trkpt>
      <trkpt lat="46.6669" lon="5.91721">
        <ele>774.5</ele>
        <time>2022-03-22T13:18:29Z</time>
      </trkpt>
      <trkpt lat="46.66694" lon="5.91718">
        <ele>773.7</ele>
        <time>2022-03-22T13:18:35Z</time>
      </trkpt>
      <trkpt lat="46.667" lon="5.9172">
        <ele>771</ele>
        <time>2022-03-22T13:18:48Z</time>
      </trkpt>
      <trkpt lat="46.66705" lon="5.9172">
        <ele>769.6</ele>
        <time>2022-03-22T13:18:51Z</time>
      </trkpt>
      <trkpt lat="46.6671" lon="5.91723">
        <ele>767.5</ele>
        <time>2022-03-22T13:18:56Z</time>
      </trkpt>
      <trkpt lat="46.66715" lon="5.91722">
        <ele>766.2</ele>
        <time>2022-03-22T13:19:02Z</time>
      </trkpt>
      <trkpt lat="46.66718" lon="5.91728">
        <ele>765.5</ele>
        <time>2022-03-22T13:19:07Z</time>
      </trkpt>
      <trkpt lat="46.6672" lon="5.91734">
        <ele>764.3</ele>
        <time>2022-03-22T13:19:12Z</time>
      </trkpt>
      <trkpt lat="46.66722" lon="5.9174">
        <ele>762.7</ele>
        <time>2022-03-22T13:19:17Z</time>
      </trkpt>
      <trkpt lat="46.66723" lon="5.91747">
        <ele>760.7</ele>
        <time>2022-03-22T13:19:22Z</time>
      </trkpt>
      <trkpt lat="46.66714" lon="5.91762">
        <ele>760.3</ele>
        <time>2022-03-22T13:19:34Z</time>
      </trkpt>
      <trkpt lat="46.66712" lon="5.91767">
        <ele>761.6</ele>
        <time>2022-03-22T13:19:37Z</time>
      </trkpt>
      <trkpt lat="46.6671" lon="5.91773">
        <ele>762.8</ele>
        <time>2022-03-22T13:19:42Z</time>
      </trkpt>
      <trkpt lat="46.66712" lon="5.9178">
        <ele>763</ele>
        <time>2022-03-22T13:19:51Z</time>
      </trkpt>
      <trkpt lat="46.66711" lon="5.91786">
        <ele>764.1</ele>
        <time>2022-03-22T13:19:56Z</time>
      </trkpt>
      <trkpt lat="46.66716" lon="5.91787">
        <ele>765.9</ele>
        <time>2022-03-22T13:20:05Z</time>
      </trkpt>
      <trkpt lat="46.66714" lon="5.91794">
        <ele>766.1</ele>
        <time>2022-03-22T13:20:10Z</time>
      </trkpt>
      <trkpt lat="46.66713" lon="5.918">
        <ele>766</ele>
        <time>2022-03-22T13:20:15Z</time>
      </trkpt>
      <trkpt lat="46.66715" lon="5.91808">
        <ele>765.7</ele>
        <time>2022-03-22T13:20:21Z</time>
      </trkpt>
      <trkpt lat="46.66716" lon="5.91814">
        <ele>765.8</ele>
        <time>2022-03-22T13:20:26Z</time>
      </trkpt>
      <trkpt lat="46.66717" lon="5.91822">
        <ele>766.1</ele>
        <time>2022-03-22T13:20:31Z</time>
      </trkpt>
      <trkpt lat="46.66719" lon="5.91829">
        <ele>766.7</ele>
        <time>2022-03-22T13:20:36Z</time>
      </trkpt>
      <trkpt lat="46.66722" lon="5.91833">
        <ele>767.6</ele>
        <time>2022-03-22T13:20:42Z</time>
      </trkpt>
      <trkpt lat="46.66726" lon="5.91838">
        <ele>769.5</ele>
        <time>2022-03-22T13:20:50Z</time>
      </trkpt>
      <trkpt lat="46.6673" lon="5.91842">
        <ele>770.4</ele>
        <time>2022-03-22T13:20:55Z</time>
      </trkpt>
      <trkpt lat="46.66735" lon="5.91844">
        <ele>770.6</ele>
        <time>2022-03-22T13:20:58Z</time>
      </trkpt>
      <trkpt lat="46.66741" lon="5.91847">
        <ele>770.7</ele>
        <time>2022-03-22T13:21:01Z</time>
      </trkpt>
      <trkpt lat="46.66746" lon="5.9185">
        <ele>770.6</ele>
        <time>2022-03-22T13:21:06Z</time>
      </trkpt>
      <trkpt lat="46.6675" lon="5.91854">
        <ele>769.5</ele>
        <time>2022-03-22T13:21:15Z</time>
      </trkpt>
      <trkpt lat="46.66755" lon="5.91854">
        <ele>769</ele>
        <time>2022-03-22T13:21:22Z</time>
      </trkpt>
      <trkpt lat="46.6676" lon="5.91856">
        <ele>768.2</ele>
        <time>2022-03-22T13:21:28Z</time>
      </trkpt>
      <trkpt lat="46.66766" lon="5.91855">
        <ele>767.3</ele>
        <time>2022-03-22T13:21:33Z</time>
      </trkpt>
      <trkpt lat="46.66772" lon="5.91855">
        <ele>766.6</ele>
        <time>2022-03-22T13:21:37Z</time>
      </trkpt>
      <trkpt lat="46.66776" lon="5.91855">
        <ele>766.3</ele>
        <time>2022-03-22T13:21:41Z</time>
      </trkpt>
      <trkpt lat="46.66781" lon="5.91858">
        <ele>767</ele>
        <time>2022-03-22T13:21:46Z</time>
      </trkpt>
      <trkpt lat="46.66786" lon="5.91858">
        <ele>768.5</ele>
        <time>2022-03-22T13:21:53Z</time>
      </trkpt>
      <trkpt lat="46.6679" lon="5.9186">
        <ele>769.5</ele>
        <time>2022-03-22T13:21:57Z</time>
      </trkpt>
      <trkpt lat="46.66795" lon="5.91862">
        <ele>770.3</ele>
        <time>2022-03-22T13:22:03Z</time>
      </trkpt>
      <trkpt lat="46.668" lon="5.91861">
        <ele>770.8</ele>
        <time>2022-03-22T13:22:08Z</time>
      </trkpt>
      <trkpt lat="46.66805" lon="5.91862">
        <ele>771.2</ele>
        <time>2022-03-22T13:22:14Z</time>
      </trkpt>
      <trkpt lat="46.6681" lon="5.91863">
        <ele>771.7</ele>
        <time>2022-03-22T13:22:20Z</time>
      </trkpt>
      <trkpt lat="46.66814" lon="5.91866">
        <ele>772.3</ele>
        <time>2022-03-22T13:22:25Z</time>
      </trkpt>
      <trkpt lat="46.66818" lon="5.91861">
        <ele>773.1</ele>
        <time>2022-03-22T13:22:31Z</time>
      </trkpt>
      <trkpt lat="46.66822" lon="5.91857">
        <ele>773.1</ele>
        <time>2022-03-22T13:22:41Z</time>
      </trkpt>
      <trkpt lat="46.66824" lon="5.9185">
        <ele>772.7</ele>
        <time>2022-03-22T13:22:46Z</time>
      </trkpt>
      <trkpt lat="46.66827" lon="5.91845">
        <ele>772.2</ele>
        <time>2022-03-22T13:22:49Z</time>
      </trkpt>
      <trkpt lat="46.66832" lon="5.9184">
        <ele>771.8</ele>
        <time>2022-03-22T13:22:52Z</time>
      </trkpt>
      <trkpt lat="46.66837" lon="5.91833">
        <ele>771.6</ele>
        <time>2022-03-22T13:22:55Z</time>
      </trkpt>
      <trkpt lat="46.6684" lon="5.91826">
        <ele>771.7</ele>
        <time>2022-03-22T13:22:58Z</time>
      </trkpt>
      <trkpt lat="46.66845" lon="5.91823">
        <ele>773</ele>
        <time>2022-03-22T13:23:03Z</time>
      </trkpt>
      <trkpt lat="46.66849" lon="5.91818">
        <ele>773.5</ele>
        <time>2022-03-22T13:23:07Z</time>
      </trkpt>
      <trkpt lat="46.66852" lon="5.91813">
        <ele>773</ele>
        <time>2022-03-22T13:23:14Z</time>
      </trkpt>
      <trkpt lat="46.66854" lon="5.91806">
        <ele>772.6</ele>
        <time>2022-03-22T13:23:19Z</time>
      </trkpt>
      <trkpt lat="46.66859" lon="5.91801">
        <ele>773.4</ele>
        <time>2022-03-22T13:23:23Z</time>
      </trkpt>
      <trkpt lat="46.66864" lon="5.91796">
        <ele>774.9</ele>
        <time>2022-03-22T13:23:27Z</time>
      </trkpt>
      <trkpt lat="46.66868" lon="5.91792">
        <ele>775.8</ele>
        <time>2022-03-22T13:23:30Z</time>
      </trkpt>
      <trkpt lat="46.66872" lon="5.91788">
        <ele>776.4</ele>
        <time>2022-03-22T13:23:33Z</time>
      </trkpt>
      <trkpt lat="46.66877" lon="5.91785">
        <ele>777.7</ele>
        <time>2022-03-22T13:23:37Z</time>
      </trkpt>
      <trkpt lat="46.66875" lon="5.91791">
        <ele>777.1</ele>
        <time>2022-03-22T13:23:44Z</time>
      </trkpt>
      <trkpt lat="46.66878" lon="5.91797">
        <ele>776.3</ele>
        <time>2022-03-22T13:23:51Z</time>
      </trkpt>
      <trkpt lat="46.6688" lon="5.91803">
        <ele>773.6</ele>
        <time>2022-03-22T13:23:58Z</time>
      </trkpt>
      <trkpt lat="46.66876" lon="5.91808">
        <ele>771.8</ele>
        <time>2022-03-22T13:24:01Z</time>
      </trkpt>
      <trkpt lat="46.66872" lon="5.91812">
        <ele>770.4</ele>
        <time>2022-03-22T13:24:04Z</time>
      </trkpt>
      <trkpt lat="46.66869" lon="5.91819">
        <ele>769.2</ele>
        <time>2022-03-22T13:24:08Z</time>
      </trkpt>
      <trkpt lat="46.66866" lon="5.91824">
        <ele>768.9</ele>
        <time>2022-03-22T13:24:11Z</time>
      </trkpt>
      <trkpt lat="46.66862" lon="5.91829">
        <ele>768.7</ele>
        <time>2022-03-22T13:24:15Z</time>
      </trkpt>
      <trkpt lat="46.66859" lon="5.91835">
        <ele>768.5</ele>
        <time>2022-03-22T13:24:19Z</time>
      </trkpt>
      <trkpt lat="46.66855" lon="5.91839">
        <ele>768.4</ele>
        <time>2022-03-22T13:24:22Z</time>
      </trkpt>
      <trkpt lat="46.66852" lon="5.91844">
        <ele>767.7</ele>
        <time>2022-03-22T13:24:28Z</time>
      </trkpt>
      <trkpt lat="46.6685" lon="5.91852">
        <ele>767.6</ele>
        <time>2022-03-22T13:24:32Z</time>
      </trkpt>
      <trkpt lat="46.66847" lon="5.91861">
        <ele>768.4</ele>
        <time>2022-03-22T13:24:35Z</time>
      </trkpt>
      <trkpt lat="46.66845" lon="5.91867">
        <ele>769.3</ele>
        <time>2022-03-22T13:24:38Z</time>
      </trkpt>
      <trkpt lat="46.66845" lon="5.91874">
        <ele>770.3</ele>
        <time>2022-03-22T13:24:43Z</time>
      </trkpt>
      <trkpt lat="46.66847" lon="5.91881">
        <ele>772.8</ele>
        <time>2022-03-22T13:24:52Z</time>
      </trkpt>
      <trkpt lat="46.66849" lon="5.91887">
        <ele>773.7</ele>
        <time>2022-03-22T13:24:57Z</time>
      </trkpt>
      <trkpt lat="46.66851" lon="5.91894">
        <ele>772.7</ele>
        <time>2022-03-22T13:25:05Z</time>
      </trkpt>
      <trkpt lat="46.66853" lon="5.919">
        <ele>772.6</ele>
        <time>2022-03-22T13:25:09Z</time>
      </trkpt>
      <trkpt lat="46.66856" lon="5.91906">
        <ele>772.9</ele>
        <time>2022-03-22T13:25:12Z</time>
      </trkpt>
      <trkpt lat="46.6686" lon="5.91909">
        <ele>774.9</ele>
        <time>2022-03-22T13:25:20Z</time>
      </trkpt>
      <trkpt lat="46.66864" lon="5.91914">
        <ele>775.8</ele>
        <time>2022-03-22T13:25:25Z</time>
      </trkpt>
      <trkpt lat="46.66868" lon="5.91919">
        <ele>776.7</ele>
        <time>2022-03-22T13:25:29Z</time>
      </trkpt>
      <trkpt lat="46.66872" lon="5.91922">
        <ele>777.8</ele>
        <time>2022-03-22T13:25:33Z</time>
      </trkpt>
      <trkpt lat="46.66877" lon="5.91925">
        <ele>779.2</ele>
        <time>2022-03-22T13:25:38Z</time>
      </trkpt>
      <trkpt lat="46.6688" lon="5.91932">
        <ele>780.1</ele>
        <time>2022-03-22T13:25:43Z</time>
      </trkpt>
      <trkpt lat="46.66884" lon="5.91936">
        <ele>781</ele>
        <time>2022-03-22T13:25:47Z</time>
      </trkpt>
      <trkpt lat="46.66889" lon="5.91938">
        <ele>781.9</ele>
        <time>2022-03-22T13:25:51Z</time>
      </trkpt>
      <trkpt lat="46.66892" lon="5.91943">
        <ele>782.8</ele>
        <time>2022-03-22T13:25:55Z</time>
      </trkpt>
      <trkpt lat="46.66897" lon="5.91943">
        <ele>782.2</ele>
        <time>2022-03-22T13:26:00Z</time>
      </trkpt>
      <trkpt lat="46.66902" lon="5.91941">
        <ele>780.7</ele>
        <time>2022-03-22T13:26:05Z</time>
      </trkpt>
      <trkpt lat="46.66907" lon="5.9194">
        <ele>779.3</ele>
        <time>2022-03-22T13:26:09Z</time>
      </trkpt>
      <trkpt lat="46.66912" lon="5.9194">
        <ele>778</ele>
        <time>2022-03-22T13:26:13Z</time>
      </trkpt>
      <trkpt lat="46.66916" lon="5.91944">
        <ele>777</ele>
        <time>2022-03-22T13:26:17Z</time>
      </trkpt>
      <trkpt lat="46.66918" lon="5.91952">
        <ele>776.6</ele>
        <time>2022-03-22T13:26:21Z</time>
      </trkpt>
      <trkpt lat="46.66921" lon="5.91958">
        <ele>776.9</ele>
        <time>2022-03-22T13:26:25Z</time>
      </trkpt>
      <trkpt lat="46.66927" lon="5.91959">
        <ele>777.8</ele>
        <time>2022-03-22T13:26:29Z</time>
      </trkpt>
      <trkpt lat="46.66931" lon="5.9196">
        <ele>778.5</ele>
        <time>2022-03-22T13:26:33Z</time>
      </trkpt>
      <trkpt lat="46.66935" lon="5.91966">
        <ele>779.4</ele>
        <time>2022-03-22T13:26:39Z</time>
      </trkpt>
      <trkpt lat="46.66938" lon="5.91971">
        <ele>780.1</ele>
        <time>2022-03-22T13:26:44Z</time>
      </trkpt>
      <trkpt lat="46.66939" lon="5.91979">
        <ele>780.8</ele>
        <time>2022-03-22T13:26:50Z</time>
      </trkpt>
      <trkpt lat="46.66939" lon="5.91986">
        <ele>780.6</ele>
        <time>2022-03-22T13:26:56Z</time>
      </trkpt>
      <trkpt lat="46.6694" lon="5.91994">
        <ele>780.7</ele>
        <time>2022-03-22T13:27:01Z</time>
      </trkpt>
      <trkpt lat="46.66941" lon="5.92001">
        <ele>781.6</ele>
        <time>2022-03-22T13:27:06Z</time>
      </trkpt>
      <trkpt lat="46.66942" lon="5.92009">
        <ele>783.4</ele>
        <time>2022-03-22T13:27:11Z</time>
      </trkpt>
      <trkpt lat="46.66943" lon="5.92016">
        <ele>784.6</ele>
        <time>2022-03-22T13:27:16Z</time>
      </trkpt>
      <trkpt lat="46.66942" lon="5.92024">
        <ele>785</ele>
        <time>2022-03-22T13:27:21Z</time>
      </trkpt>
      <trkpt lat="46.66943" lon="5.92032">
        <ele>785.6</ele>
        <time>2022-03-22T13:27:27Z</time>
      </trkpt>
      <trkpt lat="46.66947" lon="5.92036">
        <ele>786.9</ele>
        <time>2022-03-22T13:27:32Z</time>
      </trkpt>
      <trkpt lat="46.66951" lon="5.92038">
        <ele>788</ele>
        <time>2022-03-22T13:27:38Z</time>
      </trkpt>
      <trkpt lat="46.66949" lon="5.92046">
        <ele>788.6</ele>
        <time>2022-03-22T13:27:42Z</time>
      </trkpt>
      <trkpt lat="46.66946" lon="5.92051">
        <ele>789.5</ele>
        <time>2022-03-22T13:27:45Z</time>
      </trkpt>
      <trkpt lat="46.66941" lon="5.92053">
        <ele>789.8</ele>
        <time>2022-03-22T13:27:49Z</time>
      </trkpt>
      <trkpt lat="46.66944" lon="5.92048">
        <ele>787.8</ele>
        <time>2022-03-22T13:28:04Z</time>
      </trkpt>
      <trkpt lat="46.66948" lon="5.92043">
        <ele>788.3</ele>
        <time>2022-03-22T13:28:12Z</time>
      </trkpt>
      <trkpt lat="46.66954" lon="5.92039">
        <ele>788.3</ele>
        <time>2022-03-22T13:28:15Z</time>
      </trkpt>
      <trkpt lat="46.66958" lon="5.92038">
        <ele>788.2</ele>
        <time>2022-03-22T13:28:20Z</time>
      </trkpt>
      <trkpt lat="46.66963" lon="5.9204">
        <ele>788.3</ele>
        <time>2022-03-22T13:28:25Z</time>
      </trkpt>
      <trkpt lat="46.66967" lon="5.92043">
        <ele>788.3</ele>
        <time>2022-03-22T13:28:29Z</time>
      </trkpt>
      <trkpt lat="46.66973" lon="5.92044">
        <ele>787.7</ele>
        <time>2022-03-22T13:28:32Z</time>
      </trkpt>
      <trkpt lat="46.66979" lon="5.92046">
        <ele>787.6</ele>
        <time>2022-03-22T13:28:36Z</time>
      </trkpt>
      <trkpt lat="46.6698" lon="5.92053">
        <ele>790.4</ele>
        <time>2022-03-22T13:28:50Z</time>
      </trkpt>
      <trkpt lat="46.66984" lon="5.92058">
        <ele>792.1</ele>
        <time>2022-03-22T13:28:57Z</time>
      </trkpt>
      <trkpt lat="46.66989" lon="5.92061">
        <ele>792.8</ele>
        <time>2022-03-22T13:29:01Z</time>
      </trkpt>
      <trkpt lat="46.66994" lon="5.92064">
        <ele>793.3</ele>
        <time>2022-03-22T13:29:05Z</time>
      </trkpt>
      <trkpt lat="46.66998" lon="5.92066">
        <ele>793</ele>
        <time>2022-03-22T13:29:10Z</time>
      </trkpt>
      <trkpt lat="46.67003" lon="5.92069">
        <ele>792.1</ele>
        <time>2022-03-22T13:29:15Z</time>
      </trkpt>
      <trkpt lat="46.67005" lon="5.92076">
        <ele>790.7</ele>
        <time>2022-03-22T13:29:20Z</time>
      </trkpt>
      <trkpt lat="46.67007" lon="5.92081">
        <ele>789.2</ele>
        <time>2022-03-22T13:29:27Z</time>
      </trkpt>
      <trkpt lat="46.67009" lon="5.92088">
        <ele>788.4</ele>
        <time>2022-03-22T13:29:31Z</time>
      </trkpt>
      <trkpt lat="46.67011" lon="5.92094">
        <ele>788</ele>
        <time>2022-03-22T13:29:36Z</time>
      </trkpt>
      <trkpt lat="46.67006" lon="5.92096">
        <ele>789.2</ele>
        <time>2022-03-22T13:30:00Z</time>
      </trkpt>
      <trkpt lat="46.67002" lon="5.92099">
        <ele>789.6</ele>
        <time>2022-03-22T13:30:09Z</time>
      </trkpt>
      <trkpt lat="46.66998" lon="5.92105">
        <ele>790</ele>
        <time>2022-03-22T13:30:13Z</time>
      </trkpt>
      <trkpt lat="46.66994" lon="5.92109">
        <ele>790.6</ele>
        <time>2022-03-22T13:30:17Z</time>
      </trkpt>
      <trkpt lat="46.66994" lon="5.92116">
        <ele>790.5</ele>
        <time>2022-03-22T13:30:23Z</time>
      </trkpt>
      <trkpt lat="46.66996" lon="5.92122">
        <ele>790.3</ele>
        <time>2022-03-22T13:30:29Z</time>
      </trkpt>
      <trkpt lat="46.66997" lon="5.9213">
        <ele>790.5</ele>
        <time>2022-03-22T13:30:33Z</time>
      </trkpt>
      <trkpt lat="46.66996" lon="5.92138">
        <ele>791.7</ele>
        <time>2022-03-22T13:30:38Z</time>
      </trkpt>
      <trkpt lat="46.66992" lon="5.92143">
        <ele>793.5</ele>
        <time>2022-03-22T13:30:41Z</time>
      </trkpt>
      <trkpt lat="46.66989" lon="5.92149">
        <ele>797.2</ele>
        <time>2022-03-22T13:30:48Z</time>
      </trkpt>
      <trkpt lat="46.6699" lon="5.92156">
        <ele>799.8</ele>
        <time>2022-03-22T13:30:55Z</time>
      </trkpt>
      <trkpt lat="46.6699" lon="5.92163">
        <ele>802.2</ele>
        <time>2022-03-22T13:31:01Z</time>
      </trkpt>
      <trkpt lat="46.66992" lon="5.92169">
        <ele>802.3</ele>
        <time>2022-03-22T13:31:07Z</time>
      </trkpt>
      <trkpt lat="46.66993" lon="5.92176">
        <ele>800.4</ele>
        <time>2022-03-22T13:31:15Z</time>
      </trkpt>
      <trkpt lat="46.66993" lon="5.92183">
        <ele>798</ele>
        <time>2022-03-22T13:31:24Z</time>
      </trkpt>
      <trkpt lat="46.66994" lon="5.9219">
        <ele>796.9</ele>
        <time>2022-03-22T13:31:29Z</time>
      </trkpt>
      <trkpt lat="46.66998" lon="5.92195">
        <ele>796.2</ele>
        <time>2022-03-22T13:31:35Z</time>
      </trkpt>
      <trkpt lat="46.67002" lon="5.92192">
        <ele>796.2</ele>
        <time>2022-03-22T13:31:38Z</time>
      </trkpt>
      <trkpt lat="46.67008" lon="5.92193">
        <ele>796.3</ele>
        <time>2022-03-22T13:31:42Z</time>
      </trkpt>
      <trkpt lat="46.67013" lon="5.92193">
        <ele>796.2</ele>
        <time>2022-03-22T13:31:46Z</time>
      </trkpt>
      <trkpt lat="46.67018" lon="5.92196">
        <ele>796.2</ele>
        <time>2022-03-22T13:31:51Z</time>
      </trkpt>
      <trkpt lat="46.67021" lon="5.922">
        <ele>796.3</ele>
        <time>2022-03-22T13:31:56Z</time>
      </trkpt>
      <trkpt lat="46.67025" lon="5.92205">
        <ele>796.3</ele>
        <time>2022-03-22T13:32:00Z</time>
      </trkpt>
      <trkpt lat="46.6703" lon="5.92207">
        <ele>796.4</ele>
        <time>2022-03-22T13:32:05Z</time>
      </trkpt>
      <trkpt lat="46.67034" lon="5.9221">
        <ele>796.4</ele>
        <time>2022-03-22T13:32:10Z</time>
      </trkpt>
      <trkpt lat="46.67039" lon="5.92211">
        <ele>796.4</ele>
        <time>2022-03-22T13:32:14Z</time>
      </trkpt>
      <trkpt lat="46.67043" lon="5.92215">
        <ele>796.3</ele>
        <time>2022-03-22T13:32:20Z</time>
      </trkpt>
      <trkpt lat="46.67046" lon="5.9222">
        <ele>796.9</ele>
        <time>2022-03-22T13:32:27Z</time>
      </trkpt>
      <trkpt lat="46.67048" lon="5.92227">
        <ele>797.9</ele>
        <time>2022-03-22T13:32:33Z</time>
      </trkpt>
      <trkpt lat="46.6705" lon="5.92233">
        <ele>798.3</ele>
        <time>2022-03-22T13:32:36Z</time>
      </trkpt>
      <trkpt lat="46.67054" lon="5.92238">
        <ele>798.8</ele>
        <time>2022-03-22T13:32:40Z</time>
      </trkpt>
      <trkpt lat="46.67059" lon="5.92241">
        <ele>799.3</ele>
        <time>2022-03-22T13:32:45Z</time>
      </trkpt>
      <trkpt lat="46.67064" lon="5.92241">
        <ele>799.7</ele>
        <time>2022-03-22T13:32:49Z</time>
      </trkpt>
      <trkpt lat="46.67069" lon="5.92241">
        <ele>800.1</ele>
        <time>2022-03-22T13:32:53Z</time>
      </trkpt>
      <trkpt lat="46.67074" lon="5.92241">
        <ele>800.4</ele>
        <time>2022-03-22T13:32:57Z</time>
      </trkpt>
      <trkpt lat="46.67079" lon="5.92245">
        <ele>801.1</ele>
        <time>2022-03-22T13:33:02Z</time>
      </trkpt>
      <trkpt lat="46.67083" lon="5.9225">
        <ele>801.9</ele>
        <time>2022-03-22T13:33:06Z</time>
      </trkpt>
      <trkpt lat="46.67086" lon="5.92255">
        <ele>802.6</ele>
        <time>2022-03-22T13:33:11Z</time>
      </trkpt>
      <trkpt lat="46.67088" lon="5.92261">
        <ele>803.9</ele>
        <time>2022-03-22T13:33:16Z</time>
      </trkpt>
      <trkpt lat="46.67092" lon="5.92267">
        <ele>805</ele>
        <time>2022-03-22T13:33:21Z</time>
      </trkpt>
      <trkpt lat="46.67095" lon="5.92271">
        <ele>805.7</ele>
        <time>2022-03-22T13:33:27Z</time>
      </trkpt>
      <trkpt lat="46.67099" lon="5.92276">
        <ele>806</ele>
        <time>2022-03-22T13:33:32Z</time>
      </trkpt>
      <trkpt lat="46.67102" lon="5.92281">
        <ele>806</ele>
        <time>2022-03-22T13:33:37Z</time>
      </trkpt>
      <trkpt lat="46.67103" lon="5.92288">
        <ele>806.2</ele>
        <time>2022-03-22T13:33:44Z</time>
      </trkpt>
      <trkpt lat="46.67105" lon="5.92294">
        <ele>806.4</ele>
        <time>2022-03-22T13:33:49Z</time>
      </trkpt>
      <trkpt lat="46.67106" lon="5.92301">
        <ele>806.4</ele>
        <time>2022-03-22T13:33:53Z</time>
      </trkpt>
      <trkpt lat="46.67109" lon="5.92308">
        <ele>806.5</ele>
        <time>2022-03-22T13:33:59Z</time>
      </trkpt>
      <trkpt lat="46.67112" lon="5.92315">
        <ele>806.3</ele>
        <time>2022-03-22T13:34:02Z</time>
      </trkpt>
      <trkpt lat="46.67116" lon="5.9232">
        <ele>805.9</ele>
        <time>2022-03-22T13:34:05Z</time>
      </trkpt>
      <trkpt lat="46.6712" lon="5.92326">
        <ele>805.4</ele>
        <time>2022-03-22T13:34:11Z</time>
      </trkpt>
      <trkpt lat="46.67122" lon="5.92332">
        <ele>805</ele>
        <time>2022-03-22T13:34:17Z</time>
      </trkpt>
      <trkpt lat="46.67124" lon="5.92339">
        <ele>804.8</ele>
        <time>2022-03-22T13:34:21Z</time>
      </trkpt>
      <trkpt lat="46.67126" lon="5.92346">
        <ele>804.2</ele>
        <time>2022-03-22T13:34:28Z</time>
      </trkpt>
      <trkpt lat="46.67129" lon="5.9235">
        <ele>803.1</ele>
        <time>2022-03-22T13:34:35Z</time>
      </trkpt>
      <trkpt lat="46.67133" lon="5.92355">
        <ele>802</ele>
        <time>2022-03-22T13:34:41Z</time>
      </trkpt>
      <trkpt lat="46.67135" lon="5.9236">
        <ele>801.2</ele>
        <time>2022-03-22T13:34:45Z</time>
      </trkpt>
      <trkpt lat="46.67138" lon="5.92367">
        <ele>800.7</ele>
        <time>2022-03-22T13:34:49Z</time>
      </trkpt>
      <trkpt lat="46.67142" lon="5.92372">
        <ele>800.2</ele>
        <time>2022-03-22T13:34:55Z</time>
      </trkpt>
      <trkpt lat="46.67144" lon="5.92378">
        <ele>799.8</ele>
        <time>2022-03-22T13:35:02Z</time>
      </trkpt>
      <trkpt lat="46.67146" lon="5.92384">
        <ele>800.4</ele>
        <time>2022-03-22T13:35:10Z</time>
      </trkpt>
      <trkpt lat="46.67147" lon="5.92391">
        <ele>801.6</ele>
        <time>2022-03-22T13:35:14Z</time>
      </trkpt>
      <trkpt lat="46.67147" lon="5.92398">
        <ele>802.3</ele>
        <time>2022-03-22T13:35:19Z</time>
      </trkpt>
      <trkpt lat="46.67146" lon="5.92405">
        <ele>802.8</ele>
        <time>2022-03-22T13:35:24Z</time>
      </trkpt>
      <trkpt lat="46.67144" lon="5.92412">
        <ele>803.1</ele>
        <time>2022-03-22T13:35:29Z</time>
      </trkpt>
      <trkpt lat="46.67142" lon="5.9242">
        <ele>803.5</ele>
        <time>2022-03-22T13:35:33Z</time>
      </trkpt>
      <trkpt lat="46.6714" lon="5.92428">
        <ele>804.2</ele>
        <time>2022-03-22T13:35:37Z</time>
      </trkpt>
      <trkpt lat="46.67138" lon="5.92434">
        <ele>804.9</ele>
        <time>2022-03-22T13:35:42Z</time>
      </trkpt>
      <trkpt lat="46.67136" lon="5.9244">
        <ele>805.2</ele>
        <time>2022-03-22T13:35:49Z</time>
      </trkpt>
      <trkpt lat="46.67134" lon="5.92447">
        <ele>805.3</ele>
        <time>2022-03-22T13:35:54Z</time>
      </trkpt>
      <trkpt lat="46.6713" lon="5.9245">
        <ele>805</ele>
        <time>2022-03-22T13:35:57Z</time>
      </trkpt>
      <trkpt lat="46.67125" lon="5.92454">
        <ele>804.5</ele>
        <time>2022-03-22T13:36:00Z</time>
      </trkpt>
      <trkpt lat="46.67121" lon="5.92458">
        <ele>803.7</ele>
        <time>2022-03-22T13:36:03Z</time>
      </trkpt>
      <trkpt lat="46.67118" lon="5.92464">
        <ele>802.1</ele>
        <time>2022-03-22T13:36:09Z</time>
      </trkpt>
      <trkpt lat="46.67115" lon="5.92469">
        <ele>801.4</ele>
        <time>2022-03-22T13:36:16Z</time>
      </trkpt>
      <trkpt lat="46.67118" lon="5.92474">
        <ele>800.3</ele>
        <time>2022-03-22T13:36:25Z</time>
      </trkpt>
      <trkpt lat="46.67117" lon="5.92481">
        <ele>799.6</ele>
        <time>2022-03-22T13:36:31Z</time>
      </trkpt>
      <trkpt lat="46.67114" lon="5.92488">
        <ele>799.2</ele>
        <time>2022-03-22T13:36:35Z</time>
      </trkpt>
      <trkpt lat="46.67112" lon="5.92494">
        <ele>798.9</ele>
        <time>2022-03-22T13:36:39Z</time>
      </trkpt>
      <trkpt lat="46.6711" lon="5.92501">
        <ele>798.7</ele>
        <time>2022-03-22T13:36:42Z</time>
      </trkpt>
      <trkpt lat="46.67108" lon="5.92507">
        <ele>798.5</ele>
        <time>2022-03-22T13:36:46Z</time>
      </trkpt>
      <trkpt lat="46.67105" lon="5.92513">
        <ele>798.4</ele>
        <time>2022-03-22T13:36:52Z</time>
      </trkpt>
      <trkpt lat="46.67101" lon="5.92517">
        <ele>798.5</ele>
        <time>2022-03-22T13:36:56Z</time>
      </trkpt>
      <trkpt lat="46.67101" lon="5.92524">
        <ele>798.1</ele>
        <time>2022-03-22T13:37:04Z</time>
      </trkpt>
      <trkpt lat="46.67107" lon="5.92528">
        <ele>798.1</ele>
        <time>2022-03-22T13:37:19Z</time>
      </trkpt>
      <trkpt lat="46.67113" lon="5.92528">
        <ele>798.2</ele>
        <time>2022-03-22T13:37:23Z</time>
      </trkpt>
      <trkpt lat="46.67117" lon="5.92532">
        <ele>798.7</ele>
        <time>2022-03-22T13:37:28Z</time>
      </trkpt>
      <trkpt lat="46.67118" lon="5.92539">
        <ele>799.6</ele>
        <time>2022-03-22T13:37:32Z</time>
      </trkpt>
      <trkpt lat="46.67121" lon="5.92544">
        <ele>800.2</ele>
        <time>2022-03-22T13:37:35Z</time>
      </trkpt>
      <trkpt lat="46.67125" lon="5.92549">
        <ele>800.3</ele>
        <time>2022-03-22T13:37:38Z</time>
      </trkpt>
      <trkpt lat="46.67126" lon="5.92556">
        <ele>801.1</ele>
        <time>2022-03-22T13:37:43Z</time>
      </trkpt>
      <trkpt lat="46.67126" lon="5.92563">
        <ele>802.4</ele>
        <time>2022-03-22T13:37:46Z</time>
      </trkpt>
      <trkpt lat="46.67125" lon="5.9257">
        <ele>804.3</ele>
        <time>2022-03-22T13:37:50Z</time>
      </trkpt>
      <trkpt lat="46.67125" lon="5.92577">
        <ele>805.9</ele>
        <time>2022-03-22T13:37:55Z</time>
      </trkpt>
      <trkpt lat="46.67126" lon="5.92584">
        <ele>807</ele>
        <time>2022-03-22T13:37:59Z</time>
      </trkpt>
      <trkpt lat="46.67126" lon="5.92591">
        <ele>808</ele>
        <time>2022-03-22T13:38:04Z</time>
      </trkpt>
      <trkpt lat="46.6713" lon="5.92595">
        <ele>809.1</ele>
        <time>2022-03-22T13:38:10Z</time>
      </trkpt>
      <trkpt lat="46.67135" lon="5.92597">
        <ele>810.1</ele>
        <time>2022-03-22T13:38:15Z</time>
      </trkpt>
      <trkpt lat="46.67135" lon="5.92605">
        <ele>810.9</ele>
        <time>2022-03-22T13:38:20Z</time>
      </trkpt>
      <trkpt lat="46.67133" lon="5.92611">
        <ele>811.9</ele>
        <time>2022-03-22T13:38:27Z</time>
      </trkpt>
      <trkpt lat="46.67134" lon="5.92618">
        <ele>812.3</ele>
        <time>2022-03-22T13:38:32Z</time>
      </trkpt>
      <trkpt lat="46.67135" lon="5.92626">
        <ele>812.1</ele>
        <time>2022-03-22T13:38:38Z</time>
      </trkpt>
      <trkpt lat="46.67137" lon="5.92632">
        <ele>812</ele>
        <time>2022-03-22T13:38:42Z</time>
      </trkpt>
      <trkpt lat="46.67141" lon="5.92638">
        <ele>811.9</ele>
        <time>2022-03-22T13:38:46Z</time>
      </trkpt>
      <trkpt lat="46.67144" lon="5.92642">
        <ele>812</ele>
        <time>2022-03-22T13:38:49Z</time>
      </trkpt>
      <trkpt lat="46.67147" lon="5.92648">
        <ele>812.2</ele>
        <time>2022-03-22T13:38:53Z</time>
      </trkpt>
      <trkpt lat="46.67151" lon="5.92653">
        <ele>811.6</ele>
        <time>2022-03-22T13:38:57Z</time>
      </trkpt>
      <trkpt lat="46.67155" lon="5.92654">
        <ele>811.1</ele>
        <time>2022-03-22T13:39:00Z</time>
      </trkpt>
      <trkpt lat="46.6716" lon="5.92657">
        <ele>810.2</ele>
        <time>2022-03-22T13:39:04Z</time>
      </trkpt>
      <trkpt lat="46.67163" lon="5.92664">
        <ele>809.3</ele>
        <time>2022-03-22T13:39:09Z</time>
      </trkpt>
      <trkpt lat="46.67167" lon="5.92669">
        <ele>809.9</ele>
        <time>2022-03-22T13:39:13Z</time>
      </trkpt>
      <trkpt lat="46.67173" lon="5.92671">
        <ele>810.1</ele>
        <time>2022-03-22T13:39:17Z</time>
      </trkpt>
      <trkpt lat="46.67177" lon="5.92675">
        <ele>810</ele>
        <time>2022-03-22T13:39:20Z</time>
      </trkpt>
      <trkpt lat="46.67181" lon="5.92678">
        <ele>809.8</ele>
        <time>2022-03-22T13:39:25Z</time>
      </trkpt>
      <trkpt lat="46.67186" lon="5.92677">
        <ele>809.3</ele>
        <time>2022-03-22T13:39:32Z</time>
      </trkpt>
      <trkpt lat="46.67189" lon="5.92672">
        <ele>809.1</ele>
        <time>2022-03-22T13:39:35Z</time>
      </trkpt>
      <trkpt lat="46.67194" lon="5.92673">
        <ele>809.1</ele>
        <time>2022-03-22T13:39:41Z</time>
      </trkpt>
      <trkpt lat="46.67199" lon="5.92676">
        <ele>809.1</ele>
        <time>2022-03-22T13:39:47Z</time>
      </trkpt>
      <trkpt lat="46.67203" lon="5.92678">
        <ele>808.1</ele>
        <time>2022-03-22T13:39:54Z</time>
      </trkpt>
      <trkpt lat="46.67209" lon="5.92678">
        <ele>806.4</ele>
        <time>2022-03-22T13:39:57Z</time>
      </trkpt>
      <trkpt lat="46.67214" lon="5.92678">
        <ele>804.4</ele>
        <time>2022-03-22T13:40:02Z</time>
      </trkpt>
      <trkpt lat="46.67218" lon="5.92681">
        <ele>802.7</ele>
        <time>2022-03-22T13:40:10Z</time>
      </trkpt>
      <trkpt lat="46.67221" lon="5.92688">
        <ele>803</ele>
        <time>2022-03-22T13:40:15Z</time>
      </trkpt>
      <trkpt lat="46.67225" lon="5.92693">
        <ele>804.5</ele>
        <time>2022-03-22T13:40:20Z</time>
      </trkpt>
      <trkpt lat="46.67229" lon="5.92697">
        <ele>807</ele>
        <time>2022-03-22T13:40:28Z</time>
      </trkpt>
      <trkpt lat="46.67234" lon="5.92699">
        <ele>809.8</ele>
        <time>2022-03-22T13:40:35Z</time>
      </trkpt>
      <trkpt lat="46.67239" lon="5.92698">
        <ele>811.1</ele>
        <time>2022-03-22T13:40:39Z</time>
      </trkpt>
      <trkpt lat="46.67243" lon="5.92695">
        <ele>812</ele>
        <time>2022-03-22T13:40:43Z</time>
      </trkpt>
      <trkpt lat="46.67249" lon="5.92695">
        <ele>813.7</ele>
        <time>2022-03-22T13:40:48Z</time>
      </trkpt>
      <trkpt lat="46.67254" lon="5.92695">
        <ele>815.3</ele>
        <time>2022-03-22T13:40:52Z</time>
      </trkpt>
      <trkpt lat="46.67259" lon="5.92694">
        <ele>817.2</ele>
        <time>2022-03-22T13:40:57Z</time>
      </trkpt>
      <trkpt lat="46.67264" lon="5.92697">
        <ele>819.4</ele>
        <time>2022-03-22T13:41:03Z</time>
      </trkpt>
      <trkpt lat="46.6727" lon="5.92696">
        <ele>820.5</ele>
        <time>2022-03-22T13:41:08Z</time>
      </trkpt>
      <trkpt lat="46.67274" lon="5.92695">
        <ele>822.2</ele>
        <time>2022-03-22T13:41:13Z</time>
      </trkpt>
      <trkpt lat="46.67278" lon="5.92692">
        <ele>824</ele>
        <time>2022-03-22T13:41:17Z</time>
      </trkpt>
      <trkpt lat="46.67282" lon="5.92688">
        <ele>825.3</ele>
        <time>2022-03-22T13:41:20Z</time>
      </trkpt>
      <trkpt lat="46.67287" lon="5.92686">
        <ele>827</ele>
        <time>2022-03-22T13:41:24Z</time>
      </trkpt>
      <trkpt lat="46.67293" lon="5.92684">
        <ele>828.1</ele>
        <time>2022-03-22T13:41:28Z</time>
      </trkpt>
      <trkpt lat="46.67297" lon="5.92681">
        <ele>828.3</ele>
        <time>2022-03-22T13:41:32Z</time>
      </trkpt>
      <trkpt lat="46.67302" lon="5.92682">
        <ele>826.9</ele>
        <time>2022-03-22T13:41:37Z</time>
      </trkpt>
      <trkpt lat="46.67303" lon="5.92689">
        <ele>825.1</ele>
        <time>2022-03-22T13:41:43Z</time>
      </trkpt>
      <trkpt lat="46.67302" lon="5.92697">
        <ele>822.8</ele>
        <time>2022-03-22T13:41:48Z</time>
      </trkpt>
      <trkpt lat="46.67301" lon="5.92704">
        <ele>819.8</ele>
        <time>2022-03-22T13:41:53Z</time>
      </trkpt>
      <trkpt lat="46.673" lon="5.92712">
        <ele>817.4</ele>
        <time>2022-03-22T13:41:58Z</time>
      </trkpt>
      <trkpt lat="46.67298" lon="5.92718">
        <ele>815.6</ele>
        <time>2022-03-22T13:42:03Z</time>
      </trkpt>
      <trkpt lat="46.67296" lon="5.92725">
        <ele>814.4</ele>
        <time>2022-03-22T13:42:09Z</time>
      </trkpt>
      <trkpt lat="46.67294" lon="5.92731">
        <ele>813.7</ele>
        <time>2022-03-22T13:42:15Z</time>
      </trkpt>
      <trkpt lat="46.67292" lon="5.92738">
        <ele>813.5</ele>
        <time>2022-03-22T13:42:20Z</time>
      </trkpt>
      <trkpt lat="46.6729" lon="5.92745">
        <ele>813.9</ele>
        <time>2022-03-22T13:42:24Z</time>
      </trkpt>
      <trkpt lat="46.67287" lon="5.92751">
        <ele>813.5</ele>
        <time>2022-03-22T13:42:31Z</time>
      </trkpt>
      <trkpt lat="46.67282" lon="5.92754">
        <ele>813.3</ele>
        <time>2022-03-22T13:42:36Z</time>
      </trkpt>
      <trkpt lat="46.67277" lon="5.92757">
        <ele>813.6</ele>
        <time>2022-03-22T13:42:40Z</time>
      </trkpt>
      <trkpt lat="46.67273" lon="5.92761">
        <ele>813.9</ele>
        <time>2022-03-22T13:42:45Z</time>
      </trkpt>
      <trkpt lat="46.67268" lon="5.92764">
        <ele>814.4</ele>
        <time>2022-03-22T13:42:49Z</time>
      </trkpt>
      <trkpt lat="46.67263" lon="5.92766">
        <ele>815.1</ele>
        <time>2022-03-22T13:42:54Z</time>
      </trkpt>
      <trkpt lat="46.67259" lon="5.9277">
        <ele>816.1</ele>
        <time>2022-03-22T13:42:58Z</time>
      </trkpt>
      <trkpt lat="46.67257" lon="5.92778">
        <ele>817.9</ele>
        <time>2022-03-22T13:43:05Z</time>
      </trkpt>
      <trkpt lat="46.67261" lon="5.92776">
        <ele>819.5</ele>
        <time>2022-03-22T13:43:36Z</time>
      </trkpt>
      <trkpt lat="46.67266" lon="5.92777">
        <ele>822.4</ele>
        <time>2022-03-22T13:43:45Z</time>
      </trkpt>
      <trkpt lat="46.67263" lon="5.92783">
        <ele>823.2</ele>
        <time>2022-03-22T13:43:52Z</time>
      </trkpt>
      <trkpt lat="46.67259" lon="5.92779">
        <ele>822.8</ele>
        <time>2022-03-22T13:43:58Z</time>
      </trkpt>
      <trkpt lat="46.67255" lon="5.92775">
        <ele>822.4</ele>
        <time>2022-03-22T13:44:05Z</time>
      </trkpt>
      <trkpt lat="46.6725" lon="5.92773">
        <ele>822.3</ele>
        <time>2022-03-22T13:44:12Z</time>
      </trkpt>
      <trkpt lat="46.67245" lon="5.92774">
        <ele>822.9</ele>
        <time>2022-03-22T13:44:15Z</time>
      </trkpt>
      <trkpt lat="46.6724" lon="5.92778">
        <ele>823.3</ele>
        <time>2022-03-22T13:44:18Z</time>
      </trkpt>
      <trkpt lat="46.67235" lon="5.92781">
        <ele>824.1</ele>
        <time>2022-03-22T13:44:21Z</time>
      </trkpt>
      <trkpt lat="46.67229" lon="5.92784">
        <ele>825.1</ele>
        <time>2022-03-22T13:44:24Z</time>
      </trkpt>
      <trkpt lat="46.67224" lon="5.92785">
        <ele>826.6</ele>
        <time>2022-03-22T13:44:28Z</time>
      </trkpt>
      <trkpt lat="46.67223" lon="5.92792">
        <ele>829.3</ele>
        <time>2022-03-22T13:44:35Z</time>
      </trkpt>
      <trkpt lat="46.67225" lon="5.92798">
        <ele>831.3</ele>
        <time>2022-03-22T13:44:43Z</time>
      </trkpt>
      <trkpt lat="46.6722" lon="5.92801">
        <ele>832</ele>
        <time>2022-03-22T13:44:48Z</time>
      </trkpt>
      <trkpt lat="46.67215" lon="5.92803">
        <ele>832.1</ele>
        <time>2022-03-22T13:44:51Z</time>
      </trkpt>
      <trkpt lat="46.6721" lon="5.92803">
        <ele>832.1</ele>
        <time>2022-03-22T13:44:54Z</time>
      </trkpt>
      <trkpt lat="46.67205" lon="5.92803">
        <ele>831.5</ele>
        <time>2022-03-22T13:44:57Z</time>
      </trkpt>
      <trkpt lat="46.67207" lon="5.92797">
        <ele>830.5</ele>
        <time>2022-03-22T13:45:03Z</time>
      </trkpt>
      <trkpt lat="46.67209" lon="5.92791">
        <ele>829.2</ele>
        <time>2022-03-22T13:45:09Z</time>
      </trkpt>
      <trkpt lat="46.67204" lon="5.92787">
        <ele>828.1</ele>
        <time>2022-03-22T13:45:16Z</time>
      </trkpt>
      <trkpt lat="46.672" lon="5.92788">
        <ele>827.6</ele>
        <time>2022-03-22T13:45:20Z</time>
      </trkpt>
      <trkpt lat="46.67195" lon="5.92788">
        <ele>827.7</ele>
        <time>2022-03-22T13:45:24Z</time>
      </trkpt>
      <trkpt lat="46.6719" lon="5.92788">
        <ele>828.3</ele>
        <time>2022-03-22T13:45:28Z</time>
      </trkpt>
      <trkpt lat="46.67185" lon="5.92786">
        <ele>830.9</ele>
        <time>2022-03-22T13:45:43Z</time>
      </trkpt>
      <trkpt lat="46.6718" lon="5.92787">
        <ele>830.3</ele>
        <time>2022-03-22T13:45:55Z</time>
      </trkpt>
      <trkpt lat="46.67181" lon="5.9278">
        <ele>827.1</ele>
        <time>2022-03-22T13:46:10Z</time>
      </trkpt>
      <trkpt lat="46.67184" lon="5.92776">
        <ele>825.7</ele>
        <time>2022-03-22T13:46:31Z</time>
      </trkpt>
      <trkpt lat="46.67189" lon="5.92774">
        <ele>826.7</ele>
        <time>2022-03-22T13:46:51Z</time>
      </trkpt>
      <trkpt lat="46.67187" lon="5.92769">
        <ele>828.2</ele>
        <time>2022-03-22T13:47:06Z</time>
      </trkpt>
      <trkpt lat="46.67183" lon="5.92772">
        <ele>829.5</ele>
        <time>2022-03-22T13:47:11Z</time>
      </trkpt>
      <trkpt lat="46.67178" lon="5.92774">
        <ele>830.6</ele>
        <time>2022-03-22T13:47:15Z</time>
      </trkpt>
      <trkpt lat="46.67173" lon="5.92777">
        <ele>831.5</ele>
        <time>2022-03-22T13:47:21Z</time>
      </trkpt>
      <trkpt lat="46.67175" lon="5.92782">
        <ele>827.8</ele>
        <time>2022-03-22T13:48:03Z</time>
      </trkpt>
      <trkpt lat="46.6718" lon="5.92783">
        <ele>828</ele>
        <time>2022-03-22T13:48:13Z</time>
      </trkpt>
      <trkpt lat="46.67177" lon="5.9279">
        <ele>827.5</ele>
        <time>2022-03-22T13:48:21Z</time>
      </trkpt>
      <trkpt lat="46.67174" lon="5.92795">
        <ele>825.8</ele>
        <time>2022-03-22T13:48:37Z</time>
      </trkpt>
      <trkpt lat="46.67174" lon="5.92782">
        <ele>825.9</ele>
        <time>2022-03-22T13:49:05Z</time>
      </trkpt>
      <trkpt lat="46.67169" lon="5.9278">
        <ele>830.3</ele>
        <time>2022-03-22T13:49:38Z</time>
      </trkpt>
      <trkpt lat="46.67165" lon="5.92782">
        <ele>829.3</ele>
        <time>2022-03-22T13:49:45Z</time>
      </trkpt>
      <trkpt lat="46.67161" lon="5.92787">
        <ele>825.9</ele>
        <time>2022-03-22T13:49:53Z</time>
      </trkpt>
      <trkpt lat="46.67156" lon="5.9279">
        <ele>824.7</ele>
        <time>2022-03-22T13:49:59Z</time>
      </trkpt>
      <trkpt lat="46.67152" lon="5.92792">
        <ele>824.3</ele>
        <time>2022-03-22T13:50:03Z</time>
      </trkpt>
      <trkpt lat="46.67147" lon="5.92794">
        <ele>824.1</ele>
        <time>2022-03-22T13:50:08Z</time>
      </trkpt>
      <trkpt lat="46.67142" lon="5.92796">
        <ele>823.9</ele>
        <time>2022-03-22T13:50:15Z</time>
      </trkpt>
      <trkpt lat="46.67138" lon="5.92797">
        <ele>823.9</ele>
        <time>2022-03-22T13:50:22Z</time>
      </trkpt>
      <trkpt lat="46.67133" lon="5.928">
        <ele>823.1</ele>
        <time>2022-03-22T13:50:29Z</time>
      </trkpt>
      <trkpt lat="46.67128" lon="5.92801">
        <ele>822.4</ele>
        <time>2022-03-22T13:50:35Z</time>
      </trkpt>
      <trkpt lat="46.6713" lon="5.92807">
        <ele>822.6</ele>
        <time>2022-03-22T13:50:51Z</time>
      </trkpt>
      <trkpt lat="46.67134" lon="5.92811">
        <ele>822.6</ele>
        <time>2022-03-22T13:50:58Z</time>
      </trkpt>
      <trkpt lat="46.67139" lon="5.92813">
        <ele>823.3</ele>
        <time>2022-03-22T13:51:06Z</time>
      </trkpt>
      <trkpt lat="46.67144" lon="5.92816">
        <ele>824</ele>
        <time>2022-03-22T13:51:13Z</time>
      </trkpt>
      <trkpt lat="46.67149" lon="5.92816">
        <ele>824.8</ele>
        <time>2022-03-22T13:51:16Z</time>
      </trkpt>
      <trkpt lat="46.67154" lon="5.92815">
        <ele>825.7</ele>
        <time>2022-03-22T13:51:19Z</time>
      </trkpt>
      <trkpt lat="46.67159" lon="5.92815">
        <ele>827.2</ele>
        <time>2022-03-22T13:51:23Z</time>
      </trkpt>
      <trkpt lat="46.67163" lon="5.92819">
        <ele>829.4</ele>
        <time>2022-03-22T13:51:28Z</time>
      </trkpt>
      <trkpt lat="46.67168" lon="5.92821">
        <ele>831.3</ele>
        <time>2022-03-22T13:51:34Z</time>
      </trkpt>
      <trkpt lat="46.67172" lon="5.92818">
        <ele>832.6</ele>
        <time>2022-03-22T13:51:40Z</time>
      </trkpt>
      <trkpt lat="46.67178" lon="5.92818">
        <ele>833.5</ele>
        <time>2022-03-22T13:51:44Z</time>
      </trkpt>
      <trkpt lat="46.67182" lon="5.92822">
        <ele>834.5</ele>
        <time>2022-03-22T13:51:48Z</time>
      </trkpt>
      <trkpt lat="46.67186" lon="5.92824">
        <ele>835.5</ele>
        <time>2022-03-22T13:51:53Z</time>
      </trkpt>
      <trkpt lat="46.67191" lon="5.92826">
        <ele>836.4</ele>
        <time>2022-03-22T13:51:58Z</time>
      </trkpt>
      <trkpt lat="46.67195" lon="5.92829">
        <ele>836.8</ele>
        <time>2022-03-22T13:52:02Z</time>
      </trkpt>
      <trkpt lat="46.672" lon="5.92831">
        <ele>837.2</ele>
        <time>2022-03-22T13:52:07Z</time>
      </trkpt>
      <trkpt lat="46.67205" lon="5.92834">
        <ele>838.4</ele>
        <time>2022-03-22T13:52:13Z</time>
      </trkpt>
      <trkpt lat="46.67209" lon="5.92837">
        <ele>839.3</ele>
        <time>2022-03-22T13:52:19Z</time>
      </trkpt>
      <trkpt lat="46.67214" lon="5.92837">
        <ele>840.2</ele>
        <time>2022-03-22T13:52:27Z</time>
      </trkpt>
      <trkpt lat="46.67218" lon="5.92839">
        <ele>839.9</ele>
        <time>2022-03-22T13:52:34Z</time>
      </trkpt>
      <trkpt lat="46.67217" lon="5.9285">
        <ele>836.7</ele>
        <time>2022-03-22T13:53:51Z</time>
      </trkpt>
      <trkpt lat="46.67214" lon="5.92855">
        <ele>837</ele>
        <time>2022-03-22T13:53:57Z</time>
      </trkpt>
      <trkpt lat="46.67217" lon="5.92859">
        <ele>842.9</ele>
        <time>2022-03-22T13:55:13Z</time>
      </trkpt>
      <trkpt lat="46.67214" lon="5.92864">
        <ele>842.9</ele>
        <time>2022-03-22T13:56:46Z</time>
      </trkpt>
      <trkpt lat="46.67211" lon="5.92869">
        <ele>843</ele>
        <time>2022-03-22T13:56:52Z</time>
      </trkpt>
      <trkpt lat="46.67207" lon="5.92872">
        <ele>841.4</ele>
        <time>2022-03-22T13:57:08Z</time>
      </trkpt>
      <trkpt lat="46.67204" lon="5.92878">
        <ele>842.8</ele>
        <time>2022-03-22T13:58:49Z</time>
      </trkpt>
      <trkpt lat="46.67207" lon="5.92871">
        <ele>841.8</ele>
        <time>2022-03-22T14:01:18Z</time>
      </trkpt>
      <trkpt lat="46.6721" lon="5.92864">
        <ele>840.4</ele>
        <time>2022-03-22T14:01:22Z</time>
      </trkpt>
      <trkpt lat="46.67212" lon="5.92859">
        <ele>839.2</ele>
        <time>2022-03-22T14:01:29Z</time>
      </trkpt>
      <trkpt lat="46.6721" lon="5.92851">
        <ele>839.3</ele>
        <time>2022-03-22T14:02:12Z</time>
      </trkpt>
      <trkpt lat="46.67205" lon="5.92848">
        <ele>839.4</ele>
        <time>2022-03-22T14:02:16Z</time>
      </trkpt>
      <trkpt lat="46.67201" lon="5.92844">
        <ele>839.7</ele>
        <time>2022-03-22T14:02:23Z</time>
      </trkpt>
      <trkpt lat="46.67197" lon="5.92839">
        <ele>840.2</ele>
        <time>2022-03-22T14:02:28Z</time>
      </trkpt>
      <trkpt lat="46.67193" lon="5.92836">
        <ele>840.8</ele>
        <time>2022-03-22T14:02:32Z</time>
      </trkpt>
      <trkpt lat="46.67188" lon="5.92835">
        <ele>841.8</ele>
        <time>2022-03-22T14:02:37Z</time>
      </trkpt>
      <trkpt lat="46.67184" lon="5.92834">
        <ele>842.9</ele>
        <time>2022-03-22T14:02:43Z</time>
      </trkpt>
      <trkpt lat="46.6718" lon="5.92831">
        <ele>843.6</ele>
        <time>2022-03-22T14:02:48Z</time>
      </trkpt>
      <trkpt lat="46.67175" lon="5.9283">
        <ele>843.9</ele>
        <time>2022-03-22T14:02:53Z</time>
      </trkpt>
      <trkpt lat="46.6717" lon="5.9283">
        <ele>844</ele>
        <time>2022-03-22T14:02:58Z</time>
      </trkpt>
      <trkpt lat="46.67165" lon="5.92831">
        <ele>843.9</ele>
        <time>2022-03-22T14:03:02Z</time>
      </trkpt>
      <trkpt lat="46.6716" lon="5.92832">
        <ele>843.8</ele>
        <time>2022-03-22T14:03:06Z</time>
      </trkpt>
      <trkpt lat="46.67154" lon="5.92831">
        <ele>843.4</ele>
        <time>2022-03-22T14:03:10Z</time>
      </trkpt>
      <trkpt lat="46.67149" lon="5.9283">
        <ele>843</ele>
        <time>2022-03-22T14:03:14Z</time>
      </trkpt>
      <trkpt lat="46.67144" lon="5.92826">
        <ele>842.6</ele>
        <time>2022-03-22T14:03:19Z</time>
      </trkpt>
      <trkpt lat="46.67138" lon="5.92823">
        <ele>842.9</ele>
        <time>2022-03-22T14:03:24Z</time>
      </trkpt>
      <trkpt lat="46.67133" lon="5.92823">
        <ele>842.7</ele>
        <time>2022-03-22T14:03:28Z</time>
      </trkpt>
      <trkpt lat="46.67129" lon="5.9282">
        <ele>841.2</ele>
        <time>2022-03-22T14:03:38Z</time>
      </trkpt>
      <trkpt lat="46.67124" lon="5.92818">
        <ele>841.7</ele>
        <time>2022-03-22T14:03:43Z</time>
      </trkpt>
      <trkpt lat="46.6712" lon="5.92815">
        <ele>842.1</ele>
        <time>2022-03-22T14:03:47Z</time>
      </trkpt>
      <trkpt lat="46.67114" lon="5.92814">
        <ele>842.4</ele>
        <time>2022-03-22T14:03:53Z</time>
      </trkpt>
      <trkpt lat="46.67109" lon="5.92815">
        <ele>842.6</ele>
        <time>2022-03-22T14:03:57Z</time>
      </trkpt>
      <trkpt lat="46.67104" lon="5.92816">
        <ele>842.9</ele>
        <time>2022-03-22T14:04:02Z</time>
      </trkpt>
      <trkpt lat="46.67101" lon="5.92822">
        <ele>842.8</ele>
        <time>2022-03-22T14:04:09Z</time>
      </trkpt>
      <trkpt lat="46.67096" lon="5.92821">
        <ele>842.6</ele>
        <time>2022-03-22T14:04:15Z</time>
      </trkpt>
      <trkpt lat="46.67091" lon="5.92822">
        <ele>842.3</ele>
        <time>2022-03-22T14:04:21Z</time>
      </trkpt>
      <trkpt lat="46.67087" lon="5.92823">
        <ele>841.5</ele>
        <time>2022-03-22T14:04:26Z</time>
      </trkpt>
      <trkpt lat="46.67082" lon="5.92823">
        <ele>839.2</ele>
        <time>2022-03-22T14:04:34Z</time>
      </trkpt>
      <trkpt lat="46.67078" lon="5.92827">
        <ele>837.5</ele>
        <time>2022-03-22T14:04:43Z</time>
      </trkpt>
      <trkpt lat="46.67074" lon="5.92831">
        <ele>837.4</ele>
        <time>2022-03-22T14:04:48Z</time>
      </trkpt>
      <trkpt lat="46.67069" lon="5.92832">
        <ele>838.2</ele>
        <time>2022-03-22T14:04:55Z</time>
      </trkpt>
      <trkpt lat="46.67067" lon="5.92839">
        <ele>836.5</ele>
        <time>2022-03-22T14:05:10Z</time>
      </trkpt>
      <trkpt lat="46.67063" lon="5.92843">
        <ele>835.8</ele>
        <time>2022-03-22T14:05:19Z</time>
      </trkpt>
      <trkpt lat="46.67058" lon="5.92845">
        <ele>836.4</ele>
        <time>2022-03-22T14:05:23Z</time>
      </trkpt>
      <trkpt lat="46.67057" lon="5.92852">
        <ele>837.8</ele>
        <time>2022-03-22T14:05:30Z</time>
      </trkpt>
      <trkpt lat="46.67056" lon="5.92858">
        <ele>836.9</ele>
        <time>2022-03-22T14:05:35Z</time>
      </trkpt>
      <trkpt lat="46.67052" lon="5.92864">
        <ele>835.8</ele>
        <time>2022-03-22T14:05:40Z</time>
      </trkpt>
      <trkpt lat="46.67052" lon="5.92871">
        <ele>834.5</ele>
        <time>2022-03-22T14:05:47Z</time>
      </trkpt>
      <trkpt lat="46.67051" lon="5.92878">
        <ele>835.1</ele>
        <time>2022-03-22T14:05:51Z</time>
      </trkpt>
      <trkpt lat="46.6705" lon="5.92885">
        <ele>836.6</ele>
        <time>2022-03-22T14:05:56Z</time>
      </trkpt>
      <trkpt lat="46.6705" lon="5.92892">
        <ele>839.1</ele>
        <time>2022-03-22T14:06:05Z</time>
      </trkpt>
      <trkpt lat="46.6705" lon="5.92899">
        <ele>839.3</ele>
        <time>2022-03-22T14:06:10Z</time>
      </trkpt>
      <trkpt lat="46.67047" lon="5.92905">
        <ele>839.7</ele>
        <time>2022-03-22T14:06:14Z</time>
      </trkpt>
      <trkpt lat="46.67044" lon="5.92911">
        <ele>840.4</ele>
        <time>2022-03-22T14:06:18Z</time>
      </trkpt>
      <trkpt lat="46.6704" lon="5.92915">
        <ele>841.7</ele>
        <time>2022-03-22T14:06:23Z</time>
      </trkpt>
      <trkpt lat="46.67037" lon="5.92919">
        <ele>842.8</ele>
        <time>2022-03-22T14:06:28Z</time>
      </trkpt>
      <trkpt lat="46.67032" lon="5.92922">
        <ele>844.1</ele>
        <time>2022-03-22T14:06:33Z</time>
      </trkpt>
      <trkpt lat="46.67026" lon="5.92925">
        <ele>844.8</ele>
        <time>2022-03-22T14:06:38Z</time>
      </trkpt>
      <trkpt lat="46.67022" lon="5.92928">
        <ele>846.2</ele>
        <time>2022-03-22T14:06:44Z</time>
      </trkpt>
      <trkpt lat="46.67018" lon="5.92931">
        <ele>847.3</ele>
        <time>2022-03-22T14:06:49Z</time>
      </trkpt>
      <trkpt lat="46.67012" lon="5.92933">
        <ele>847.7</ele>
        <time>2022-03-22T14:06:54Z</time>
      </trkpt>
      <trkpt lat="46.67008" lon="5.92933">
        <ele>847.3</ele>
        <time>2022-03-22T14:07:00Z</time>
      </trkpt>
      <trkpt lat="46.67003" lon="5.92933">
        <ele>846.6</ele>
        <time>2022-03-22T14:07:06Z</time>
      </trkpt>
      <trkpt lat="46.66999" lon="5.92929">
        <ele>846.3</ele>
        <time>2022-03-22T14:07:12Z</time>
      </trkpt>
      <trkpt lat="46.66995" lon="5.92922">
        <ele>846.9</ele>
        <time>2022-03-22T14:07:17Z</time>
      </trkpt>
      <trkpt lat="46.66993" lon="5.92915">
        <ele>848.2</ele>
        <time>2022-03-22T14:07:21Z</time>
      </trkpt>
      <trkpt lat="46.66989" lon="5.92911">
        <ele>849.9</ele>
        <time>2022-03-22T14:07:26Z</time>
      </trkpt>
      <trkpt lat="46.66985" lon="5.92908">
        <ele>851.3</ele>
        <time>2022-03-22T14:07:33Z</time>
      </trkpt>
      <trkpt lat="46.6698" lon="5.92909">
        <ele>851.1</ele>
        <time>2022-03-22T14:07:43Z</time>
      </trkpt>
      <trkpt lat="46.66975" lon="5.92912">
        <ele>850.5</ele>
        <time>2022-03-22T14:07:46Z</time>
      </trkpt>
      <trkpt lat="46.66971" lon="5.92916">
        <ele>849.7</ele>
        <time>2022-03-22T14:07:50Z</time>
      </trkpt>
      <trkpt lat="46.66968" lon="5.92921">
        <ele>848.7</ele>
        <time>2022-03-22T14:07:55Z</time>
      </trkpt>
      <trkpt lat="46.66964" lon="5.92924">
        <ele>847.4</ele>
        <time>2022-03-22T14:08:01Z</time>
      </trkpt>
      <trkpt lat="46.66959" lon="5.92927">
        <ele>846.3</ele>
        <time>2022-03-22T14:08:06Z</time>
      </trkpt>
      <trkpt lat="46.66954" lon="5.92928">
        <ele>844.9</ele>
        <time>2022-03-22T14:08:12Z</time>
      </trkpt>
      <trkpt lat="46.6695" lon="5.92932">
        <ele>843.1</ele>
        <time>2022-03-22T14:08:19Z</time>
      </trkpt>
      <trkpt lat="46.66945" lon="5.92935">
        <ele>841.7</ele>
        <time>2022-03-22T14:08:24Z</time>
      </trkpt>
      <trkpt lat="46.6694" lon="5.92936">
        <ele>841</ele>
        <time>2022-03-22T14:08:28Z</time>
      </trkpt>
      <trkpt lat="46.66935" lon="5.92938">
        <ele>840.5</ele>
        <time>2022-03-22T14:08:33Z</time>
      </trkpt>
      <trkpt lat="46.66931" lon="5.9294">
        <ele>840.1</ele>
        <time>2022-03-22T14:08:40Z</time>
      </trkpt>
      <trkpt lat="46.66927" lon="5.92943">
        <ele>839.4</ele>
        <time>2022-03-22T14:08:49Z</time>
      </trkpt>
      <trkpt lat="46.66922" lon="5.92942">
        <ele>839.3</ele>
        <time>2022-03-22T14:08:54Z</time>
      </trkpt>
      <trkpt lat="46.66917" lon="5.92941">
        <ele>839.1</ele>
        <time>2022-03-22T14:08:59Z</time>
      </trkpt>
      <trkpt lat="46.66913" lon="5.9294">
        <ele>838.2</ele>
        <time>2022-03-22T14:09:04Z</time>
      </trkpt>
      <trkpt lat="46.66908" lon="5.92937">
        <ele>837.1</ele>
        <time>2022-03-22T14:09:08Z</time>
      </trkpt>
      <trkpt lat="46.66903" lon="5.92938">
        <ele>835.2</ele>
        <time>2022-03-22T14:09:15Z</time>
      </trkpt>
      <trkpt lat="46.66898" lon="5.92937">
        <ele>834.3</ele>
        <time>2022-03-22T14:09:21Z</time>
      </trkpt>
      <trkpt lat="46.66893" lon="5.92937">
        <ele>834.1</ele>
        <time>2022-03-22T14:09:26Z</time>
      </trkpt>
      <trkpt lat="46.66889" lon="5.92936">
        <ele>834.5</ele>
        <time>2022-03-22T14:09:30Z</time>
      </trkpt>
      <trkpt lat="46.66885" lon="5.92932">
        <ele>835.7</ele>
        <time>2022-03-22T14:09:37Z</time>
      </trkpt>
      <trkpt lat="46.6688" lon="5.92928">
        <ele>836</ele>
        <time>2022-03-22T14:09:50Z</time>
      </trkpt>
      <trkpt lat="46.66877" lon="5.92923">
        <ele>835.1</ele>
        <time>2022-03-22T14:09:53Z</time>
      </trkpt>
      <trkpt lat="46.66876" lon="5.92916">
        <ele>833.4</ele>
        <time>2022-03-22T14:09:57Z</time>
      </trkpt>
      <trkpt lat="46.66874" lon="5.92909">
        <ele>831.5</ele>
        <time>2022-03-22T14:10:01Z</time>
      </trkpt>
      <trkpt lat="46.66871" lon="5.92903">
        <ele>829</ele>
        <time>2022-03-22T14:10:05Z</time>
      </trkpt>
      <trkpt lat="46.66866" lon="5.92899">
        <ele>825.5</ele>
        <time>2022-03-22T14:10:10Z</time>
      </trkpt>
      <trkpt lat="46.66861" lon="5.92897">
        <ele>820.1</ele>
        <time>2022-03-22T14:10:21Z</time>
      </trkpt>
      <trkpt lat="46.66856" lon="5.92897">
        <ele>819.5</ele>
        <time>2022-03-22T14:10:24Z</time>
      </trkpt>
      <trkpt lat="46.66852" lon="5.92895">
        <ele>818.8</ele>
        <time>2022-03-22T14:10:29Z</time>
      </trkpt>
      <trkpt lat="46.66849" lon="5.9289">
        <ele>818.4</ele>
        <time>2022-03-22T14:10:36Z</time>
      </trkpt>
      <trkpt lat="46.66846" lon="5.92883">
        <ele>817.7</ele>
        <time>2022-03-22T14:10:43Z</time>
      </trkpt>
      <trkpt lat="46.66841" lon="5.92882">
        <ele>817.3</ele>
        <time>2022-03-22T14:10:46Z</time>
      </trkpt>
      <trkpt lat="46.66835" lon="5.92883">
        <ele>816.9</ele>
        <time>2022-03-22T14:10:50Z</time>
      </trkpt>
      <trkpt lat="46.66831" lon="5.92883">
        <ele>817</ele>
        <time>2022-03-22T14:10:53Z</time>
      </trkpt>
      <trkpt lat="46.66825" lon="5.92881">
        <ele>817.2</ele>
        <time>2022-03-22T14:10:58Z</time>
      </trkpt>
      <trkpt lat="46.6682" lon="5.92881">
        <ele>816.9</ele>
        <time>2022-03-22T14:11:04Z</time>
      </trkpt>
      <trkpt lat="46.66817" lon="5.92877">
        <ele>814.7</ele>
        <time>2022-03-22T14:11:11Z</time>
      </trkpt>
      <trkpt lat="46.66813" lon="5.92872">
        <ele>813.4</ele>
        <time>2022-03-22T14:11:17Z</time>
      </trkpt>
      <trkpt lat="46.66808" lon="5.9287">
        <ele>813.8</ele>
        <time>2022-03-22T14:11:20Z</time>
      </trkpt>
      <trkpt lat="46.66803" lon="5.92868">
        <ele>815</ele>
        <time>2022-03-22T14:11:23Z</time>
      </trkpt>
      <trkpt lat="46.66798" lon="5.92869">
        <ele>816.8</ele>
        <time>2022-03-22T14:11:28Z</time>
      </trkpt>
      <trkpt lat="46.66793" lon="5.92869">
        <ele>818.4</ele>
        <time>2022-03-22T14:11:33Z</time>
      </trkpt>
      <trkpt lat="46.66788" lon="5.92868">
        <ele>819.1</ele>
        <time>2022-03-22T14:11:41Z</time>
      </trkpt>
      <trkpt lat="46.66784" lon="5.9287">
        <ele>819.6</ele>
        <time>2022-03-22T14:11:47Z</time>
      </trkpt>
      <trkpt lat="46.66781" lon="5.92876">
        <ele>823.6</ele>
        <time>2022-03-22T14:12:03Z</time>
      </trkpt>
      <trkpt lat="46.66775" lon="5.92878">
        <ele>824.5</ele>
        <time>2022-03-22T14:12:09Z</time>
      </trkpt>
      <trkpt lat="46.6677" lon="5.92878">
        <ele>824</ele>
        <time>2022-03-22T14:12:14Z</time>
      </trkpt>
      <trkpt lat="46.66766" lon="5.92874">
        <ele>824.2</ele>
        <time>2022-03-22T14:12:19Z</time>
      </trkpt>
      <trkpt lat="46.66762" lon="5.9287">
        <ele>825</ele>
        <time>2022-03-22T14:12:27Z</time>
      </trkpt>
      <trkpt lat="46.66759" lon="5.92865">
        <ele>826.7</ele>
        <time>2022-03-22T14:12:33Z</time>
      </trkpt>
      <trkpt lat="46.66756" lon="5.92859">
        <ele>828</ele>
        <time>2022-03-22T14:12:38Z</time>
      </trkpt>
      <trkpt lat="46.6675" lon="5.92857">
        <ele>829.2</ele>
        <time>2022-03-22T14:12:47Z</time>
      </trkpt>
      <trkpt lat="46.66746" lon="5.92859">
        <ele>830.2</ele>
        <time>2022-03-22T14:12:52Z</time>
      </trkpt>
      <trkpt lat="46.66745" lon="5.92866">
        <ele>830.4</ele>
        <time>2022-03-22T14:12:57Z</time>
      </trkpt>
      <trkpt lat="46.66746" lon="5.92874">
        <ele>830.7</ele>
        <time>2022-03-22T14:13:02Z</time>
      </trkpt>
      <trkpt lat="46.66747" lon="5.9288">
        <ele>831.2</ele>
        <time>2022-03-22T14:13:07Z</time>
      </trkpt>
      <trkpt lat="46.6675" lon="5.92885">
        <ele>830.9</ele>
        <time>2022-03-22T14:13:12Z</time>
      </trkpt>
      <trkpt lat="46.66752" lon="5.92891">
        <ele>831.7</ele>
        <time>2022-03-22T14:13:19Z</time>
      </trkpt>
      <trkpt lat="46.6675" lon="5.92898">
        <ele>832.1</ele>
        <time>2022-03-22T14:13:28Z</time>
      </trkpt>
      <trkpt lat="46.66751" lon="5.92904">
        <ele>831.9</ele>
        <time>2022-03-22T14:13:39Z</time>
      </trkpt>
      <trkpt lat="46.66753" lon="5.92911">
        <ele>832.1</ele>
        <time>2022-03-22T14:13:46Z</time>
      </trkpt>
      <trkpt lat="46.66751" lon="5.92917">
        <ele>833.5</ele>
        <time>2022-03-22T14:13:55Z</time>
      </trkpt>
      <trkpt lat="46.66749" lon="5.92923">
        <ele>833.3</ele>
        <time>2022-03-22T14:14:01Z</time>
      </trkpt>
      <trkpt lat="46.66745" lon="5.92928">
        <ele>832.7</ele>
        <time>2022-03-22T14:14:07Z</time>
      </trkpt>
      <trkpt lat="46.66741" lon="5.92931">
        <ele>832.8</ele>
        <time>2022-03-22T14:14:16Z</time>
      </trkpt>
      <trkpt lat="46.66736" lon="5.92932">
        <ele>832.9</ele>
        <time>2022-03-22T14:14:27Z</time>
      </trkpt>
      <trkpt lat="46.66731" lon="5.92937">
        <ele>832.6</ele>
        <time>2022-03-22T14:14:42Z</time>
      </trkpt>
      <trkpt lat="46.66727" lon="5.92942">
        <ele>832.3</ele>
        <time>2022-03-22T14:14:47Z</time>
      </trkpt>
      <trkpt lat="46.66728" lon="5.92948">
        <ele>832.7</ele>
        <time>2022-03-22T14:14:56Z</time>
      </trkpt>
      <trkpt lat="46.66733" lon="5.92951">
        <ele>834.8</ele>
        <time>2022-03-22T14:15:08Z</time>
      </trkpt>
      <trkpt lat="46.6673" lon="5.92943">
        <ele>841.9</ele>
        <time>2022-03-22T14:16:04Z</time>
      </trkpt>
      <trkpt lat="46.66725" lon="5.92942">
        <ele>841.2</ele>
        <time>2022-03-22T14:16:08Z</time>
      </trkpt>
      <trkpt lat="46.6673" lon="5.92941">
        <ele>839.9</ele>
        <time>2022-03-22T14:16:31Z</time>
      </trkpt>
      <trkpt lat="46.66737" lon="5.9294">
        <ele>841</ele>
        <time>2022-03-22T14:17:02Z</time>
      </trkpt>
      <trkpt lat="46.66742" lon="5.92942">
        <ele>842.6</ele>
        <time>2022-03-22T14:17:06Z</time>
      </trkpt>
      <trkpt lat="46.66737" lon="5.92945">
        <ele>841.3</ele>
        <time>2022-03-22T14:19:13Z</time>
      </trkpt>
      <trkpt lat="46.66733" lon="5.92946">
        <ele>838.1</ele>
        <time>2022-03-22T14:19:16Z</time>
      </trkpt>
      <trkpt lat="46.66728" lon="5.9295">
        <ele>834.9</ele>
        <time>2022-03-22T14:19:20Z</time>
      </trkpt>
      <trkpt lat="46.66723" lon="5.92951">
        <ele>833.2</ele>
        <time>2022-03-22T14:19:24Z</time>
      </trkpt>
      <trkpt lat="46.66718" lon="5.92953">
        <ele>831.8</ele>
        <time>2022-03-22T14:19:29Z</time>
      </trkpt>
      <trkpt lat="46.66713" lon="5.92957">
        <ele>830.6</ele>
        <time>2022-03-22T14:19:34Z</time>
      </trkpt>
      <trkpt lat="46.66708" lon="5.92958">
        <ele>829.8</ele>
        <time>2022-03-22T14:19:38Z</time>
      </trkpt>
      <trkpt lat="46.66702" lon="5.9296">
        <ele>829.3</ele>
        <time>2022-03-22T14:19:42Z</time>
      </trkpt>
      <trkpt lat="46.66698" lon="5.9296">
        <ele>829.2</ele>
        <time>2022-03-22T14:19:47Z</time>
      </trkpt>
      <trkpt lat="46.66692" lon="5.92962">
        <ele>829.4</ele>
        <time>2022-03-22T14:19:54Z</time>
      </trkpt>
      <trkpt lat="46.66688" lon="5.92966">
        <ele>829.1</ele>
        <time>2022-03-22T14:20:01Z</time>
      </trkpt>
      <trkpt lat="46.66684" lon="5.92971">
        <ele>827.6</ele>
        <time>2022-03-22T14:20:11Z</time>
      </trkpt>
      <trkpt lat="46.6668" lon="5.92973">
        <ele>827.3</ele>
        <time>2022-03-22T14:20:15Z</time>
      </trkpt>
      <trkpt lat="46.66674" lon="5.92976">
        <ele>827.5</ele>
        <time>2022-03-22T14:20:19Z</time>
      </trkpt>
      <trkpt lat="46.6667" lon="5.92979">
        <ele>828</ele>
        <time>2022-03-22T14:20:26Z</time>
      </trkpt>
      <trkpt lat="46.66665" lon="5.9298">
        <ele>828.5</ele>
        <time>2022-03-22T14:20:30Z</time>
      </trkpt>
      <trkpt lat="46.6666" lon="5.92983">
        <ele>829.3</ele>
        <time>2022-03-22T14:20:34Z</time>
      </trkpt>
      <trkpt lat="46.66657" lon="5.92988">
        <ele>830</ele>
        <time>2022-03-22T14:20:38Z</time>
      </trkpt>
      <trkpt lat="46.66656" lon="5.92995">
        <ele>830.4</ele>
        <time>2022-03-22T14:20:44Z</time>
      </trkpt>
      <trkpt lat="46.66655" lon="5.93002">
        <ele>830.4</ele>
        <time>2022-03-22T14:20:51Z</time>
      </trkpt>
      <trkpt lat="46.6665" lon="5.93005">
        <ele>829.5</ele>
        <time>2022-03-22T14:21:02Z</time>
      </trkpt>
      <trkpt lat="46.66645" lon="5.93005">
        <ele>828.6</ele>
        <time>2022-03-22T14:21:06Z</time>
      </trkpt>
      <trkpt lat="46.6664" lon="5.93009">
        <ele>827.8</ele>
        <time>2022-03-22T14:21:10Z</time>
      </trkpt>
      <trkpt lat="46.66636" lon="5.93013">
        <ele>826.8</ele>
        <time>2022-03-22T14:21:15Z</time>
      </trkpt>
      <trkpt lat="46.66633" lon="5.93018">
        <ele>826.2</ele>
        <time>2022-03-22T14:21:19Z</time>
      </trkpt>
      <trkpt lat="46.66628" lon="5.93022">
        <ele>825.8</ele>
        <time>2022-03-22T14:21:23Z</time>
      </trkpt>
      <trkpt lat="46.66625" lon="5.93026">
        <ele>825.1</ele>
        <time>2022-03-22T14:21:30Z</time>
      </trkpt>
      <trkpt lat="46.66621" lon="5.93031">
        <ele>824.9</ele>
        <time>2022-03-22T14:21:35Z</time>
      </trkpt>
      <trkpt lat="46.66617" lon="5.93035">
        <ele>824.8</ele>
        <time>2022-03-22T14:21:39Z</time>
      </trkpt>
      <trkpt lat="46.66614" lon="5.93042">
        <ele>824.8</ele>
        <time>2022-03-22T14:21:44Z</time>
      </trkpt>
      <trkpt lat="46.66612" lon="5.93049">
        <ele>824</ele>
        <time>2022-03-22T14:21:50Z</time>
      </trkpt>
      <trkpt lat="46.6661" lon="5.93054">
        <ele>823.3</ele>
        <time>2022-03-22T14:21:56Z</time>
      </trkpt>
      <trkpt lat="46.66605" lon="5.93056">
        <ele>822.9</ele>
        <time>2022-03-22T14:22:01Z</time>
      </trkpt>
      <trkpt lat="46.66601" lon="5.93054">
        <ele>822.6</ele>
        <time>2022-03-22T14:22:06Z</time>
      </trkpt>
      <trkpt lat="46.66595" lon="5.93052">
        <ele>821.8</ele>
        <time>2022-03-22T14:22:11Z</time>
      </trkpt>
      <trkpt lat="46.6659" lon="5.9305">
        <ele>821.6</ele>
        <time>2022-03-22T14:22:15Z</time>
      </trkpt>
      <trkpt lat="46.66585" lon="5.9305">
        <ele>821.7</ele>
        <time>2022-03-22T14:22:20Z</time>
      </trkpt>
      <trkpt lat="46.66581" lon="5.93053">
        <ele>821.9</ele>
        <time>2022-03-22T14:22:27Z</time>
      </trkpt>
      <trkpt lat="46.66576" lon="5.93056">
        <ele>821.8</ele>
        <time>2022-03-22T14:22:32Z</time>
      </trkpt>
      <trkpt lat="46.66573" lon="5.93061">
        <ele>822.2</ele>
        <time>2022-03-22T14:22:38Z</time>
      </trkpt>
      <trkpt lat="46.66568" lon="5.93062">
        <ele>823.3</ele>
        <time>2022-03-22T14:22:54Z</time>
      </trkpt>
      <trkpt lat="46.66563" lon="5.9306">
        <ele>823</ele>
        <time>2022-03-22T14:22:59Z</time>
      </trkpt>
      <trkpt lat="46.66558" lon="5.93061">
        <ele>822.1</ele>
        <time>2022-03-22T14:23:05Z</time>
      </trkpt>
      <trkpt lat="46.66554" lon="5.93063">
        <ele>821.4</ele>
        <time>2022-03-22T14:23:09Z</time>
      </trkpt>
      <trkpt lat="46.66549" lon="5.93065">
        <ele>820.5</ele>
        <time>2022-03-22T14:23:13Z</time>
      </trkpt>
      <trkpt lat="46.66544" lon="5.93066">
        <ele>819</ele>
        <time>2022-03-22T14:23:20Z</time>
      </trkpt>
      <trkpt lat="46.66539" lon="5.93069">
        <ele>818.2</ele>
        <time>2022-03-22T14:23:24Z</time>
      </trkpt>
      <trkpt lat="46.66535" lon="5.93071">
        <ele>817.9</ele>
        <time>2022-03-22T14:23:29Z</time>
      </trkpt>
      <trkpt lat="46.66529" lon="5.93075">
        <ele>818.1</ele>
        <time>2022-03-22T14:23:42Z</time>
      </trkpt>
      <trkpt lat="46.66525" lon="5.93077">
        <ele>818.2</ele>
        <time>2022-03-22T14:23:47Z</time>
      </trkpt>
      <trkpt lat="46.66519" lon="5.9308">
        <ele>818</ele>
        <time>2022-03-22T14:23:53Z</time>
      </trkpt>
      <trkpt lat="46.66514" lon="5.93082">
        <ele>818.2</ele>
        <time>2022-03-22T14:23:57Z</time>
      </trkpt>
      <trkpt lat="46.6651" lon="5.93087">
        <ele>817.8</ele>
        <time>2022-03-22T14:24:04Z</time>
      </trkpt>
      <trkpt lat="46.66507" lon="5.93093">
        <ele>817.6</ele>
        <time>2022-03-22T14:24:11Z</time>
      </trkpt>
      <trkpt lat="46.66505" lon="5.93101">
        <ele>817.7</ele>
        <time>2022-03-22T14:24:15Z</time>
      </trkpt>
      <trkpt lat="46.66505" lon="5.93108">
        <ele>817.7</ele>
        <time>2022-03-22T14:24:19Z</time>
      </trkpt>
      <trkpt lat="46.66506" lon="5.93114">
        <ele>817.4</ele>
        <time>2022-03-22T14:24:23Z</time>
      </trkpt>
      <trkpt lat="46.66507" lon="5.93122">
        <ele>817.3</ele>
        <time>2022-03-22T14:24:28Z</time>
      </trkpt>
      <trkpt lat="46.66506" lon="5.93129">
        <ele>817.9</ele>
        <time>2022-03-22T14:24:35Z</time>
      </trkpt>
      <trkpt lat="46.66502" lon="5.93134">
        <ele>817.7</ele>
        <time>2022-03-22T14:24:41Z</time>
      </trkpt>
      <trkpt lat="46.66497" lon="5.93137">
        <ele>817.3</ele>
        <time>2022-03-22T14:24:46Z</time>
      </trkpt>
      <trkpt lat="46.66493" lon="5.93139">
        <ele>817.3</ele>
        <time>2022-03-22T14:24:52Z</time>
      </trkpt>
      <trkpt lat="46.66488" lon="5.93139">
        <ele>817.3</ele>
        <time>2022-03-22T14:24:57Z</time>
      </trkpt>
      <trkpt lat="46.66484" lon="5.93135">
        <ele>815.8</ele>
        <time>2022-03-22T14:25:04Z</time>
      </trkpt>
      <trkpt lat="46.66479" lon="5.93135">
        <ele>814.7</ele>
        <time>2022-03-22T14:25:08Z</time>
      </trkpt>
      <trkpt lat="46.66474" lon="5.93136">
        <ele>813.3</ele>
        <time>2022-03-22T14:25:13Z</time>
      </trkpt>
      <trkpt lat="46.6647" lon="5.93138">
        <ele>812.4</ele>
        <time>2022-03-22T14:25:18Z</time>
      </trkpt>
      <trkpt lat="46.66465" lon="5.93139">
        <ele>811.9</ele>
        <time>2022-03-22T14:25:24Z</time>
      </trkpt>
      <trkpt lat="46.6646" lon="5.9314">
        <ele>812.2</ele>
        <time>2022-03-22T14:25:29Z</time>
      </trkpt>
      <trkpt lat="46.66456" lon="5.93142">
        <ele>812.5</ele>
        <time>2022-03-22T14:25:34Z</time>
      </trkpt>
      <trkpt lat="46.66451" lon="5.9314">
        <ele>813</ele>
        <time>2022-03-22T14:25:41Z</time>
      </trkpt>
      <trkpt lat="46.66447" lon="5.9314">
        <ele>813.7</ele>
        <time>2022-03-22T14:26:03Z</time>
      </trkpt>
      <trkpt lat="46.66442" lon="5.93143">
        <ele>812.7</ele>
        <time>2022-03-22T14:26:08Z</time>
      </trkpt>
      <trkpt lat="46.66438" lon="5.93145">
        <ele>811.7</ele>
        <time>2022-03-22T14:26:14Z</time>
      </trkpt>
      <trkpt lat="46.66438" lon="5.93152">
        <ele>808.9</ele>
        <time>2022-03-22T14:26:34Z</time>
      </trkpt>
      <trkpt lat="46.66433" lon="5.93154">
        <ele>808.4</ele>
        <time>2022-03-22T14:26:40Z</time>
      </trkpt>
      <trkpt lat="46.66429" lon="5.93153">
        <ele>807.8</ele>
        <time>2022-03-22T14:26:46Z</time>
      </trkpt>
      <trkpt lat="46.66424" lon="5.93156">
        <ele>806.9</ele>
        <time>2022-03-22T14:26:52Z</time>
      </trkpt>
      <trkpt lat="46.6642" lon="5.93158">
        <ele>806.4</ele>
        <time>2022-03-22T14:26:56Z</time>
      </trkpt>
      <trkpt lat="46.66415" lon="5.9316">
        <ele>805.5</ele>
        <time>2022-03-22T14:27:02Z</time>
      </trkpt>
      <trkpt lat="46.6641" lon="5.93162">
        <ele>805</ele>
        <time>2022-03-22T14:27:07Z</time>
      </trkpt>
      <trkpt lat="46.66406" lon="5.93165">
        <ele>804.5</ele>
        <time>2022-03-22T14:27:12Z</time>
      </trkpt>
      <trkpt lat="46.66402" lon="5.93161">
        <ele>803.2</ele>
        <time>2022-03-22T14:27:20Z</time>
      </trkpt>
      <trkpt lat="46.66398" lon="5.93159">
        <ele>802.7</ele>
        <time>2022-03-22T14:27:26Z</time>
      </trkpt>
      <trkpt lat="46.66392" lon="5.93161">
        <ele>802.1</ele>
        <time>2022-03-22T14:27:31Z</time>
      </trkpt>
      <trkpt lat="46.66388" lon="5.9316">
        <ele>801.5</ele>
        <time>2022-03-22T14:27:36Z</time>
      </trkpt>
      <trkpt lat="46.66382" lon="5.93162">
        <ele>800.8</ele>
        <time>2022-03-22T14:27:40Z</time>
      </trkpt>
      <trkpt lat="46.66377" lon="5.93164">
        <ele>800.1</ele>
        <time>2022-03-22T14:27:43Z</time>
      </trkpt>
      <trkpt lat="46.66372" lon="5.93166">
        <ele>799.6</ele>
        <time>2022-03-22T14:27:46Z</time>
      </trkpt>
      <trkpt lat="46.66367" lon="5.93167">
        <ele>799.4</ele>
        <time>2022-03-22T14:27:51Z</time>
      </trkpt>
      <trkpt lat="46.66367" lon="5.93175">
        <ele>799.7</ele>
        <time>2022-03-22T14:27:56Z</time>
      </trkpt>
      <trkpt lat="46.6637" lon="5.93181">
        <ele>799</ele>
        <time>2022-03-22T14:28:00Z</time>
      </trkpt>
      <trkpt lat="46.66374" lon="5.93185">
        <ele>797.1</ele>
        <time>2022-03-22T14:28:04Z</time>
      </trkpt>
      <trkpt lat="46.66377" lon="5.93191">
        <ele>794.9</ele>
        <time>2022-03-22T14:28:09Z</time>
      </trkpt>
      <trkpt lat="46.66381" lon="5.93195">
        <ele>792.1</ele>
        <time>2022-03-22T14:28:19Z</time>
      </trkpt>
      <trkpt lat="46.66387" lon="5.93197">
        <ele>788.5</ele>
        <time>2022-03-22T14:28:48Z</time>
      </trkpt>
      <trkpt lat="46.66392" lon="5.93199">
        <ele>789.5</ele>
        <time>2022-03-22T14:28:53Z</time>
      </trkpt>
      <trkpt lat="46.66396" lon="5.93203">
        <ele>790.3</ele>
        <time>2022-03-22T14:28:58Z</time>
      </trkpt>
      <trkpt lat="46.66401" lon="5.93205">
        <ele>791.1</ele>
        <time>2022-03-22T14:29:03Z</time>
      </trkpt>
      <trkpt lat="46.66405" lon="5.93208">
        <ele>792.7</ele>
        <time>2022-03-22T14:29:09Z</time>
      </trkpt>
      <trkpt lat="46.66409" lon="5.93213">
        <ele>793.7</ele>
        <time>2022-03-22T14:29:14Z</time>
      </trkpt>
      <trkpt lat="46.66413" lon="5.93217">
        <ele>794.7</ele>
        <time>2022-03-22T14:29:19Z</time>
      </trkpt>
      <trkpt lat="46.66417" lon="5.9322">
        <ele>795.5</ele>
        <time>2022-03-22T14:29:24Z</time>
      </trkpt>
      <trkpt lat="46.6642" lon="5.93225">
        <ele>796</ele>
        <time>2022-03-22T14:29:30Z</time>
      </trkpt>
      <trkpt lat="46.66424" lon="5.93231">
        <ele>795.9</ele>
        <time>2022-03-22T14:29:36Z</time>
      </trkpt>
      <trkpt lat="46.66424" lon="5.93238">
        <ele>795.3</ele>
        <time>2022-03-22T14:29:41Z</time>
      </trkpt>
      <trkpt lat="46.66428" lon="5.93241">
        <ele>794.8</ele>
        <time>2022-03-22T14:29:46Z</time>
      </trkpt>
      <trkpt lat="46.66433" lon="5.93245">
        <ele>794.7</ele>
        <time>2022-03-22T14:29:51Z</time>
      </trkpt>
      <trkpt lat="46.66439" lon="5.93247">
        <ele>794.4</ele>
        <time>2022-03-22T14:29:55Z</time>
      </trkpt>
      <trkpt lat="46.66444" lon="5.93249">
        <ele>794.1</ele>
        <time>2022-03-22T14:29:59Z</time>
      </trkpt>
      <trkpt lat="46.66448" lon="5.93253">
        <ele>793.4</ele>
        <time>2022-03-22T14:30:04Z</time>
      </trkpt>
      <trkpt lat="46.66453" lon="5.93252">
        <ele>792.9</ele>
        <time>2022-03-22T14:30:08Z</time>
      </trkpt>
      <trkpt lat="46.66458" lon="5.93253">
        <ele>792.3</ele>
        <time>2022-03-22T14:30:12Z</time>
      </trkpt>
      <trkpt lat="46.66462" lon="5.93255">
        <ele>792.2</ele>
        <time>2022-03-22T14:30:15Z</time>
      </trkpt>
      <trkpt lat="46.66467" lon="5.93258">
        <ele>792.1</ele>
        <time>2022-03-22T14:30:18Z</time>
      </trkpt>
      <trkpt lat="46.66471" lon="5.93261">
        <ele>792</ele>
        <time>2022-03-22T14:30:22Z</time>
      </trkpt>
      <trkpt lat="46.66476" lon="5.93263">
        <ele>792.5</ele>
        <time>2022-03-22T14:30:27Z</time>
      </trkpt>
      <trkpt lat="46.66481" lon="5.93264">
        <ele>793</ele>
        <time>2022-03-22T14:30:31Z</time>
      </trkpt>
      <trkpt lat="46.66485" lon="5.93266">
        <ele>793.6</ele>
        <time>2022-03-22T14:30:38Z</time>
      </trkpt>
      <trkpt lat="46.66489" lon="5.93271">
        <ele>793.4</ele>
        <time>2022-03-22T14:30:48Z</time>
      </trkpt>
      <trkpt lat="46.66494" lon="5.93273">
        <ele>792.4</ele>
        <time>2022-03-22T14:30:53Z</time>
      </trkpt>
      <trkpt lat="46.66499" lon="5.93275">
        <ele>791.6</ele>
        <time>2022-03-22T14:30:56Z</time>
      </trkpt>
      <trkpt lat="46.66504" lon="5.93276">
        <ele>790.9</ele>
        <time>2022-03-22T14:30:59Z</time>
      </trkpt>
      <trkpt lat="46.66509" lon="5.93279">
        <ele>790.2</ele>
        <time>2022-03-22T14:31:03Z</time>
      </trkpt>
      <trkpt lat="46.66513" lon="5.9328">
        <ele>790.1</ele>
        <time>2022-03-22T14:31:07Z</time>
      </trkpt>
      <trkpt lat="46.66518" lon="5.93282">
        <ele>789.8</ele>
        <time>2022-03-22T14:31:12Z</time>
      </trkpt>
      <trkpt lat="46.66522" lon="5.93284">
        <ele>789.9</ele>
        <time>2022-03-22T14:31:17Z</time>
      </trkpt>
      <trkpt lat="46.66527" lon="5.93287">
        <ele>789.9</ele>
        <time>2022-03-22T14:31:21Z</time>
      </trkpt>
      <trkpt lat="46.66531" lon="5.9329">
        <ele>789.6</ele>
        <time>2022-03-22T14:31:24Z</time>
      </trkpt>
      <trkpt lat="46.66537" lon="5.93293">
        <ele>789.2</ele>
        <time>2022-03-22T14:31:28Z</time>
      </trkpt>
      <trkpt lat="46.66541" lon="5.93296">
        <ele>787.4</ele>
        <time>2022-03-22T14:31:33Z</time>
      </trkpt>
      <trkpt lat="46.66546" lon="5.93296">
        <ele>785.9</ele>
        <time>2022-03-22T14:31:38Z</time>
      </trkpt>
      <trkpt lat="46.6655" lon="5.933">
        <ele>783.7</ele>
        <time>2022-03-22T14:31:44Z</time>
      </trkpt>
      <trkpt lat="46.66554" lon="5.93305">
        <ele>782.6</ele>
        <time>2022-03-22T14:31:49Z</time>
      </trkpt>
      <trkpt lat="46.66556" lon="5.93312">
        <ele>782.7</ele>
        <time>2022-03-22T14:31:54Z</time>
      </trkpt>
      <trkpt lat="46.66559" lon="5.93317">
        <ele>783.3</ele>
        <time>2022-03-22T14:31:59Z</time>
      </trkpt>
      <trkpt lat="46.66563" lon="5.93321">
        <ele>783.9</ele>
        <time>2022-03-22T14:32:03Z</time>
      </trkpt>
      <trkpt lat="46.66566" lon="5.93327">
        <ele>784.7</ele>
        <time>2022-03-22T14:32:08Z</time>
      </trkpt>
      <trkpt lat="46.66569" lon="5.93333">
        <ele>785.5</ele>
        <time>2022-03-22T14:32:12Z</time>
      </trkpt>
      <trkpt lat="46.66571" lon="5.93339">
        <ele>786.9</ele>
        <time>2022-03-22T14:32:17Z</time>
      </trkpt>
      <trkpt lat="46.66576" lon="5.93342">
        <ele>787.8</ele>
        <time>2022-03-22T14:32:22Z</time>
      </trkpt>
      <trkpt lat="46.66577" lon="5.93348">
        <ele>787.9</ele>
        <time>2022-03-22T14:32:32Z</time>
      </trkpt>
      <trkpt lat="46.66575" lon="5.93354">
        <ele>787.5</ele>
        <time>2022-03-22T14:32:38Z</time>
      </trkpt>
      <trkpt lat="46.66573" lon="5.9336">
        <ele>787.3</ele>
        <time>2022-03-22T14:32:43Z</time>
      </trkpt>
      <trkpt lat="46.6657" lon="5.93366">
        <ele>786.3</ele>
        <time>2022-03-22T14:32:53Z</time>
      </trkpt>
      <trkpt lat="46.66567" lon="5.93371">
        <ele>785.2</ele>
        <time>2022-03-22T14:33:00Z</time>
      </trkpt>
      <trkpt lat="46.66563" lon="5.93375">
        <ele>784</ele>
        <time>2022-03-22T14:33:05Z</time>
      </trkpt>
      <trkpt lat="46.66558" lon="5.93377">
        <ele>782.7</ele>
        <time>2022-03-22T14:33:09Z</time>
      </trkpt>
      <trkpt lat="46.66554" lon="5.93379">
        <ele>781.5</ele>
        <time>2022-03-22T14:33:13Z</time>
      </trkpt>
      <trkpt lat="46.66549" lon="5.93381">
        <ele>780.5</ele>
        <time>2022-03-22T14:33:18Z</time>
      </trkpt>
      <trkpt lat="46.66545" lon="5.93386">
        <ele>779.3</ele>
        <time>2022-03-22T14:33:25Z</time>
      </trkpt>
      <trkpt lat="46.66542" lon="5.93391">
        <ele>778.4</ele>
        <time>2022-03-22T14:33:30Z</time>
      </trkpt>
      <trkpt lat="46.66537" lon="5.93394">
        <ele>776.9</ele>
        <time>2022-03-22T14:33:36Z</time>
      </trkpt>
      <trkpt lat="46.66533" lon="5.9339">
        <ele>775.4</ele>
        <time>2022-03-22T14:33:43Z</time>
      </trkpt>
      <trkpt lat="46.66529" lon="5.93392">
        <ele>774</ele>
        <time>2022-03-22T14:33:50Z</time>
      </trkpt>
      <trkpt lat="46.66525" lon="5.93395">
        <ele>772.6</ele>
        <time>2022-03-22T14:33:54Z</time>
      </trkpt>
      <trkpt lat="46.6652" lon="5.93397">
        <ele>771.2</ele>
        <time>2022-03-22T14:33:58Z</time>
      </trkpt>
      <trkpt lat="46.66514" lon="5.93397">
        <ele>769.9</ele>
        <time>2022-03-22T14:34:02Z</time>
      </trkpt>
      <trkpt lat="46.6651" lon="5.93399">
        <ele>769.1</ele>
        <time>2022-03-22T14:34:05Z</time>
      </trkpt>
      <trkpt lat="46.66506" lon="5.93403">
        <ele>767.6</ele>
        <time>2022-03-22T14:34:11Z</time>
      </trkpt>
      <trkpt lat="46.66503" lon="5.93408">
        <ele>767.3</ele>
        <time>2022-03-22T14:34:15Z</time>
      </trkpt>
      <trkpt lat="46.66502" lon="5.93416">
        <ele>766.2</ele>
        <time>2022-03-22T14:34:22Z</time>
      </trkpt>
      <trkpt lat="46.665" lon="5.93422">
        <ele>765.5</ele>
        <time>2022-03-22T14:34:28Z</time>
      </trkpt>
      <trkpt lat="46.66498" lon="5.93428">
        <ele>764.9</ele>
        <time>2022-03-22T14:34:33Z</time>
      </trkpt>
      <trkpt lat="46.66497" lon="5.93435">
        <ele>764.1</ele>
        <time>2022-03-22T14:34:39Z</time>
      </trkpt>
      <trkpt lat="46.66496" lon="5.93441">
        <ele>763.9</ele>
        <time>2022-03-22T14:34:45Z</time>
      </trkpt>
      <trkpt lat="46.66493" lon="5.93448">
        <ele>763.1</ele>
        <time>2022-03-22T14:34:48Z</time>
      </trkpt>
      <trkpt lat="46.66494" lon="5.93455">
        <ele>760.7</ele>
        <time>2022-03-22T14:34:54Z</time>
      </trkpt>
      <trkpt lat="46.66498" lon="5.93459">
        <ele>759.9</ele>
        <time>2022-03-22T14:35:02Z</time>
      </trkpt>
      <trkpt lat="46.66498" lon="5.93466">
        <ele>760</ele>
        <time>2022-03-22T14:35:09Z</time>
      </trkpt>
      <trkpt lat="46.66501" lon="5.93471">
        <ele>759.1</ele>
        <time>2022-03-22T14:35:14Z</time>
      </trkpt>
      <trkpt lat="46.66506" lon="5.93474">
        <ele>757.8</ele>
        <time>2022-03-22T14:35:20Z</time>
      </trkpt>
      <trkpt lat="46.6651" lon="5.93479">
        <ele>756.3</ele>
        <time>2022-03-22T14:35:28Z</time>
      </trkpt>
      <trkpt lat="46.6651" lon="5.93488">
        <ele>755.5</ele>
        <time>2022-03-22T14:35:32Z</time>
      </trkpt>
      <trkpt lat="46.66512" lon="5.93495">
        <ele>754.8</ele>
        <time>2022-03-22T14:35:37Z</time>
      </trkpt>
      <trkpt lat="46.66514" lon="5.93502">
        <ele>755</ele>
        <time>2022-03-22T14:35:41Z</time>
      </trkpt>
      <trkpt lat="46.66515" lon="5.93509">
        <ele>755.2</ele>
        <time>2022-03-22T14:35:45Z</time>
      </trkpt>
      <trkpt lat="46.66515" lon="5.93517">
        <ele>755.2</ele>
        <time>2022-03-22T14:35:50Z</time>
      </trkpt>
      <trkpt lat="46.66518" lon="5.93523">
        <ele>755.2</ele>
        <time>2022-03-22T14:35:57Z</time>
      </trkpt>
      <trkpt lat="46.66522" lon="5.93528">
        <ele>755.8</ele>
        <time>2022-03-22T14:36:03Z</time>
      </trkpt>
      <trkpt lat="46.66527" lon="5.93531">
        <ele>756.4</ele>
        <time>2022-03-22T14:36:07Z</time>
      </trkpt>
      <trkpt lat="46.66532" lon="5.93534">
        <ele>757.4</ele>
        <time>2022-03-22T14:36:11Z</time>
      </trkpt>
      <trkpt lat="46.66537" lon="5.93536">
        <ele>758.4</ele>
        <time>2022-03-22T14:36:15Z</time>
      </trkpt>
      <trkpt lat="46.66541" lon="5.93538">
        <ele>759</ele>
        <time>2022-03-22T14:36:19Z</time>
      </trkpt>
      <trkpt lat="46.66545" lon="5.9354">
        <ele>759.9</ele>
        <time>2022-03-22T14:36:23Z</time>
      </trkpt>
      <trkpt lat="46.6655" lon="5.93544">
        <ele>760</ele>
        <time>2022-03-22T14:36:28Z</time>
      </trkpt>
      <trkpt lat="46.66554" lon="5.93546">
        <ele>759.5</ele>
        <time>2022-03-22T14:36:32Z</time>
      </trkpt>
      <trkpt lat="46.66559" lon="5.9355">
        <ele>758.6</ele>
        <time>2022-03-22T14:36:38Z</time>
      </trkpt>
      <trkpt lat="46.66563" lon="5.93554">
        <ele>757.6</ele>
        <time>2022-03-22T14:36:44Z</time>
      </trkpt>
      <trkpt lat="46.66563" lon="5.93561">
        <ele>755.4</ele>
        <time>2022-03-22T14:36:54Z</time>
      </trkpt>
      <trkpt lat="46.66559" lon="5.93565">
        <ele>754.6</ele>
        <time>2022-03-22T14:36:57Z</time>
      </trkpt>
      <trkpt lat="46.66555" lon="5.93571">
        <ele>754</ele>
        <time>2022-03-22T14:37:01Z</time>
      </trkpt>
      <trkpt lat="46.66551" lon="5.93577">
        <ele>753.9</ele>
        <time>2022-03-22T14:37:05Z</time>
      </trkpt>
      <trkpt lat="46.66548" lon="5.93582">
        <ele>753.9</ele>
        <time>2022-03-22T14:37:13Z</time>
      </trkpt>
      <trkpt lat="46.66543" lon="5.93585">
        <ele>753.8</ele>
        <time>2022-03-22T14:37:21Z</time>
      </trkpt>
      <trkpt lat="46.66538" lon="5.93586">
        <ele>753.3</ele>
        <time>2022-03-22T14:37:31Z</time>
      </trkpt>
      <trkpt lat="46.66533" lon="5.93585">
        <ele>752.8</ele>
        <time>2022-03-22T14:37:38Z</time>
      </trkpt>
      <trkpt lat="46.66528" lon="5.93587">
        <ele>752.5</ele>
        <time>2022-03-22T14:37:43Z</time>
      </trkpt>
      <trkpt lat="46.66524" lon="5.93591">
        <ele>752.3</ele>
        <time>2022-03-22T14:37:50Z</time>
      </trkpt>
      <trkpt lat="46.66521" lon="5.93597">
        <ele>751.4</ele>
        <time>2022-03-22T14:37:58Z</time>
      </trkpt>
      <trkpt lat="46.66518" lon="5.93603">
        <ele>750.8</ele>
        <time>2022-03-22T14:38:02Z</time>
      </trkpt>
      <trkpt lat="46.66514" lon="5.93608">
        <ele>750.3</ele>
        <time>2022-03-22T14:38:06Z</time>
      </trkpt>
      <trkpt lat="46.66511" lon="5.93613">
        <ele>749.6</ele>
        <time>2022-03-22T14:38:12Z</time>
      </trkpt>
      <trkpt lat="46.66507" lon="5.93617">
        <ele>749.6</ele>
        <time>2022-03-22T14:38:18Z</time>
      </trkpt>
      <trkpt lat="46.66503" lon="5.93623">
        <ele>749.7</ele>
        <time>2022-03-22T14:38:22Z</time>
      </trkpt>
      <trkpt lat="46.66499" lon="5.93629">
        <ele>750</ele>
        <time>2022-03-22T14:38:26Z</time>
      </trkpt>
      <trkpt lat="46.66496" lon="5.93634">
        <ele>750.3</ele>
        <time>2022-03-22T14:38:30Z</time>
      </trkpt>
      <trkpt lat="46.66493" lon="5.9364">
        <ele>750.6</ele>
        <time>2022-03-22T14:38:33Z</time>
      </trkpt>
      <trkpt lat="46.6649" lon="5.93645">
        <ele>750.8</ele>
        <time>2022-03-22T14:38:36Z</time>
      </trkpt>
      <trkpt lat="46.66487" lon="5.9365">
        <ele>751</ele>
        <time>2022-03-22T14:38:39Z</time>
      </trkpt>
      <trkpt lat="46.66485" lon="5.93657">
        <ele>751.3</ele>
        <time>2022-03-22T14:38:45Z</time>
      </trkpt>
      <trkpt lat="46.66479" lon="5.93656">
        <ele>750.6</ele>
        <time>2022-03-22T14:39:11Z</time>
      </trkpt>
      <trkpt lat="46.66475" lon="5.93654">
        <ele>749.1</ele>
        <time>2022-03-22T14:39:17Z</time>
      </trkpt>
      <trkpt lat="46.66469" lon="5.93653">
        <ele>747.1</ele>
        <time>2022-03-22T14:39:26Z</time>
      </trkpt>
      <trkpt lat="46.66464" lon="5.93654">
        <ele>746.6</ele>
        <time>2022-03-22T14:39:29Z</time>
      </trkpt>
      <trkpt lat="46.66459" lon="5.93654">
        <ele>745.8</ele>
        <time>2022-03-22T14:39:34Z</time>
      </trkpt>
      <trkpt lat="46.66454" lon="5.93655">
        <ele>745.1</ele>
        <time>2022-03-22T14:39:38Z</time>
      </trkpt>
      <trkpt lat="46.66449" lon="5.93655">
        <ele>744.7</ele>
        <time>2022-03-22T14:39:41Z</time>
      </trkpt>
      <trkpt lat="46.66445" lon="5.93653">
        <ele>744.6</ele>
        <time>2022-03-22T14:39:44Z</time>
      </trkpt>
      <trkpt lat="46.6644" lon="5.93649">
        <ele>744.1</ele>
        <time>2022-03-22T14:39:51Z</time>
      </trkpt>
      <trkpt lat="46.66436" lon="5.93648">
        <ele>743.6</ele>
        <time>2022-03-22T14:39:56Z</time>
      </trkpt>
      <trkpt lat="46.66431" lon="5.93648">
        <ele>743.2</ele>
        <time>2022-03-22T14:40:00Z</time>
      </trkpt>
      <trkpt lat="46.66426" lon="5.93649">
        <ele>743.3</ele>
        <time>2022-03-22T14:40:05Z</time>
      </trkpt>
      <trkpt lat="46.6642" lon="5.93651">
        <ele>743.5</ele>
        <time>2022-03-22T14:40:10Z</time>
      </trkpt>
      <trkpt lat="46.66416" lon="5.93648">
        <ele>744.2</ele>
        <time>2022-03-22T14:40:16Z</time>
      </trkpt>
      <trkpt lat="46.66412" lon="5.93652">
        <ele>746.3</ele>
        <time>2022-03-22T14:40:22Z</time>
      </trkpt>
      <trkpt lat="46.66408" lon="5.93654">
        <ele>747.8</ele>
        <time>2022-03-22T14:40:27Z</time>
      </trkpt>
      <trkpt lat="46.66403" lon="5.93654">
        <ele>749.1</ele>
        <time>2022-03-22T14:40:31Z</time>
      </trkpt>
      <trkpt lat="46.66398" lon="5.93654">
        <ele>750.7</ele>
        <time>2022-03-22T14:40:36Z</time>
      </trkpt>
      <trkpt lat="46.66393" lon="5.93653">
        <ele>752.2</ele>
        <time>2022-03-22T14:40:42Z</time>
      </trkpt>
      <trkpt lat="46.66389" lon="5.93654">
        <ele>753.1</ele>
        <time>2022-03-22T14:40:46Z</time>
      </trkpt>
      <trkpt lat="46.66384" lon="5.93657">
        <ele>753.4</ele>
        <time>2022-03-22T14:40:52Z</time>
      </trkpt>
      <trkpt lat="46.66379" lon="5.9366">
        <ele>753.3</ele>
        <time>2022-03-22T14:40:56Z</time>
      </trkpt>
      <trkpt lat="46.66374" lon="5.9366">
        <ele>752.6</ele>
        <time>2022-03-22T14:41:00Z</time>
      </trkpt>
      <trkpt lat="46.66369" lon="5.93659">
        <ele>751.9</ele>
        <time>2022-03-22T14:41:03Z</time>
      </trkpt>
      <trkpt lat="46.66364" lon="5.93658">
        <ele>751.2</ele>
        <time>2022-03-22T14:41:06Z</time>
      </trkpt>
      <trkpt lat="46.6636" lon="5.93656">
        <ele>750.5</ele>
        <time>2022-03-22T14:41:10Z</time>
      </trkpt>
      <trkpt lat="46.66354" lon="5.93654">
        <ele>750</ele>
        <time>2022-03-22T14:41:15Z</time>
      </trkpt>
      <trkpt lat="46.66349" lon="5.93653">
        <ele>750.2</ele>
        <time>2022-03-22T14:41:19Z</time>
      </trkpt>
      <trkpt lat="46.66346" lon="5.93659">
        <ele>749.9</ele>
        <time>2022-03-22T14:41:25Z</time>
      </trkpt>
      <trkpt lat="46.66342" lon="5.93662">
        <ele>749</ele>
        <time>2022-03-22T14:41:29Z</time>
      </trkpt>
      <trkpt lat="46.66337" lon="5.93663">
        <ele>748</ele>
        <time>2022-03-22T14:41:35Z</time>
      </trkpt>
      <trkpt lat="46.66332" lon="5.93665">
        <ele>746.1</ele>
        <time>2022-03-22T14:41:41Z</time>
      </trkpt>
      <trkpt lat="46.66327" lon="5.93666">
        <ele>744.8</ele>
        <time>2022-03-22T14:41:46Z</time>
      </trkpt>
      <trkpt lat="46.66323" lon="5.9367">
        <ele>743.4</ele>
        <time>2022-03-22T14:41:53Z</time>
      </trkpt>
      <trkpt lat="46.66318" lon="5.93672">
        <ele>742.5</ele>
        <time>2022-03-22T14:41:58Z</time>
      </trkpt>
      <trkpt lat="46.66313" lon="5.93677">
        <ele>741.5</ele>
        <time>2022-03-22T14:42:02Z</time>
      </trkpt>
      <trkpt lat="46.6631" lon="5.93686">
        <ele>740</ele>
        <time>2022-03-22T14:42:05Z</time>
      </trkpt>
      <trkpt lat="46.66307" lon="5.93691">
        <ele>738.3</ele>
        <time>2022-03-22T14:42:09Z</time>
      </trkpt>
      <trkpt lat="46.66302" lon="5.9369">
        <ele>735.7</ele>
        <time>2022-03-22T14:42:17Z</time>
      </trkpt>
      <trkpt lat="46.66297" lon="5.93688">
        <ele>735.3</ele>
        <time>2022-03-22T14:42:22Z</time>
      </trkpt>
      <trkpt lat="46.66292" lon="5.93688">
        <ele>735.6</ele>
        <time>2022-03-22T14:42:26Z</time>
      </trkpt>
      <trkpt lat="46.66286" lon="5.93687">
        <ele>736.2</ele>
        <time>2022-03-22T14:42:30Z</time>
      </trkpt>
      <trkpt lat="46.66282" lon="5.93686">
        <ele>736.5</ele>
        <time>2022-03-22T14:42:33Z</time>
      </trkpt>
      <trkpt lat="46.66276" lon="5.93688">
        <ele>737.3</ele>
        <time>2022-03-22T14:42:37Z</time>
      </trkpt>
      <trkpt lat="46.66271" lon="5.93689">
        <ele>738.5</ele>
        <time>2022-03-22T14:42:42Z</time>
      </trkpt>
      <trkpt lat="46.66267" lon="5.93692">
        <ele>739.9</ele>
        <time>2022-03-22T14:42:47Z</time>
      </trkpt>
      <trkpt lat="46.66262" lon="5.93697">
        <ele>741.7</ele>
        <time>2022-03-22T14:42:52Z</time>
      </trkpt>
      <trkpt lat="46.66259" lon="5.93704">
        <ele>745.1</ele>
        <time>2022-03-22T14:43:00Z</time>
      </trkpt>
      <trkpt lat="46.66256" lon="5.9371">
        <ele>746.2</ele>
        <time>2022-03-22T14:43:04Z</time>
      </trkpt>
      <trkpt lat="46.66254" lon="5.93716">
        <ele>747.1</ele>
        <time>2022-03-22T14:43:11Z</time>
      </trkpt>
      <trkpt lat="46.66251" lon="5.93722">
        <ele>748.9</ele>
        <time>2022-03-22T14:43:18Z</time>
      </trkpt>
      <trkpt lat="46.6625" lon="5.93729">
        <ele>753.7</ele>
        <time>2022-03-22T14:43:28Z</time>
      </trkpt>
      <trkpt lat="46.66249" lon="5.93737">
        <ele>756.1</ele>
        <time>2022-03-22T14:43:34Z</time>
      </trkpt>
      <trkpt lat="46.66251" lon="5.93743">
        <ele>757.2</ele>
        <time>2022-03-22T14:43:39Z</time>
      </trkpt>
      <trkpt lat="46.66255" lon="5.93749">
        <ele>757.5</ele>
        <time>2022-03-22T14:43:43Z</time>
      </trkpt>
      <trkpt lat="46.66258" lon="5.93754">
        <ele>757.6</ele>
        <time>2022-03-22T14:43:47Z</time>
      </trkpt>
      <trkpt lat="46.66258" lon="5.93761">
        <ele>757.5</ele>
        <time>2022-03-22T14:43:51Z</time>
      </trkpt>
      <trkpt lat="46.66255" lon="5.93767">
        <ele>756.8</ele>
        <time>2022-03-22T14:43:55Z</time>
      </trkpt>
      <trkpt lat="46.66251" lon="5.93771">
        <ele>753.9</ele>
        <time>2022-03-22T14:44:01Z</time>
      </trkpt>
      <trkpt lat="46.66249" lon="5.93777">
        <ele>752.3</ele>
        <time>2022-03-22T14:44:07Z</time>
      </trkpt>
      <trkpt lat="46.66245" lon="5.93781">
        <ele>752.7</ele>
        <time>2022-03-22T14:44:11Z</time>
      </trkpt>
      <trkpt lat="46.66241" lon="5.93784">
        <ele>753.8</ele>
        <time>2022-03-22T14:44:15Z</time>
      </trkpt>
      <trkpt lat="46.66236" lon="5.93787">
        <ele>754.6</ele>
        <time>2022-03-22T14:44:19Z</time>
      </trkpt>
      <trkpt lat="46.66231" lon="5.9379">
        <ele>755.2</ele>
        <time>2022-03-22T14:44:24Z</time>
      </trkpt>
      <trkpt lat="46.66227" lon="5.93793">
        <ele>755.6</ele>
        <time>2022-03-22T14:44:28Z</time>
      </trkpt>
      <trkpt lat="46.66222" lon="5.93795">
        <ele>756.1</ele>
        <time>2022-03-22T14:44:32Z</time>
      </trkpt>
      <trkpt lat="46.66217" lon="5.93797">
        <ele>757.5</ele>
        <time>2022-03-22T14:44:38Z</time>
      </trkpt>
      <trkpt lat="46.66212" lon="5.93799">
        <ele>761.2</ele>
        <time>2022-03-22T14:44:51Z</time>
      </trkpt>
      <trkpt lat="46.66208" lon="5.93802">
        <ele>761.9</ele>
        <time>2022-03-22T14:44:56Z</time>
      </trkpt>
      <trkpt lat="46.66204" lon="5.93806">
        <ele>762.1</ele>
        <time>2022-03-22T14:45:00Z</time>
      </trkpt>
      <trkpt lat="46.66198" lon="5.93809">
        <ele>762</ele>
        <time>2022-03-22T14:45:05Z</time>
      </trkpt>
      <trkpt lat="46.66194" lon="5.93813">
        <ele>761.8</ele>
        <time>2022-03-22T14:45:09Z</time>
      </trkpt>
      <trkpt lat="46.66192" lon="5.9382">
        <ele>761.7</ele>
        <time>2022-03-22T14:45:14Z</time>
      </trkpt>
      <trkpt lat="46.6619" lon="5.93828">
        <ele>762.1</ele>
        <time>2022-03-22T14:45:19Z</time>
      </trkpt>
      <trkpt lat="46.66189" lon="5.93834">
        <ele>762.5</ele>
        <time>2022-03-22T14:45:24Z</time>
      </trkpt>
      <trkpt lat="46.66187" lon="5.93841">
        <ele>762.8</ele>
        <time>2022-03-22T14:45:29Z</time>
      </trkpt>
      <trkpt lat="46.66189" lon="5.93848">
        <ele>763.1</ele>
        <time>2022-03-22T14:45:34Z</time>
      </trkpt>
      <trkpt lat="46.66192" lon="5.93853">
        <ele>763.6</ele>
        <time>2022-03-22T14:45:39Z</time>
      </trkpt>
      <trkpt lat="46.66195" lon="5.93859">
        <ele>763.8</ele>
        <time>2022-03-22T14:45:43Z</time>
      </trkpt>
      <trkpt lat="46.66195" lon="5.93866">
        <ele>763.9</ele>
        <time>2022-03-22T14:45:48Z</time>
      </trkpt>
      <trkpt lat="46.66195" lon="5.93873">
        <ele>764</ele>
        <time>2022-03-22T14:45:53Z</time>
      </trkpt>
      <trkpt lat="46.66192" lon="5.9388">
        <ele>763.8</ele>
        <time>2022-03-22T14:45:59Z</time>
      </trkpt>
      <trkpt lat="46.66189" lon="5.93886">
        <ele>762.9</ele>
        <time>2022-03-22T14:46:03Z</time>
      </trkpt>
      <trkpt lat="46.66184" lon="5.9389">
        <ele>761.8</ele>
        <time>2022-03-22T14:46:06Z</time>
      </trkpt>
      <trkpt lat="46.66179" lon="5.93895">
        <ele>760.4</ele>
        <time>2022-03-22T14:46:09Z</time>
      </trkpt>
      <trkpt lat="46.66174" lon="5.93898">
        <ele>758.8</ele>
        <time>2022-03-22T14:46:12Z</time>
      </trkpt>
      <trkpt lat="46.66169" lon="5.939">
        <ele>757.1</ele>
        <time>2022-03-22T14:46:16Z</time>
      </trkpt>
      <trkpt lat="46.66164" lon="5.93902">
        <ele>755.9</ele>
        <time>2022-03-22T14:46:19Z</time>
      </trkpt>
      <trkpt lat="46.66159" lon="5.93902">
        <ele>754.8</ele>
        <time>2022-03-22T14:46:22Z</time>
      </trkpt>
      <trkpt lat="46.66154" lon="5.93899">
        <ele>753.7</ele>
        <time>2022-03-22T14:46:26Z</time>
      </trkpt>
      <trkpt lat="46.66152" lon="5.93892">
        <ele>752.6</ele>
        <time>2022-03-22T14:46:32Z</time>
      </trkpt>
      <trkpt lat="46.66151" lon="5.93886">
        <ele>751.9</ele>
        <time>2022-03-22T14:46:36Z</time>
      </trkpt>
      <trkpt lat="46.66148" lon="5.9388">
        <ele>751.5</ele>
        <time>2022-03-22T14:46:40Z</time>
      </trkpt>
      <trkpt lat="46.66145" lon="5.93874">
        <ele>750.8</ele>
        <time>2022-03-22T14:46:46Z</time>
      </trkpt>
      <trkpt lat="46.66146" lon="5.93866">
        <ele>750.2</ele>
        <time>2022-03-22T14:46:51Z</time>
      </trkpt>
      <trkpt lat="46.66144" lon="5.93859">
        <ele>748.9</ele>
        <time>2022-03-22T14:46:56Z</time>
      </trkpt>
      <trkpt lat="46.66141" lon="5.93854">
        <ele>747.8</ele>
        <time>2022-03-22T14:47:00Z</time>
      </trkpt>
      <trkpt lat="46.66137" lon="5.93848">
        <ele>746.6</ele>
        <time>2022-03-22T14:47:06Z</time>
      </trkpt>
      <trkpt lat="46.66133" lon="5.93843">
        <ele>746.2</ele>
        <time>2022-03-22T14:47:10Z</time>
      </trkpt>
      <trkpt lat="46.6613" lon="5.93837">
        <ele>746.1</ele>
        <time>2022-03-22T14:47:15Z</time>
      </trkpt>
      <trkpt lat="46.66127" lon="5.93832">
        <ele>746.1</ele>
        <time>2022-03-22T14:47:20Z</time>
      </trkpt>
      <trkpt lat="46.66122" lon="5.93829">
        <ele>746</ele>
        <time>2022-03-22T14:47:26Z</time>
      </trkpt>
      <trkpt lat="46.66119" lon="5.93824">
        <ele>745.2</ele>
        <time>2022-03-22T14:47:33Z</time>
      </trkpt>
      <trkpt lat="46.66115" lon="5.93821">
        <ele>744.7</ele>
        <time>2022-03-22T14:47:41Z</time>
      </trkpt>
      <trkpt lat="46.66111" lon="5.93816">
        <ele>744.4</ele>
        <time>2022-03-22T14:47:47Z</time>
      </trkpt>
      <trkpt lat="46.66108" lon="5.93811">
        <ele>744.4</ele>
        <time>2022-03-22T14:47:54Z</time>
      </trkpt>
      <trkpt lat="46.66105" lon="5.93805">
        <ele>744.5</ele>
        <time>2022-03-22T14:48:00Z</time>
      </trkpt>
      <trkpt lat="46.661" lon="5.93805">
        <ele>744.9</ele>
        <time>2022-03-22T14:48:03Z</time>
      </trkpt>
      <trkpt lat="46.66096" lon="5.93805">
        <ele>745.4</ele>
        <time>2022-03-22T14:48:07Z</time>
      </trkpt>
      <trkpt lat="46.66091" lon="5.93803">
        <ele>746.6</ele>
        <time>2022-03-22T14:48:14Z</time>
      </trkpt>
      <trkpt lat="46.66088" lon="5.93798">
        <ele>747.6</ele>
        <time>2022-03-22T14:48:18Z</time>
      </trkpt>
      <trkpt lat="46.66093" lon="5.93796">
        <ele>755.6</ele>
        <time>2022-03-22T14:48:45Z</time>
      </trkpt>
      <trkpt lat="46.6609" lon="5.93803">
        <ele>752.5</ele>
        <time>2022-03-22T14:48:58Z</time>
      </trkpt>
      <trkpt lat="46.66089" lon="5.9381">
        <ele>751.5</ele>
        <time>2022-03-22T14:49:02Z</time>
      </trkpt>
      <trkpt lat="46.66084" lon="5.93811">
        <ele>748.9</ele>
        <time>2022-03-22T14:49:12Z</time>
      </trkpt>
      <trkpt lat="46.66081" lon="5.93805">
        <ele>748</ele>
        <time>2022-03-22T14:49:16Z</time>
      </trkpt>
      <trkpt lat="46.6608" lon="5.93799">
        <ele>747</ele>
        <time>2022-03-22T14:49:20Z</time>
      </trkpt>
      <trkpt lat="46.66077" lon="5.93793">
        <ele>746.3</ele>
        <time>2022-03-22T14:49:24Z</time>
      </trkpt>
      <trkpt lat="46.66073" lon="5.93788">
        <ele>745.3</ele>
        <time>2022-03-22T14:49:29Z</time>
      </trkpt>
      <trkpt lat="46.66068" lon="5.93784">
        <ele>743.8</ele>
        <time>2022-03-22T14:49:35Z</time>
      </trkpt>
      <trkpt lat="46.66063" lon="5.93782">
        <ele>742.9</ele>
        <time>2022-03-22T14:49:38Z</time>
      </trkpt>
      <trkpt lat="46.66058" lon="5.93779">
        <ele>741.8</ele>
        <time>2022-03-22T14:49:42Z</time>
      </trkpt>
      <trkpt lat="46.66053" lon="5.93777">
        <ele>741.2</ele>
        <time>2022-03-22T14:49:47Z</time>
      </trkpt>
      <trkpt lat="46.66049" lon="5.93772">
        <ele>741.4</ele>
        <time>2022-03-22T14:49:51Z</time>
      </trkpt>
      <trkpt lat="46.66046" lon="5.93767">
        <ele>741.3</ele>
        <time>2022-03-22T14:49:55Z</time>
      </trkpt>
      <trkpt lat="46.66041" lon="5.93764">
        <ele>740.7</ele>
        <time>2022-03-22T14:50:01Z</time>
      </trkpt>
      <trkpt lat="46.66036" lon="5.93764">
        <ele>740.2</ele>
        <time>2022-03-22T14:50:05Z</time>
      </trkpt>
      <trkpt lat="46.66032" lon="5.9376">
        <ele>739.5</ele>
        <time>2022-03-22T14:50:12Z</time>
      </trkpt>
      <trkpt lat="46.66027" lon="5.9376">
        <ele>737.7</ele>
        <time>2022-03-22T14:50:22Z</time>
      </trkpt>
      <trkpt lat="46.66025" lon="5.93755">
        <ele>736.6</ele>
        <time>2022-03-22T14:50:26Z</time>
      </trkpt>
      <trkpt lat="46.66019" lon="5.93753">
        <ele>736</ele>
        <time>2022-03-22T14:50:31Z</time>
      </trkpt>
      <trkpt lat="46.66014" lon="5.93752">
        <ele>736</ele>
        <time>2022-03-22T14:50:35Z</time>
      </trkpt>
      <trkpt lat="46.6601" lon="5.93751">
        <ele>736.4</ele>
        <time>2022-03-22T14:50:40Z</time>
      </trkpt>
      <trkpt lat="46.66006" lon="5.93747">
        <ele>737</ele>
        <time>2022-03-22T14:50:47Z</time>
      </trkpt>
      <trkpt lat="46.66002" lon="5.93742">
        <ele>737.7</ele>
        <time>2022-03-22T14:50:52Z</time>
      </trkpt>
      <trkpt lat="46.65997" lon="5.93739">
        <ele>738.5</ele>
        <time>2022-03-22T14:50:56Z</time>
      </trkpt>
      <trkpt lat="46.65992" lon="5.93736">
        <ele>739.1</ele>
        <time>2022-03-22T14:51:04Z</time>
      </trkpt>
      <trkpt lat="46.65987" lon="5.93735">
        <ele>739.1</ele>
        <time>2022-03-22T14:51:08Z</time>
      </trkpt>
      <trkpt lat="46.65983" lon="5.93733">
        <ele>739</ele>
        <time>2022-03-22T14:51:12Z</time>
      </trkpt>
      <trkpt lat="46.65977" lon="5.93734">
        <ele>739.2</ele>
        <time>2022-03-22T14:51:18Z</time>
      </trkpt>
      <trkpt lat="46.65972" lon="5.93734">
        <ele>739.4</ele>
        <time>2022-03-22T14:51:21Z</time>
      </trkpt>
      <trkpt lat="46.65968" lon="5.93734">
        <ele>739.6</ele>
        <time>2022-03-22T14:51:24Z</time>
      </trkpt>
      <trkpt lat="46.65963" lon="5.93731">
        <ele>739.8</ele>
        <time>2022-03-22T14:51:27Z</time>
      </trkpt>
      <trkpt lat="46.65958" lon="5.9373">
        <ele>739.9</ele>
        <time>2022-03-22T14:51:30Z</time>
      </trkpt>
      <trkpt lat="46.65953" lon="5.9373">
        <ele>740</ele>
        <time>2022-03-22T14:51:33Z</time>
      </trkpt>
      <trkpt lat="46.65948" lon="5.93731">
        <ele>740.4</ele>
        <time>2022-03-22T14:51:37Z</time>
      </trkpt>
      <trkpt lat="46.65943" lon="5.93732">
        <ele>740.4</ele>
        <time>2022-03-22T14:51:42Z</time>
      </trkpt>
      <trkpt lat="46.65938" lon="5.93733">
        <ele>739.8</ele>
        <time>2022-03-22T14:51:47Z</time>
      </trkpt>
      <trkpt lat="46.65933" lon="5.93736">
        <ele>739.6</ele>
        <time>2022-03-22T14:51:52Z</time>
      </trkpt>
      <trkpt lat="46.65928" lon="5.93738">
        <ele>739.6</ele>
        <time>2022-03-22T14:51:57Z</time>
      </trkpt>
      <trkpt lat="46.65925" lon="5.93744">
        <ele>739.2</ele>
        <time>2022-03-22T14:52:06Z</time>
      </trkpt>
      <trkpt lat="46.6592" lon="5.93745">
        <ele>739.4</ele>
        <time>2022-03-22T14:52:11Z</time>
      </trkpt>
      <trkpt lat="46.65915" lon="5.93747">
        <ele>739.7</ele>
        <time>2022-03-22T14:52:17Z</time>
      </trkpt>
      <trkpt lat="46.6591" lon="5.93748">
        <ele>740.4</ele>
        <time>2022-03-22T14:52:23Z</time>
      </trkpt>
      <trkpt lat="46.65905" lon="5.9375">
        <ele>741.5</ele>
        <time>2022-03-22T14:52:29Z</time>
      </trkpt>
      <trkpt lat="46.659" lon="5.93751">
        <ele>742.2</ele>
        <time>2022-03-22T14:52:32Z</time>
      </trkpt>
      <trkpt lat="46.65896" lon="5.93752">
        <ele>743.4</ele>
        <time>2022-03-22T14:52:37Z</time>
      </trkpt>
      <trkpt lat="46.6589" lon="5.93753">
        <ele>744.6</ele>
        <time>2022-03-22T14:52:42Z</time>
      </trkpt>
      <trkpt lat="46.65885" lon="5.93755">
        <ele>745.3</ele>
        <time>2022-03-22T14:52:46Z</time>
      </trkpt>
      <trkpt lat="46.6588" lon="5.93751">
        <ele>746.3</ele>
        <time>2022-03-22T14:52:53Z</time>
      </trkpt>
      <trkpt lat="46.65876" lon="5.93751">
        <ele>748</ele>
        <time>2022-03-22T14:53:01Z</time>
      </trkpt>
      <trkpt lat="46.65871" lon="5.93751">
        <ele>749.2</ele>
        <time>2022-03-22T14:53:06Z</time>
      </trkpt>
      <trkpt lat="46.65867" lon="5.93749">
        <ele>750.1</ele>
        <time>2022-03-22T14:53:10Z</time>
      </trkpt>
      <trkpt lat="46.65861" lon="5.93749">
        <ele>750.9</ele>
        <time>2022-03-22T14:53:15Z</time>
      </trkpt>
      <trkpt lat="46.65857" lon="5.93749">
        <ele>751.6</ele>
        <time>2022-03-22T14:53:24Z</time>
      </trkpt>
      <trkpt lat="46.65852" lon="5.93747">
        <ele>751.9</ele>
        <time>2022-03-22T14:53:29Z</time>
      </trkpt>
      <trkpt lat="46.65847" lon="5.93746">
        <ele>752.9</ele>
        <time>2022-03-22T14:53:36Z</time>
      </trkpt>
      <trkpt lat="46.65843" lon="5.93749">
        <ele>754</ele>
        <time>2022-03-22T14:53:41Z</time>
      </trkpt>
      <trkpt lat="46.65838" lon="5.93752">
        <ele>754.8</ele>
        <time>2022-03-22T14:53:45Z</time>
      </trkpt>
      <trkpt lat="46.65833" lon="5.93756">
        <ele>755.7</ele>
        <time>2022-03-22T14:53:49Z</time>
      </trkpt>
      <trkpt lat="46.65829" lon="5.9376">
        <ele>756.8</ele>
        <time>2022-03-22T14:53:55Z</time>
      </trkpt>
      <trkpt lat="46.65825" lon="5.93763">
        <ele>757.3</ele>
        <time>2022-03-22T14:54:00Z</time>
      </trkpt>
      <trkpt lat="46.6582" lon="5.93759">
        <ele>756.9</ele>
        <time>2022-03-22T14:54:08Z</time>
      </trkpt>
      <trkpt lat="46.65815" lon="5.93761">
        <ele>757</ele>
        <time>2022-03-22T14:54:12Z</time>
      </trkpt>
      <trkpt lat="46.6581" lon="5.93764">
        <ele>757.2</ele>
        <time>2022-03-22T14:54:16Z</time>
      </trkpt>
      <trkpt lat="46.65805" lon="5.93767">
        <ele>757.6</ele>
        <time>2022-03-22T14:54:20Z</time>
      </trkpt>
      <trkpt lat="46.658" lon="5.93767">
        <ele>758.8</ele>
        <time>2022-03-22T14:54:33Z</time>
      </trkpt>
      <trkpt lat="46.65795" lon="5.93769">
        <ele>759.4</ele>
        <time>2022-03-22T14:54:39Z</time>
      </trkpt>
      <trkpt lat="46.6579" lon="5.9377">
        <ele>759.8</ele>
        <time>2022-03-22T14:54:42Z</time>
      </trkpt>
      <trkpt lat="46.65784" lon="5.93773">
        <ele>760.2</ele>
        <time>2022-03-22T14:54:46Z</time>
      </trkpt>
      <trkpt lat="46.65778" lon="5.93776">
        <ele>760.5</ele>
        <time>2022-03-22T14:54:50Z</time>
      </trkpt>
      <trkpt lat="46.65774" lon="5.93777">
        <ele>760.7</ele>
        <time>2022-03-22T14:54:53Z</time>
      </trkpt>
      <trkpt lat="46.65769" lon="5.93777">
        <ele>761</ele>
        <time>2022-03-22T14:54:57Z</time>
      </trkpt>
      <trkpt lat="46.65764" lon="5.93775">
        <ele>761.1</ele>
        <time>2022-03-22T14:55:02Z</time>
      </trkpt>
      <trkpt lat="46.65759" lon="5.93776">
        <ele>761.1</ele>
        <time>2022-03-22T14:55:07Z</time>
      </trkpt>
      <trkpt lat="46.65755" lon="5.93775">
        <ele>761.2</ele>
        <time>2022-03-22T14:55:14Z</time>
      </trkpt>
      <trkpt lat="46.6575" lon="5.93775">
        <ele>761.6</ele>
        <time>2022-03-22T14:55:18Z</time>
      </trkpt>
      <trkpt lat="46.65746" lon="5.9378">
        <ele>761.9</ele>
        <time>2022-03-22T14:55:28Z</time>
      </trkpt>
      <trkpt lat="46.65741" lon="5.93783">
        <ele>762</ele>
        <time>2022-03-22T14:55:32Z</time>
      </trkpt>
      <trkpt lat="46.65736" lon="5.93786">
        <ele>762.3</ele>
        <time>2022-03-22T14:55:36Z</time>
      </trkpt>
      <trkpt lat="46.65731" lon="5.93786">
        <ele>763.3</ele>
        <time>2022-03-22T14:55:42Z</time>
      </trkpt>
      <trkpt lat="46.65726" lon="5.9379">
        <ele>765.6</ele>
        <time>2022-03-22T14:55:51Z</time>
      </trkpt>
      <trkpt lat="46.65721" lon="5.9379">
        <ele>767.6</ele>
        <time>2022-03-22T14:55:57Z</time>
      </trkpt>
      <trkpt lat="46.65717" lon="5.93795">
        <ele>767.8</ele>
        <time>2022-03-22T14:56:00Z</time>
      </trkpt>
      <trkpt lat="46.65712" lon="5.93797">
        <ele>767.9</ele>
        <time>2022-03-22T14:56:05Z</time>
      </trkpt>
      <trkpt lat="46.65707" lon="5.93799">
        <ele>767</ele>
        <time>2022-03-22T14:56:11Z</time>
      </trkpt>
      <trkpt lat="46.65702" lon="5.93798">
        <ele>766</ele>
        <time>2022-03-22T14:56:17Z</time>
      </trkpt>
      <trkpt lat="46.65697" lon="5.93797">
        <ele>765.5</ele>
        <time>2022-03-22T14:56:22Z</time>
      </trkpt>
      <trkpt lat="46.65693" lon="5.93795">
        <ele>765.4</ele>
        <time>2022-03-22T14:56:26Z</time>
      </trkpt>
      <trkpt lat="46.65688" lon="5.93793">
        <ele>765.2</ele>
        <time>2022-03-22T14:56:29Z</time>
      </trkpt>
      <trkpt lat="46.65682" lon="5.93792">
        <ele>765.2</ele>
        <time>2022-03-22T14:56:32Z</time>
      </trkpt>
      <trkpt lat="46.65674" lon="5.93792">
        <ele>765.1</ele>
        <time>2022-03-22T14:56:35Z</time>
      </trkpt>
      <trkpt lat="46.6567" lon="5.93791">
        <ele>765.6</ele>
        <time>2022-03-22T14:56:38Z</time>
      </trkpt>
      <trkpt lat="46.65665" lon="5.93789">
        <ele>766.4</ele>
        <time>2022-03-22T14:56:42Z</time>
      </trkpt>
      <trkpt lat="46.6566" lon="5.93792">
        <ele>767.3</ele>
        <time>2022-03-22T14:56:46Z</time>
      </trkpt>
      <trkpt lat="46.65656" lon="5.93796">
        <ele>768.1</ele>
        <time>2022-03-22T14:56:50Z</time>
      </trkpt>
      <trkpt lat="46.65652" lon="5.93802">
        <ele>768.7</ele>
        <time>2022-03-22T14:56:54Z</time>
      </trkpt>
      <trkpt lat="46.65648" lon="5.93807">
        <ele>768.5</ele>
        <time>2022-03-22T14:57:04Z</time>
      </trkpt>
      <trkpt lat="46.6565" lon="5.93814">
        <ele>767.4</ele>
        <time>2022-03-22T14:57:10Z</time>
      </trkpt>
      <trkpt lat="46.6565" lon="5.93821">
        <ele>766.4</ele>
        <time>2022-03-22T14:57:16Z</time>
      </trkpt>
      <trkpt lat="46.65652" lon="5.93828">
        <ele>765.6</ele>
        <time>2022-03-22T14:57:26Z</time>
      </trkpt>
      <trkpt lat="46.65651" lon="5.93835">
        <ele>764.6</ele>
        <time>2022-03-22T14:57:36Z</time>
      </trkpt>
      <trkpt lat="46.65649" lon="5.93842">
        <ele>763.6</ele>
        <time>2022-03-22T14:57:41Z</time>
      </trkpt>
      <trkpt lat="46.65647" lon="5.93849">
        <ele>762.7</ele>
        <time>2022-03-22T14:57:46Z</time>
      </trkpt>
      <trkpt lat="46.65645" lon="5.93856">
        <ele>761.9</ele>
        <time>2022-03-22T14:57:52Z</time>
      </trkpt>
      <trkpt lat="46.65641" lon="5.93862">
        <ele>761.8</ele>
        <time>2022-03-22T14:57:57Z</time>
      </trkpt>
      <trkpt lat="46.65637" lon="5.93866">
        <ele>762.2</ele>
        <time>2022-03-22T14:58:01Z</time>
      </trkpt>
      <trkpt lat="46.65634" lon="5.93872">
        <ele>763.4</ele>
        <time>2022-03-22T14:58:07Z</time>
      </trkpt>
      <trkpt lat="46.65629" lon="5.93875">
        <ele>763.7</ele>
        <time>2022-03-22T14:58:14Z</time>
      </trkpt>
      <trkpt lat="46.65626" lon="5.9388">
        <ele>763.5</ele>
        <time>2022-03-22T14:58:19Z</time>
      </trkpt>
      <trkpt lat="46.65625" lon="5.93887">
        <ele>762.6</ele>
        <time>2022-03-22T14:58:24Z</time>
      </trkpt>
      <trkpt lat="46.65625" lon="5.93894">
        <ele>761.7</ele>
        <time>2022-03-22T14:58:29Z</time>
      </trkpt>
      <trkpt lat="46.65627" lon="5.93901">
        <ele>760.6</ele>
        <time>2022-03-22T14:58:35Z</time>
      </trkpt>
      <trkpt lat="46.6563" lon="5.93906">
        <ele>759</ele>
        <time>2022-03-22T14:58:41Z</time>
      </trkpt>
      <trkpt lat="46.65632" lon="5.93913">
        <ele>757.5</ele>
        <time>2022-03-22T14:58:49Z</time>
      </trkpt>
      <trkpt lat="46.6563" lon="5.93919">
        <ele>756.5</ele>
        <time>2022-03-22T14:58:54Z</time>
      </trkpt>
      <trkpt lat="46.65628" lon="5.93926">
        <ele>754.6</ele>
        <time>2022-03-22T14:59:00Z</time>
      </trkpt>
      <trkpt lat="46.65626" lon="5.93932">
        <ele>751.9</ele>
        <time>2022-03-22T14:59:07Z</time>
      </trkpt>
      <trkpt lat="46.65626" lon="5.93925">
        <ele>749.4</ele>
        <time>2022-03-22T14:59:53Z</time>
      </trkpt>
      <trkpt lat="46.65621" lon="5.93923">
        <ele>748.9</ele>
        <time>2022-03-22T14:59:58Z</time>
      </trkpt>
      <trkpt lat="46.65617" lon="5.93922">
        <ele>748.6</ele>
        <time>2022-03-22T15:00:05Z</time>
      </trkpt>
      <trkpt lat="46.65613" lon="5.93916">
        <ele>747.8</ele>
        <time>2022-03-22T15:00:16Z</time>
      </trkpt>
      <trkpt lat="46.65609" lon="5.93914">
        <ele>746.6</ele>
        <time>2022-03-22T15:00:21Z</time>
      </trkpt>
      <trkpt lat="46.65605" lon="5.93911">
        <ele>743.8</ele>
        <time>2022-03-22T15:00:28Z</time>
      </trkpt>
      <trkpt lat="46.656" lon="5.93908">
        <ele>741.2</ele>
        <time>2022-03-22T15:00:35Z</time>
      </trkpt>
      <trkpt lat="46.65595" lon="5.93907">
        <ele>739.5</ele>
        <time>2022-03-22T15:00:41Z</time>
      </trkpt>
      <trkpt lat="46.65592" lon="5.93912">
        <ele>738.2</ele>
        <time>2022-03-22T15:00:51Z</time>
      </trkpt>
      <trkpt lat="46.65586" lon="5.93912">
        <ele>737.7</ele>
        <time>2022-03-22T15:00:56Z</time>
      </trkpt>
      <trkpt lat="46.65581" lon="5.93912">
        <ele>737.1</ele>
        <time>2022-03-22T15:01:01Z</time>
      </trkpt>
      <trkpt lat="46.65577" lon="5.93916">
        <ele>736.4</ele>
        <time>2022-03-22T15:01:10Z</time>
      </trkpt>
      <trkpt lat="46.65574" lon="5.93921">
        <ele>735.7</ele>
        <time>2022-03-22T15:01:16Z</time>
      </trkpt>
      <trkpt lat="46.6557" lon="5.93926">
        <ele>734.8</ele>
        <time>2022-03-22T15:01:26Z</time>
      </trkpt>
      <trkpt lat="46.65566" lon="5.93929">
        <ele>734.9</ele>
        <time>2022-03-22T15:01:31Z</time>
      </trkpt>
      <trkpt lat="46.65561" lon="5.93929">
        <ele>734.1</ele>
        <time>2022-03-22T15:01:37Z</time>
      </trkpt>
      <trkpt lat="46.65557" lon="5.93931">
        <ele>732.3</ele>
        <time>2022-03-22T15:01:44Z</time>
      </trkpt>
      <trkpt lat="46.65552" lon="5.93933">
        <ele>728.9</ele>
        <time>2022-03-22T15:01:53Z</time>
      </trkpt>
      <trkpt lat="46.65547" lon="5.93934">
        <ele>726.9</ele>
        <time>2022-03-22T15:01:59Z</time>
      </trkpt>
      <trkpt lat="46.65542" lon="5.93936">
        <ele>725.7</ele>
        <time>2022-03-22T15:02:04Z</time>
      </trkpt>
      <trkpt lat="46.65538" lon="5.93938">
        <ele>724.6</ele>
        <time>2022-03-22T15:02:11Z</time>
      </trkpt>
      <trkpt lat="46.65532" lon="5.93939">
        <ele>723.5</ele>
        <time>2022-03-22T15:02:16Z</time>
      </trkpt>
      <trkpt lat="46.65528" lon="5.93936">
        <ele>722.3</ele>
        <time>2022-03-22T15:02:22Z</time>
      </trkpt>
      <trkpt lat="46.65523" lon="5.93938">
        <ele>721.6</ele>
        <time>2022-03-22T15:02:28Z</time>
      </trkpt>
      <trkpt lat="46.65519" lon="5.93943">
        <ele>721</ele>
        <time>2022-03-22T15:02:33Z</time>
      </trkpt>
      <trkpt lat="46.65514" lon="5.93942">
        <ele>719.8</ele>
        <time>2022-03-22T15:02:42Z</time>
      </trkpt>
      <trkpt lat="46.65509" lon="5.93942">
        <ele>718.1</ele>
        <time>2022-03-22T15:02:49Z</time>
      </trkpt>
      <trkpt lat="46.65504" lon="5.93945">
        <ele>715.6</ele>
        <time>2022-03-22T15:02:58Z</time>
      </trkpt>
      <trkpt lat="46.655" lon="5.93947">
        <ele>714.2</ele>
        <time>2022-03-22T15:03:03Z</time>
      </trkpt>
      <trkpt lat="46.65495" lon="5.93951">
        <ele>713.8</ele>
        <time>2022-03-22T15:03:09Z</time>
      </trkpt>
      <trkpt lat="46.65491" lon="5.93954">
        <ele>713.8</ele>
        <time>2022-03-22T15:03:18Z</time>
      </trkpt>
      <trkpt lat="46.65486" lon="5.93957">
        <ele>713.4</ele>
        <time>2022-03-22T15:03:24Z</time>
      </trkpt>
      <trkpt lat="46.65482" lon="5.93957">
        <ele>713</ele>
        <time>2022-03-22T15:03:30Z</time>
      </trkpt>
      <trkpt lat="46.65477" lon="5.93956">
        <ele>713.5</ele>
        <time>2022-03-22T15:03:35Z</time>
      </trkpt>
      <trkpt lat="46.65473" lon="5.93952">
        <ele>713.5</ele>
        <time>2022-03-22T15:03:41Z</time>
      </trkpt>
      <trkpt lat="46.65469" lon="5.93952">
        <ele>712.8</ele>
        <time>2022-03-22T15:03:45Z</time>
      </trkpt>
      <trkpt lat="46.65464" lon="5.93955">
        <ele>711.9</ele>
        <time>2022-03-22T15:03:48Z</time>
      </trkpt>
      <trkpt lat="46.65459" lon="5.93956">
        <ele>710.8</ele>
        <time>2022-03-22T15:03:53Z</time>
      </trkpt>
      <trkpt lat="46.65454" lon="5.93958">
        <ele>710.2</ele>
        <time>2022-03-22T15:04:01Z</time>
      </trkpt>
      <trkpt lat="46.6545" lon="5.93963">
        <ele>710.1</ele>
        <time>2022-03-22T15:04:05Z</time>
      </trkpt>
      <trkpt lat="46.65447" lon="5.9397">
        <ele>710.2</ele>
        <time>2022-03-22T15:04:09Z</time>
      </trkpt>
      <trkpt lat="46.65445" lon="5.93977">
        <ele>710.2</ele>
        <time>2022-03-22T15:04:15Z</time>
      </trkpt>
      <trkpt lat="46.65447" lon="5.93983">
        <ele>709.7</ele>
        <time>2022-03-22T15:04:22Z</time>
      </trkpt>
      <trkpt lat="46.65446" lon="5.93991">
        <ele>710.4</ele>
        <time>2022-03-22T15:04:27Z</time>
      </trkpt>
      <trkpt lat="46.65444" lon="5.93998">
        <ele>710.4</ele>
        <time>2022-03-22T15:04:32Z</time>
      </trkpt>
    </trkseg>
  </trk>
</gpx>